<?xml version="1.0" encoding="UTF-8" standalone="no" ?>
<gpx xmlns="http://www.topografix.com/GPX/1/1" xmlns:xsi="http://www.w3.org/2001/XMLSchema-instance" xsi:schemaLocation="http://www.topografix.com/GPX/1/1 http://www.topografix.com/GPX/1/1/gpx.xsd" version="1.1" creator="VisuGPX - https://www.visugpx.com">
  <metadata>
    <name>maratrail de faverges</name>
    <desc><![CDATA[maratrail de faverges]]></desc>
  </metadata>
  <trk>
    <name><![CDATA[maratrail 2013]]></name>
    <trkseg>
      <trkpt lat="45.74754" lon="6.29301">
        <ele>522</ele>
        <time>2013-06-15T05:29:58Z</time>
      </trkpt>
      <trkpt lat="45.74749" lon="6.29302">
        <ele>522</ele>
        <time>2013-06-15T05:30:07Z</time>
      </trkpt>
      <trkpt lat="45.74742" lon="6.29301">
        <ele>522</ele>
        <time>2013-06-15T05:30:11Z</time>
      </trkpt>
      <trkpt lat="45.74734" lon="6.29299">
        <ele>522</ele>
        <time>2013-06-15T05:30:15Z</time>
      </trkpt>
      <trkpt lat="45.74726" lon="6.29297">
        <ele>522</ele>
        <time>2013-06-15T05:30:18Z</time>
      </trkpt>
      <trkpt lat="45.74719" lon="6.29295">
        <ele>522</ele>
        <time>2013-06-15T05:30:21Z</time>
      </trkpt>
      <trkpt lat="45.74708" lon="6.2929">
        <ele>522</ele>
        <time>2013-06-15T05:30:25Z</time>
      </trkpt>
      <trkpt lat="45.74701" lon="6.29286">
        <ele>522</ele>
        <time>2013-06-15T05:30:28Z</time>
      </trkpt>
      <trkpt lat="45.74701" lon="6.29271">
        <ele>522</ele>
        <time>2013-06-15T05:30:32Z</time>
      </trkpt>
      <trkpt lat="45.74704" lon="6.29258">
        <ele>522</ele>
        <time>2013-06-15T05:30:35Z</time>
      </trkpt>
      <trkpt lat="45.74709" lon="6.29245">
        <ele>522</ele>
        <time>2013-06-15T05:30:38Z</time>
      </trkpt>
      <trkpt lat="45.74715" lon="6.29235">
        <ele>522</ele>
        <time>2013-06-15T05:30:41Z</time>
      </trkpt>
      <trkpt lat="45.7472" lon="6.29223">
        <ele>522</ele>
        <time>2013-06-15T05:30:44Z</time>
      </trkpt>
      <trkpt lat="45.74725" lon="6.29212">
        <ele>522</ele>
        <time>2013-06-15T05:30:47Z</time>
      </trkpt>
      <trkpt lat="45.74729" lon="6.292">
        <ele>522</ele>
        <time>2013-06-15T05:30:50Z</time>
      </trkpt>
      <trkpt lat="45.74734" lon="6.29188">
        <ele>522</ele>
        <time>2013-06-15T05:30:53Z</time>
      </trkpt>
      <trkpt lat="45.74738" lon="6.29177">
        <ele>522</ele>
        <time>2013-06-15T05:30:56Z</time>
      </trkpt>
      <trkpt lat="45.74743" lon="6.29167">
        <ele>522</ele>
        <time>2013-06-15T05:30:59Z</time>
      </trkpt>
      <trkpt lat="45.74748" lon="6.29156">
        <ele>522</ele>
        <time>2013-06-15T05:31:02Z</time>
      </trkpt>
      <trkpt lat="45.74753" lon="6.29145">
        <ele>522</ele>
        <time>2013-06-15T05:31:05Z</time>
      </trkpt>
      <trkpt lat="45.74758" lon="6.29133">
        <ele>522</ele>
        <time>2013-06-15T05:31:08Z</time>
      </trkpt>
      <trkpt lat="45.74763" lon="6.29121">
        <ele>522</ele>
        <time>2013-06-15T05:31:11Z</time>
      </trkpt>
      <trkpt lat="45.74768" lon="6.29111">
        <ele>522</ele>
        <time>2013-06-15T05:31:14Z</time>
      </trkpt>
      <trkpt lat="45.74772" lon="6.291">
        <ele>522</ele>
        <time>2013-06-15T05:31:17Z</time>
      </trkpt>
      <trkpt lat="45.74777" lon="6.29087">
        <ele>522</ele>
        <time>2013-06-15T05:31:20Z</time>
      </trkpt>
      <trkpt lat="45.74782" lon="6.29075">
        <ele>522</ele>
        <time>2013-06-15T05:31:23Z</time>
      </trkpt>
      <trkpt lat="45.74786" lon="6.29063">
        <ele>522</ele>
        <time>2013-06-15T05:31:26Z</time>
      </trkpt>
      <trkpt lat="45.7479" lon="6.29051">
        <ele>522</ele>
        <time>2013-06-15T05:31:29Z</time>
      </trkpt>
      <trkpt lat="45.74792" lon="6.29036">
        <ele>522</ele>
        <time>2013-06-15T05:31:33Z</time>
      </trkpt>
      <trkpt lat="45.7479" lon="6.29024">
        <ele>522</ele>
        <time>2013-06-15T05:31:36Z</time>
      </trkpt>
      <trkpt lat="45.74785" lon="6.29013">
        <ele>522</ele>
        <time>2013-06-15T05:31:39Z</time>
      </trkpt>
      <trkpt lat="45.74782" lon="6.29001">
        <ele>522</ele>
        <time>2013-06-15T05:31:42Z</time>
      </trkpt>
      <trkpt lat="45.74777" lon="6.2899">
        <ele>522</ele>
        <time>2013-06-15T05:31:45Z</time>
      </trkpt>
      <trkpt lat="45.74772" lon="6.2898">
        <ele>522</ele>
        <time>2013-06-15T05:31:48Z</time>
      </trkpt>
      <trkpt lat="45.74768" lon="6.28969">
        <ele>522</ele>
        <time>2013-06-15T05:31:51Z</time>
      </trkpt>
      <trkpt lat="45.74763" lon="6.28957">
        <ele>522</ele>
        <time>2013-06-15T05:31:54Z</time>
      </trkpt>
      <trkpt lat="45.74759" lon="6.28945">
        <ele>522</ele>
        <time>2013-06-15T05:31:57Z</time>
      </trkpt>
      <trkpt lat="45.74756" lon="6.28934">
        <ele>522</ele>
        <time>2013-06-15T05:32:00Z</time>
      </trkpt>
      <trkpt lat="45.74751" lon="6.28922">
        <ele>522</ele>
        <time>2013-06-15T05:32:03Z</time>
      </trkpt>
      <trkpt lat="45.74747" lon="6.28911">
        <ele>522</ele>
        <time>2013-06-15T05:32:06Z</time>
      </trkpt>
      <trkpt lat="45.74743" lon="6.28899">
        <ele>522</ele>
        <time>2013-06-15T05:32:09Z</time>
      </trkpt>
      <trkpt lat="45.74739" lon="6.28888">
        <ele>522</ele>
        <time>2013-06-15T05:32:12Z</time>
      </trkpt>
      <trkpt lat="45.74735" lon="6.28876">
        <ele>522</ele>
        <time>2013-06-15T05:32:15Z</time>
      </trkpt>
      <trkpt lat="45.74731" lon="6.28863">
        <ele>522</ele>
        <time>2013-06-15T05:32:18Z</time>
      </trkpt>
      <trkpt lat="45.74728" lon="6.2885">
        <ele>522</ele>
        <time>2013-06-15T05:32:21Z</time>
      </trkpt>
      <trkpt lat="45.74724" lon="6.28838">
        <ele>522</ele>
        <time>2013-06-15T05:32:24Z</time>
      </trkpt>
      <trkpt lat="45.7472" lon="6.28824">
        <ele>522</ele>
        <time>2013-06-15T05:32:27Z</time>
      </trkpt>
      <trkpt lat="45.74715" lon="6.28812">
        <ele>522</ele>
        <time>2013-06-15T05:32:30Z</time>
      </trkpt>
      <trkpt lat="45.74712" lon="6.288">
        <ele>522</ele>
        <time>2013-06-15T05:32:33Z</time>
      </trkpt>
      <trkpt lat="45.74708" lon="6.28787">
        <ele>522</ele>
        <time>2013-06-15T05:32:36Z</time>
      </trkpt>
      <trkpt lat="45.74705" lon="6.28774">
        <ele>522</ele>
        <time>2013-06-15T05:32:39Z</time>
      </trkpt>
      <trkpt lat="45.74701" lon="6.28762">
        <ele>522</ele>
        <time>2013-06-15T05:32:42Z</time>
      </trkpt>
      <trkpt lat="45.74697" lon="6.2875">
        <ele>522</ele>
        <time>2013-06-15T05:32:45Z</time>
      </trkpt>
      <trkpt lat="45.74694" lon="6.28738">
        <ele>522</ele>
        <time>2013-06-15T05:32:48Z</time>
      </trkpt>
      <trkpt lat="45.7469" lon="6.28727">
        <ele>522</ele>
        <time>2013-06-15T05:32:51Z</time>
      </trkpt>
      <trkpt lat="45.74685" lon="6.28715">
        <ele>522</ele>
        <time>2013-06-15T05:32:54Z</time>
      </trkpt>
      <trkpt lat="45.74682" lon="6.28703">
        <ele>522</ele>
        <time>2013-06-15T05:32:57Z</time>
      </trkpt>
      <trkpt lat="45.74678" lon="6.2869">
        <ele>522</ele>
        <time>2013-06-15T05:33:00Z</time>
      </trkpt>
      <trkpt lat="45.74675" lon="6.28677">
        <ele>522</ele>
        <time>2013-06-15T05:33:03Z</time>
      </trkpt>
      <trkpt lat="45.74672" lon="6.28665">
        <ele>522</ele>
        <time>2013-06-15T05:33:06Z</time>
      </trkpt>
      <trkpt lat="45.74668" lon="6.28653">
        <ele>522</ele>
        <time>2013-06-15T05:33:09Z</time>
      </trkpt>
      <trkpt lat="45.74665" lon="6.28643">
        <ele>522</ele>
        <time>2013-06-15T05:33:12Z</time>
      </trkpt>
      <trkpt lat="45.74661" lon="6.28631">
        <ele>522</ele>
        <time>2013-06-15T05:33:15Z</time>
      </trkpt>
      <trkpt lat="45.74657" lon="6.28618">
        <ele>522</ele>
        <time>2013-06-15T05:33:18Z</time>
      </trkpt>
      <trkpt lat="45.74654" lon="6.28606">
        <ele>522</ele>
        <time>2013-06-15T05:33:21Z</time>
      </trkpt>
      <trkpt lat="45.7465" lon="6.28595">
        <ele>522</ele>
        <time>2013-06-15T05:33:24Z</time>
      </trkpt>
      <trkpt lat="45.74647" lon="6.28583">
        <ele>522</ele>
        <time>2013-06-15T05:33:27Z</time>
      </trkpt>
      <trkpt lat="45.74643" lon="6.28571">
        <ele>522</ele>
        <time>2013-06-15T05:33:30Z</time>
      </trkpt>
      <trkpt lat="45.74636" lon="6.28556">
        <ele>522</ele>
        <time>2013-06-15T05:33:34Z</time>
      </trkpt>
      <trkpt lat="45.7463" lon="6.28546">
        <ele>522</ele>
        <time>2013-06-15T05:33:37Z</time>
      </trkpt>
      <trkpt lat="45.74623" lon="6.28537">
        <ele>522</ele>
        <time>2013-06-15T05:33:40Z</time>
      </trkpt>
      <trkpt lat="45.74617" lon="6.28528">
        <ele>522</ele>
        <time>2013-06-15T05:33:43Z</time>
      </trkpt>
      <trkpt lat="45.74608" lon="6.28515">
        <ele>522</ele>
        <time>2013-06-15T05:33:47Z</time>
      </trkpt>
      <trkpt lat="45.74602" lon="6.28506">
        <ele>522</ele>
        <time>2013-06-15T05:33:50Z</time>
      </trkpt>
      <trkpt lat="45.74593" lon="6.28495">
        <ele>522</ele>
        <time>2013-06-15T05:33:54Z</time>
      </trkpt>
      <trkpt lat="45.74584" lon="6.28484">
        <ele>522</ele>
        <time>2013-06-15T05:33:58Z</time>
      </trkpt>
      <trkpt lat="45.74575" lon="6.28474">
        <ele>522</ele>
        <time>2013-06-15T05:34:02Z</time>
      </trkpt>
      <trkpt lat="45.74565" lon="6.28464">
        <ele>522</ele>
        <time>2013-06-15T05:34:06Z</time>
      </trkpt>
      <trkpt lat="45.74556" lon="6.28454">
        <ele>522</ele>
        <time>2013-06-15T05:34:10Z</time>
      </trkpt>
      <trkpt lat="45.74542" lon="6.28452">
        <ele>522</ele>
        <time>2013-06-15T05:34:15Z</time>
      </trkpt>
      <trkpt lat="45.74518" lon="6.28466">
        <ele>522</ele>
        <time>2013-06-15T05:34:24Z</time>
      </trkpt>
      <trkpt lat="45.7451" lon="6.28479">
        <ele>522</ele>
        <time>2013-06-15T05:34:28Z</time>
      </trkpt>
      <trkpt lat="45.74502" lon="6.28493">
        <ele>522</ele>
        <time>2013-06-15T05:34:32Z</time>
      </trkpt>
      <trkpt lat="45.74493" lon="6.28508">
        <ele>522</ele>
        <time>2013-06-15T05:34:36Z</time>
      </trkpt>
      <trkpt lat="45.74486" lon="6.28522">
        <ele>522</ele>
        <time>2013-06-15T05:34:40Z</time>
      </trkpt>
      <trkpt lat="45.74477" lon="6.28535">
        <ele>522</ele>
        <time>2013-06-15T05:34:44Z</time>
      </trkpt>
      <trkpt lat="45.74469" lon="6.28548">
        <ele>522</ele>
        <time>2013-06-15T05:34:48Z</time>
      </trkpt>
      <trkpt lat="45.74459" lon="6.2856">
        <ele>522</ele>
        <time>2013-06-15T05:34:52Z</time>
      </trkpt>
      <trkpt lat="45.74447" lon="6.28569">
        <ele>522</ele>
        <time>2013-06-15T05:34:56Z</time>
      </trkpt>
      <trkpt lat="45.74434" lon="6.28574">
        <ele>522</ele>
        <time>2013-06-15T05:35:00Z</time>
      </trkpt>
      <trkpt lat="45.7442" lon="6.28576">
        <ele>522</ele>
        <time>2013-06-15T05:35:05Z</time>
      </trkpt>
      <trkpt lat="45.74409" lon="6.28573">
        <ele>522</ele>
        <time>2013-06-15T05:35:09Z</time>
      </trkpt>
      <trkpt lat="45.74395" lon="6.28571">
        <ele>522</ele>
        <time>2013-06-15T05:35:15Z</time>
      </trkpt>
      <trkpt lat="45.7438" lon="6.28573">
        <ele>522</ele>
        <time>2013-06-15T05:35:24Z</time>
      </trkpt>
      <trkpt lat="45.74365" lon="6.28578">
        <ele>526.17946561544</ele>
        <time>2013-06-15T05:35:32Z</time>
      </trkpt>
      <trkpt lat="45.74347" lon="6.28586">
        <ele>530.44333148887</ele>
        <time>2013-06-15T05:35:39Z</time>
      </trkpt>
      <trkpt lat="45.74329" lon="6.28598">
        <ele>531.64694116242</ele>
        <time>2013-06-15T05:35:45Z</time>
      </trkpt>
      <trkpt lat="45.74311" lon="6.28611">
        <ele>532</ele>
        <time>2013-06-15T05:35:52Z</time>
      </trkpt>
      <trkpt lat="45.74283" lon="6.28636">
        <ele>534.772</ele>
        <time>2013-06-15T05:36:06Z</time>
      </trkpt>
      <trkpt lat="45.7427" lon="6.28645">
        <ele>535.86200064</ele>
        <time>2013-06-15T05:36:11Z</time>
      </trkpt>
      <trkpt lat="45.74254" lon="6.28655">
        <ele>537.41400064</ele>
        <time>2013-06-15T05:36:19Z</time>
      </trkpt>
      <trkpt lat="45.74239" lon="6.28672">
        <ele>539.22799872</ele>
        <time>2013-06-15T05:36:28Z</time>
      </trkpt>
      <trkpt lat="45.74229" lon="6.28693">
        <ele>540.62799872</ele>
        <time>2013-06-15T05:36:35Z</time>
      </trkpt>
      <trkpt lat="45.74225" lon="6.28714">
        <ele>541.84199936</ele>
        <time>2013-06-15T05:36:41Z</time>
      </trkpt>
      <trkpt lat="45.7422" lon="6.28735">
        <ele>543.01699968</ele>
        <time>2013-06-15T05:36:47Z</time>
      </trkpt>
      <trkpt lat="45.74211" lon="6.28755">
        <ele>543.71699968</ele>
        <time>2013-06-15T05:36:54Z</time>
      </trkpt>
      <trkpt lat="45.74199" lon="6.28772">
        <ele>545.26200064</ele>
        <time>2013-06-15T05:37:03Z</time>
      </trkpt>
      <trkpt lat="45.74186" lon="6.28783">
        <ele>546.46200064</ele>
        <time>2013-06-15T05:37:09Z</time>
      </trkpt>
      <trkpt lat="45.7417" lon="6.28801">
        <ele>547.66200064</ele>
        <time>2013-06-15T05:37:15Z</time>
      </trkpt>
      <trkpt lat="45.7416" lon="6.2882">
        <ele>548.81400064</ele>
        <time>2013-06-15T05:37:21Z</time>
      </trkpt>
      <trkpt lat="45.74149" lon="6.28836">
        <ele>550.02799872</ele>
        <time>2013-06-15T05:37:27Z</time>
      </trkpt>
      <trkpt lat="45.7414" lon="6.2885">
        <ele>551.22799872</ele>
        <time>2013-06-15T05:37:33Z</time>
      </trkpt>
      <trkpt lat="45.7413" lon="6.28864">
        <ele>552.22077897168</ele>
        <time>2013-06-15T05:37:39Z</time>
      </trkpt>
      <trkpt lat="45.74121" lon="6.28882">
        <ele>552.92007989453</ele>
        <time>2013-06-15T05:37:46Z</time>
      </trkpt>
      <trkpt lat="45.74117" lon="6.289">
        <ele>553.8408405715</ele>
        <time>2013-06-15T05:37:51Z</time>
      </trkpt>
      <trkpt lat="45.74116" lon="6.28917">
        <ele>554.84184125186</ele>
        <time>2013-06-15T05:37:56Z</time>
      </trkpt>
      <trkpt lat="45.74114" lon="6.28956">
        <ele>559.12099968</ele>
        <time>2013-06-15T05:38:08Z</time>
      </trkpt>
      <trkpt lat="45.74112" lon="6.28976">
        <ele>559.72099968</ele>
        <time>2013-06-15T05:38:14Z</time>
      </trkpt>
      <trkpt lat="45.74112" lon="6.28993">
        <ele>560.42671897273</ele>
        <time>2013-06-15T05:38:19Z</time>
      </trkpt>
      <trkpt lat="45.74113" lon="6.29011">
        <ele>561.62313088555</ele>
        <time>2013-06-15T05:38:25Z</time>
      </trkpt>
      <trkpt lat="45.74111" lon="6.29032">
        <ele>562.82447326831</ele>
        <time>2013-06-15T05:38:31Z</time>
      </trkpt>
      <trkpt lat="45.74106" lon="6.29047">
        <ele>563.82748132961</ele>
        <time>2013-06-15T05:38:36Z</time>
      </trkpt>
      <trkpt lat="45.741" lon="6.29063">
        <ele>564.84199936</ele>
        <time>2013-06-15T05:38:41Z</time>
      </trkpt>
      <trkpt lat="45.74094" lon="6.29077">
        <ele>565.64199936</ele>
        <time>2013-06-15T05:38:45Z</time>
      </trkpt>
      <trkpt lat="45.74089" lon="6.29091">
        <ele>566.44199936</ele>
        <time>2013-06-15T05:38:49Z</time>
      </trkpt>
      <trkpt lat="45.74083" lon="6.29105">
        <ele>567.24199936</ele>
        <time>2013-06-15T05:38:53Z</time>
      </trkpt>
      <trkpt lat="45.74078" lon="6.29117">
        <ele>568.04199936</ele>
        <time>2013-06-15T05:38:57Z</time>
      </trkpt>
      <trkpt lat="45.74065" lon="6.29121">
        <ele>569.06199808</ele>
        <time>2013-06-15T05:39:02Z</time>
      </trkpt>
      <trkpt lat="45.74055" lon="6.29112">
        <ele>570.02899968</ele>
        <time>2013-06-15T05:39:07Z</time>
      </trkpt>
      <trkpt lat="45.74053" lon="6.291">
        <ele>570.52899968</ele>
        <time>2013-06-15T05:39:12Z</time>
      </trkpt>
      <trkpt lat="45.7405" lon="6.29087">
        <ele>571.448</ele>
        <time>2013-06-15T05:39:19Z</time>
      </trkpt>
      <trkpt lat="45.74048" lon="6.29077">
        <ele>572.448</ele>
        <time>2013-06-15T05:39:24Z</time>
      </trkpt>
      <trkpt lat="45.74044" lon="6.29068">
        <ele>574.344</ele>
        <time>2013-06-15T05:39:29Z</time>
      </trkpt>
      <trkpt lat="45.7404" lon="6.29056">
        <ele>577.944</ele>
        <time>2013-06-15T05:39:35Z</time>
      </trkpt>
      <trkpt lat="45.74035" lon="6.29038">
        <ele>579.83100032</ele>
        <time>2013-06-15T05:39:45Z</time>
      </trkpt>
      <trkpt lat="45.74027" lon="6.29029">
        <ele>581.08799744</ele>
        <time>2013-06-15T05:39:57Z</time>
      </trkpt>
      <trkpt lat="45.7402" lon="6.29021">
        <ele>584.68799744</ele>
        <time>2013-06-15T05:40:06Z</time>
      </trkpt>
      <trkpt lat="45.74016" lon="6.2901">
        <ele>585.53099904</ele>
        <time>2013-06-15T05:40:12Z</time>
      </trkpt>
      <trkpt lat="45.7401" lon="6.29001">
        <ele>586.896</ele>
        <time>2013-06-15T05:40:19Z</time>
      </trkpt>
      <trkpt lat="45.74004" lon="6.28992">
        <ele>589.296</ele>
        <time>2013-06-15T05:40:25Z</time>
      </trkpt>
      <trkpt lat="45.73997" lon="6.28982">
        <ele>591.048</ele>
        <time>2013-06-15T05:40:32Z</time>
      </trkpt>
      <trkpt lat="45.73989" lon="6.28975">
        <ele>592.42099968</ele>
        <time>2013-06-15T05:40:41Z</time>
      </trkpt>
      <trkpt lat="45.73979" lon="6.2897">
        <ele>593.62799872</ele>
        <time>2013-06-15T05:40:50Z</time>
      </trkpt>
      <trkpt lat="45.73969" lon="6.28963">
        <ele>595.44199936</ele>
        <time>2013-06-15T05:40:59Z</time>
      </trkpt>
      <trkpt lat="45.73958" lon="6.28956">
        <ele>596.86199808</ele>
        <time>2013-06-15T05:41:06Z</time>
      </trkpt>
      <trkpt lat="45.73948" lon="6.28949">
        <ele>598.04486640386</ele>
        <time>2013-06-15T05:41:12Z</time>
      </trkpt>
      <trkpt lat="45.73938" lon="6.28938">
        <ele>599.44333148887</ele>
        <time>2013-06-15T05:41:19Z</time>
      </trkpt>
      <trkpt lat="45.73934" lon="6.28922">
        <ele>601.1550016</ele>
        <time>2013-06-15T05:41:27Z</time>
      </trkpt>
      <trkpt lat="45.73926" lon="6.28908">
        <ele>604.1550016</ele>
        <time>2013-06-15T05:41:33Z</time>
      </trkpt>
      <trkpt lat="45.73915" lon="6.28897">
        <ele>606.448</ele>
        <time>2013-06-15T05:41:39Z</time>
      </trkpt>
      <trkpt lat="45.73903" lon="6.28892">
        <ele>607.648</ele>
        <time>2013-06-15T05:41:45Z</time>
      </trkpt>
      <trkpt lat="45.73893" lon="6.28895">
        <ele>608.61399936</ele>
        <time>2013-06-15T05:42:13Z</time>
      </trkpt>
      <trkpt lat="45.7387" lon="6.28898">
        <ele>613.12044696356</ele>
        <time>2013-06-15T05:42:31Z</time>
      </trkpt>
      <trkpt lat="45.73859" lon="6.28901">
        <ele>616.848</ele>
        <time>2013-06-15T05:42:41Z</time>
      </trkpt>
      <trkpt lat="45.73847" lon="6.28911">
        <ele>619.68799744</ele>
        <time>2013-06-15T05:42:51Z</time>
      </trkpt>
      <trkpt lat="45.73836" lon="6.28921">
        <ele>622.96299904</ele>
        <time>2013-06-15T05:43:00Z</time>
      </trkpt>
      <trkpt lat="45.73828" lon="6.28933">
        <ele>625.31243727361</ele>
        <time>2013-06-15T05:43:10Z</time>
      </trkpt>
      <trkpt lat="45.73821" lon="6.28945">
        <ele>626.23316575416</ele>
        <time>2013-06-15T05:43:18Z</time>
      </trkpt>
      <trkpt lat="45.73815" lon="6.28959">
        <ele>628.5849984</ele>
        <time>2013-06-15T05:43:28Z</time>
      </trkpt>
      <trkpt lat="45.7381" lon="6.28972">
        <ele>632.5849984</ele>
        <time>2013-06-15T05:43:36Z</time>
      </trkpt>
      <trkpt lat="45.73805" lon="6.28989">
        <ele>633</ele>
        <time>2013-06-15T05:43:45Z</time>
      </trkpt>
      <trkpt lat="45.738" lon="6.29006">
        <ele>634.44199936</ele>
        <time>2013-06-15T05:43:54Z</time>
      </trkpt>
      <trkpt lat="45.73794" lon="6.29024">
        <ele>637.09870430185</ele>
        <time>2013-06-15T05:44:01Z</time>
      </trkpt>
      <trkpt lat="45.73785" lon="6.29042">
        <ele>640.11935828026</ele>
        <time>2013-06-15T05:44:08Z</time>
      </trkpt>
      <trkpt lat="45.73777" lon="6.29056">
        <ele>640.52056150477</ele>
        <time>2013-06-15T05:44:12Z</time>
      </trkpt>
      <trkpt lat="45.73768" lon="6.29073">
        <ele>640.92176472929</ele>
        <time>2013-06-15T05:44:16Z</time>
      </trkpt>
      <trkpt lat="45.7376" lon="6.29089">
        <ele>641.33099904</ele>
        <time>2013-06-15T05:44:20Z</time>
      </trkpt>
      <trkpt lat="45.73748" lon="6.29109">
        <ele>642</ele>
        <time>2013-06-15T05:44:27Z</time>
      </trkpt>
      <trkpt lat="45.73733" lon="6.29125">
        <ele>642</ele>
        <time>2013-06-15T05:44:35Z</time>
      </trkpt>
      <trkpt lat="45.73714" lon="6.29124">
        <ele>642.86086186639</ele>
        <time>2013-06-15T05:44:41Z</time>
      </trkpt>
      <trkpt lat="45.73683" lon="6.29124">
        <ele>646.48399872</ele>
        <time>2013-06-15T05:44:53Z</time>
      </trkpt>
      <trkpt lat="45.73671" lon="6.29125">
        <ele>648.72099968</ele>
        <time>2013-06-15T05:45:04Z</time>
      </trkpt>
      <trkpt lat="45.7366" lon="6.29125">
        <ele>650.42799872</ele>
        <time>2013-06-15T05:45:14Z</time>
      </trkpt>
      <trkpt lat="45.73646" lon="6.29134">
        <ele>651.93099904</ele>
        <time>2013-06-15T05:45:26Z</time>
      </trkpt>
      <trkpt lat="45.73633" lon="6.29143">
        <ele>657.672</ele>
        <time>2013-06-15T05:45:39Z</time>
      </trkpt>
      <trkpt lat="45.73621" lon="6.29154">
        <ele>660</ele>
        <time>2013-06-15T05:45:52Z</time>
      </trkpt>
      <trkpt lat="45.73604" lon="6.29161">
        <ele>660.71399936</ele>
        <time>2013-06-15T05:46:04Z</time>
      </trkpt>
      <trkpt lat="45.73591" lon="6.2916">
        <ele>662.22799872</ele>
        <time>2013-06-15T05:46:13Z</time>
      </trkpt>
      <trkpt lat="45.73578" lon="6.29163">
        <ele>667.64999936</ele>
        <time>2013-06-15T05:46:30Z</time>
      </trkpt>
      <trkpt lat="45.73565" lon="6.29159">
        <ele>670.92377138734</ele>
        <time>2013-06-15T05:47:06Z</time>
      </trkpt>
      <trkpt lat="45.73548" lon="6.29158">
        <ele>674.048</ele>
        <time>2013-06-15T05:47:22Z</time>
      </trkpt>
      <trkpt lat="45.73534" lon="6.2916">
        <ele>679</ele>
        <time>2013-06-15T05:47:47Z</time>
      </trkpt>
      <trkpt lat="45.73523" lon="6.29158">
        <ele>681.6099968</ele>
        <time>2013-06-15T05:48:02Z</time>
      </trkpt>
      <trkpt lat="45.73511" lon="6.29159">
        <ele>684.848</ele>
        <time>2013-06-15T05:48:21Z</time>
      </trkpt>
      <trkpt lat="45.73498" lon="6.29159">
        <ele>687.86200064</ele>
        <time>2013-06-15T05:48:41Z</time>
      </trkpt>
      <trkpt lat="45.73485" lon="6.29163">
        <ele>691.048</ele>
        <time>2013-06-15T05:48:57Z</time>
      </trkpt>
      <trkpt lat="45.73475" lon="6.29166">
        <ele>695.224</ele>
        <time>2013-06-15T05:49:19Z</time>
      </trkpt>
      <trkpt lat="45.73465" lon="6.29165">
        <ele>696.648</ele>
        <time>2013-06-15T05:49:30Z</time>
      </trkpt>
      <trkpt lat="45.73441" lon="6.29147">
        <ele>703.84453471339</ele>
        <time>2013-06-15T05:49:51Z</time>
      </trkpt>
      <trkpt lat="45.73429" lon="6.29141">
        <ele>705</ele>
        <time>2013-06-15T05:50:05Z</time>
      </trkpt>
      <trkpt lat="45.73418" lon="6.29137">
        <ele>709.1550016</ele>
        <time>2013-06-15T05:50:15Z</time>
      </trkpt>
      <trkpt lat="45.73409" lon="6.29133">
        <ele>712.172</ele>
        <time>2013-06-15T05:50:24Z</time>
      </trkpt>
      <trkpt lat="45.73399" lon="6.2913">
        <ele>713.93099904</ele>
        <time>2013-06-15T05:50:36Z</time>
      </trkpt>
      <trkpt lat="45.73386" lon="6.29124">
        <ele>717.944</ele>
        <time>2013-06-15T05:50:50Z</time>
      </trkpt>
      <trkpt lat="45.73373" lon="6.29122">
        <ele>722</ele>
        <time>2013-06-15T05:51:03Z</time>
      </trkpt>
      <trkpt lat="45.73359" lon="6.29123">
        <ele>725.024</ele>
        <time>2013-06-15T05:51:17Z</time>
      </trkpt>
      <trkpt lat="45.7334" lon="6.29132">
        <ele>726.26199808</ele>
        <time>2013-06-15T05:51:28Z</time>
      </trkpt>
      <trkpt lat="45.73323" lon="6.29136">
        <ele>727.46199808</ele>
        <time>2013-06-15T05:51:34Z</time>
      </trkpt>
      <trkpt lat="45.73309" lon="6.29133">
        <ele>731.696</ele>
        <time>2013-06-15T05:51:46Z</time>
      </trkpt>
      <trkpt lat="45.73293" lon="6.29122">
        <ele>734.896</ele>
        <time>2013-06-15T05:52:04Z</time>
      </trkpt>
      <trkpt lat="45.73275" lon="6.29113">
        <ele>738.248</ele>
        <time>2013-06-15T05:52:18Z</time>
      </trkpt>
      <trkpt lat="45.7326" lon="6.29109">
        <ele>740.42971159773</ele>
        <time>2013-06-15T05:52:31Z</time>
      </trkpt>
      <trkpt lat="45.73248" lon="6.29106">
        <ele>741.44333148887</ele>
        <time>2013-06-15T05:52:39Z</time>
      </trkpt>
      <trkpt lat="45.73237" lon="6.29102">
        <ele>742.84754277468</ele>
        <time>2013-06-15T05:52:46Z</time>
      </trkpt>
      <trkpt lat="45.7323" lon="6.2909">
        <ele>745.1550016</ele>
        <time>2013-06-15T05:52:51Z</time>
      </trkpt>
      <trkpt lat="45.73222" lon="6.29078">
        <ele>747.1550016</ele>
        <time>2013-06-15T05:52:55Z</time>
      </trkpt>
      <trkpt lat="45.73186" lon="6.29085">
        <ele>749</ele>
        <time>2013-06-15T05:53:08Z</time>
      </trkpt>
      <trkpt lat="45.73172" lon="6.29089">
        <ele>749</ele>
        <time>2013-06-15T05:53:13Z</time>
      </trkpt>
      <trkpt lat="45.73161" lon="6.29096">
        <ele>749.44399872</ele>
        <time>2013-06-15T05:53:19Z</time>
      </trkpt>
      <trkpt lat="45.73146" lon="6.29105">
        <ele>750.64399872</ele>
        <time>2013-06-15T05:53:25Z</time>
      </trkpt>
      <trkpt lat="45.73131" lon="6.29109">
        <ele>751.43100032</ele>
        <time>2013-06-15T05:53:31Z</time>
      </trkpt>
      <trkpt lat="45.73115" lon="6.29112">
        <ele>752.224</ele>
        <time>2013-06-15T05:53:39Z</time>
      </trkpt>
      <trkpt lat="45.73104" lon="6.29109">
        <ele>752.724</ele>
        <time>2013-06-15T05:53:44Z</time>
      </trkpt>
      <trkpt lat="45.73112" lon="6.29096">
        <ele>753</ele>
        <time>2013-06-15T05:53:49Z</time>
      </trkpt>
      <trkpt lat="45.73125" lon="6.29084">
        <ele>753</ele>
        <time>2013-06-15T05:53:54Z</time>
      </trkpt>
      <trkpt lat="45.73138" lon="6.2907">
        <ele>753.23100032</ele>
        <time>2013-06-15T05:53:59Z</time>
      </trkpt>
      <trkpt lat="45.73149" lon="6.29061">
        <ele>753.63100032</ele>
        <time>2013-06-15T05:54:03Z</time>
      </trkpt>
      <trkpt lat="45.73161" lon="6.29054">
        <ele>754.03100032</ele>
        <time>2013-06-15T05:54:07Z</time>
      </trkpt>
      <trkpt lat="45.73172" lon="6.29046">
        <ele>754.43100032</ele>
        <time>2013-06-15T05:54:11Z</time>
      </trkpt>
      <trkpt lat="45.73181" lon="6.29039">
        <ele>754.73099904</ele>
        <time>2013-06-15T05:54:14Z</time>
      </trkpt>
      <trkpt lat="45.73191" lon="6.2903">
        <ele>755.24999936</ele>
        <time>2013-06-15T05:54:18Z</time>
      </trkpt>
      <trkpt lat="45.73201" lon="6.29021">
        <ele>756.048</ele>
        <time>2013-06-15T05:54:22Z</time>
      </trkpt>
      <trkpt lat="45.73211" lon="6.29013">
        <ele>756.848</ele>
        <time>2013-06-15T05:54:26Z</time>
      </trkpt>
      <trkpt lat="45.73223" lon="6.29003">
        <ele>757.40700032</ele>
        <time>2013-06-15T05:54:31Z</time>
      </trkpt>
      <trkpt lat="45.73251" lon="6.2898">
        <ele>759.64199936</ele>
        <time>2013-06-15T05:54:45Z</time>
      </trkpt>
      <trkpt lat="45.73267" lon="6.28971">
        <ele>761.56299904</ele>
        <time>2013-06-15T05:54:52Z</time>
      </trkpt>
      <trkpt lat="45.73285" lon="6.28963">
        <ele>764.0849984</ele>
        <time>2013-06-15T05:54:59Z</time>
      </trkpt>
      <trkpt lat="45.733" lon="6.28956">
        <ele>766.5849984</ele>
        <time>2013-06-15T05:55:04Z</time>
      </trkpt>
      <trkpt lat="45.73311" lon="6.28949">
        <ele>768</ele>
        <time>2013-06-15T05:55:08Z</time>
      </trkpt>
      <trkpt lat="45.7332" lon="6.28938">
        <ele>768</ele>
        <time>2013-06-15T05:55:13Z</time>
      </trkpt>
      <trkpt lat="45.73321" lon="6.28921">
        <ele>768.12277235502</ele>
        <time>2013-06-15T05:55:18Z</time>
      </trkpt>
      <trkpt lat="45.73317" lon="6.28903">
        <ele>768.51881220994</ele>
        <time>2013-06-15T05:55:22Z</time>
      </trkpt>
      <trkpt lat="45.73311" lon="6.28888">
        <ele>768.91485206486</ele>
        <time>2013-06-15T05:55:26Z</time>
      </trkpt>
      <trkpt lat="45.73307" lon="6.28877">
        <ele>769.61818141855</ele>
        <time>2013-06-15T05:55:29Z</time>
      </trkpt>
      <trkpt lat="45.73302" lon="6.28864">
        <ele>771.13333195421</ele>
        <time>2013-06-15T05:55:34Z</time>
      </trkpt>
      <trkpt lat="45.73296" lon="6.28854">
        <ele>773.62799872</ele>
        <time>2013-06-15T05:55:45Z</time>
      </trkpt>
      <trkpt lat="45.73286" lon="6.28843">
        <ele>775.248</ele>
        <time>2013-06-15T05:55:58Z</time>
      </trkpt>
      <trkpt lat="45.73274" lon="6.28833">
        <ele>777.324</ele>
        <time>2013-06-15T05:56:10Z</time>
      </trkpt>
      <trkpt lat="45.7326" lon="6.2883">
        <ele>780.968</ele>
        <time>2013-06-15T05:56:21Z</time>
      </trkpt>
      <trkpt lat="45.73248" lon="6.2883">
        <ele>786.648</ele>
        <time>2013-06-15T05:56:35Z</time>
      </trkpt>
      <trkpt lat="45.73237" lon="6.28825">
        <ele>789.92399616</ele>
        <time>2013-06-15T05:56:44Z</time>
      </trkpt>
      <trkpt lat="45.7323" lon="6.2881">
        <ele>791</ele>
        <time>2013-06-15T05:56:52Z</time>
      </trkpt>
      <trkpt lat="45.73205" lon="6.2879">
        <ele>795.23100032</ele>
        <time>2013-06-15T05:57:09Z</time>
      </trkpt>
      <trkpt lat="45.73192" lon="6.28788">
        <ele>795.93099904</ele>
        <time>2013-06-15T05:57:16Z</time>
      </trkpt>
      <trkpt lat="45.7318" lon="6.28784">
        <ele>797.26200064</ele>
        <time>2013-06-15T05:57:23Z</time>
      </trkpt>
      <trkpt lat="45.73168" lon="6.2878">
        <ele>798.848</ele>
        <time>2013-06-15T05:57:31Z</time>
      </trkpt>
      <trkpt lat="45.73163" lon="6.28797">
        <ele>802.83100032</ele>
        <time>2013-06-15T05:57:55Z</time>
      </trkpt>
      <trkpt lat="45.73159" lon="6.28819">
        <ele>803.73099904</ele>
        <time>2013-06-15T05:58:04Z</time>
      </trkpt>
      <trkpt lat="45.73149" lon="6.28838">
        <ele>804</ele>
        <time>2013-06-15T05:58:12Z</time>
      </trkpt>
      <trkpt lat="45.73135" lon="6.28857">
        <ele>804</ele>
        <time>2013-06-15T05:58:21Z</time>
      </trkpt>
      <trkpt lat="45.73124" lon="6.28875">
        <ele>804</ele>
        <time>2013-06-15T05:58:29Z</time>
      </trkpt>
      <trkpt lat="45.73114" lon="6.28893">
        <ele>803.31600384</ele>
        <time>2013-06-15T05:58:38Z</time>
      </trkpt>
      <trkpt lat="45.73101" lon="6.28911">
        <ele>799.11600384</ele>
        <time>2013-06-15T05:58:45Z</time>
      </trkpt>
      <trkpt lat="45.73088" lon="6.28928">
        <ele>798</ele>
        <time>2013-06-15T05:58:50Z</time>
      </trkpt>
      <trkpt lat="45.73077" lon="6.28944">
        <ele>798</ele>
        <time>2013-06-15T05:58:55Z</time>
      </trkpt>
      <trkpt lat="45.73067" lon="6.28957">
        <ele>798.32032021771</ele>
        <time>2013-06-15T05:59:00Z</time>
      </trkpt>
      <trkpt lat="45.73054" lon="6.28969">
        <ele>799.04199936</ele>
        <time>2013-06-15T05:59:07Z</time>
      </trkpt>
      <trkpt lat="45.73041" lon="6.28978">
        <ele>800.64199936</ele>
        <time>2013-06-15T05:59:15Z</time>
      </trkpt>
      <trkpt lat="45.73026" lon="6.28983">
        <ele>801</ele>
        <time>2013-06-15T05:59:22Z</time>
      </trkpt>
      <trkpt lat="45.7301" lon="6.2899">
        <ele>800.68447612903</ele>
        <time>2013-06-15T05:59:30Z</time>
      </trkpt>
      <trkpt lat="45.72979" lon="6.29005">
        <ele>800</ele>
        <time>2013-06-15T05:59:43Z</time>
      </trkpt>
      <trkpt lat="45.72963" lon="6.28994">
        <ele>802.56842887302</ele>
        <time>2013-06-15T06:00:00Z</time>
      </trkpt>
      <trkpt lat="45.72952" lon="6.28985">
        <ele>808.16216146958</ele>
        <time>2013-06-15T06:00:14Z</time>
      </trkpt>
      <trkpt lat="45.72937" lon="6.28976">
        <ele>812.06199808</ele>
        <time>2013-06-15T06:00:32Z</time>
      </trkpt>
      <trkpt lat="45.72922" lon="6.28974">
        <ele>813</ele>
        <time>2013-06-15T06:00:43Z</time>
      </trkpt>
      <trkpt lat="45.72909" lon="6.2897">
        <ele>814.46053800936</ele>
        <time>2013-06-15T06:00:54Z</time>
      </trkpt>
      <trkpt lat="45.72894" lon="6.28969">
        <ele>811.83333333333</ele>
        <time>2013-06-15T06:01:02Z</time>
      </trkpt>
      <trkpt lat="45.72879" lon="6.28966">
        <ele>809.46428952381</ele>
        <time>2013-06-15T06:01:06Z</time>
      </trkpt>
      <trkpt lat="45.72861" lon="6.2896">
        <ele>807.80177685095</ele>
        <time>2013-06-15T06:01:11Z</time>
      </trkpt>
      <trkpt lat="45.72844" lon="6.28954">
        <ele>806</ele>
        <time>2013-06-15T06:01:17Z</time>
      </trkpt>
      <trkpt lat="45.72823" lon="6.28958">
        <ele>800.28834440137</ele>
        <time>2013-06-15T06:01:25Z</time>
      </trkpt>
      <trkpt lat="45.7281" lon="6.28947">
        <ele>797.4</ele>
        <time>2013-06-15T06:01:30Z</time>
      </trkpt>
      <trkpt lat="45.728" lon="6.28933">
        <ele>795.4</ele>
        <time>2013-06-15T06:01:34Z</time>
      </trkpt>
      <trkpt lat="45.72787" lon="6.28926">
        <ele>794</ele>
        <time>2013-06-15T06:01:40Z</time>
      </trkpt>
      <trkpt lat="45.72771" lon="6.28928">
        <ele>790.69600256</ele>
        <time>2013-06-15T06:01:51Z</time>
      </trkpt>
      <trkpt lat="45.72755" lon="6.28928">
        <ele>786.12</ele>
        <time>2013-06-15T06:01:58Z</time>
      </trkpt>
      <trkpt lat="45.72738" lon="6.28917">
        <ele>787.03203202177</ele>
        <time>2013-06-15T06:02:07Z</time>
      </trkpt>
      <trkpt lat="45.72722" lon="6.28907">
        <ele>788.83383324642</ele>
        <time>2013-06-15T06:02:16Z</time>
      </trkpt>
      <trkpt lat="45.7271" lon="6.28893">
        <ele>792.32068166096</ele>
        <time>2013-06-15T06:02:25Z</time>
      </trkpt>
      <trkpt lat="45.727" lon="6.28918">
        <ele>788.62000384</ele>
        <time>2013-06-15T06:02:34Z</time>
      </trkpt>
      <trkpt lat="45.72684" lon="6.2892">
        <ele>787.22922883548</ele>
        <time>2013-06-15T06:02:39Z</time>
      </trkpt>
      <trkpt lat="45.72671" lon="6.28919">
        <ele>787.62862842727</ele>
        <time>2013-06-15T06:02:43Z</time>
      </trkpt>
      <trkpt lat="45.72657" lon="6.28917">
        <ele>788</ele>
        <time>2013-06-15T06:02:48Z</time>
      </trkpt>
      <trkpt lat="45.72646" lon="6.28905">
        <ele>788</ele>
        <time>2013-06-15T06:02:54Z</time>
      </trkpt>
      <trkpt lat="45.72632" lon="6.28895">
        <ele>788.66065916776</ele>
        <time>2013-06-15T06:03:00Z</time>
      </trkpt>
      <trkpt lat="45.72616" lon="6.28894">
        <ele>789.86185998419</ele>
        <time>2013-06-15T06:03:06Z</time>
      </trkpt>
      <trkpt lat="45.72601" lon="6.28895">
        <ele>790</ele>
        <time>2013-06-15T06:03:11Z</time>
      </trkpt>
      <trkpt lat="45.72583" lon="6.28896">
        <ele>790</ele>
        <time>2013-06-15T06:03:17Z</time>
      </trkpt>
      <trkpt lat="45.72572" lon="6.28897">
        <ele>790</ele>
        <time>2013-06-15T06:03:21Z</time>
      </trkpt>
      <trkpt lat="45.72556" lon="6.28895">
        <ele>790</ele>
        <time>2013-06-15T06:03:27Z</time>
      </trkpt>
      <trkpt lat="45.72545" lon="6.28899">
        <ele>790</ele>
        <time>2013-06-15T06:03:31Z</time>
      </trkpt>
      <trkpt lat="45.72532" lon="6.28909">
        <ele>790</ele>
        <time>2013-06-15T06:03:35Z</time>
      </trkpt>
      <trkpt lat="45.7252" lon="6.28914">
        <ele>790</ele>
        <time>2013-06-15T06:03:39Z</time>
      </trkpt>
      <trkpt lat="45.72502" lon="6.28918">
        <ele>790</ele>
        <time>2013-06-15T06:03:46Z</time>
      </trkpt>
      <trkpt lat="45.72487" lon="6.28925">
        <ele>790</ele>
        <time>2013-06-15T06:03:53Z</time>
      </trkpt>
      <trkpt lat="45.72475" lon="6.2894">
        <ele>788.89167127783</ele>
        <time>2013-06-15T06:03:59Z</time>
      </trkpt>
      <trkpt lat="45.72448" lon="6.28957">
        <ele>783.90518118313</ele>
        <time>2013-06-15T06:04:09Z</time>
      </trkpt>
      <trkpt lat="45.72432" lon="6.28966">
        <ele>780.9726307808</ele>
        <time>2013-06-15T06:04:15Z</time>
      </trkpt>
      <trkpt lat="45.72424" lon="6.28981">
        <ele>776.36401496214</ele>
        <time>2013-06-15T06:04:22Z</time>
      </trkpt>
      <trkpt lat="45.7241" lon="6.28968">
        <ele>771.72972917566</ele>
        <time>2013-06-15T06:04:31Z</time>
      </trkpt>
      <trkpt lat="45.724" lon="6.28952">
        <ele>769.9380612789</ele>
        <time>2013-06-15T06:04:47Z</time>
      </trkpt>
      <trkpt lat="45.72386" lon="6.28941">
        <ele>768.73925969687</ele>
        <time>2013-06-15T06:04:53Z</time>
      </trkpt>
      <trkpt lat="45.72365" lon="6.28933">
        <ele>766.02000384</ele>
        <time>2013-06-15T06:05:00Z</time>
      </trkpt>
      <trkpt lat="45.72346" lon="6.28928">
        <ele>761.95399936</ele>
        <time>2013-06-15T06:05:07Z</time>
      </trkpt>
      <trkpt lat="45.72327" lon="6.28925">
        <ele>760.55399936</ele>
        <time>2013-06-15T06:05:14Z</time>
      </trkpt>
      <trkpt lat="45.7231" lon="6.28911">
        <ele>753.14699648</ele>
        <time>2013-06-15T06:05:23Z</time>
      </trkpt>
      <trkpt lat="45.7229" lon="6.28914">
        <ele>744.58299776</ele>
        <time>2013-06-15T06:05:33Z</time>
      </trkpt>
      <trkpt lat="45.72273" lon="6.28907">
        <ele>741.53999872</ele>
        <time>2013-06-15T06:05:39Z</time>
      </trkpt>
      <trkpt lat="45.72253" lon="6.28912">
        <ele>739.77177184488</ele>
        <time>2013-06-15T06:05:49Z</time>
      </trkpt>
      <trkpt lat="45.72242" lon="6.28921">
        <ele>739</ele>
        <time>2013-06-15T06:06:06Z</time>
      </trkpt>
      <trkpt lat="45.72236" lon="6.28925">
        <ele>751.21335948637</ele>
        <time>2013-06-15T06:06:39Z</time>
      </trkpt>
      <trkpt lat="45.72224" lon="6.28939">
        <ele>752.82447326831</ele>
        <time>2013-06-15T06:06:51Z</time>
      </trkpt>
      <trkpt lat="45.72215" lon="6.28952">
        <ele>754.65099904</ele>
        <time>2013-06-15T06:06:59Z</time>
      </trkpt>
      <trkpt lat="45.72217" lon="6.28968">
        <ele>757.424</ele>
        <time>2013-06-15T06:07:11Z</time>
      </trkpt>
      <trkpt lat="45.72223" lon="6.28996">
        <ele>762.05599744</ele>
        <time>2013-06-15T06:07:37Z</time>
      </trkpt>
      <trkpt lat="45.72226" lon="6.2901">
        <ele>764.05599744</ele>
        <time>2013-06-15T06:07:42Z</time>
      </trkpt>
      <trkpt lat="45.72228" lon="6.29027">
        <ele>766.48351535937</ele>
        <time>2013-06-15T06:07:48Z</time>
      </trkpt>
      <trkpt lat="45.72236" lon="6.29036">
        <ele>769.68031957812</ele>
        <time>2013-06-15T06:07:56Z</time>
      </trkpt>
      <trkpt lat="45.72245" lon="6.29042">
        <ele>769.27927951014</ele>
        <time>2013-06-15T06:08:04Z</time>
      </trkpt>
      <trkpt lat="45.72254" lon="6.29045">
        <ele>769.42099968</ele>
        <time>2013-06-15T06:08:11Z</time>
      </trkpt>
      <trkpt lat="45.72262" lon="6.29052">
        <ele>771.88399616</ele>
        <time>2013-06-15T06:08:20Z</time>
      </trkpt>
      <trkpt lat="45.72266" lon="6.29064">
        <ele>776.43399936</ele>
        <time>2013-06-15T06:08:29Z</time>
      </trkpt>
      <trkpt lat="45.72257" lon="6.29062">
        <ele>778.04795206328</ele>
        <time>2013-06-15T06:08:37Z</time>
      </trkpt>
      <trkpt lat="45.72246" lon="6.29069">
        <ele>782.14113949433</ele>
        <time>2013-06-15T06:08:54Z</time>
      </trkpt>
      <trkpt lat="45.72234" lon="6.29068">
        <ele>783</ele>
        <time>2013-06-15T06:09:04Z</time>
      </trkpt>
      <trkpt lat="45.72219" lon="6.29068">
        <ele>784.84199936</ele>
        <time>2013-06-15T06:09:16Z</time>
      </trkpt>
      <trkpt lat="45.72207" lon="6.29068">
        <ele>788.28399872</ele>
        <time>2013-06-15T06:09:25Z</time>
      </trkpt>
      <trkpt lat="45.72198" lon="6.29064">
        <ele>789.6171481879</ele>
        <time>2013-06-15T06:09:33Z</time>
      </trkpt>
      <trkpt lat="45.72191" lon="6.29057">
        <ele>791.02507488057</ele>
        <time>2013-06-15T06:09:42Z</time>
      </trkpt>
      <trkpt lat="45.72184" lon="6.29052">
        <ele>793.5699968</ele>
        <time>2013-06-15T06:09:50Z</time>
      </trkpt>
      <trkpt lat="45.72176" lon="6.29045">
        <ele>797.44199936</ele>
        <time>2013-06-15T06:09:59Z</time>
      </trkpt>
      <trkpt lat="45.72167" lon="6.29042">
        <ele>799.34199808</ele>
        <time>2013-06-15T06:10:08Z</time>
      </trkpt>
      <trkpt lat="45.72151" lon="6.29032">
        <ele>802.82099968</ele>
        <time>2013-06-15T06:10:25Z</time>
      </trkpt>
      <trkpt lat="45.72144" lon="6.29026">
        <ele>805.12099968</ele>
        <time>2013-06-15T06:10:38Z</time>
      </trkpt>
      <trkpt lat="45.72135" lon="6.29017">
        <ele>809.6549952</ele>
        <time>2013-06-15T06:10:54Z</time>
      </trkpt>
      <trkpt lat="45.72135" lon="6.29034">
        <ele>815</ele>
        <time>2013-06-15T06:11:12Z</time>
      </trkpt>
      <trkpt lat="45.72139" lon="6.29051">
        <ele>815</ele>
        <time>2013-06-15T06:11:16Z</time>
      </trkpt>
      <trkpt lat="45.7214" lon="6.29069">
        <ele>815.33099904</ele>
        <time>2013-06-15T06:11:20Z</time>
      </trkpt>
      <trkpt lat="45.72139" lon="6.29088">
        <ele>815.73099904</ele>
        <time>2013-06-15T06:11:24Z</time>
      </trkpt>
      <trkpt lat="45.72138" lon="6.29105">
        <ele>816</ele>
        <time>2013-06-15T06:11:28Z</time>
      </trkpt>
      <trkpt lat="45.72138" lon="6.29126">
        <ele>816</ele>
        <time>2013-06-15T06:11:32Z</time>
      </trkpt>
      <trkpt lat="45.72141" lon="6.2914">
        <ele>816</ele>
        <time>2013-06-15T06:11:36Z</time>
      </trkpt>
      <trkpt lat="45.72151" lon="6.29156">
        <ele>815.37900032</ele>
        <time>2013-06-15T06:11:43Z</time>
      </trkpt>
      <trkpt lat="45.7216" lon="6.29175">
        <ele>814.66900096</ele>
        <time>2013-06-15T06:11:50Z</time>
      </trkpt>
      <trkpt lat="45.72165" lon="6.29194">
        <ele>814.26900096</ele>
        <time>2013-06-15T06:11:54Z</time>
      </trkpt>
      <trkpt lat="45.72169" lon="6.29217">
        <ele>813.32867111406</ele>
        <time>2013-06-15T06:11:59Z</time>
      </trkpt>
      <trkpt lat="45.72175" lon="6.2924">
        <ele>811.83016913652</ele>
        <time>2013-06-15T06:12:04Z</time>
      </trkpt>
      <trkpt lat="45.72178" lon="6.29263">
        <ele>810.488511325</ele>
        <time>2013-06-15T06:12:08Z</time>
      </trkpt>
      <trkpt lat="45.72181" lon="6.29282">
        <ele>808.93006671091</ele>
        <time>2013-06-15T06:12:12Z</time>
      </trkpt>
      <trkpt lat="45.72183" lon="6.29302">
        <ele>806.98801198418</ele>
        <time>2013-06-15T06:12:17Z</time>
      </trkpt>
      <trkpt lat="45.7218" lon="6.29341">
        <ele>806</ele>
        <time>2013-06-15T06:12:27Z</time>
      </trkpt>
      <trkpt lat="45.72176" lon="6.29362">
        <ele>806</ele>
        <time>2013-06-15T06:12:31Z</time>
      </trkpt>
      <trkpt lat="45.72172" lon="6.29381">
        <ele>806</ele>
        <time>2013-06-15T06:12:35Z</time>
      </trkpt>
      <trkpt lat="45.72169" lon="6.29399">
        <ele>806</ele>
        <time>2013-06-15T06:12:39Z</time>
      </trkpt>
      <trkpt lat="45.72165" lon="6.29417">
        <ele>806</ele>
        <time>2013-06-15T06:12:44Z</time>
      </trkpt>
      <trkpt lat="45.72156" lon="6.29405">
        <ele>805.56999936</ele>
        <time>2013-06-15T06:12:51Z</time>
      </trkpt>
      <trkpt lat="45.72151" lon="6.29395">
        <ele>805.16999936</ele>
        <time>2013-06-15T06:12:55Z</time>
      </trkpt>
      <trkpt lat="45.72141" lon="6.2939">
        <ele>805.64</ele>
        <time>2013-06-15T06:13:00Z</time>
      </trkpt>
      <trkpt lat="45.72132" lon="6.29386">
        <ele>806.84</ele>
        <time>2013-06-15T06:13:06Z</time>
      </trkpt>
      <trkpt lat="45.72125" lon="6.29378">
        <ele>808.4299896151</ele>
        <time>2013-06-15T06:13:14Z</time>
      </trkpt>
      <trkpt lat="45.72119" lon="6.29369">
        <ele>811.49798193548</ele>
        <time>2013-06-15T06:13:21Z</time>
      </trkpt>
      <trkpt lat="45.72112" lon="6.29361">
        <ele>815.12087883984</ele>
        <time>2013-06-15T06:13:28Z</time>
      </trkpt>
      <trkpt lat="45.72107" lon="6.29353">
        <ele>815.72027963086</ele>
        <time>2013-06-15T06:13:34Z</time>
      </trkpt>
      <trkpt lat="45.72103" lon="6.29346">
        <ele>816.31331289263</ele>
        <time>2013-06-15T06:13:40Z</time>
      </trkpt>
      <trkpt lat="45.72094" lon="6.29337">
        <ele>817.24199936</ele>
        <time>2013-06-15T06:13:48Z</time>
      </trkpt>
      <trkpt lat="45.72082" lon="6.29334">
        <ele>819.5699968</ele>
        <time>2013-06-15T06:13:58Z</time>
      </trkpt>
      <trkpt lat="45.72073" lon="6.29335">
        <ele>822.5699968</ele>
        <time>2013-06-15T06:14:04Z</time>
      </trkpt>
      <trkpt lat="45.72063" lon="6.29335">
        <ele>824.82099968</ele>
        <time>2013-06-15T06:14:15Z</time>
      </trkpt>
      <trkpt lat="45.72041" lon="6.29324">
        <ele>830.08399616</ele>
        <time>2013-06-15T06:14:32Z</time>
      </trkpt>
      <trkpt lat="45.72028" lon="6.29317">
        <ele>833.22799872</ele>
        <time>2013-06-15T06:14:38Z</time>
      </trkpt>
      <trkpt lat="45.72013" lon="6.29312">
        <ele>834.82799872</ele>
        <time>2013-06-15T06:14:46Z</time>
      </trkpt>
      <trkpt lat="45.72003" lon="6.29306">
        <ele>836.43800064</ele>
        <time>2013-06-15T06:14:54Z</time>
      </trkpt>
      <trkpt lat="45.71993" lon="6.29299">
        <ele>839.08399872</ele>
        <time>2013-06-15T06:15:02Z</time>
      </trkpt>
      <trkpt lat="45.71985" lon="6.29288">
        <ele>841.31782166674</ele>
        <time>2013-06-15T06:15:10Z</time>
      </trkpt>
      <trkpt lat="45.71979" lon="6.29276">
        <ele>841.91188144911</ele>
        <time>2013-06-15T06:15:16Z</time>
      </trkpt>
      <trkpt lat="45.71977" lon="6.29269">
        <ele>842.21616212288</ele>
        <time>2013-06-15T06:15:19Z</time>
      </trkpt>
      <trkpt lat="45.71975" lon="6.29264">
        <ele>842.51919223002</ele>
        <time>2013-06-15T06:15:22Z</time>
      </trkpt>
      <trkpt lat="45.71972" lon="6.2926">
        <ele>842.82222233715</ele>
        <time>2013-06-15T06:15:25Z</time>
      </trkpt>
      <trkpt lat="45.7197" lon="6.29254">
        <ele>843.6449984</ele>
        <time>2013-06-15T06:15:28Z</time>
      </trkpt>
      <trkpt lat="45.71966" lon="6.29249">
        <ele>845.6449984</ele>
        <time>2013-06-15T06:15:32Z</time>
      </trkpt>
      <trkpt lat="45.71962" lon="6.29243">
        <ele>847.6449984</ele>
        <time>2013-06-15T06:15:36Z</time>
      </trkpt>
      <trkpt lat="45.71958" lon="6.29236">
        <ele>848</ele>
        <time>2013-06-15T06:15:41Z</time>
      </trkpt>
      <trkpt lat="45.71951" lon="6.29231">
        <ele>848.248</ele>
        <time>2013-06-15T06:15:48Z</time>
      </trkpt>
      <trkpt lat="45.71946" lon="6.29227">
        <ele>849.048</ele>
        <time>2013-06-15T06:15:52Z</time>
      </trkpt>
      <trkpt lat="45.71943" lon="6.29218">
        <ele>850.6549952</ele>
        <time>2013-06-15T06:15:58Z</time>
      </trkpt>
      <trkpt lat="45.71937" lon="6.29209">
        <ele>854.1550016</ele>
        <time>2013-06-15T06:16:05Z</time>
      </trkpt>
      <trkpt lat="45.71916" lon="6.292">
        <ele>856.65799936</ele>
        <time>2013-06-15T06:16:15Z</time>
      </trkpt>
      <trkpt lat="45.71903" lon="6.292">
        <ele>857.848</ele>
        <time>2013-06-15T06:16:21Z</time>
      </trkpt>
      <trkpt lat="45.71891" lon="6.29201">
        <ele>858.848</ele>
        <time>2013-06-15T06:16:26Z</time>
      </trkpt>
      <trkpt lat="45.71877" lon="6.29203">
        <ele>859.53046874101</ele>
        <time>2013-06-15T06:16:32Z</time>
      </trkpt>
      <trkpt lat="45.71862" lon="6.29208">
        <ele>860.12312340401</ele>
        <time>2013-06-15T06:16:38Z</time>
      </trkpt>
      <trkpt lat="45.71848" lon="6.29219">
        <ele>860.92392394829</ele>
        <time>2013-06-15T06:16:46Z</time>
      </trkpt>
      <trkpt lat="45.71843" lon="6.2924">
        <ele>865.6449984</ele>
        <time>2013-06-15T06:16:56Z</time>
      </trkpt>
      <trkpt lat="45.71841" lon="6.29259">
        <ele>866.52099968</ele>
        <time>2013-06-15T06:17:02Z</time>
      </trkpt>
      <trkpt lat="45.71837" lon="6.29276">
        <ele>867.36299904</ele>
        <time>2013-06-15T06:17:08Z</time>
      </trkpt>
      <trkpt lat="45.71832" lon="6.29293">
        <ele>869.16299904</ele>
        <time>2013-06-15T06:17:14Z</time>
      </trkpt>
      <trkpt lat="45.71823" lon="6.29301">
        <ele>870.23100032</ele>
        <time>2013-06-15T06:17:19Z</time>
      </trkpt>
      <trkpt lat="45.7181" lon="6.29308">
        <ele>870.93099904</ele>
        <time>2013-06-15T06:17:26Z</time>
      </trkpt>
      <trkpt lat="45.71796" lon="6.29319">
        <ele>872.41399808</ele>
        <time>2013-06-15T06:17:34Z</time>
      </trkpt>
      <trkpt lat="45.71783" lon="6.29331">
        <ele>873.62799872</ele>
        <time>2013-06-15T06:17:40Z</time>
      </trkpt>
      <trkpt lat="45.71771" lon="6.29342">
        <ele>875.07499904</ele>
        <time>2013-06-15T06:17:47Z</time>
      </trkpt>
      <trkpt lat="45.7176" lon="6.29355">
        <ele>877.17499904</ele>
        <time>2013-06-15T06:17:54Z</time>
      </trkpt>
      <trkpt lat="45.71752" lon="6.29371">
        <ele>878.33000932882</ele>
        <time>2013-06-15T06:18:00Z</time>
      </trkpt>
      <trkpt lat="45.71748" lon="6.29389">
        <ele>878.92821528523</ele>
        <time>2013-06-15T06:18:06Z</time>
      </trkpt>
      <trkpt lat="45.7174" lon="6.2942">
        <ele>879.92377138734</ele>
        <time>2013-06-15T06:18:16Z</time>
      </trkpt>
      <trkpt lat="45.71732" lon="6.29442">
        <ele>880</ele>
        <time>2013-06-15T06:18:23Z</time>
      </trkpt>
      <trkpt lat="45.71723" lon="6.29459">
        <ele>879.66933152266</ele>
        <time>2013-06-15T06:18:30Z</time>
      </trkpt>
      <trkpt lat="45.71715" lon="6.29478">
        <ele>879</ele>
        <time>2013-06-15T06:18:37Z</time>
      </trkpt>
      <trkpt lat="45.71704" lon="6.29494">
        <ele>879</ele>
        <time>2013-06-15T06:18:42Z</time>
      </trkpt>
      <trkpt lat="45.71693" lon="6.29508">
        <ele>878.38855977187</ele>
        <time>2013-06-15T06:18:48Z</time>
      </trkpt>
      <trkpt lat="45.71684" lon="6.29531">
        <ele>874</ele>
        <time>2013-06-15T06:18:57Z</time>
      </trkpt>
      <trkpt lat="45.7168" lon="6.29557">
        <ele>874</ele>
        <time>2013-06-15T06:19:06Z</time>
      </trkpt>
      <trkpt lat="45.71672" lon="6.29576">
        <ele>874</ele>
        <time>2013-06-15T06:19:11Z</time>
      </trkpt>
      <trkpt lat="45.71663" lon="6.296">
        <ele>874</ele>
        <time>2013-06-15T06:19:16Z</time>
      </trkpt>
      <trkpt lat="45.71657" lon="6.29622">
        <ele>871.40758998045</ele>
        <time>2013-06-15T06:19:22Z</time>
      </trkpt>
      <trkpt lat="45.71652" lon="6.29646">
        <ele>868.4344362172</ele>
        <time>2013-06-15T06:19:28Z</time>
      </trkpt>
      <trkpt lat="45.7165" lon="6.29669">
        <ele>865.43143417612</ele>
        <time>2013-06-15T06:19:34Z</time>
      </trkpt>
      <trkpt lat="45.71652" lon="6.29692">
        <ele>861.80419957777</ele>
        <time>2013-06-15T06:19:40Z</time>
      </trkpt>
      <trkpt lat="45.71651" lon="6.29714">
        <ele>856.90900224</ele>
        <time>2013-06-15T06:19:47Z</time>
      </trkpt>
      <trkpt lat="45.71652" lon="6.29739">
        <ele>850.60900224</ele>
        <time>2013-06-15T06:19:56Z</time>
      </trkpt>
      <trkpt lat="45.71656" lon="6.29755">
        <ele>846.21999616</ele>
        <time>2013-06-15T06:20:03Z</time>
      </trkpt>
      <trkpt lat="45.71654" lon="6.29776">
        <ele>842.21599744</ele>
        <time>2013-06-15T06:20:09Z</time>
      </trkpt>
      <trkpt lat="45.71641" lon="6.29825">
        <ele>833.3500032</ele>
        <time>2013-06-15T06:20:22Z</time>
      </trkpt>
      <trkpt lat="45.71632" lon="6.29848">
        <ele>829.96000512</ele>
        <time>2013-06-15T06:20:28Z</time>
      </trkpt>
      <trkpt lat="45.71622" lon="6.2987">
        <ele>824.35999488</ele>
        <time>2013-06-15T06:20:35Z</time>
      </trkpt>
      <trkpt lat="45.71614" lon="6.29893">
        <ele>819.98999552</ele>
        <time>2013-06-15T06:20:41Z</time>
      </trkpt>
      <trkpt lat="45.71611" lon="6.29917">
        <ele>816.49000448</ele>
        <time>2013-06-15T06:20:46Z</time>
      </trkpt>
      <trkpt lat="45.71607" lon="6.29942">
        <ele>814.353295555</ele>
        <time>2013-06-15T06:20:50Z</time>
      </trkpt>
      <trkpt lat="45.71598" lon="6.2996">
        <ele>811.35928166661</ele>
        <time>2013-06-15T06:20:56Z</time>
      </trkpt>
      <trkpt lat="45.71587" lon="6.29971">
        <ele>809.13025979623</ele>
        <time>2013-06-15T06:21:00Z</time>
      </trkpt>
      <trkpt lat="45.71578" lon="6.29979">
        <ele>807.32665373842</ele>
        <time>2013-06-15T06:21:03Z</time>
      </trkpt>
      <trkpt lat="45.71573" lon="6.2999">
        <ele>805.52304768061</ele>
        <time>2013-06-15T06:21:06Z</time>
      </trkpt>
      <trkpt lat="45.71572" lon="6.30006">
        <ele>804.36</ele>
        <time>2013-06-15T06:21:10Z</time>
      </trkpt>
      <trkpt lat="45.71558" lon="6.30017">
        <ele>803.16</ele>
        <time>2013-06-15T06:21:16Z</time>
      </trkpt>
      <trkpt lat="45.71541" lon="6.30021">
        <ele>802.68</ele>
        <time>2013-06-15T06:21:20Z</time>
      </trkpt>
      <trkpt lat="45.71525" lon="6.30017">
        <ele>802.18</ele>
        <time>2013-06-15T06:21:25Z</time>
      </trkpt>
      <trkpt lat="45.71511" lon="6.30018">
        <ele>802.41299968</ele>
        <time>2013-06-15T06:21:31Z</time>
      </trkpt>
      <trkpt lat="45.71496" lon="6.30025">
        <ele>803.11311275656</ele>
        <time>2013-06-15T06:21:38Z</time>
      </trkpt>
      <trkpt lat="45.71483" lon="6.30026">
        <ele>803.61361309674</ele>
        <time>2013-06-15T06:21:43Z</time>
      </trkpt>
      <trkpt lat="45.71473" lon="6.30029">
        <ele>804.04195741601</ele>
        <time>2013-06-15T06:21:47Z</time>
      </trkpt>
      <trkpt lat="45.71444" lon="6.30031">
        <ele>806.44044029936</ele>
        <time>2013-06-15T06:21:59Z</time>
      </trkpt>
      <trkpt lat="45.71424" lon="6.30026">
        <ele>808.6049984</ele>
        <time>2013-06-15T06:22:08Z</time>
      </trkpt>
      <trkpt lat="45.71405" lon="6.30022">
        <ele>813.34199808</ele>
        <time>2013-06-15T06:22:18Z</time>
      </trkpt>
      <trkpt lat="45.71388" lon="6.30018">
        <ele>816</ele>
        <time>2013-06-15T06:22:28Z</time>
      </trkpt>
      <trkpt lat="45.71378" lon="6.30015">
        <ele>816</ele>
        <time>2013-06-15T06:22:35Z</time>
      </trkpt>
      <trkpt lat="45.71372" lon="6.30011">
        <ele>816.84199936</ele>
        <time>2013-06-15T06:22:41Z</time>
      </trkpt>
      <trkpt lat="45.71364" lon="6.3001">
        <ele>817.84199936</ele>
        <time>2013-06-15T06:22:46Z</time>
      </trkpt>
      <trkpt lat="45.71356" lon="6.30008">
        <ele>819.04199936</ele>
        <time>2013-06-15T06:22:52Z</time>
      </trkpt>
      <trkpt lat="45.71348" lon="6.30006">
        <ele>820.22799872</ele>
        <time>2013-06-15T06:22:58Z</time>
      </trkpt>
      <trkpt lat="45.7134" lon="6.30005">
        <ele>821.22799872</ele>
        <time>2013-06-15T06:23:03Z</time>
      </trkpt>
      <trkpt lat="45.71333" lon="6.30004">
        <ele>822.24199936</ele>
        <time>2013-06-15T06:23:08Z</time>
      </trkpt>
      <trkpt lat="45.71325" lon="6.30002">
        <ele>823.48199936</ele>
        <time>2013-06-15T06:23:14Z</time>
      </trkpt>
      <trkpt lat="45.71317" lon="6.30002">
        <ele>824.33399936</ele>
        <time>2013-06-15T06:23:20Z</time>
      </trkpt>
      <trkpt lat="45.71309" lon="6.30003">
        <ele>824.81399936</ele>
        <time>2013-06-15T06:23:25Z</time>
      </trkpt>
      <trkpt lat="45.71299" lon="6.30007">
        <ele>826.04399872</ele>
        <time>2013-06-15T06:23:32Z</time>
      </trkpt>
      <trkpt lat="45.71286" lon="6.30015">
        <ele>828.5653023955</ele>
        <time>2013-06-15T06:23:40Z</time>
      </trkpt>
      <trkpt lat="45.71275" lon="6.30023">
        <ele>831.55633217755</ele>
        <time>2013-06-15T06:23:46Z</time>
      </trkpt>
      <trkpt lat="45.71262" lon="6.30028">
        <ele>832.41223663415</ele>
        <time>2013-06-15T06:23:51Z</time>
      </trkpt>
      <trkpt lat="45.7124" lon="6.30034">
        <ele>832.77900032</ele>
        <time>2013-06-15T06:23:59Z</time>
      </trkpt>
      <trkpt lat="45.71229" lon="6.30037">
        <ele>832.37900032</ele>
        <time>2013-06-15T06:24:03Z</time>
      </trkpt>
      <trkpt lat="45.71218" lon="6.30038">
        <ele>832</ele>
        <time>2013-06-15T06:24:07Z</time>
      </trkpt>
      <trkpt lat="45.71208" lon="6.30036">
        <ele>832</ele>
        <time>2013-06-15T06:24:10Z</time>
      </trkpt>
      <trkpt lat="45.71198" lon="6.30031">
        <ele>832</ele>
        <time>2013-06-15T06:24:13Z</time>
      </trkpt>
      <trkpt lat="45.71183" lon="6.30019">
        <ele>831.78600064</ele>
        <time>2013-06-15T06:24:19Z</time>
      </trkpt>
      <trkpt lat="45.71173" lon="6.30009">
        <ele>831.28600064</ele>
        <time>2013-06-15T06:24:24Z</time>
      </trkpt>
      <trkpt lat="45.71159" lon="6.30001">
        <ele>831</ele>
        <time>2013-06-15T06:24:30Z</time>
      </trkpt>
      <trkpt lat="45.71142" lon="6.2999">
        <ele>831.22356567124</ele>
        <time>2013-06-15T06:24:38Z</time>
      </trkpt>
      <trkpt lat="45.71125" lon="6.29979">
        <ele>833</ele>
        <time>2013-06-15T06:24:47Z</time>
      </trkpt>
      <trkpt lat="45.71107" lon="6.29972">
        <ele>833</ele>
        <time>2013-06-15T06:24:55Z</time>
      </trkpt>
      <trkpt lat="45.71088" lon="6.29966">
        <ele>833.52052035379</ele>
        <time>2013-06-15T06:25:02Z</time>
      </trkpt>
      <trkpt lat="45.7107" lon="6.29959">
        <ele>834.416</ele>
        <time>2013-06-15T06:25:11Z</time>
      </trkpt>
      <trkpt lat="45.7105" lon="6.29952">
        <ele>835.848</ele>
        <time>2013-06-15T06:25:21Z</time>
      </trkpt>
      <trkpt lat="45.71035" lon="6.29946">
        <ele>836.848</ele>
        <time>2013-06-15T06:25:26Z</time>
      </trkpt>
      <trkpt lat="45.71022" lon="6.2994">
        <ele>837.86200064</ele>
        <time>2013-06-15T06:25:31Z</time>
      </trkpt>
      <trkpt lat="45.71004" lon="6.29934">
        <ele>841.42800128</ele>
        <time>2013-06-15T06:25:43Z</time>
      </trkpt>
      <trkpt lat="45.70991" lon="6.29926">
        <ele>844.06200064</ele>
        <time>2013-06-15T06:25:57Z</time>
      </trkpt>
      <trkpt lat="45.7097" lon="6.29898">
        <ele>849.648</ele>
        <time>2013-06-15T06:26:25Z</time>
      </trkpt>
      <trkpt lat="45.70953" lon="6.29887">
        <ele>853.42280414198</ele>
        <time>2013-06-15T06:26:44Z</time>
      </trkpt>
      <trkpt lat="45.70941" lon="6.29874">
        <ele>857.25599744</ele>
        <time>2013-06-15T06:27:00Z</time>
      </trkpt>
      <trkpt lat="45.70927" lon="6.29867">
        <ele>860.71399936</ele>
        <time>2013-06-15T06:27:14Z</time>
      </trkpt>
      <trkpt lat="45.70915" lon="6.29861">
        <ele>862.02799872</ele>
        <time>2013-06-15T06:27:27Z</time>
      </trkpt>
      <trkpt lat="45.70903" lon="6.29854">
        <ele>864.5699968</ele>
        <time>2013-06-15T06:27:38Z</time>
      </trkpt>
      <trkpt lat="45.70896" lon="6.29851">
        <ele>867.0699968</ele>
        <time>2013-06-15T06:27:43Z</time>
      </trkpt>
      <trkpt lat="45.7089" lon="6.29845">
        <ele>869.41399936</ele>
        <time>2013-06-15T06:27:51Z</time>
      </trkpt>
      <trkpt lat="45.70873" lon="6.29835">
        <ele>872.03800064</ele>
        <time>2013-06-15T06:28:12Z</time>
      </trkpt>
      <trkpt lat="45.70857" lon="6.29835">
        <ele>875.02799872</ele>
        <time>2013-06-15T06:28:27Z</time>
      </trkpt>
      <trkpt lat="45.70839" lon="6.29833">
        <ele>878.22799872</ele>
        <time>2013-06-15T06:28:43Z</time>
      </trkpt>
      <trkpt lat="45.70825" lon="6.29829">
        <ele>881.0849984</ele>
        <time>2013-06-15T06:28:57Z</time>
      </trkpt>
      <trkpt lat="45.70811" lon="6.29832">
        <ele>886.86200064</ele>
        <time>2013-06-15T06:29:11Z</time>
      </trkpt>
      <trkpt lat="45.708" lon="6.29839">
        <ele>888.82253287102</ele>
        <time>2013-06-15T06:29:25Z</time>
      </trkpt>
      <trkpt lat="45.70787" lon="6.29839">
        <ele>891.424</ele>
        <time>2013-06-15T06:29:39Z</time>
      </trkpt>
      <trkpt lat="45.70781" lon="6.29843">
        <ele>892.824</ele>
        <time>2013-06-15T06:29:46Z</time>
      </trkpt>
      <trkpt lat="45.7077" lon="6.29845">
        <ele>895.03399936</ele>
        <time>2013-06-15T06:29:57Z</time>
      </trkpt>
      <trkpt lat="45.70765" lon="6.29847">
        <ele>896.23399936</ele>
        <time>2013-06-15T06:30:03Z</time>
      </trkpt>
      <trkpt lat="45.70749" lon="6.29855">
        <ele>899.896</ele>
        <time>2013-06-15T06:30:19Z</time>
      </trkpt>
      <trkpt lat="45.70738" lon="6.29856">
        <ele>903</ele>
        <time>2013-06-15T06:30:28Z</time>
      </trkpt>
      <trkpt lat="45.70733" lon="6.29856">
        <ele>903</ele>
        <time>2013-06-15T06:30:32Z</time>
      </trkpt>
      <trkpt lat="45.70727" lon="6.29859">
        <ele>903.22799872</ele>
        <time>2013-06-15T06:30:38Z</time>
      </trkpt>
      <trkpt lat="45.7072" lon="6.29864">
        <ele>904.62799872</ele>
        <time>2013-06-15T06:30:45Z</time>
      </trkpt>
      <trkpt lat="45.70716" lon="6.29867">
        <ele>905.12199936</ele>
        <time>2013-06-15T06:30:48Z</time>
      </trkpt>
      <trkpt lat="45.70711" lon="6.2987">
        <ele>905.62099968</ele>
        <time>2013-06-15T06:30:53Z</time>
      </trkpt>
      <trkpt lat="45.70706" lon="6.29869">
        <ele>906.85514257108</ele>
        <time>2013-06-15T06:30:59Z</time>
      </trkpt>
      <trkpt lat="45.70701" lon="6.29871">
        <ele>909.65234626249</ele>
        <time>2013-06-15T06:31:06Z</time>
      </trkpt>
      <trkpt lat="45.70697" lon="6.29872">
        <ele>910</ele>
        <time>2013-06-15T06:31:11Z</time>
      </trkpt>
      <trkpt lat="45.7069" lon="6.29871">
        <ele>910.62799872</ele>
        <time>2013-06-15T06:31:20Z</time>
      </trkpt>
      <trkpt lat="45.70683" lon="6.29868">
        <ele>913.696</ele>
        <time>2013-06-15T06:31:31Z</time>
      </trkpt>
      <trkpt lat="45.70678" lon="6.29874">
        <ele>915.296</ele>
        <time>2013-06-15T06:31:35Z</time>
      </trkpt>
      <trkpt lat="45.70666" lon="6.29896">
        <ele>917</ele>
        <time>2013-06-15T06:32:05Z</time>
      </trkpt>
      <trkpt lat="45.7066" lon="6.29911">
        <ele>917.64007973527</ele>
        <time>2013-06-15T06:32:10Z</time>
      </trkpt>
      <trkpt lat="45.7065" lon="6.29924">
        <ele>919.05617101913</ele>
        <time>2013-06-15T06:32:17Z</time>
      </trkpt>
      <trkpt lat="45.70638" lon="6.29928">
        <ele>922.26579681528</ele>
        <time>2013-06-15T06:32:25Z</time>
      </trkpt>
      <trkpt lat="45.70629" lon="6.29916">
        <ele>923.72899968</ele>
        <time>2013-06-15T06:32:34Z</time>
      </trkpt>
      <trkpt lat="45.70602" lon="6.29905">
        <ele>927.848</ele>
        <time>2013-06-15T06:32:56Z</time>
      </trkpt>
      <trkpt lat="45.70585" lon="6.29897">
        <ele>931.44039174293</ele>
        <time>2013-06-15T06:33:14Z</time>
      </trkpt>
      <trkpt lat="45.70568" lon="6.29881">
        <ele>936.05599744</ele>
        <time>2013-06-15T06:33:32Z</time>
      </trkpt>
      <trkpt lat="45.70552" lon="6.29869">
        <ele>942.01699968</ele>
        <time>2013-06-15T06:33:47Z</time>
      </trkpt>
      <trkpt lat="45.70537" lon="6.29854">
        <ele>944.248</ele>
        <time>2013-06-15T06:34:03Z</time>
      </trkpt>
      <trkpt lat="45.70519" lon="6.2986">
        <ele>946.84199936</ele>
        <time>2013-06-15T06:34:16Z</time>
      </trkpt>
      <trkpt lat="45.70501" lon="6.29861">
        <ele>948.84199936</ele>
        <time>2013-06-15T06:34:26Z</time>
      </trkpt>
      <trkpt lat="45.70482" lon="6.29864">
        <ele>950.04095873437</ele>
        <time>2013-06-15T06:34:32Z</time>
      </trkpt>
      <trkpt lat="45.70465" lon="6.29854">
        <ele>951</ele>
        <time>2013-06-15T06:34:42Z</time>
      </trkpt>
      <trkpt lat="45.70452" lon="6.29836">
        <ele>956.07178471477</ele>
        <time>2013-06-15T06:34:57Z</time>
      </trkpt>
      <trkpt lat="45.70436" lon="6.29823">
        <ele>959.31193582803</ele>
        <time>2013-06-15T06:35:10Z</time>
      </trkpt>
      <trkpt lat="45.70418" lon="6.29819">
        <ele>960.81399936</ele>
        <time>2013-06-15T06:35:25Z</time>
      </trkpt>
      <trkpt lat="45.70399" lon="6.2982">
        <ele>963.62799872</ele>
        <time>2013-06-15T06:35:40Z</time>
      </trkpt>
      <trkpt lat="45.70386" lon="6.2981">
        <ele>968.12</ele>
        <time>2013-06-15T06:35:53Z</time>
      </trkpt>
      <trkpt lat="45.70374" lon="6.29809">
        <ele>971.89300096</ele>
        <time>2013-06-15T06:36:03Z</time>
      </trkpt>
      <trkpt lat="45.70355" lon="6.29811">
        <ele>973.73099904</ele>
        <time>2013-06-15T06:36:14Z</time>
      </trkpt>
      <trkpt lat="45.70337" lon="6.29806">
        <ele>977.72599808</ele>
        <time>2013-06-15T06:36:33Z</time>
      </trkpt>
      <trkpt lat="45.70322" lon="6.29802">
        <ele>982.96299904</ele>
        <time>2013-06-15T06:36:50Z</time>
      </trkpt>
      <trkpt lat="45.70285" lon="6.29811">
        <ele>988.02799872</ele>
        <time>2013-06-15T06:37:17Z</time>
      </trkpt>
      <trkpt lat="45.70266" lon="6.29807">
        <ele>991.22799872</ele>
        <time>2013-06-15T06:37:33Z</time>
      </trkpt>
      <trkpt lat="45.70253" lon="6.29789">
        <ele>997.28913479319</ele>
        <time>2013-06-15T06:37:51Z</time>
      </trkpt>
      <trkpt lat="45.70236" lon="6.29782">
        <ele>1001.5349952</ele>
        <time>2013-06-15T06:38:10Z</time>
      </trkpt>
      <trkpt lat="45.70221" lon="6.29765">
        <ele>1007.74199808</ele>
        <time>2013-06-15T06:38:26Z</time>
      </trkpt>
      <trkpt lat="45.70204" lon="6.29757">
        <ele>1011</ele>
        <time>2013-06-15T06:38:45Z</time>
      </trkpt>
      <trkpt lat="45.70189" lon="6.29755">
        <ele>1018.64199808</ele>
        <time>2013-06-15T06:39:09Z</time>
      </trkpt>
      <trkpt lat="45.70176" lon="6.29771">
        <ele>1025.42799872</ele>
        <time>2013-06-15T06:39:39Z</time>
      </trkpt>
      <trkpt lat="45.70163" lon="6.29762">
        <ele>1032</ele>
        <time>2013-06-15T06:39:58Z</time>
      </trkpt>
      <trkpt lat="45.70149" lon="6.29751">
        <ele>1037.12</ele>
        <time>2013-06-15T06:40:23Z</time>
      </trkpt>
      <trkpt lat="45.70134" lon="6.29736">
        <ele>1044</ele>
        <time>2013-06-15T06:40:48Z</time>
      </trkpt>
      <trkpt lat="45.70115" lon="6.2973">
        <ele>1048.944</ele>
        <time>2013-06-15T06:41:05Z</time>
      </trkpt>
      <trkpt lat="45.70097" lon="6.29727">
        <ele>1052.23100032</ele>
        <time>2013-06-15T06:41:19Z</time>
      </trkpt>
      <trkpt lat="45.7008" lon="6.29727">
        <ele>1054.048</ele>
        <time>2013-06-15T06:41:32Z</time>
      </trkpt>
      <trkpt lat="45.70064" lon="6.29725">
        <ele>1056.40999936</ele>
        <time>2013-06-15T06:41:44Z</time>
      </trkpt>
      <trkpt lat="45.70046" lon="6.29723">
        <ele>1059.02799872</ele>
        <time>2013-06-15T06:41:57Z</time>
      </trkpt>
      <trkpt lat="45.70028" lon="6.29722">
        <ele>1060.82799872</ele>
        <time>2013-06-15T06:42:06Z</time>
      </trkpt>
      <trkpt lat="45.70009" lon="6.29725">
        <ele>1062.24199936</ele>
        <time>2013-06-15T06:42:13Z</time>
      </trkpt>
      <trkpt lat="45.69975" lon="6.29722">
        <ele>1067</ele>
        <time>2013-06-15T06:42:28Z</time>
      </trkpt>
      <trkpt lat="45.69959" lon="6.2972">
        <ele>1067</ele>
        <time>2013-06-15T06:42:35Z</time>
      </trkpt>
      <trkpt lat="45.69942" lon="6.29714">
        <ele>1068.64199936</ele>
        <time>2013-06-15T06:42:45Z</time>
      </trkpt>
      <trkpt lat="45.69924" lon="6.29716">
        <ele>1069.61399936</ele>
        <time>2013-06-15T06:42:53Z</time>
      </trkpt>
      <trkpt lat="45.69906" lon="6.29724">
        <ele>1070.52099968</ele>
        <time>2013-06-15T06:43:02Z</time>
      </trkpt>
      <trkpt lat="45.6989" lon="6.29724">
        <ele>1071.22099968</ele>
        <time>2013-06-15T06:43:09Z</time>
      </trkpt>
      <trkpt lat="45.69876" lon="6.29719">
        <ele>1071.92099968</ele>
        <time>2013-06-15T06:43:16Z</time>
      </trkpt>
      <trkpt lat="45.69861" lon="6.29711">
        <ele>1073.44199936</ele>
        <time>2013-06-15T06:43:24Z</time>
      </trkpt>
      <trkpt lat="45.69847" lon="6.29707">
        <ele>1074.4127614718</ele>
        <time>2013-06-15T06:43:31Z</time>
      </trkpt>
      <trkpt lat="45.69839" lon="6.29708">
        <ele>1074.71186445</ele>
        <time>2013-06-15T06:43:34Z</time>
      </trkpt>
      <trkpt lat="45.69826" lon="6.29712">
        <ele>1075</ele>
        <time>2013-06-15T06:43:40Z</time>
      </trkpt>
      <trkpt lat="45.69811" lon="6.29714">
        <ele>1075.01399936</ele>
        <time>2013-06-15T06:43:47Z</time>
      </trkpt>
      <trkpt lat="45.69795" lon="6.29713">
        <ele>1075.81399936</ele>
        <time>2013-06-15T06:43:55Z</time>
      </trkpt>
      <trkpt lat="45.69779" lon="6.29712">
        <ele>1076</ele>
        <time>2013-06-15T06:44:01Z</time>
      </trkpt>
      <trkpt lat="45.69762" lon="6.29711">
        <ele>1076.04199936</ele>
        <time>2013-06-15T06:44:07Z</time>
      </trkpt>
      <trkpt lat="45.69746" lon="6.29713">
        <ele>1077.44199936</ele>
        <time>2013-06-15T06:44:14Z</time>
      </trkpt>
      <trkpt lat="45.69728" lon="6.2971">
        <ele>1078.51399936</ele>
        <time>2013-06-15T06:44:22Z</time>
      </trkpt>
      <trkpt lat="45.6971" lon="6.297">
        <ele>1079</ele>
        <time>2013-06-15T06:44:33Z</time>
      </trkpt>
      <trkpt lat="45.69675" lon="6.2969">
        <ele>1079.01699968</ele>
        <time>2013-06-15T06:44:47Z</time>
      </trkpt>
      <trkpt lat="45.69662" lon="6.29688">
        <ele>1079.51699968</ele>
        <time>2013-06-15T06:44:52Z</time>
      </trkpt>
      <trkpt lat="45.69648" lon="6.2969">
        <ele>1080.43100032</ele>
        <time>2013-06-15T06:45:01Z</time>
      </trkpt>
      <trkpt lat="45.69631" lon="6.29691">
        <ele>1082.248</ele>
        <time>2013-06-15T06:45:13Z</time>
      </trkpt>
      <trkpt lat="45.69612" lon="6.29686">
        <ele>1083.5234766908</ele>
        <time>2013-06-15T06:45:22Z</time>
      </trkpt>
      <trkpt lat="45.69595" lon="6.29682">
        <ele>1084.8468472162</ele>
        <time>2013-06-15T06:45:31Z</time>
      </trkpt>
      <trkpt lat="45.6958" lon="6.29677">
        <ele>1086.2475051481</ele>
        <time>2013-06-15T06:45:38Z</time>
      </trkpt>
      <trkpt lat="45.69566" lon="6.29678">
        <ele>1088.2545094961</ele>
        <time>2013-06-15T06:45:48Z</time>
      </trkpt>
      <trkpt lat="45.69551" lon="6.29679">
        <ele>1090</ele>
        <time>2013-06-15T06:45:59Z</time>
      </trkpt>
      <trkpt lat="45.69538" lon="6.29677">
        <ele>1090.66199808</ele>
        <time>2013-06-15T06:46:10Z</time>
      </trkpt>
      <trkpt lat="45.69525" lon="6.29678">
        <ele>1092.4466604475</ele>
        <time>2013-06-15T06:46:19Z</time>
      </trkpt>
      <trkpt lat="45.69513" lon="6.29678">
        <ele>1094.8866629777</ele>
        <time>2013-06-15T06:46:29Z</time>
      </trkpt>
      <trkpt lat="45.695" lon="6.29676">
        <ele>1098.43100032</ele>
        <time>2013-06-15T06:46:41Z</time>
      </trkpt>
      <trkpt lat="45.69485" lon="6.29672">
        <ele>1100.648</ele>
        <time>2013-06-15T06:46:55Z</time>
      </trkpt>
      <trkpt lat="45.69472" lon="6.29665">
        <ele>1102.66200064</ele>
        <time>2013-06-15T06:47:05Z</time>
      </trkpt>
      <trkpt lat="45.69461" lon="6.29661">
        <ele>1104.46199808</ele>
        <time>2013-06-15T06:47:14Z</time>
      </trkpt>
      <trkpt lat="45.69447" lon="6.29665">
        <ele>1106.12</ele>
        <time>2013-06-15T06:47:27Z</time>
      </trkpt>
      <trkpt lat="45.69434" lon="6.29665">
        <ele>1112.82100096</ele>
        <time>2013-06-15T06:47:43Z</time>
      </trkpt>
      <trkpt lat="45.69411" lon="6.29671">
        <ele>1116.68399872</ele>
        <time>2013-06-15T06:48:01Z</time>
      </trkpt>
      <trkpt lat="45.694" lon="6.29679">
        <ele>1119.51699968</ele>
        <time>2013-06-15T06:48:12Z</time>
      </trkpt>
      <trkpt lat="45.69388" lon="6.2968">
        <ele>1122.248</ele>
        <time>2013-06-15T06:48:28Z</time>
      </trkpt>
      <trkpt lat="45.69375" lon="6.29681">
        <ele>1123.848</ele>
        <time>2013-06-15T06:48:36Z</time>
      </trkpt>
      <trkpt lat="45.69362" lon="6.29685">
        <ele>1126.92399616</ele>
        <time>2013-06-15T06:48:44Z</time>
      </trkpt>
      <trkpt lat="45.69349" lon="6.29684">
        <ele>1128</ele>
        <time>2013-06-15T06:48:49Z</time>
      </trkpt>
      <trkpt lat="45.69333" lon="6.29684">
        <ele>1128</ele>
        <time>2013-06-15T06:48:56Z</time>
      </trkpt>
      <trkpt lat="45.69316" lon="6.29683">
        <ele>1130.52400128</ele>
        <time>2013-06-15T06:49:03Z</time>
      </trkpt>
      <trkpt lat="45.69302" lon="6.29689">
        <ele>1132</ele>
        <time>2013-06-15T06:49:12Z</time>
      </trkpt>
      <trkpt lat="45.69289" lon="6.29698">
        <ele>1132.6439331011</ele>
        <time>2013-06-15T06:49:20Z</time>
      </trkpt>
      <trkpt lat="45.69277" lon="6.29705">
        <ele>1134</ele>
        <time>2013-06-15T06:49:27Z</time>
      </trkpt>
      <trkpt lat="45.69266" lon="6.29715">
        <ele>1134</ele>
        <time>2013-06-15T06:49:33Z</time>
      </trkpt>
      <trkpt lat="45.6925" lon="6.29717">
        <ele>1133.676</ele>
        <time>2013-06-15T06:49:40Z</time>
      </trkpt>
      <trkpt lat="45.69237" lon="6.29708">
        <ele>1133.076</ele>
        <time>2013-06-15T06:49:46Z</time>
      </trkpt>
      <trkpt lat="45.6923" lon="6.29681">
        <ele>1129.6673341594</ele>
        <time>2013-06-15T06:49:55Z</time>
      </trkpt>
      <trkpt lat="45.69216" lon="6.29661">
        <ele>1125.930512606</ele>
        <time>2013-06-15T06:50:07Z</time>
      </trkpt>
      <trkpt lat="45.692" lon="6.29646">
        <ele>1123.8157121662</ele>
        <time>2013-06-15T06:50:14Z</time>
      </trkpt>
      <trkpt lat="45.69184" lon="6.29628">
        <ele>1122.67699968</ele>
        <time>2013-06-15T06:50:20Z</time>
      </trkpt>
      <trkpt lat="45.69163" lon="6.29584">
        <ele>1121.17699968</ele>
        <time>2013-06-15T06:50:35Z</time>
      </trkpt>
      <trkpt lat="45.69153" lon="6.29562">
        <ele>1121.6306310693</ele>
        <time>2013-06-15T06:50:43Z</time>
      </trkpt>
      <trkpt lat="45.69142" lon="6.29541">
        <ele>1122.53099904</ele>
        <time>2013-06-15T06:50:52Z</time>
      </trkpt>
      <trkpt lat="45.69136" lon="6.29515">
        <ele>1124.01984</ele>
        <time>2013-06-15T06:51:02Z</time>
      </trkpt>
      <trkpt lat="45.69124" lon="6.29493">
        <ele>1125</ele>
        <time>2013-06-15T06:51:11Z</time>
      </trkpt>
      <trkpt lat="45.6911" lon="6.29482">
        <ele>1125</ele>
        <time>2013-06-15T06:51:20Z</time>
      </trkpt>
      <trkpt lat="45.69096" lon="6.29467">
        <ele>1125</ele>
        <time>2013-06-15T06:51:29Z</time>
      </trkpt>
      <trkpt lat="45.6908" lon="6.29455">
        <ele>1125.124</ele>
        <time>2013-06-15T06:51:38Z</time>
      </trkpt>
      <trkpt lat="45.69067" lon="6.29434">
        <ele>1126.248</ele>
        <time>2013-06-15T06:51:48Z</time>
      </trkpt>
      <trkpt lat="45.69061" lon="6.29411">
        <ele>1127.648</ele>
        <time>2013-06-15T06:51:55Z</time>
      </trkpt>
      <trkpt lat="45.69047" lon="6.29391">
        <ele>1131.6570311373</ele>
        <time>2013-06-15T06:52:06Z</time>
      </trkpt>
      <trkpt lat="45.69037" lon="6.2937">
        <ele>1132</ele>
        <time>2013-06-15T06:52:16Z</time>
      </trkpt>
      <trkpt lat="45.69031" lon="6.29346">
        <ele>1133.21399808</ele>
        <time>2013-06-15T06:52:28Z</time>
      </trkpt>
      <trkpt lat="45.69019" lon="6.29327">
        <ele>1136.54199808</ele>
        <time>2013-06-15T06:52:42Z</time>
      </trkpt>
      <trkpt lat="45.69005" lon="6.29309">
        <ele>1139.44199936</ele>
        <time>2013-06-15T06:52:54Z</time>
      </trkpt>
      <trkpt lat="45.68999" lon="6.29286">
        <ele>1140.61699968</ele>
        <time>2013-06-15T06:53:03Z</time>
      </trkpt>
      <trkpt lat="45.68991" lon="6.29264">
        <ele>1143.648</ele>
        <time>2013-06-15T06:53:20Z</time>
      </trkpt>
      <trkpt lat="45.68986" lon="6.29241">
        <ele>1147.85599744</ele>
        <time>2013-06-15T06:53:39Z</time>
      </trkpt>
      <trkpt lat="45.68962" lon="6.29197">
        <ele>1152.44199936</ele>
        <time>2013-06-15T06:53:59Z</time>
      </trkpt>
      <trkpt lat="45.68953" lon="6.29175">
        <ele>1154.42799872</ele>
        <time>2013-06-15T06:54:09Z</time>
      </trkpt>
      <trkpt lat="45.6895" lon="6.29151">
        <ele>1156.62799872</ele>
        <time>2013-06-15T06:54:20Z</time>
      </trkpt>
      <trkpt lat="45.68948" lon="6.29127">
        <ele>1159.42799872</ele>
        <time>2013-06-15T06:54:34Z</time>
      </trkpt>
      <trkpt lat="45.68947" lon="6.29101">
        <ele>1165</ele>
        <time>2013-06-15T06:54:47Z</time>
      </trkpt>
      <trkpt lat="45.68943" lon="6.29075">
        <ele>1165.0441336385</ele>
        <time>2013-06-15T06:54:57Z</time>
      </trkpt>
      <trkpt lat="45.6894" lon="6.29053">
        <ele>1169</ele>
        <time>2013-06-15T06:55:13Z</time>
      </trkpt>
      <trkpt lat="45.68935" lon="6.2903">
        <ele>1170.03399936</ele>
        <time>2013-06-15T06:55:22Z</time>
      </trkpt>
      <trkpt lat="45.68928" lon="6.29016">
        <ele>1172.26200064</ele>
        <time>2013-06-15T06:55:33Z</time>
      </trkpt>
      <trkpt lat="45.68924" lon="6.28999">
        <ele>1174.86199808</ele>
        <time>2013-06-15T06:55:46Z</time>
      </trkpt>
      <trkpt lat="45.68913" lon="6.28989">
        <ele>1177.048</ele>
        <time>2013-06-15T06:56:02Z</time>
      </trkpt>
      <trkpt lat="45.689" lon="6.28984">
        <ele>1179.448</ele>
        <time>2013-06-15T06:56:14Z</time>
      </trkpt>
      <trkpt lat="45.68888" lon="6.2897">
        <ele>1181.61400064</ele>
        <time>2013-06-15T06:56:25Z</time>
      </trkpt>
      <trkpt lat="45.68884" lon="6.2895">
        <ele>1184.42799872</ele>
        <time>2013-06-15T06:56:39Z</time>
      </trkpt>
      <trkpt lat="45.68881" lon="6.28928">
        <ele>1186.2335324446</ele>
        <time>2013-06-15T06:56:48Z</time>
      </trkpt>
      <trkpt lat="45.68882" lon="6.28911">
        <ele>1187.6307389258</ele>
        <time>2013-06-15T06:56:55Z</time>
      </trkpt>
      <trkpt lat="45.68877" lon="6.28893">
        <ele>1189.4468941423</ele>
        <time>2013-06-15T06:57:04Z</time>
      </trkpt>
      <trkpt lat="45.68878" lon="6.28874">
        <ele>1190.73099904</ele>
        <time>2013-06-15T06:57:14Z</time>
      </trkpt>
      <trkpt lat="45.68872" lon="6.28829">
        <ele>1199.0237859342</ele>
        <time>2013-06-15T06:57:37Z</time>
      </trkpt>
      <trkpt lat="45.68879" lon="6.28812">
        <ele>1200.3077695071</ele>
        <time>2013-06-15T06:57:50Z</time>
      </trkpt>
      <trkpt lat="45.68891" lon="6.28805">
        <ele>1204.1049984</ele>
        <time>2013-06-15T06:58:03Z</time>
      </trkpt>
      <trkpt lat="45.68894" lon="6.28791">
        <ele>1206.71399936</ele>
        <time>2013-06-15T06:58:14Z</time>
      </trkpt>
      <trkpt lat="45.68896" lon="6.28776">
        <ele>1209.36299904</ele>
        <time>2013-06-15T06:58:28Z</time>
      </trkpt>
      <trkpt lat="45.68895" lon="6.28762">
        <ele>1213.0699968</ele>
        <time>2013-06-15T06:58:39Z</time>
      </trkpt>
      <trkpt lat="45.68898" lon="6.28751">
        <ele>1217.65699712</ele>
        <time>2013-06-15T06:58:49Z</time>
      </trkpt>
      <trkpt lat="45.68897" lon="6.2874">
        <ele>1220.34199808</ele>
        <time>2013-06-15T06:58:58Z</time>
      </trkpt>
      <trkpt lat="45.68893" lon="6.28731">
        <ele>1222.74199808</ele>
        <time>2013-06-15T06:59:06Z</time>
      </trkpt>
      <trkpt lat="45.68889" lon="6.2872">
        <ele>1224.22799872</ele>
        <time>2013-06-15T06:59:18Z</time>
      </trkpt>
      <trkpt lat="45.68886" lon="6.28709">
        <ele>1226.44199936</ele>
        <time>2013-06-15T06:59:29Z</time>
      </trkpt>
      <trkpt lat="45.68883" lon="6.28697">
        <ele>1231.70199808</ele>
        <time>2013-06-15T06:59:43Z</time>
      </trkpt>
      <trkpt lat="45.6888" lon="6.28689">
        <ele>1235.248</ele>
        <time>2013-06-15T06:59:53Z</time>
      </trkpt>
      <trkpt lat="45.6888" lon="6.28677">
        <ele>1238.30699904</ele>
        <time>2013-06-15T07:00:10Z</time>
      </trkpt>
      <trkpt lat="45.68878" lon="6.28669">
        <ele>1239.424</ele>
        <time>2013-06-15T07:00:19Z</time>
      </trkpt>
      <trkpt lat="45.68875" lon="6.2866">
        <ele>1241.4796817379</ele>
        <time>2013-06-15T07:00:28Z</time>
      </trkpt>
      <trkpt lat="45.68871" lon="6.2865">
        <ele>1243.8582751582</ele>
        <time>2013-06-15T07:00:34Z</time>
      </trkpt>
      <trkpt lat="45.68867" lon="6.28639">
        <ele>1247.8859741236</ele>
        <time>2013-06-15T07:00:44Z</time>
      </trkpt>
      <trkpt lat="45.6886" lon="6.28607">
        <ele>1253.53099904</ele>
        <time>2013-06-15T07:01:12Z</time>
      </trkpt>
      <trkpt lat="45.68859" lon="6.2859">
        <ele>1255.86199808</ele>
        <time>2013-06-15T07:01:26Z</time>
      </trkpt>
      <trkpt lat="45.6886" lon="6.28578">
        <ele>1261.544</ele>
        <time>2013-06-15T07:01:36Z</time>
      </trkpt>
      <trkpt lat="45.68856" lon="6.28569">
        <ele>1265.048</ele>
        <time>2013-06-15T07:01:47Z</time>
      </trkpt>
      <trkpt lat="45.68856" lon="6.2856">
        <ele>1266.248</ele>
        <time>2013-06-15T07:01:53Z</time>
      </trkpt>
      <trkpt lat="45.68861" lon="6.28557">
        <ele>1267.66199808</ele>
        <time>2013-06-15T07:02:00Z</time>
      </trkpt>
      <trkpt lat="45.68867" lon="6.28553">
        <ele>1269.048</ele>
        <time>2013-06-15T07:02:07Z</time>
      </trkpt>
      <trkpt lat="45.68866" lon="6.28543">
        <ele>1270.848</ele>
        <time>2013-06-15T07:02:16Z</time>
      </trkpt>
      <trkpt lat="45.68859" lon="6.28539">
        <ele>1271.53099904</ele>
        <time>2013-06-15T07:02:22Z</time>
      </trkpt>
      <trkpt lat="45.68855" lon="6.28534">
        <ele>1272.12</ele>
        <time>2013-06-15T07:02:27Z</time>
      </trkpt>
      <trkpt lat="45.6885" lon="6.2853">
        <ele>1274.62</ele>
        <time>2013-06-15T07:02:32Z</time>
      </trkpt>
      <trkpt lat="45.68843" lon="6.28527">
        <ele>1276.62</ele>
        <time>2013-06-15T07:02:36Z</time>
      </trkpt>
      <trkpt lat="45.68834" lon="6.28529">
        <ele>1277</ele>
        <time>2013-06-15T07:02:41Z</time>
      </trkpt>
      <trkpt lat="45.68824" lon="6.28536">
        <ele>1277</ele>
        <time>2013-06-15T07:02:48Z</time>
      </trkpt>
      <trkpt lat="45.6881" lon="6.28542">
        <ele>1277.26199808</ele>
        <time>2013-06-15T07:02:58Z</time>
      </trkpt>
      <trkpt lat="45.68798" lon="6.28545">
        <ele>1280.048</ele>
        <time>2013-06-15T07:03:12Z</time>
      </trkpt>
      <trkpt lat="45.68786" lon="6.28546">
        <ele>1283.113661046</ele>
        <time>2013-06-15T07:03:21Z</time>
      </trkpt>
      <trkpt lat="45.68779" lon="6.28542">
        <ele>1286.2086256767</ele>
        <time>2013-06-15T07:03:28Z</time>
      </trkpt>
      <trkpt lat="45.68763" lon="6.28538">
        <ele>1288.62799872</ele>
        <time>2013-06-15T07:03:50Z</time>
      </trkpt>
      <trkpt lat="45.68753" lon="6.28537">
        <ele>1290.34199808</ele>
        <time>2013-06-15T07:03:58Z</time>
      </trkpt>
      <trkpt lat="45.68744" lon="6.28536">
        <ele>1292.472</ele>
        <time>2013-06-15T07:04:05Z</time>
      </trkpt>
      <trkpt lat="45.68735" lon="6.28532">
        <ele>1293.43100032</ele>
        <time>2013-06-15T07:04:11Z</time>
      </trkpt>
      <trkpt lat="45.68726" lon="6.28529">
        <ele>1294.224</ele>
        <time>2013-06-15T07:04:19Z</time>
      </trkpt>
      <trkpt lat="45.68717" lon="6.28529">
        <ele>1294.924</ele>
        <time>2013-06-15T07:04:26Z</time>
      </trkpt>
      <trkpt lat="45.68709" lon="6.28522">
        <ele>1298.18599424</ele>
        <time>2013-06-15T07:04:32Z</time>
      </trkpt>
      <trkpt lat="45.68702" lon="6.28518">
        <ele>1301.224</ele>
        <time>2013-06-15T07:04:39Z</time>
      </trkpt>
      <trkpt lat="45.68694" lon="6.28514">
        <ele>1301.924</ele>
        <time>2013-06-15T07:04:46Z</time>
      </trkpt>
      <trkpt lat="45.68689" lon="6.28513">
        <ele>1302.42899968</ele>
        <time>2013-06-15T07:04:51Z</time>
      </trkpt>
      <trkpt lat="45.68684" lon="6.28509">
        <ele>1302.82899968</ele>
        <time>2013-06-15T07:04:55Z</time>
      </trkpt>
      <trkpt lat="45.68674" lon="6.28505">
        <ele>1303.63100032</ele>
        <time>2013-06-15T07:05:03Z</time>
      </trkpt>
      <trkpt lat="45.68666" lon="6.28502">
        <ele>1304.33099904</ele>
        <time>2013-06-15T07:05:10Z</time>
      </trkpt>
      <trkpt lat="45.68658" lon="6.28495">
        <ele>1305.62</ele>
        <time>2013-06-15T07:05:18Z</time>
      </trkpt>
      <trkpt lat="45.68649" lon="6.28491">
        <ele>1309.12</ele>
        <time>2013-06-15T07:05:25Z</time>
      </trkpt>
      <trkpt lat="45.68639" lon="6.28487">
        <ele>1311.448</ele>
        <time>2013-06-15T07:05:34Z</time>
      </trkpt>
      <trkpt lat="45.68629" lon="6.28482">
        <ele>1312.53099904</ele>
        <time>2013-06-15T07:05:42Z</time>
      </trkpt>
      <trkpt lat="45.68625" lon="6.2847">
        <ele>1313.448</ele>
        <time>2013-06-15T07:05:49Z</time>
      </trkpt>
      <trkpt lat="45.68624" lon="6.28439">
        <ele>1319.1550016</ele>
        <time>2013-06-15T07:06:05Z</time>
      </trkpt>
      <trkpt lat="45.68628" lon="6.28425">
        <ele>1320</ele>
        <time>2013-06-15T07:06:13Z</time>
      </trkpt>
      <trkpt lat="45.68634" lon="6.28412">
        <ele>1320.6098289013</ele>
        <time>2013-06-15T07:06:20Z</time>
      </trkpt>
      <trkpt lat="45.68639" lon="6.28398">
        <ele>1322.02799872</ele>
        <time>2013-06-15T07:06:27Z</time>
      </trkpt>
      <trkpt lat="45.68649" lon="6.28387">
        <ele>1323.82799872</ele>
        <time>2013-06-15T07:06:36Z</time>
      </trkpt>
      <trkpt lat="45.68661" lon="6.2839">
        <ele>1326.04199936</ele>
        <time>2013-06-15T07:06:47Z</time>
      </trkpt>
      <trkpt lat="45.68659" lon="6.28372">
        <ele>1328.52099968</ele>
        <time>2013-06-15T07:07:12Z</time>
      </trkpt>
      <trkpt lat="45.68657" lon="6.28354">
        <ele>1329.11699968</ele>
        <time>2013-06-15T07:07:18Z</time>
      </trkpt>
      <trkpt lat="45.68649" lon="6.28339">
        <ele>1329.71699968</ele>
        <time>2013-06-15T07:07:24Z</time>
      </trkpt>
      <trkpt lat="45.68641" lon="6.28327">
        <ele>1330</ele>
        <time>2013-06-15T07:07:29Z</time>
      </trkpt>
      <trkpt lat="45.68632" lon="6.28312">
        <ele>1330</ele>
        <time>2013-06-15T07:07:34Z</time>
      </trkpt>
      <trkpt lat="45.68621" lon="6.28298">
        <ele>1330</ele>
        <time>2013-06-15T07:07:40Z</time>
      </trkpt>
      <trkpt lat="45.68614" lon="6.28279">
        <ele>1330</ele>
        <time>2013-06-15T07:07:46Z</time>
      </trkpt>
      <trkpt lat="45.68604" lon="6.28263">
        <ele>1330.63100032</ele>
        <time>2013-06-15T07:07:53Z</time>
      </trkpt>
      <trkpt lat="45.68595" lon="6.28244">
        <ele>1331.66199808</ele>
        <time>2013-06-15T07:08:00Z</time>
      </trkpt>
      <trkpt lat="45.68583" lon="6.28223">
        <ele>1333.53099904</ele>
        <time>2013-06-15T07:08:12Z</time>
      </trkpt>
      <trkpt lat="45.68572" lon="6.28202">
        <ele>1334.412</ele>
        <time>2013-06-15T07:08:21Z</time>
      </trkpt>
      <trkpt lat="45.68567" lon="6.28183">
        <ele>1335.21399936</ele>
        <time>2013-06-15T07:08:29Z</time>
      </trkpt>
      <trkpt lat="45.68554" lon="6.28146">
        <ele>1339.46199808</ele>
        <time>2013-06-15T07:08:54Z</time>
      </trkpt>
      <trkpt lat="45.68546" lon="6.28134">
        <ele>1340.9282152852</ele>
        <time>2013-06-15T07:09:06Z</time>
      </trkpt>
      <trkpt lat="45.68539" lon="6.28118">
        <ele>1344.248</ele>
        <time>2013-06-15T07:09:23Z</time>
      </trkpt>
      <trkpt lat="45.68532" lon="6.28106">
        <ele>1347.62</ele>
        <time>2013-06-15T07:09:32Z</time>
      </trkpt>
      <trkpt lat="45.68526" lon="6.28095">
        <ele>1351.272</ele>
        <time>2013-06-15T07:09:41Z</time>
      </trkpt>
      <trkpt lat="45.68522" lon="6.28082">
        <ele>1353.66199808</ele>
        <time>2013-06-15T07:09:50Z</time>
      </trkpt>
      <trkpt lat="45.68516" lon="6.28072">
        <ele>1355.69300096</ele>
        <time>2013-06-15T07:09:59Z</time>
      </trkpt>
      <trkpt lat="45.6851" lon="6.28058">
        <ele>1358.124</ele>
        <time>2013-06-15T07:10:08Z</time>
      </trkpt>
      <trkpt lat="45.68501" lon="6.28044">
        <ele>1359.448</ele>
        <time>2013-06-15T07:10:19Z</time>
      </trkpt>
      <trkpt lat="45.68493" lon="6.28034">
        <ele>1361.048</ele>
        <time>2013-06-15T07:10:27Z</time>
      </trkpt>
      <trkpt lat="45.68489" lon="6.28021">
        <ele>1362.648</ele>
        <time>2013-06-15T07:10:35Z</time>
      </trkpt>
      <trkpt lat="45.68484" lon="6.28007">
        <ele>1364.86199808</ele>
        <time>2013-06-15T07:10:46Z</time>
      </trkpt>
      <trkpt lat="45.68482" lon="6.27985">
        <ele>1367.97499904</ele>
        <time>2013-06-15T07:11:00Z</time>
      </trkpt>
      <trkpt lat="45.68477" lon="6.27967">
        <ele>1370.21399936</ele>
        <time>2013-06-15T07:11:09Z</time>
      </trkpt>
      <trkpt lat="45.68471" lon="6.27952">
        <ele>1371.624</ele>
        <time>2013-06-15T07:11:20Z</time>
      </trkpt>
      <trkpt lat="45.68466" lon="6.27936">
        <ele>1373.44199936</ele>
        <time>2013-06-15T07:11:29Z</time>
      </trkpt>
      <trkpt lat="45.68462" lon="6.27919">
        <ele>1374.84199936</ele>
        <time>2013-06-15T07:11:36Z</time>
      </trkpt>
      <trkpt lat="45.68458" lon="6.27901">
        <ele>1376.44199936</ele>
        <time>2013-06-15T07:11:44Z</time>
      </trkpt>
      <trkpt lat="45.68452" lon="6.27872">
        <ele>1379.4463395502</ele>
        <time>2013-06-15T07:12:04Z</time>
      </trkpt>
      <trkpt lat="45.68449" lon="6.2786">
        <ele>1381.048</ele>
        <time>2013-06-15T07:12:12Z</time>
      </trkpt>
      <trkpt lat="45.68443" lon="6.27853">
        <ele>1382.42799872</ele>
        <time>2013-06-15T07:12:19Z</time>
      </trkpt>
      <trkpt lat="45.68439" lon="6.27841">
        <ele>1386.5699968</ele>
        <time>2013-06-15T07:12:32Z</time>
      </trkpt>
      <trkpt lat="45.68437" lon="6.27821">
        <ele>1392.08399872</ele>
        <time>2013-06-15T07:12:47Z</time>
      </trkpt>
      <trkpt lat="45.68437" lon="6.27806">
        <ele>1396.21399936</ele>
        <time>2013-06-15T07:12:59Z</time>
      </trkpt>
      <trkpt lat="45.68434" lon="6.2779">
        <ele>1397.84199936</ele>
        <time>2013-06-15T07:13:11Z</time>
      </trkpt>
      <trkpt lat="45.68436" lon="6.27774">
        <ele>1400.22799872</ele>
        <time>2013-06-15T07:13:23Z</time>
      </trkpt>
      <trkpt lat="45.68439" lon="6.27759">
        <ele>1405.6549952</ele>
        <time>2013-06-15T07:13:36Z</time>
      </trkpt>
      <trkpt lat="45.68442" lon="6.27746">
        <ele>1410.39299712</ele>
        <time>2013-06-15T07:13:48Z</time>
      </trkpt>
      <trkpt lat="45.68448" lon="6.27734">
        <ele>1413.60700032</ele>
        <time>2013-06-15T07:14:03Z</time>
      </trkpt>
      <trkpt lat="45.6846" lon="6.27744">
        <ele>1415.1138855109</ele>
        <time>2013-06-15T07:14:28Z</time>
      </trkpt>
      <trkpt lat="45.6847" lon="6.27751">
        <ele>1416.8502986669</ele>
        <time>2013-06-15T07:14:39Z</time>
      </trkpt>
      <trkpt lat="45.68483" lon="6.27767">
        <ele>1420.6128382464</ele>
        <time>2013-06-15T07:14:53Z</time>
      </trkpt>
      <trkpt lat="45.68497" lon="6.27775">
        <ele>1426.024</ele>
        <time>2013-06-15T07:15:07Z</time>
      </trkpt>
      <trkpt lat="45.68513" lon="6.27788">
        <ele>1427.91399936</ele>
        <time>2013-06-15T07:15:26Z</time>
      </trkpt>
      <trkpt lat="45.68525" lon="6.27801">
        <ele>1430.02099968</ele>
        <time>2013-06-15T07:15:37Z</time>
      </trkpt>
      <trkpt lat="45.68535" lon="6.27816">
        <ele>1431.61399936</ele>
        <time>2013-06-15T07:15:53Z</time>
      </trkpt>
      <trkpt lat="45.68557" lon="6.27839">
        <ele>1436.51399936</ele>
        <time>2013-06-15T07:16:12Z</time>
      </trkpt>
      <trkpt lat="45.68568" lon="6.27851">
        <ele>1438.42799872</ele>
        <time>2013-06-15T07:16:24Z</time>
      </trkpt>
      <trkpt lat="45.68581" lon="6.27867">
        <ele>1442.648</ele>
        <time>2013-06-15T07:16:41Z</time>
      </trkpt>
      <trkpt lat="45.68598" lon="6.27876">
        <ele>1448.696</ele>
        <time>2013-06-15T07:16:56Z</time>
      </trkpt>
      <trkpt lat="45.68613" lon="6.27886">
        <ele>1448.86200064</ele>
        <time>2013-06-15T07:17:11Z</time>
      </trkpt>
      <trkpt lat="45.6863" lon="6.27898">
        <ele>1452.8933208949</ele>
        <time>2013-06-15T07:17:29Z</time>
      </trkpt>
      <trkpt lat="45.68643" lon="6.27903">
        <ele>1456</ele>
        <time>2013-06-15T07:17:41Z</time>
      </trkpt>
      <trkpt lat="45.68658" lon="6.27903">
        <ele>1456.624</ele>
        <time>2013-06-15T07:17:53Z</time>
      </trkpt>
      <trkpt lat="45.68658" lon="6.2793">
        <ele>1457</ele>
        <time>2013-06-15T07:18:05Z</time>
      </trkpt>
      <trkpt lat="45.68666" lon="6.27954">
        <ele>1457.93099904</ele>
        <time>2013-06-15T07:18:16Z</time>
      </trkpt>
      <trkpt lat="45.68681" lon="6.27967">
        <ele>1460.848</ele>
        <time>2013-06-15T07:18:31Z</time>
      </trkpt>
      <trkpt lat="45.68695" lon="6.27976">
        <ele>1463.272</ele>
        <time>2013-06-15T07:18:41Z</time>
      </trkpt>
      <trkpt lat="45.68708" lon="6.27985">
        <ele>1467.032</ele>
        <time>2013-06-15T07:18:52Z</time>
      </trkpt>
      <trkpt lat="45.68717" lon="6.27991">
        <ele>1469.33099904</ele>
        <time>2013-06-15T07:19:00Z</time>
      </trkpt>
      <trkpt lat="45.68723" lon="6.28001">
        <ele>1470.048</ele>
        <time>2013-06-15T07:19:07Z</time>
      </trkpt>
      <trkpt lat="45.6873" lon="6.28016">
        <ele>1471.648</ele>
        <time>2013-06-15T07:19:15Z</time>
      </trkpt>
      <trkpt lat="45.68738" lon="6.28022">
        <ele>1473.21400064</ele>
        <time>2013-06-15T07:19:23Z</time>
      </trkpt>
      <trkpt lat="45.68746" lon="6.2803">
        <ele>1474.8411584707</ele>
        <time>2013-06-15T07:19:31Z</time>
      </trkpt>
      <trkpt lat="45.68766" lon="6.28043">
        <ele>1477.63399936</ele>
        <time>2013-06-15T07:19:50Z</time>
      </trkpt>
      <trkpt lat="45.68777" lon="6.28041">
        <ele>1479.424</ele>
        <time>2013-06-15T07:20:01Z</time>
      </trkpt>
      <trkpt lat="45.68788" lon="6.28045">
        <ele>1480.124</ele>
        <time>2013-06-15T07:20:08Z</time>
      </trkpt>
      <trkpt lat="45.68799" lon="6.28045">
        <ele>1481.4440041051</ele>
        <time>2013-06-15T07:20:19Z</time>
      </trkpt>
      <trkpt lat="45.6881" lon="6.28044">
        <ele>1483.8274454644</ele>
        <time>2013-06-15T07:20:29Z</time>
      </trkpt>
      <trkpt lat="45.68822" lon="6.28036">
        <ele>1487.51399936</ele>
        <time>2013-06-15T07:20:42Z</time>
      </trkpt>
      <trkpt lat="45.68831" lon="6.28031">
        <ele>1489.5404581148</ele>
        <time>2013-06-15T07:20:52Z</time>
      </trkpt>
      <trkpt lat="45.68839" lon="6.28022">
        <ele>1491.4234236081</ele>
        <time>2013-06-15T07:21:01Z</time>
      </trkpt>
      <trkpt lat="45.6885" lon="6.28005">
        <ele>1494.0833295238</ele>
        <time>2013-06-15T07:21:17Z</time>
      </trkpt>
      <trkpt lat="45.68859" lon="6.27994">
        <ele>1500.4294348387</ele>
        <time>2013-06-15T07:21:29Z</time>
      </trkpt>
      <trkpt lat="45.68857" lon="6.27979">
        <ele>1508.06199808</ele>
        <time>2013-06-15T07:22:12Z</time>
      </trkpt>
      <trkpt lat="45.68845" lon="6.27986">
        <ele>1510.024</ele>
        <time>2013-06-15T07:22:27Z</time>
      </trkpt>
      <trkpt lat="45.68841" lon="6.27973">
        <ele>1513.02799872</ele>
        <time>2013-06-15T07:22:52Z</time>
      </trkpt>
      <trkpt lat="45.68846" lon="6.27956">
        <ele>1520.6266257853</ele>
        <time>2013-06-15T07:23:20Z</time>
      </trkpt>
      <trkpt lat="45.68847" lon="6.27943">
        <ele>1524.22799872</ele>
        <time>2013-06-15T07:23:43Z</time>
      </trkpt>
      <trkpt lat="45.68849" lon="6.27929">
        <ele>1530.63599872</ele>
        <time>2013-06-15T07:24:15Z</time>
      </trkpt>
      <trkpt lat="45.68834" lon="6.27933">
        <ele>1533.29300096</ele>
        <time>2013-06-15T07:24:31Z</time>
      </trkpt>
      <trkpt lat="45.68817" lon="6.27942">
        <ele>1535.6233768227</ele>
        <time>2013-06-15T07:24:43Z</time>
      </trkpt>
      <trkpt lat="45.68797" lon="6.27933">
        <ele>1540.096</ele>
        <time>2013-06-15T07:25:02Z</time>
      </trkpt>
      <trkpt lat="45.68789" lon="6.27925">
        <ele>1542</ele>
        <time>2013-06-15T07:25:08Z</time>
      </trkpt>
      <trkpt lat="45.68783" lon="6.27916">
        <ele>1542.52399616</ele>
        <time>2013-06-15T07:25:18Z</time>
      </trkpt>
      <trkpt lat="45.68776" lon="6.2791">
        <ele>1545.32400128</ele>
        <time>2013-06-15T07:25:25Z</time>
      </trkpt>
      <trkpt lat="45.68769" lon="6.27904">
        <ele>1546.62099968</ele>
        <time>2013-06-15T07:25:33Z</time>
      </trkpt>
      <trkpt lat="45.68766" lon="6.27895">
        <ele>1547.22799872</ele>
        <time>2013-06-15T07:25:38Z</time>
      </trkpt>
      <trkpt lat="45.68761" lon="6.27876">
        <ele>1549.62799872</ele>
        <time>2013-06-15T07:25:50Z</time>
      </trkpt>
      <trkpt lat="45.68763" lon="6.27865">
        <ele>1550.82799872</ele>
        <time>2013-06-15T07:25:56Z</time>
      </trkpt>
      <trkpt lat="45.68764" lon="6.27849">
        <ele>1551.7145687896</ele>
        <time>2013-06-15T07:26:04Z</time>
      </trkpt>
      <trkpt lat="45.68767" lon="6.27829">
        <ele>1553.2411707798</ele>
        <time>2013-06-15T07:26:13Z</time>
      </trkpt>
      <trkpt lat="45.68768" lon="6.27815">
        <ele>1554.848</ele>
        <time>2013-06-15T07:26:21Z</time>
      </trkpt>
      <trkpt lat="45.68759" lon="6.27808">
        <ele>1558.0260253771</ele>
        <time>2013-06-15T07:26:37Z</time>
      </trkpt>
      <trkpt lat="45.68751" lon="6.27803">
        <ele>1559.4274263295</ele>
        <time>2013-06-15T07:26:44Z</time>
      </trkpt>
      <trkpt lat="45.68738" lon="6.27791">
        <ele>1562.76299904</ele>
        <time>2013-06-15T07:26:56Z</time>
      </trkpt>
      <trkpt lat="45.6873" lon="6.27779">
        <ele>1563.83100032</ele>
        <time>2013-06-15T07:27:05Z</time>
      </trkpt>
      <trkpt lat="45.6872" lon="6.2776">
        <ele>1565.86199808</ele>
        <time>2013-06-15T07:27:16Z</time>
      </trkpt>
      <trkpt lat="45.68713" lon="6.27749">
        <ele>1566.83100032</ele>
        <time>2013-06-15T07:27:25Z</time>
      </trkpt>
      <trkpt lat="45.68706" lon="6.27732">
        <ele>1569.45599744</ele>
        <time>2013-06-15T07:27:38Z</time>
      </trkpt>
      <trkpt lat="45.68693" lon="6.27702">
        <ele>1576.648</ele>
        <time>2013-06-15T07:28:10Z</time>
      </trkpt>
      <trkpt lat="45.68686" lon="6.27683">
        <ele>1581.296</ele>
        <time>2013-06-15T07:28:25Z</time>
      </trkpt>
      <trkpt lat="45.68681" lon="6.27669">
        <ele>1582</ele>
        <time>2013-06-15T07:28:33Z</time>
      </trkpt>
      <trkpt lat="45.68683" lon="6.27654">
        <ele>1583.448</ele>
        <time>2013-06-15T07:28:44Z</time>
      </trkpt>
      <trkpt lat="45.68688" lon="6.27638">
        <ele>1585.6570311373</ele>
        <time>2013-06-15T07:28:55Z</time>
      </trkpt>
      <trkpt lat="45.68696" lon="6.27655">
        <ele>1590.41399936</ele>
        <time>2013-06-15T07:29:11Z</time>
      </trkpt>
      <trkpt lat="45.68702" lon="6.27667">
        <ele>1592.02799872</ele>
        <time>2013-06-15T07:29:22Z</time>
      </trkpt>
      <trkpt lat="45.68706" lon="6.2768">
        <ele>1597.01399936</ele>
        <time>2013-06-15T07:29:37Z</time>
      </trkpt>
      <trkpt lat="45.68719" lon="6.27689">
        <ele>1598.32099968</ele>
        <time>2013-06-15T07:29:50Z</time>
      </trkpt>
      <trkpt lat="45.68727" lon="6.27692">
        <ele>1599.4555420437</ele>
        <time>2013-06-15T07:29:58Z</time>
      </trkpt>
      <trkpt lat="45.68736" lon="6.277">
        <ele>1603.3133128926</ele>
        <time>2013-06-15T07:30:10Z</time>
      </trkpt>
      <trkpt lat="45.68748" lon="6.27703">
        <ele>1604.43399936</ele>
        <time>2013-06-15T07:30:19Z</time>
      </trkpt>
      <trkpt lat="45.6876" lon="6.27709">
        <ele>1606.324</ele>
        <time>2013-06-15T07:30:30Z</time>
      </trkpt>
      <trkpt lat="45.6877" lon="6.27715">
        <ele>1607.26199808</ele>
        <time>2013-06-15T07:30:38Z</time>
      </trkpt>
      <trkpt lat="45.68785" lon="6.27718">
        <ele>1611.0939067633</ele>
        <time>2013-06-15T07:30:52Z</time>
      </trkpt>
      <trkpt lat="45.68798" lon="6.27725">
        <ele>1613.7137131648</ele>
        <time>2013-06-15T07:31:04Z</time>
      </trkpt>
      <trkpt lat="45.6881" lon="6.2773">
        <ele>1615.24199936</ele>
        <time>2013-06-15T07:31:13Z</time>
      </trkpt>
      <trkpt lat="45.68803" lon="6.27723">
        <ele>1620.4546339745</ele>
        <time>2013-06-15T07:31:38Z</time>
      </trkpt>
      <trkpt lat="45.68789" lon="6.27703">
        <ele>1626.22099968</ele>
        <time>2013-06-15T07:31:59Z</time>
      </trkpt>
      <trkpt lat="45.68797" lon="6.27694">
        <ele>1627.72099968</ele>
        <time>2013-06-15T07:32:14Z</time>
      </trkpt>
      <trkpt lat="45.68795" lon="6.27682">
        <ele>1632.61399936</ele>
        <time>2013-06-15T07:32:33Z</time>
      </trkpt>
      <trkpt lat="45.68792" lon="6.27673">
        <ele>1634.54199808</ele>
        <time>2013-06-15T07:32:42Z</time>
      </trkpt>
      <trkpt lat="45.68799" lon="6.27672">
        <ele>1639.68399872</ele>
        <time>2013-06-15T07:32:56Z</time>
      </trkpt>
      <trkpt lat="45.6881" lon="6.27667">
        <ele>1644.25599744</ele>
        <time>2013-06-15T07:33:20Z</time>
      </trkpt>
      <trkpt lat="45.68821" lon="6.2767">
        <ele>1647.81399936</ele>
        <time>2013-06-15T07:33:35Z</time>
      </trkpt>
      <trkpt lat="45.68831" lon="6.27669">
        <ele>1649.44199936</ele>
        <time>2013-06-15T07:33:44Z</time>
      </trkpt>
      <trkpt lat="45.68839" lon="6.27663">
        <ele>1651.25599744</ele>
        <time>2013-06-15T07:33:50Z</time>
      </trkpt>
      <trkpt lat="45.68846" lon="6.27656">
        <ele>1653.25599744</ele>
        <time>2013-06-15T07:33:55Z</time>
      </trkpt>
      <trkpt lat="45.68856" lon="6.27653">
        <ele>1654.44099968</ele>
        <time>2013-06-15T07:34:01Z</time>
      </trkpt>
      <trkpt lat="45.68867" lon="6.27652">
        <ele>1655.01699968</ele>
        <time>2013-06-15T07:34:07Z</time>
      </trkpt>
      <trkpt lat="45.68874" lon="6.27648">
        <ele>1655.41699968</ele>
        <time>2013-06-15T07:34:11Z</time>
      </trkpt>
      <trkpt lat="45.68887" lon="6.27647">
        <ele>1657.248</ele>
        <time>2013-06-15T07:34:23Z</time>
      </trkpt>
      <trkpt lat="45.68893" lon="6.27644">
        <ele>1658.0239282383</ele>
        <time>2013-06-15T07:34:27Z</time>
      </trkpt>
      <trkpt lat="45.689" lon="6.27645">
        <ele>1658.9212371729</ele>
        <time>2013-06-15T07:34:36Z</time>
      </trkpt>
      <trkpt lat="45.68907" lon="6.27648">
        <ele>1660.0110321258</ele>
        <time>2013-06-15T07:34:42Z</time>
      </trkpt>
      <trkpt lat="45.68916" lon="6.27646">
        <ele>1660.87900032</ele>
        <time>2013-06-15T07:34:48Z</time>
      </trkpt>
      <trkpt lat="45.68933" lon="6.27631">
        <ele>1660.32099968</ele>
        <time>2013-06-15T07:35:00Z</time>
      </trkpt>
      <trkpt lat="45.68943" lon="6.27637">
        <ele>1661.03399936</ele>
        <time>2013-06-15T07:35:07Z</time>
      </trkpt>
      <trkpt lat="45.68951" lon="6.27643">
        <ele>1662.03399936</ele>
        <time>2013-06-15T07:35:12Z</time>
      </trkpt>
      <trkpt lat="45.6896" lon="6.27644">
        <ele>1662.83399936</ele>
        <time>2013-06-15T07:35:16Z</time>
      </trkpt>
      <trkpt lat="45.68968" lon="6.27642">
        <ele>1663</ele>
        <time>2013-06-15T07:35:21Z</time>
      </trkpt>
      <trkpt lat="45.68976" lon="6.27636">
        <ele>1663.06200064</ele>
        <time>2013-06-15T07:35:27Z</time>
      </trkpt>
      <trkpt lat="45.68984" lon="6.27649">
        <ele>1664.86199808</ele>
        <time>2013-06-15T07:35:36Z</time>
      </trkpt>
      <trkpt lat="45.68992" lon="6.27652">
        <ele>1665</ele>
        <time>2013-06-15T07:35:40Z</time>
      </trkpt>
      <trkpt lat="45.68999" lon="6.27656">
        <ele>1665</ele>
        <time>2013-06-15T07:35:45Z</time>
      </trkpt>
      <trkpt lat="45.69006" lon="6.27662">
        <ele>1665</ele>
        <time>2013-06-15T07:35:50Z</time>
      </trkpt>
      <trkpt lat="45.69014" lon="6.27666">
        <ele>1665</ele>
        <time>2013-06-15T07:35:55Z</time>
      </trkpt>
      <trkpt lat="45.69023" lon="6.27673">
        <ele>1663.40700288</ele>
        <time>2013-06-15T07:36:02Z</time>
      </trkpt>
      <trkpt lat="45.69029" lon="6.27677">
        <ele>1661.9523809524</ele>
        <time>2013-06-15T07:36:07Z</time>
      </trkpt>
      <trkpt lat="45.69035" lon="6.27684">
        <ele>1660.5634920635</ele>
        <time>2013-06-15T07:36:14Z</time>
      </trkpt>
      <trkpt lat="45.6904" lon="6.2769">
        <ele>1659.8760090323</ele>
        <time>2013-06-15T07:36:18Z</time>
      </trkpt>
      <trkpt lat="45.69047" lon="6.2769">
        <ele>1659.3719754839</ele>
        <time>2013-06-15T07:36:23Z</time>
      </trkpt>
      <trkpt lat="45.69054" lon="6.27698">
        <ele>1658.53799936</ele>
        <time>2013-06-15T07:36:29Z</time>
      </trkpt>
      <trkpt lat="45.69061" lon="6.27707">
        <ele>1657.73799936</ele>
        <time>2013-06-15T07:36:33Z</time>
      </trkpt>
      <trkpt lat="45.69076" lon="6.27718">
        <ele>1656.576</ele>
        <time>2013-06-15T07:36:41Z</time>
      </trkpt>
      <trkpt lat="45.69084" lon="6.27722">
        <ele>1656.176</ele>
        <time>2013-06-15T07:36:45Z</time>
      </trkpt>
      <trkpt lat="45.69089" lon="6.27733">
        <ele>1656</ele>
        <time>2013-06-15T07:36:50Z</time>
      </trkpt>
      <trkpt lat="45.69097" lon="6.27742">
        <ele>1656</ele>
        <time>2013-06-15T07:36:55Z</time>
      </trkpt>
      <trkpt lat="45.69099" lon="6.27767">
        <ele>1655.276</ele>
        <time>2013-06-15T07:37:04Z</time>
      </trkpt>
      <trkpt lat="45.69108" lon="6.27778">
        <ele>1654.7522476731</ele>
        <time>2013-06-15T07:37:08Z</time>
      </trkpt>
      <trkpt lat="45.69118" lon="6.27783">
        <ele>1653.9530466184</ele>
        <time>2013-06-15T07:37:12Z</time>
      </trkpt>
      <trkpt lat="45.69128" lon="6.2779">
        <ele>1653.1538455637</ele>
        <time>2013-06-15T07:37:16Z</time>
      </trkpt>
      <trkpt lat="45.69133" lon="6.27802">
        <ele>1652.5708573706</ele>
        <time>2013-06-15T07:37:21Z</time>
      </trkpt>
      <trkpt lat="45.69147" lon="6.27814">
        <ele>1652.6432880845</ele>
        <time>2013-06-15T07:37:30Z</time>
      </trkpt>
      <trkpt lat="45.69162" lon="6.27825">
        <ele>1653.8698705522</ele>
        <time>2013-06-15T07:37:38Z</time>
      </trkpt>
      <trkpt lat="45.69177" lon="6.27829">
        <ele>1653.1691687947</ele>
        <time>2013-06-15T07:37:45Z</time>
      </trkpt>
      <trkpt lat="45.69192" lon="6.27837">
        <ele>1653</ele>
        <time>2013-06-15T07:37:53Z</time>
      </trkpt>
      <trkpt lat="45.69208" lon="6.27842">
        <ele>1654.0544335484</ele>
        <time>2013-06-15T07:38:02Z</time>
      </trkpt>
      <trkpt lat="45.69218" lon="6.27852">
        <ele>1655</ele>
        <time>2013-06-15T07:38:13Z</time>
      </trkpt>
      <trkpt lat="45.69225" lon="6.27868">
        <ele>1655</ele>
        <time>2013-06-15T07:38:19Z</time>
      </trkpt>
      <trkpt lat="45.69238" lon="6.27881">
        <ele>1655.03100032</ele>
        <time>2013-06-15T07:38:27Z</time>
      </trkpt>
      <trkpt lat="45.69248" lon="6.27895">
        <ele>1655.63100032</ele>
        <time>2013-06-15T07:38:33Z</time>
      </trkpt>
      <trkpt lat="45.69272" lon="6.2793">
        <ele>1657</ele>
        <time>2013-06-15T07:38:49Z</time>
      </trkpt>
      <trkpt lat="45.6928" lon="6.27947">
        <ele>1657</ele>
        <time>2013-06-15T07:38:56Z</time>
      </trkpt>
      <trkpt lat="45.69288" lon="6.27966">
        <ele>1657</ele>
        <time>2013-06-15T07:39:03Z</time>
      </trkpt>
      <trkpt lat="45.69293" lon="6.27986">
        <ele>1657</ele>
        <time>2013-06-15T07:39:11Z</time>
      </trkpt>
      <trkpt lat="45.69298" lon="6.28008">
        <ele>1657</ele>
        <time>2013-06-15T07:39:19Z</time>
      </trkpt>
      <trkpt lat="45.69302" lon="6.28016">
        <ele>1657</ele>
        <time>2013-06-15T07:39:23Z</time>
      </trkpt>
      <trkpt lat="45.69302" lon="6.28024">
        <ele>1657</ele>
        <time>2013-06-15T07:39:26Z</time>
      </trkpt>
      <trkpt lat="45.69302" lon="6.28032">
        <ele>1657.4375606594</ele>
        <time>2013-06-15T07:39:29Z</time>
      </trkpt>
      <trkpt lat="45.69303" lon="6.2804">
        <ele>1658.0369640078</ele>
        <time>2013-06-15T07:39:32Z</time>
      </trkpt>
      <trkpt lat="45.69305" lon="6.28053">
        <ele>1659.2262255131</ele>
        <time>2013-06-15T07:39:38Z</time>
      </trkpt>
      <trkpt lat="45.69306" lon="6.28067">
        <ele>1660.4274263295</ele>
        <time>2013-06-15T07:39:44Z</time>
      </trkpt>
      <trkpt lat="45.69307" lon="6.28079">
        <ele>1661.42799872</ele>
        <time>2013-06-15T07:39:49Z</time>
      </trkpt>
      <trkpt lat="45.69307" lon="6.28091">
        <ele>1662.42799872</ele>
        <time>2013-06-15T07:39:54Z</time>
      </trkpt>
      <trkpt lat="45.6931" lon="6.28101">
        <ele>1663.21699968</ele>
        <time>2013-06-15T07:39:59Z</time>
      </trkpt>
      <trkpt lat="45.69311" lon="6.28111">
        <ele>1663.61699968</ele>
        <time>2013-06-15T07:40:03Z</time>
      </trkpt>
      <trkpt lat="45.69314" lon="6.28133">
        <ele>1663.6769687835</ele>
        <time>2013-06-15T07:40:10Z</time>
      </trkpt>
      <trkpt lat="45.69317" lon="6.28147">
        <ele>1663.2781648126</ele>
        <time>2013-06-15T07:40:14Z</time>
      </trkpt>
      <trkpt lat="45.6932" lon="6.28161">
        <ele>1663</ele>
        <time>2013-06-15T07:40:18Z</time>
      </trkpt>
      <trkpt lat="45.69326" lon="6.28186">
        <ele>1663.03100032</ele>
        <time>2013-06-15T07:40:27Z</time>
      </trkpt>
      <trkpt lat="45.6933" lon="6.28198">
        <ele>1664.048</ele>
        <time>2013-06-15T07:40:37Z</time>
      </trkpt>
      <trkpt lat="45.69332" lon="6.28211">
        <ele>1664.848</ele>
        <time>2013-06-15T07:40:41Z</time>
      </trkpt>
      <trkpt lat="45.69334" lon="6.28222">
        <ele>1665.448</ele>
        <time>2013-06-15T07:40:44Z</time>
      </trkpt>
      <trkpt lat="45.69338" lon="6.28232">
        <ele>1666.2237762953</ele>
        <time>2013-06-15T07:40:49Z</time>
      </trkpt>
      <trkpt lat="45.69342" lon="6.2824">
        <ele>1666.8231770863</ele>
        <time>2013-06-15T07:40:55Z</time>
      </trkpt>
      <trkpt lat="45.69345" lon="6.28248">
        <ele>1668.3213183355</ele>
        <time>2013-06-15T07:41:00Z</time>
      </trkpt>
      <trkpt lat="45.69347" lon="6.28257">
        <ele>1670.3233248214</ele>
        <time>2013-06-15T07:41:05Z</time>
      </trkpt>
      <trkpt lat="45.69349" lon="6.28265">
        <ele>1671.46200064</ele>
        <time>2013-06-15T07:41:09Z</time>
      </trkpt>
      <trkpt lat="45.69349" lon="6.28273">
        <ele>1672.26200064</ele>
        <time>2013-06-15T07:41:13Z</time>
      </trkpt>
      <trkpt lat="45.69351" lon="6.28279">
        <ele>1673.00700032</ele>
        <time>2013-06-15T07:41:17Z</time>
      </trkpt>
      <trkpt lat="45.69355" lon="6.28285">
        <ele>1673.50699904</ele>
        <time>2013-06-15T07:41:22Z</time>
      </trkpt>
      <trkpt lat="45.69366" lon="6.2829">
        <ele>1674.84199936</ele>
        <time>2013-06-15T07:41:31Z</time>
      </trkpt>
      <trkpt lat="45.69376" lon="6.28293">
        <ele>1676.62799872</ele>
        <time>2013-06-15T07:41:40Z</time>
      </trkpt>
      <trkpt lat="45.69385" lon="6.28295">
        <ele>1678.46799872</ele>
        <time>2013-06-15T07:41:48Z</time>
      </trkpt>
      <trkpt lat="45.69395" lon="6.28295">
        <ele>1681.66799872</ele>
        <time>2013-06-15T07:41:56Z</time>
      </trkpt>
      <trkpt lat="45.694" lon="6.28282">
        <ele>1683.048</ele>
        <time>2013-06-15T07:42:12Z</time>
      </trkpt>
      <trkpt lat="45.69397" lon="6.2827">
        <ele>1686.4815154386</ele>
        <time>2013-06-15T07:42:21Z</time>
      </trkpt>
      <trkpt lat="45.6939" lon="6.28248">
        <ele>1692.21399936</ele>
        <time>2013-06-15T07:42:39Z</time>
      </trkpt>
      <trkpt lat="45.69388" lon="6.28235">
        <ele>1693.23399936</ele>
        <time>2013-06-15T07:42:48Z</time>
      </trkpt>
      <trkpt lat="45.69396" lon="6.2823">
        <ele>1696.5373873937</ele>
        <time>2013-06-15T07:43:02Z</time>
      </trkpt>
      <trkpt lat="45.69405" lon="6.2823">
        <ele>1698.2116350219</ele>
        <time>2013-06-15T07:43:09Z</time>
      </trkpt>
      <trkpt lat="45.69414" lon="6.28224">
        <ele>1699.62799872</ele>
        <time>2013-06-15T07:43:20Z</time>
      </trkpt>
      <trkpt lat="45.69422" lon="6.28233">
        <ele>1700.42799872</ele>
        <time>2013-06-15T07:43:24Z</time>
      </trkpt>
      <trkpt lat="45.6943" lon="6.28238">
        <ele>1700.93400192</ele>
        <time>2013-06-15T07:43:27Z</time>
      </trkpt>
      <trkpt lat="45.69447" lon="6.28241">
        <ele>1699.13700096</ele>
        <time>2013-06-15T07:43:33Z</time>
      </trkpt>
      <trkpt lat="45.69464" lon="6.28246">
        <ele>1697.11600128</ele>
        <time>2013-06-15T07:43:39Z</time>
      </trkpt>
      <trkpt lat="45.69482" lon="6.28242">
        <ele>1694.71600128</ele>
        <time>2013-06-15T07:43:45Z</time>
      </trkpt>
      <trkpt lat="45.69498" lon="6.2823">
        <ele>1693.5892863492</ele>
        <time>2013-06-15T07:43:51Z</time>
      </trkpt>
      <trkpt lat="45.69511" lon="6.28218">
        <ele>1692.9345433827</ele>
        <time>2013-06-15T07:43:57Z</time>
      </trkpt>
      <trkpt lat="45.6952" lon="6.28207">
        <ele>1690.4169192079</ele>
        <time>2013-06-15T07:44:02Z</time>
      </trkpt>
      <trkpt lat="45.69533" lon="6.28191">
        <ele>1686.72</ele>
        <time>2013-06-15T07:44:10Z</time>
      </trkpt>
      <trkpt lat="45.69547" lon="6.28174">
        <ele>1683.98</ele>
        <time>2013-06-15T07:44:17Z</time>
      </trkpt>
      <trkpt lat="45.69559" lon="6.28161">
        <ele>1683.28</ele>
        <time>2013-06-15T07:44:24Z</time>
      </trkpt>
      <trkpt lat="45.69571" lon="6.28146">
        <ele>1680.06</ele>
        <time>2013-06-15T07:44:31Z</time>
      </trkpt>
      <trkpt lat="45.69583" lon="6.28125">
        <ele>1675.9839839891</ele>
        <time>2013-06-15T07:44:37Z</time>
      </trkpt>
      <trkpt lat="45.69608" lon="6.28084">
        <ele>1675</ele>
        <time>2013-06-15T07:44:51Z</time>
      </trkpt>
      <trkpt lat="45.69619" lon="6.28063">
        <ele>1675</ele>
        <time>2013-06-15T07:44:59Z</time>
      </trkpt>
      <trkpt lat="45.69628" lon="6.2804">
        <ele>1675.8408405715</ele>
        <time>2013-06-15T07:45:11Z</time>
      </trkpt>
      <trkpt lat="45.69632" lon="6.28029">
        <ele>1677.2277710219</ele>
        <time>2013-06-15T07:45:18Z</time>
      </trkpt>
      <trkpt lat="45.69636" lon="6.28022">
        <ele>1678.0269720766</ele>
        <time>2013-06-15T07:45:22Z</time>
      </trkpt>
      <trkpt lat="45.6964" lon="6.28015">
        <ele>1678.8261731312</ele>
        <time>2013-06-15T07:45:26Z</time>
      </trkpt>
      <trkpt lat="45.69644" lon="6.28008">
        <ele>1680.681681143</ele>
        <time>2013-06-15T07:45:31Z</time>
      </trkpt>
      <trkpt lat="45.6965" lon="6.28005">
        <ele>1683.01699968</ele>
        <time>2013-06-15T07:45:37Z</time>
      </trkpt>
      <trkpt lat="45.69663" lon="6.28002">
        <ele>1684.0239282383</ele>
        <time>2013-06-15T07:45:47Z</time>
      </trkpt>
      <trkpt lat="45.69669" lon="6.28">
        <ele>1684.4227322092</ele>
        <time>2013-06-15T07:45:51Z</time>
      </trkpt>
      <trkpt lat="45.69672" lon="6.27998">
        <ele>1684.6221341947</ele>
        <time>2013-06-15T07:45:53Z</time>
      </trkpt>
      <trkpt lat="45.69676" lon="6.27996">
        <ele>1684.8215361801</ele>
        <time>2013-06-15T07:45:55Z</time>
      </trkpt>
      <trkpt lat="45.69679" lon="6.27994">
        <ele>1685.0421282643</ele>
        <time>2013-06-15T07:45:57Z</time>
      </trkpt>
      <trkpt lat="45.69683" lon="6.27993">
        <ele>1685.6439331011</ele>
        <time>2013-06-15T07:46:00Z</time>
      </trkpt>
      <trkpt lat="45.69686" lon="6.27991">
        <ele>1686.2457379379</ele>
        <time>2013-06-15T07:46:03Z</time>
      </trkpt>
      <trkpt lat="45.6969" lon="6.27989">
        <ele>1686.8475427747</ele>
        <time>2013-06-15T07:46:06Z</time>
      </trkpt>
      <trkpt lat="45.69699" lon="6.27981">
        <ele>1688.46199808</ele>
        <time>2013-06-15T07:46:14Z</time>
      </trkpt>
      <trkpt lat="45.69709" lon="6.27971">
        <ele>1692.12</ele>
        <time>2013-06-15T07:46:23Z</time>
      </trkpt>
      <trkpt lat="45.69687" lon="6.27959">
        <ele>1698.6549952</ele>
        <time>2013-06-15T07:47:14Z</time>
      </trkpt>
      <trkpt lat="45.69682" lon="6.27956">
        <ele>1700.248</ele>
        <time>2013-06-15T07:47:18Z</time>
      </trkpt>
      <trkpt lat="45.69679" lon="6.27954">
        <ele>1701.248</ele>
        <time>2013-06-15T07:47:23Z</time>
      </trkpt>
      <trkpt lat="45.69676" lon="6.27951">
        <ele>1701.848</ele>
        <time>2013-06-15T07:47:26Z</time>
      </trkpt>
      <trkpt lat="45.69673" lon="6.27948">
        <ele>1702.39299712</ele>
        <time>2013-06-15T07:47:28Z</time>
      </trkpt>
      <trkpt lat="45.6967" lon="6.27946">
        <ele>1703.29300096</ele>
        <time>2013-06-15T07:47:31Z</time>
      </trkpt>
      <trkpt lat="45.69667" lon="6.27944">
        <ele>1703.89300096</ele>
        <time>2013-06-15T07:47:33Z</time>
      </trkpt>
      <trkpt lat="45.69664" lon="6.27941">
        <ele>1704.79299712</ele>
        <time>2013-06-15T07:47:36Z</time>
      </trkpt>
      <trkpt lat="45.69662" lon="6.27937">
        <ele>1705.25799936</ele>
        <time>2013-06-15T07:47:38Z</time>
      </trkpt>
      <trkpt lat="45.6966" lon="6.27934">
        <ele>1705.85799936</ele>
        <time>2013-06-15T07:47:41Z</time>
      </trkpt>
      <trkpt lat="45.69658" lon="6.2793">
        <ele>1706.25799936</ele>
        <time>2013-06-15T07:47:43Z</time>
      </trkpt>
      <trkpt lat="45.69656" lon="6.27924">
        <ele>1707.048</ele>
        <time>2013-06-15T07:47:47Z</time>
      </trkpt>
      <trkpt lat="45.69654" lon="6.27915">
        <ele>1708.048</ele>
        <time>2013-06-15T07:47:52Z</time>
      </trkpt>
      <trkpt lat="45.69652" lon="6.27905">
        <ele>1709.496</ele>
        <time>2013-06-15T07:47:58Z</time>
      </trkpt>
      <trkpt lat="45.69652" lon="6.27894">
        <ele>1711.496</ele>
        <time>2013-06-15T07:48:03Z</time>
      </trkpt>
      <trkpt lat="45.69655" lon="6.27882">
        <ele>1713</ele>
        <time>2013-06-15T07:48:09Z</time>
      </trkpt>
      <trkpt lat="45.69662" lon="6.27876">
        <ele>1713</ele>
        <time>2013-06-15T07:48:15Z</time>
      </trkpt>
      <trkpt lat="45.69668" lon="6.27874">
        <ele>1713.6426417961</ele>
        <time>2013-06-15T07:48:20Z</time>
      </trkpt>
      <trkpt lat="45.69685" lon="6.27864">
        <ele>1715.3236764272</ele>
        <time>2013-06-15T07:48:30Z</time>
      </trkpt>
      <trkpt lat="45.69693" lon="6.27853">
        <ele>1715.8231770863</ele>
        <time>2013-06-15T07:48:35Z</time>
      </trkpt>
      <trkpt lat="45.69695" lon="6.27844">
        <ele>1715.8702600369</ele>
        <time>2013-06-15T07:48:38Z</time>
      </trkpt>
      <trkpt lat="45.69695" lon="6.27838">
        <ele>1715.670659111</ele>
        <time>2013-06-15T07:48:40Z</time>
      </trkpt>
      <trkpt lat="45.69696" lon="6.27831">
        <ele>1715.4710581851</ele>
        <time>2013-06-15T07:48:42Z</time>
      </trkpt>
      <trkpt lat="45.69696" lon="6.27824">
        <ele>1715.2714572592</ele>
        <time>2013-06-15T07:48:44Z</time>
      </trkpt>
      <trkpt lat="45.69697" lon="6.2781">
        <ele>1714.8786350617</ele>
        <time>2013-06-15T07:48:48Z</time>
      </trkpt>
      <trkpt lat="45.69696" lon="6.278">
        <ele>1714.5777326433</ele>
        <time>2013-06-15T07:48:51Z</time>
      </trkpt>
      <trkpt lat="45.69693" lon="6.27786">
        <ele>1714.6549952</ele>
        <time>2013-06-15T07:48:58Z</time>
      </trkpt>
      <trkpt lat="45.69693" lon="6.27776">
        <ele>1717.1550016</ele>
        <time>2013-06-15T07:49:03Z</time>
      </trkpt>
      <trkpt lat="45.69694" lon="6.27766">
        <ele>1719</ele>
        <time>2013-06-15T07:49:08Z</time>
      </trkpt>
      <trkpt lat="45.69691" lon="6.27744">
        <ele>1719</ele>
        <time>2013-06-15T07:49:18Z</time>
      </trkpt>
      <trkpt lat="45.6969" lon="6.27737">
        <ele>1719</ele>
        <time>2013-06-15T07:49:21Z</time>
      </trkpt>
      <trkpt lat="45.69688" lon="6.27731">
        <ele>1719</ele>
        <time>2013-06-15T07:49:24Z</time>
      </trkpt>
      <trkpt lat="45.69685" lon="6.27725">
        <ele>1719.21399808</ele>
        <time>2013-06-15T07:49:28Z</time>
      </trkpt>
      <trkpt lat="45.69682" lon="6.2772">
        <ele>1719.81400064</ele>
        <time>2013-06-15T07:49:31Z</time>
      </trkpt>
      <trkpt lat="45.69679" lon="6.27712">
        <ele>1720.41399808</ele>
        <time>2013-06-15T07:49:34Z</time>
      </trkpt>
      <trkpt lat="45.69677" lon="6.27704">
        <ele>1721.02799872</ele>
        <time>2013-06-15T07:49:37Z</time>
      </trkpt>
      <trkpt lat="45.69674" lon="6.27681">
        <ele>1722.62799872</ele>
        <time>2013-06-15T07:49:45Z</time>
      </trkpt>
      <trkpt lat="45.69674" lon="6.27672">
        <ele>1723.12099968</ele>
        <time>2013-06-15T07:49:48Z</time>
      </trkpt>
      <trkpt lat="45.69673" lon="6.27664">
        <ele>1723.52099968</ele>
        <time>2013-06-15T07:49:52Z</time>
      </trkpt>
      <trkpt lat="45.69671" lon="6.27659">
        <ele>1723.92099968</ele>
        <time>2013-06-15T07:49:56Z</time>
      </trkpt>
      <trkpt lat="45.69672" lon="6.27654">
        <ele>1725.6049984</ele>
        <time>2013-06-15T07:50:00Z</time>
      </trkpt>
      <trkpt lat="45.69671" lon="6.27649">
        <ele>1727.6049984</ele>
        <time>2013-06-15T07:50:04Z</time>
      </trkpt>
      <trkpt lat="45.69669" lon="6.27644">
        <ele>1729</ele>
        <time>2013-06-15T07:50:08Z</time>
      </trkpt>
      <trkpt lat="45.69669" lon="6.27639">
        <ele>1729</ele>
        <time>2013-06-15T07:50:12Z</time>
      </trkpt>
      <trkpt lat="45.6967" lon="6.27627">
        <ele>1729.62799872</ele>
        <time>2013-06-15T07:50:20Z</time>
      </trkpt>
      <trkpt lat="45.69671" lon="6.27622">
        <ele>1730.42799872</ele>
        <time>2013-06-15T07:50:24Z</time>
      </trkpt>
      <trkpt lat="45.69674" lon="6.2761">
        <ele>1732.43399936</ele>
        <time>2013-06-15T07:50:34Z</time>
      </trkpt>
      <trkpt lat="45.69673" lon="6.27598">
        <ele>1733.86200064</ele>
        <time>2013-06-15T07:50:41Z</time>
      </trkpt>
      <trkpt lat="45.69674" lon="6.27584">
        <ele>1735.24399872</ele>
        <time>2013-06-15T07:50:48Z</time>
      </trkpt>
      <trkpt lat="45.69684" lon="6.27582">
        <ele>1736.84399872</ele>
        <time>2013-06-15T07:50:56Z</time>
      </trkpt>
      <trkpt lat="45.69689" lon="6.27588">
        <ele>1737.86200064</ele>
        <time>2013-06-15T07:51:01Z</time>
      </trkpt>
      <trkpt lat="45.69695" lon="6.27596">
        <ele>1739.448</ele>
        <time>2013-06-15T07:51:09Z</time>
      </trkpt>
      <trkpt lat="45.697" lon="6.27604">
        <ele>1741.1198801582</ele>
        <time>2013-06-15T07:51:17Z</time>
      </trkpt>
      <trkpt lat="45.69707" lon="6.27611">
        <ele>1745.1158854316</ele>
        <time>2013-06-15T07:51:25Z</time>
      </trkpt>
      <trkpt lat="45.69717" lon="6.27605">
        <ele>1748.0210641322</ele>
        <time>2013-06-15T07:51:37Z</time>
      </trkpt>
      <trkpt lat="45.69717" lon="6.27593">
        <ele>1748.6228689689</ele>
        <time>2013-06-15T07:51:43Z</time>
      </trkpt>
      <trkpt lat="45.69718" lon="6.27582">
        <ele>1749.46200064</ele>
        <time>2013-06-15T07:51:49Z</time>
      </trkpt>
      <trkpt lat="45.69718" lon="6.2757">
        <ele>1750.66200064</ele>
        <time>2013-06-15T07:51:55Z</time>
      </trkpt>
      <trkpt lat="45.69717" lon="6.27558">
        <ele>1751.86200064</ele>
        <time>2013-06-15T07:52:01Z</time>
      </trkpt>
      <trkpt lat="45.69714" lon="6.27551">
        <ele>1753.06200064</ele>
        <time>2013-06-15T07:52:07Z</time>
      </trkpt>
      <trkpt lat="45.69709" lon="6.27542">
        <ele>1754.46199808</ele>
        <time>2013-06-15T07:52:14Z</time>
      </trkpt>
      <trkpt lat="45.69706" lon="6.27534">
        <ele>1756.22799616</ele>
        <time>2013-06-15T07:52:20Z</time>
      </trkpt>
      <trkpt lat="45.69704" lon="6.27525">
        <ele>1758.22800128</ele>
        <time>2013-06-15T07:52:25Z</time>
      </trkpt>
      <trkpt lat="45.69699" lon="6.27512">
        <ele>1759</ele>
        <time>2013-06-15T07:52:32Z</time>
      </trkpt>
      <trkpt lat="45.69695" lon="6.27502">
        <ele>1759.22799872</ele>
        <time>2013-06-15T07:52:38Z</time>
      </trkpt>
      <trkpt lat="45.69691" lon="6.27492">
        <ele>1760.22799872</ele>
        <time>2013-06-15T07:52:43Z</time>
      </trkpt>
      <trkpt lat="45.69689" lon="6.27483">
        <ele>1761.02799872</ele>
        <time>2013-06-15T07:52:47Z</time>
      </trkpt>
      <trkpt lat="45.69686" lon="6.27476">
        <ele>1761.82799872</ele>
        <time>2013-06-15T07:52:51Z</time>
      </trkpt>
      <trkpt lat="45.69683" lon="6.27466">
        <ele>1762.82799872</ele>
        <time>2013-06-15T07:52:56Z</time>
      </trkpt>
      <trkpt lat="45.69679" lon="6.27455">
        <ele>1763</ele>
        <time>2013-06-15T07:53:01Z</time>
      </trkpt>
      <trkpt lat="45.69675" lon="6.27441">
        <ele>1763.24199936</ele>
        <time>2013-06-15T07:53:08Z</time>
      </trkpt>
      <trkpt lat="45.69676" lon="6.27427">
        <ele>1764.84199936</ele>
        <time>2013-06-15T07:53:16Z</time>
      </trkpt>
      <trkpt lat="45.69677" lon="6.27395">
        <ele>1769.62099968</ele>
        <time>2013-06-15T07:53:33Z</time>
      </trkpt>
      <trkpt lat="45.69677" lon="6.27385">
        <ele>1770.42799872</ele>
        <time>2013-06-15T07:53:39Z</time>
      </trkpt>
      <trkpt lat="45.6968" lon="6.27376">
        <ele>1771.42799872</ele>
        <time>2013-06-15T07:53:44Z</time>
      </trkpt>
      <trkpt lat="45.69686" lon="6.27368">
        <ele>1773.04199936</ele>
        <time>2013-06-15T07:53:52Z</time>
      </trkpt>
      <trkpt lat="45.69691" lon="6.2736">
        <ele>1776.1049984</ele>
        <time>2013-06-15T07:54:01Z</time>
      </trkpt>
      <trkpt lat="45.69688" lon="6.27351">
        <ele>1779.96299904</ele>
        <time>2013-06-15T07:54:10Z</time>
      </trkpt>
      <trkpt lat="45.69682" lon="6.27349">
        <ele>1781.76299904</ele>
        <time>2013-06-15T07:54:16Z</time>
      </trkpt>
      <trkpt lat="45.69679" lon="6.27349">
        <ele>1782</ele>
        <time>2013-06-15T07:54:19Z</time>
      </trkpt>
      <trkpt lat="45.69673" lon="6.27349">
        <ele>1782</ele>
        <time>2013-06-15T07:54:24Z</time>
      </trkpt>
      <trkpt lat="45.69669" lon="6.27347">
        <ele>1782.1113342158</ele>
        <time>2013-06-15T07:54:28Z</time>
      </trkpt>
      <trkpt lat="45.69663" lon="6.27343">
        <ele>1782.6128382464</ele>
        <time>2013-06-15T07:54:33Z</time>
      </trkpt>
      <trkpt lat="45.69664" lon="6.27334">
        <ele>1783.44199936</ele>
        <time>2013-06-15T07:54:39Z</time>
      </trkpt>
      <trkpt lat="45.69668" lon="6.27324">
        <ele>1785.03399936</ele>
        <time>2013-06-15T07:54:47Z</time>
      </trkpt>
      <trkpt lat="45.69672" lon="6.27314">
        <ele>1786.83399936</ele>
        <time>2013-06-15T07:54:56Z</time>
      </trkpt>
      <trkpt lat="45.69675" lon="6.27295">
        <ele>1790.62799872</ele>
        <time>2013-06-15T07:55:15Z</time>
      </trkpt>
      <trkpt lat="45.69676" lon="6.27283">
        <ele>1792.42799872</ele>
        <time>2013-06-15T07:55:24Z</time>
      </trkpt>
      <trkpt lat="45.69676" lon="6.27271">
        <ele>1794.44199936</ele>
        <time>2013-06-15T07:55:34Z</time>
      </trkpt>
      <trkpt lat="45.69676" lon="6.27261">
        <ele>1796.02799872</ele>
        <time>2013-06-15T07:55:42Z</time>
      </trkpt>
      <trkpt lat="45.69678" lon="6.27242">
        <ele>1801.6049984</ele>
        <time>2013-06-15T07:55:56Z</time>
      </trkpt>
      <trkpt lat="45.69681" lon="6.27237">
        <ele>1802</ele>
        <time>2013-06-15T07:56:00Z</time>
      </trkpt>
      <trkpt lat="45.69684" lon="6.27233">
        <ele>1802</ele>
        <time>2013-06-15T07:56:03Z</time>
      </trkpt>
      <trkpt lat="45.69688" lon="6.27229">
        <ele>1802.01399936</ele>
        <time>2013-06-15T07:56:07Z</time>
      </trkpt>
      <trkpt lat="45.69691" lon="6.27227">
        <ele>1802.31399936</ele>
        <time>2013-06-15T07:56:10Z</time>
      </trkpt>
      <trkpt lat="45.69694" lon="6.27225">
        <ele>1802.63299968</ele>
        <time>2013-06-15T07:56:13Z</time>
      </trkpt>
      <trkpt lat="45.69697" lon="6.27223">
        <ele>1802.91399936</ele>
        <time>2013-06-15T07:56:16Z</time>
      </trkpt>
      <trkpt lat="45.69703" lon="6.2722">
        <ele>1804.24199936</ele>
        <time>2013-06-15T07:56:23Z</time>
      </trkpt>
      <trkpt lat="45.69709" lon="6.27217">
        <ele>1805.45599744</ele>
        <time>2013-06-15T07:56:28Z</time>
      </trkpt>
      <trkpt lat="45.69712" lon="6.27216">
        <ele>1806.65599744</ele>
        <time>2013-06-15T07:56:31Z</time>
      </trkpt>
      <trkpt lat="45.69718" lon="6.27213">
        <ele>1808.65599744</ele>
        <time>2013-06-15T07:56:36Z</time>
      </trkpt>
      <trkpt lat="45.69726" lon="6.27209">
        <ele>1809</ele>
        <time>2013-06-15T07:56:42Z</time>
      </trkpt>
      <trkpt lat="45.69731" lon="6.27194">
        <ele>1809.72099968</ele>
        <time>2013-06-15T07:56:54Z</time>
      </trkpt>
      <trkpt lat="45.69728" lon="6.2718">
        <ele>1814.6049984</ele>
        <time>2013-06-15T07:57:06Z</time>
      </trkpt>
      <trkpt lat="45.69733" lon="6.27164">
        <ele>1816.2226684315</ele>
        <time>2013-06-15T07:57:18Z</time>
      </trkpt>
      <trkpt lat="45.69741" lon="6.27157">
        <ele>1818.5699968</ele>
        <time>2013-06-15T07:57:28Z</time>
      </trkpt>
      <trkpt lat="45.69749" lon="6.27155">
        <ele>1822.5699968</ele>
        <time>2013-06-15T07:57:36Z</time>
      </trkpt>
      <trkpt lat="45.69754" lon="6.27154">
        <ele>1823.64199936</ele>
        <time>2013-06-15T07:57:40Z</time>
      </trkpt>
      <trkpt lat="45.69764" lon="6.27154">
        <ele>1825.02099968</ele>
        <time>2013-06-15T07:57:47Z</time>
      </trkpt>
      <trkpt lat="45.69768" lon="6.27154">
        <ele>1825.42099968</ele>
        <time>2013-06-15T07:57:51Z</time>
      </trkpt>
      <trkpt lat="45.69773" lon="6.27154">
        <ele>1825.92099968</ele>
        <time>2013-06-15T07:57:56Z</time>
      </trkpt>
      <trkpt lat="45.6978" lon="6.27152">
        <ele>1826.62799872</ele>
        <time>2013-06-15T07:58:00Z</time>
      </trkpt>
      <trkpt lat="45.69786" lon="6.27149">
        <ele>1827.22799872</ele>
        <time>2013-06-15T07:58:03Z</time>
      </trkpt>
      <trkpt lat="45.69792" lon="6.27147">
        <ele>1827.82799872</ele>
        <time>2013-06-15T07:58:06Z</time>
      </trkpt>
      <trkpt lat="45.69799" lon="6.27151">
        <ele>1828</ele>
        <time>2013-06-15T07:58:09Z</time>
      </trkpt>
      <trkpt lat="45.69813" lon="6.27155">
        <ele>1828</ele>
        <time>2013-06-15T07:58:16Z</time>
      </trkpt>
      <trkpt lat="45.69825" lon="6.27153">
        <ele>1828</ele>
        <time>2013-06-15T07:58:22Z</time>
      </trkpt>
      <trkpt lat="45.69837" lon="6.27147">
        <ele>1827.77200128</ele>
        <time>2013-06-15T07:58:28Z</time>
      </trkpt>
      <trkpt lat="45.69844" lon="6.27134">
        <ele>1826.75399936</ele>
        <time>2013-06-15T07:58:33Z</time>
      </trkpt>
      <trkpt lat="45.69848" lon="6.27124">
        <ele>1825.7692342119</ele>
        <time>2013-06-15T07:58:37Z</time>
      </trkpt>
      <trkpt lat="45.69858" lon="6.2711">
        <ele>1820.2747269609</ele>
        <time>2013-06-15T07:58:42Z</time>
      </trkpt>
      <trkpt lat="45.69866" lon="6.27104">
        <ele>1816.9780226104</ele>
        <time>2013-06-15T07:58:45Z</time>
      </trkpt>
      <trkpt lat="45.69877" lon="6.27108">
        <ele>1813.92</ele>
        <time>2013-06-15T07:58:48Z</time>
      </trkpt>
      <trkpt lat="45.69883" lon="6.27123">
        <ele>1811.22</ele>
        <time>2013-06-15T07:58:51Z</time>
      </trkpt>
      <trkpt lat="45.69887" lon="6.27136">
        <ele>1808.52</ele>
        <time>2013-06-15T07:58:54Z</time>
      </trkpt>
      <trkpt lat="45.69892" lon="6.27153">
        <ele>1805.00099712</ele>
        <time>2013-06-15T07:58:58Z</time>
      </trkpt>
      <trkpt lat="45.69901" lon="6.27177">
        <ele>1799.60099712</ele>
        <time>2013-06-15T07:59:04Z</time>
      </trkpt>
      <trkpt lat="45.69906" lon="6.2719">
        <ele>1796.89600256</ele>
        <time>2013-06-15T07:59:07Z</time>
      </trkpt>
      <trkpt lat="45.69909" lon="6.27197">
        <ele>1795.29600256</ele>
        <time>2013-06-15T07:59:09Z</time>
      </trkpt>
      <trkpt lat="45.69912" lon="6.27205">
        <ele>1793.69600256</ele>
        <time>2013-06-15T07:59:11Z</time>
      </trkpt>
      <trkpt lat="45.69917" lon="6.27222">
        <ele>1790.49600256</ele>
        <time>2013-06-15T07:59:15Z</time>
      </trkpt>
      <trkpt lat="45.69922" lon="6.27239">
        <ele>1787.50900224</ele>
        <time>2013-06-15T07:59:19Z</time>
      </trkpt>
      <trkpt lat="45.6993" lon="6.27253">
        <ele>1784.70900224</ele>
        <time>2013-06-15T07:59:23Z</time>
      </trkpt>
      <trkpt lat="45.69942" lon="6.27267">
        <ele>1781.04</ele>
        <time>2013-06-15T07:59:28Z</time>
      </trkpt>
      <trkpt lat="45.69959" lon="6.27265">
        <ele>1775.44</ele>
        <time>2013-06-15T07:59:35Z</time>
      </trkpt>
      <trkpt lat="45.69966" lon="6.27255">
        <ele>1771.8</ele>
        <time>2013-06-15T07:59:39Z</time>
      </trkpt>
      <trkpt lat="45.69973" lon="6.27243">
        <ele>1767.8</ele>
        <time>2013-06-15T07:59:43Z</time>
      </trkpt>
      <trkpt lat="45.69978" lon="6.27233">
        <ele>1764.8</ele>
        <time>2013-06-15T07:59:46Z</time>
      </trkpt>
      <trkpt lat="45.69982" lon="6.27222">
        <ele>1762.68</ele>
        <time>2013-06-15T07:59:49Z</time>
      </trkpt>
      <trkpt lat="45.69985" lon="6.27211">
        <ele>1760.88</ele>
        <time>2013-06-15T07:59:52Z</time>
      </trkpt>
      <trkpt lat="45.69987" lon="6.27199">
        <ele>1759.08</ele>
        <time>2013-06-15T07:59:55Z</time>
      </trkpt>
      <trkpt lat="45.69987" lon="6.27186">
        <ele>1756.9221550002</ele>
        <time>2013-06-15T07:59:58Z</time>
      </trkpt>
      <trkpt lat="45.69989" lon="6.27174">
        <ele>1754.2275425006</ele>
        <time>2013-06-15T08:00:01Z</time>
      </trkpt>
      <trkpt lat="45.6999" lon="6.27161">
        <ele>1751.5329300011</ele>
        <time>2013-06-15T08:00:04Z</time>
      </trkpt>
      <trkpt lat="45.69998" lon="6.27136">
        <ele>1746.5070130616</ele>
        <time>2013-06-15T08:00:10Z</time>
      </trkpt>
      <trkpt lat="45.70011" lon="6.2714">
        <ele>1743.3006022922</ele>
        <time>2013-06-15T08:00:14Z</time>
      </trkpt>
      <trkpt lat="45.70017" lon="6.27154">
        <ele>1740.92200192</ele>
        <time>2013-06-15T08:00:17Z</time>
      </trkpt>
      <trkpt lat="45.70021" lon="6.27167">
        <ele>1739.12200192</ele>
        <time>2013-06-15T08:00:20Z</time>
      </trkpt>
      <trkpt lat="45.70023" lon="6.27183">
        <ele>1736.72200192</ele>
        <time>2013-06-15T08:00:24Z</time>
      </trkpt>
      <trkpt lat="45.70027" lon="6.27196">
        <ele>1734.96</ele>
        <time>2013-06-15T08:00:27Z</time>
      </trkpt>
      <trkpt lat="45.7003" lon="6.27209">
        <ele>1734.36</ele>
        <time>2013-06-15T08:00:30Z</time>
      </trkpt>
      <trkpt lat="45.70032" lon="6.27231">
        <ele>1733.36</ele>
        <time>2013-06-15T08:00:35Z</time>
      </trkpt>
      <trkpt lat="45.70035" lon="6.27251">
        <ele>1733</ele>
        <time>2013-06-15T08:00:40Z</time>
      </trkpt>
      <trkpt lat="45.70039" lon="6.27271">
        <ele>1733</ele>
        <time>2013-06-15T08:00:45Z</time>
      </trkpt>
      <trkpt lat="45.70041" lon="6.2729">
        <ele>1730.8068097516</ele>
        <time>2013-06-15T08:00:50Z</time>
      </trkpt>
      <trkpt lat="45.70045" lon="6.27311">
        <ele>1727.3033073703</ele>
        <time>2013-06-15T08:00:55Z</time>
      </trkpt>
      <trkpt lat="45.70049" lon="6.27333">
        <ele>1723.3546521813</ele>
        <time>2013-06-15T08:01:00Z</time>
      </trkpt>
      <trkpt lat="45.70053" lon="6.27349">
        <ele>1720.1578479626</ele>
        <time>2013-06-15T08:01:04Z</time>
      </trkpt>
      <trkpt lat="45.70059" lon="6.27367">
        <ele>1716.61999616</ele>
        <time>2013-06-15T08:01:09Z</time>
      </trkpt>
      <trkpt lat="45.70068" lon="6.27358">
        <ele>1713.01999616</ele>
        <time>2013-06-15T08:01:15Z</time>
      </trkpt>
      <trkpt lat="45.7007" lon="6.27342">
        <ele>1710.21599744</ele>
        <time>2013-06-15T08:01:19Z</time>
      </trkpt>
      <trkpt lat="45.70071" lon="6.27327">
        <ele>1707.01599744</ele>
        <time>2013-06-15T08:01:23Z</time>
      </trkpt>
      <trkpt lat="45.70079" lon="6.273">
        <ele>1700.55999488</ele>
        <time>2013-06-15T08:01:31Z</time>
      </trkpt>
      <trkpt lat="45.70082" lon="6.27288">
        <ele>1698.24</ele>
        <time>2013-06-15T08:01:34Z</time>
      </trkpt>
      <trkpt lat="45.70085" lon="6.27275">
        <ele>1695.9</ele>
        <time>2013-06-15T08:01:37Z</time>
      </trkpt>
      <trkpt lat="45.7009" lon="6.27263">
        <ele>1694.4</ele>
        <time>2013-06-15T08:01:40Z</time>
      </trkpt>
      <trkpt lat="45.70095" lon="6.27251">
        <ele>1692.9</ele>
        <time>2013-06-15T08:01:43Z</time>
      </trkpt>
      <trkpt lat="45.70099" lon="6.27239">
        <ele>1691.4</ele>
        <time>2013-06-15T08:01:46Z</time>
      </trkpt>
      <trkpt lat="45.70106" lon="6.27225">
        <ele>1689.74800128</ele>
        <time>2013-06-15T08:01:50Z</time>
      </trkpt>
      <trkpt lat="45.70113" lon="6.27215">
        <ele>1688.54800128</ele>
        <time>2013-06-15T08:01:53Z</time>
      </trkpt>
      <trkpt lat="45.70118" lon="6.27204">
        <ele>1687.34800128</ele>
        <time>2013-06-15T08:01:56Z</time>
      </trkpt>
      <trkpt lat="45.70121" lon="6.27187">
        <ele>1686.04</ele>
        <time>2013-06-15T08:02:00Z</time>
      </trkpt>
      <trkpt lat="45.70123" lon="6.27171">
        <ele>1684.84</ele>
        <time>2013-06-15T08:02:04Z</time>
      </trkpt>
      <trkpt lat="45.70126" lon="6.27154">
        <ele>1683.7737744869</ele>
        <time>2013-06-15T08:02:08Z</time>
      </trkpt>
      <trkpt lat="45.7013" lon="6.27141">
        <ele>1683.1731740787</ele>
        <time>2013-06-15T08:02:11Z</time>
      </trkpt>
      <trkpt lat="45.70133" lon="6.27129">
        <ele>1682.5725736705</ele>
        <time>2013-06-15T08:02:14Z</time>
      </trkpt>
      <trkpt lat="45.70135" lon="6.27116">
        <ele>1681.8961064203</ele>
        <time>2013-06-15T08:02:17Z</time>
      </trkpt>
      <trkpt lat="45.70138" lon="6.27105">
        <ele>1679.4985032563</ele>
        <time>2013-06-15T08:02:20Z</time>
      </trkpt>
      <trkpt lat="45.70141" lon="6.27092">
        <ele>1677.1009000922</ele>
        <time>2013-06-15T08:02:23Z</time>
      </trkpt>
      <trkpt lat="45.70157" lon="6.27085">
        <ele>1671.76</ele>
        <time>2013-06-15T08:02:30Z</time>
      </trkpt>
      <trkpt lat="45.70172" lon="6.27112">
        <ele>1666.8606964731</ele>
        <time>2013-06-15T08:02:37Z</time>
      </trkpt>
      <trkpt lat="45.70177" lon="6.27133">
        <ele>1663.3781082995</ele>
        <time>2013-06-15T08:02:42Z</time>
      </trkpt>
      <trkpt lat="45.70182" lon="6.27152">
        <ele>1659.8654009602</ele>
        <time>2013-06-15T08:02:47Z</time>
      </trkpt>
      <trkpt lat="45.70187" lon="6.27171">
        <ele>1655.3788620127</ele>
        <time>2013-06-15T08:02:52Z</time>
      </trkpt>
      <trkpt lat="45.70192" lon="6.2719">
        <ele>1650.9092722581</ele>
        <time>2013-06-15T08:02:57Z</time>
      </trkpt>
      <trkpt lat="45.70197" lon="6.27209">
        <ele>1647.8850787097</ele>
        <time>2013-06-15T08:03:02Z</time>
      </trkpt>
      <trkpt lat="45.70201" lon="6.27224">
        <ele>1644.83899776</ele>
        <time>2013-06-15T08:03:07Z</time>
      </trkpt>
      <trkpt lat="45.7021" lon="6.27217">
        <ele>1640.63899776</ele>
        <time>2013-06-15T08:03:13Z</time>
      </trkpt>
      <trkpt lat="45.70213" lon="6.27205">
        <ele>1637.91600128</ele>
        <time>2013-06-15T08:03:17Z</time>
      </trkpt>
      <trkpt lat="45.70217" lon="6.27189">
        <ele>1635.91600128</ele>
        <time>2013-06-15T08:03:22Z</time>
      </trkpt>
      <trkpt lat="45.70218" lon="6.27176">
        <ele>1634.71600128</ele>
        <time>2013-06-15T08:03:25Z</time>
      </trkpt>
      <trkpt lat="45.70219" lon="6.27164">
        <ele>1633.349352761</ele>
        <time>2013-06-15T08:03:28Z</time>
      </trkpt>
      <trkpt lat="45.7022" lon="6.27151">
        <ele>1631.847845334</ele>
        <time>2013-06-15T08:03:31Z</time>
      </trkpt>
      <trkpt lat="45.70224" lon="6.27137">
        <ele>1629.8458439733</ele>
        <time>2013-06-15T08:03:35Z</time>
      </trkpt>
      <trkpt lat="45.70239" lon="6.27129">
        <ele>1626.3476562949</ele>
        <time>2013-06-15T08:03:42Z</time>
      </trkpt>
      <trkpt lat="45.70248" lon="6.27147">
        <ele>1623.83899776</ele>
        <time>2013-06-15T08:03:47Z</time>
      </trkpt>
      <trkpt lat="45.70253" lon="6.27167">
        <ele>1620.33899776</ele>
        <time>2013-06-15T08:03:52Z</time>
      </trkpt>
      <trkpt lat="45.70259" lon="6.27186">
        <ele>1616.79299712</ele>
        <time>2013-06-15T08:03:57Z</time>
      </trkpt>
      <trkpt lat="45.70271" lon="6.27228">
        <ele>1606.21599744</ele>
        <time>2013-06-15T08:04:09Z</time>
      </trkpt>
      <trkpt lat="45.70281" lon="6.27249">
        <ele>1601.41599744</ele>
        <time>2013-06-15T08:04:15Z</time>
      </trkpt>
      <trkpt lat="45.70292" lon="6.27269">
        <ele>1597.8849984</ele>
        <time>2013-06-15T08:04:21Z</time>
      </trkpt>
      <trkpt lat="45.70301" lon="6.27285">
        <ele>1595.3849984</ele>
        <time>2013-06-15T08:04:26Z</time>
      </trkpt>
      <trkpt lat="45.70307" lon="6.27304">
        <ele>1593.2782762672</ele>
        <time>2013-06-15T08:04:31Z</time>
      </trkpt>
      <trkpt lat="45.70312" lon="6.27327">
        <ele>1590.8801198418</ele>
        <time>2013-06-15T08:04:37Z</time>
      </trkpt>
      <trkpt lat="45.70319" lon="6.27339">
        <ele>1588.3826165459</ele>
        <time>2013-06-15T08:04:42Z</time>
      </trkpt>
      <trkpt lat="45.70322" lon="6.27322">
        <ele>1585.26199808</ele>
        <time>2013-06-15T08:04:48Z</time>
      </trkpt>
      <trkpt lat="45.70321" lon="6.27304">
        <ele>1582.92200192</ele>
        <time>2013-06-15T08:04:52Z</time>
      </trkpt>
      <trkpt lat="45.70318" lon="6.2729">
        <ele>1581.12200192</ele>
        <time>2013-06-15T08:04:55Z</time>
      </trkpt>
      <trkpt lat="45.70318" lon="6.27277">
        <ele>1579.32200192</ele>
        <time>2013-06-15T08:04:58Z</time>
      </trkpt>
      <trkpt lat="45.70318" lon="6.27264">
        <ele>1577.46199808</ele>
        <time>2013-06-15T08:05:01Z</time>
      </trkpt>
      <trkpt lat="45.70319" lon="6.27252">
        <ele>1575.66199808</ele>
        <time>2013-06-15T08:05:04Z</time>
      </trkpt>
      <trkpt lat="45.7032" lon="6.27239">
        <ele>1573.8498466947</ele>
        <time>2013-06-15T08:05:07Z</time>
      </trkpt>
      <trkpt lat="45.70322" lon="6.27226">
        <ele>1572.3483520806</ele>
        <time>2013-06-15T08:05:10Z</time>
      </trkpt>
      <trkpt lat="45.70323" lon="6.27211">
        <ele>1570.8468446537</ele>
        <time>2013-06-15T08:05:13Z</time>
      </trkpt>
      <trkpt lat="45.70343" lon="6.27221">
        <ele>1568.0379626895</ele>
        <time>2013-06-15T08:05:20Z</time>
      </trkpt>
      <trkpt lat="45.70351" lon="6.27245">
        <ele>1566.5394607119</ele>
        <time>2013-06-15T08:05:25Z</time>
      </trkpt>
      <trkpt lat="45.70364" lon="6.27284">
        <ele>1561.08</ele>
        <time>2013-06-15T08:05:35Z</time>
      </trkpt>
      <trkpt lat="45.70369" lon="6.27303">
        <ele>1557.8133740924</ele>
        <time>2013-06-15T08:05:40Z</time>
      </trkpt>
      <trkpt lat="45.70377" lon="6.2732">
        <ele>1554.3203578893</ele>
        <time>2013-06-15T08:05:45Z</time>
      </trkpt>
      <trkpt lat="45.7039" lon="6.27336">
        <ele>1551.3406798617</ele>
        <time>2013-06-15T08:05:51Z</time>
      </trkpt>
      <trkpt lat="45.70403" lon="6.27347">
        <ele>1549.3366731308</ele>
        <time>2013-06-15T08:05:56Z</time>
      </trkpt>
      <trkpt lat="45.7041" lon="6.27356">
        <ele>1548.55599872</ele>
        <time>2013-06-15T08:05:59Z</time>
      </trkpt>
      <trkpt lat="45.70415" lon="6.27365">
        <ele>1547.95600128</ele>
        <time>2013-06-15T08:06:02Z</time>
      </trkpt>
      <trkpt lat="45.70421" lon="6.27378">
        <ele>1547.15600128</ele>
        <time>2013-06-15T08:06:06Z</time>
      </trkpt>
      <trkpt lat="45.70431" lon="6.27395">
        <ele>1547</ele>
        <time>2013-06-15T08:06:12Z</time>
      </trkpt>
      <trkpt lat="45.7044" lon="6.27408">
        <ele>1546.9940066315</ele>
        <time>2013-06-15T08:06:17Z</time>
      </trkpt>
      <trkpt lat="45.70447" lon="6.27416">
        <ele>1546.6943062359</ele>
        <time>2013-06-15T08:06:20Z</time>
      </trkpt>
      <trkpt lat="45.70456" lon="6.2743">
        <ele>1546.1948055768</ele>
        <time>2013-06-15T08:06:25Z</time>
      </trkpt>
      <trkpt lat="45.70465" lon="6.27445">
        <ele>1543.12</ele>
        <time>2013-06-15T08:06:30Z</time>
      </trkpt>
      <trkpt lat="45.70472" lon="6.27459">
        <ele>1538.62</ele>
        <time>2013-06-15T08:06:35Z</time>
      </trkpt>
      <trkpt lat="45.70485" lon="6.27471">
        <ele>1533.69600256</ele>
        <time>2013-06-15T08:06:41Z</time>
      </trkpt>
      <trkpt lat="45.70496" lon="6.2748">
        <ele>1529.69600256</ele>
        <time>2013-06-15T08:06:46Z</time>
      </trkpt>
      <trkpt lat="45.7051" lon="6.2749">
        <ele>1525.88</ele>
        <time>2013-06-15T08:06:52Z</time>
      </trkpt>
      <trkpt lat="45.70524" lon="6.27501">
        <ele>1521.46</ele>
        <time>2013-06-15T08:06:59Z</time>
      </trkpt>
      <trkpt lat="45.70549" lon="6.27519">
        <ele>1513.76</ele>
        <time>2013-06-15T08:07:10Z</time>
      </trkpt>
      <trkpt lat="45.70558" lon="6.2753">
        <ele>1510.96</ele>
        <time>2013-06-15T08:07:14Z</time>
      </trkpt>
      <trkpt lat="45.70568" lon="6.27532">
        <ele>1508.14800128</ele>
        <time>2013-06-15T08:07:19Z</time>
      </trkpt>
      <trkpt lat="45.70571" lon="6.27517">
        <ele>1505.74800128</ele>
        <time>2013-06-15T08:07:25Z</time>
      </trkpt>
      <trkpt lat="45.70569" lon="6.27504">
        <ele>1503.24</ele>
        <time>2013-06-15T08:07:29Z</time>
      </trkpt>
      <trkpt lat="45.70567" lon="6.27489">
        <ele>1500.04</ele>
        <time>2013-06-15T08:07:33Z</time>
      </trkpt>
      <trkpt lat="45.70567" lon="6.27476">
        <ele>1496.92200192</ele>
        <time>2013-06-15T08:07:37Z</time>
      </trkpt>
      <trkpt lat="45.70568" lon="6.2746">
        <ele>1493.92200192</ele>
        <time>2013-06-15T08:07:42Z</time>
      </trkpt>
      <trkpt lat="45.70571" lon="6.27445">
        <ele>1490.96100096</ele>
        <time>2013-06-15T08:07:47Z</time>
      </trkpt>
      <trkpt lat="45.70577" lon="6.27436">
        <ele>1489.76100096</ele>
        <time>2013-06-15T08:07:51Z</time>
      </trkpt>
      <trkpt lat="45.70591" lon="6.27429">
        <ele>1485.99299712</ele>
        <time>2013-06-15T08:07:59Z</time>
      </trkpt>
      <trkpt lat="45.70606" lon="6.27436">
        <ele>1479.69299712</ele>
        <time>2013-06-15T08:08:06Z</time>
      </trkpt>
      <trkpt lat="45.70619" lon="6.27443">
        <ele>1476.4374382583</ele>
        <time>2013-06-15T08:08:13Z</time>
      </trkpt>
      <trkpt lat="45.7063" lon="6.27461">
        <ele>1473.1238774422</ele>
        <time>2013-06-15T08:08:20Z</time>
      </trkpt>
      <trkpt lat="45.7064" lon="6.27481">
        <ele>1469.5274726961</ele>
        <time>2013-06-15T08:08:26Z</time>
      </trkpt>
      <trkpt lat="45.70649" lon="6.27503">
        <ele>1467.3512976296</ele>
        <time>2013-06-15T08:08:31Z</time>
      </trkpt>
      <trkpt lat="45.70654" lon="6.27517">
        <ele>1466.1536920742</ele>
        <time>2013-06-15T08:08:34Z</time>
      </trkpt>
      <trkpt lat="45.70662" lon="6.27539">
        <ele>1463.9278531926</ele>
        <time>2013-06-15T08:08:39Z</time>
      </trkpt>
      <trkpt lat="45.70668" lon="6.27568">
        <ele>1460.9218430962</ele>
        <time>2013-06-15T08:08:45Z</time>
      </trkpt>
      <trkpt lat="45.70669" lon="6.27583">
        <ele>1459.22000384</ele>
        <time>2013-06-15T08:08:48Z</time>
      </trkpt>
      <trkpt lat="45.7067" lon="6.27603">
        <ele>1456.82000384</ele>
        <time>2013-06-15T08:08:52Z</time>
      </trkpt>
      <trkpt lat="45.70671" lon="6.27618">
        <ele>1455.01999616</ele>
        <time>2013-06-15T08:08:55Z</time>
      </trkpt>
      <trkpt lat="45.70672" lon="6.27632">
        <ele>1453.61000192</ele>
        <time>2013-06-15T08:08:58Z</time>
      </trkpt>
      <trkpt lat="45.70673" lon="6.27646">
        <ele>1452.70999808</ele>
        <time>2013-06-15T08:09:01Z</time>
      </trkpt>
      <trkpt lat="45.70678" lon="6.27669">
        <ele>1451.21000192</ele>
        <time>2013-06-15T08:09:06Z</time>
      </trkpt>
      <trkpt lat="45.70681" lon="6.27687">
        <ele>1449.3500032</ele>
        <time>2013-06-15T08:09:10Z</time>
      </trkpt>
      <trkpt lat="45.70684" lon="6.27706">
        <ele>1447.3500032</ele>
        <time>2013-06-15T08:09:14Z</time>
      </trkpt>
      <trkpt lat="45.70682" lon="6.27724">
        <ele>1445.50799872</ele>
        <time>2013-06-15T08:09:18Z</time>
      </trkpt>
      <trkpt lat="45.70682" lon="6.27739">
        <ele>1444.30799872</ele>
        <time>2013-06-15T08:09:21Z</time>
      </trkpt>
      <trkpt lat="45.70681" lon="6.27753">
        <ele>1443.10799872</ele>
        <time>2013-06-15T08:09:24Z</time>
      </trkpt>
      <trkpt lat="45.70681" lon="6.27768">
        <ele>1441.95399936</ele>
        <time>2013-06-15T08:09:27Z</time>
      </trkpt>
      <trkpt lat="45.7068" lon="6.27782">
        <ele>1441.35399936</ele>
        <time>2013-06-15T08:09:30Z</time>
      </trkpt>
      <trkpt lat="45.70679" lon="6.27797">
        <ele>1440.75399936</ele>
        <time>2013-06-15T08:09:33Z</time>
      </trkpt>
      <trkpt lat="45.70676" lon="6.2781">
        <ele>1440.15399936</ele>
        <time>2013-06-15T08:09:36Z</time>
      </trkpt>
      <trkpt lat="45.70675" lon="6.27823">
        <ele>1439.53999872</ele>
        <time>2013-06-15T08:09:39Z</time>
      </trkpt>
      <trkpt lat="45.70672" lon="6.2784">
        <ele>1438.73999872</ele>
        <time>2013-06-15T08:09:43Z</time>
      </trkpt>
      <trkpt lat="45.70662" lon="6.27865">
        <ele>1436.3883844201</ele>
        <time>2013-06-15T08:09:49Z</time>
      </trkpt>
      <trkpt lat="45.70656" lon="6.27874">
        <ele>1434.2862919603</ele>
        <time>2013-06-15T08:09:52Z</time>
      </trkpt>
      <trkpt lat="45.70642" lon="6.27887">
        <ele>1430.8141838367</ele>
        <time>2013-06-15T08:09:57Z</time>
      </trkpt>
      <trkpt lat="45.70629" lon="6.279">
        <ele>1427.8171875539</ele>
        <time>2013-06-15T08:10:02Z</time>
      </trkpt>
      <trkpt lat="45.70627" lon="6.27921">
        <ele>1423.3500032</ele>
        <time>2013-06-15T08:10:10Z</time>
      </trkpt>
      <trkpt lat="45.70637" lon="6.27921">
        <ele>1420.3500032</ele>
        <time>2013-06-15T08:10:16Z</time>
      </trkpt>
      <trkpt lat="45.70647" lon="6.27918">
        <ele>1417.03000576</ele>
        <time>2013-06-15T08:10:20Z</time>
      </trkpt>
      <trkpt lat="45.70658" lon="6.27919">
        <ele>1413.43000576</ele>
        <time>2013-06-15T08:10:24Z</time>
      </trkpt>
      <trkpt lat="45.70662" lon="6.27931">
        <ele>1411</ele>
        <time>2013-06-15T08:10:41Z</time>
      </trkpt>
      <trkpt lat="45.70659" lon="6.27943">
        <ele>1411</ele>
        <time>2013-06-15T08:10:44Z</time>
      </trkpt>
      <trkpt lat="45.70655" lon="6.27954">
        <ele>1410.7677601545</ele>
        <time>2013-06-15T08:10:47Z</time>
      </trkpt>
      <trkpt lat="45.70653" lon="6.27967">
        <ele>1408.3653687718</ele>
        <time>2013-06-15T08:10:50Z</time>
      </trkpt>
      <trkpt lat="45.70649" lon="6.27979">
        <ele>1405.9629568887</ele>
        <time>2013-06-15T08:10:53Z</time>
      </trkpt>
      <trkpt lat="45.70644" lon="6.28">
        <ele>1402.81999616</ele>
        <time>2013-06-15T08:10:57Z</time>
      </trkpt>
      <trkpt lat="45.7064" lon="6.28021">
        <ele>1399.82000384</ele>
        <time>2013-06-15T08:11:02Z</time>
      </trkpt>
      <trkpt lat="45.70639" lon="6.28036">
        <ele>1398.01999616</ele>
        <time>2013-06-15T08:11:05Z</time>
      </trkpt>
      <trkpt lat="45.70638" lon="6.28051">
        <ele>1395.8499968</ele>
        <time>2013-06-15T08:11:09Z</time>
      </trkpt>
      <trkpt lat="45.70639" lon="6.28065">
        <ele>1394.3500032</ele>
        <time>2013-06-15T08:11:12Z</time>
      </trkpt>
      <trkpt lat="45.70637" lon="6.28095">
        <ele>1392</ele>
        <time>2013-06-15T08:11:18Z</time>
      </trkpt>
      <trkpt lat="45.70636" lon="6.28109">
        <ele>1392</ele>
        <time>2013-06-15T08:11:21Z</time>
      </trkpt>
      <trkpt lat="45.70636" lon="6.28123">
        <ele>1392</ele>
        <time>2013-06-15T08:11:24Z</time>
      </trkpt>
      <trkpt lat="45.70638" lon="6.28141">
        <ele>1391.47895825</ele>
        <time>2013-06-15T08:11:28Z</time>
      </trkpt>
      <trkpt lat="45.70641" lon="6.28162">
        <ele>1388.9739434235</ele>
        <time>2013-06-15T08:11:33Z</time>
      </trkpt>
      <trkpt lat="45.70649" lon="6.28187">
        <ele>1386.57400064</ele>
        <time>2013-06-15T08:11:39Z</time>
      </trkpt>
      <trkpt lat="45.70655" lon="6.28204">
        <ele>1385.77400064</ele>
        <time>2013-06-15T08:11:43Z</time>
      </trkpt>
      <trkpt lat="45.70659" lon="6.28221">
        <ele>1384.9889886722</ele>
        <time>2013-06-15T08:11:47Z</time>
      </trkpt>
      <trkpt lat="45.70661" lon="6.2824">
        <ele>1384.5885884</ele>
        <time>2013-06-15T08:11:51Z</time>
      </trkpt>
      <trkpt lat="45.70663" lon="6.28255">
        <ele>1384.2882881959</ele>
        <time>2013-06-15T08:11:54Z</time>
      </trkpt>
      <trkpt lat="45.70667" lon="6.28274">
        <ele>1383.3956058008</ele>
        <time>2013-06-15T08:11:58Z</time>
      </trkpt>
      <trkpt lat="45.70674" lon="6.28289">
        <ele>1381.3976031641</ele>
        <time>2013-06-15T08:12:02Z</time>
      </trkpt>
      <trkpt lat="45.70682" lon="6.28303">
        <ele>1379.2997003955</ele>
        <time>2013-06-15T08:12:06Z</time>
      </trkpt>
      <trkpt lat="45.7069" lon="6.28315">
        <ele>1379</ele>
        <time>2013-06-15T08:12:10Z</time>
      </trkpt>
      <trkpt lat="45.70695" lon="6.28328">
        <ele>1379</ele>
        <time>2013-06-15T08:12:13Z</time>
      </trkpt>
      <trkpt lat="45.70705" lon="6.28346">
        <ele>1378.32200192</ele>
        <time>2013-06-15T08:12:18Z</time>
      </trkpt>
      <trkpt lat="45.70714" lon="6.2836">
        <ele>1375.92200192</ele>
        <time>2013-06-15T08:12:22Z</time>
      </trkpt>
      <trkpt lat="45.70721" lon="6.28371">
        <ele>1374.12200192</ele>
        <time>2013-06-15T08:12:25Z</time>
      </trkpt>
      <trkpt lat="45.70735" lon="6.28388">
        <ele>1371.7387391428</ele>
        <time>2013-06-15T08:12:31Z</time>
      </trkpt>
      <trkpt lat="45.70745" lon="6.28397">
        <ele>1370.5375383263</ele>
        <time>2013-06-15T08:12:35Z</time>
      </trkpt>
      <trkpt lat="45.70755" lon="6.28403">
        <ele>1369.7792210283</ele>
        <time>2013-06-15T08:12:39Z</time>
      </trkpt>
      <trkpt lat="45.70769" lon="6.28407">
        <ele>1369.2797203691</ele>
        <time>2013-06-15T08:12:44Z</time>
      </trkpt>
      <trkpt lat="45.70786" lon="6.28411">
        <ele>1366.76</ele>
        <time>2013-06-15T08:12:50Z</time>
      </trkpt>
      <trkpt lat="45.70798" lon="6.28412">
        <ele>1363.96</ele>
        <time>2013-06-15T08:12:54Z</time>
      </trkpt>
      <trkpt lat="45.70813" lon="6.28411">
        <ele>1360.8988992516</ele>
        <time>2013-06-15T08:12:59Z</time>
      </trkpt>
      <trkpt lat="45.70826" lon="6.28404">
        <ele>1358.3963975507</ele>
        <time>2013-06-15T08:13:04Z</time>
      </trkpt>
      <trkpt lat="45.70836" lon="6.28395">
        <ele>1355.9120904414</ele>
        <time>2013-06-15T08:13:08Z</time>
      </trkpt>
      <trkpt lat="45.70842" lon="6.28385">
        <ele>1353.2147868818</ele>
        <time>2013-06-15T08:13:11Z</time>
      </trkpt>
      <trkpt lat="45.70842" lon="6.28371">
        <ele>1349.6183821357</ele>
        <time>2013-06-15T08:13:15Z</time>
      </trkpt>
      <trkpt lat="45.70838" lon="6.2836">
        <ele>1347.66100096</ele>
        <time>2013-06-15T08:13:18Z</time>
      </trkpt>
      <trkpt lat="45.70831" lon="6.28351">
        <ele>1346.76100096</ele>
        <time>2013-06-15T08:13:21Z</time>
      </trkpt>
      <trkpt lat="45.70824" lon="6.28343">
        <ele>1345.86100096</ele>
        <time>2013-06-15T08:13:24Z</time>
      </trkpt>
      <trkpt lat="45.70816" lon="6.28333">
        <ele>1344.9739746229</ele>
        <time>2013-06-15T08:13:27Z</time>
      </trkpt>
      <trkpt lat="45.70808" lon="6.28324">
        <ele>1344.3733742147</ele>
        <time>2013-06-15T08:13:30Z</time>
      </trkpt>
      <trkpt lat="45.70801" lon="6.28314">
        <ele>1343.7727738065</ele>
        <time>2013-06-15T08:13:33Z</time>
      </trkpt>
      <trkpt lat="45.70794" lon="6.28306">
        <ele>1343.1721733983</ele>
        <time>2013-06-15T08:13:36Z</time>
      </trkpt>
      <trkpt lat="45.70776" lon="6.28284">
        <ele>1342.37900032</ele>
        <time>2013-06-15T08:13:43Z</time>
      </trkpt>
      <trkpt lat="45.7077" lon="6.28272">
        <ele>1342.07900032</ele>
        <time>2013-06-15T08:13:46Z</time>
      </trkpt>
      <trkpt lat="45.70762" lon="6.28258">
        <ele>1340.3950016</ele>
        <time>2013-06-15T08:13:50Z</time>
      </trkpt>
      <trkpt lat="45.70754" lon="6.28248">
        <ele>1338.8950016</ele>
        <time>2013-06-15T08:13:53Z</time>
      </trkpt>
      <trkpt lat="45.70749" lon="6.28233">
        <ele>1337.3950016</ele>
        <time>2013-06-15T08:13:56Z</time>
      </trkpt>
      <trkpt lat="45.70748" lon="6.28214">
        <ele>1336.11600128</ele>
        <time>2013-06-15T08:13:59Z</time>
      </trkpt>
      <trkpt lat="45.70748" lon="6.28196">
        <ele>1334.91600128</ele>
        <time>2013-06-15T08:14:02Z</time>
      </trkpt>
      <trkpt lat="45.70749" lon="6.28178">
        <ele>1333.71600128</ele>
        <time>2013-06-15T08:14:05Z</time>
      </trkpt>
      <trkpt lat="45.7075" lon="6.28163">
        <ele>1332.8863415064</ele>
        <time>2013-06-15T08:14:08Z</time>
      </trkpt>
      <trkpt lat="45.70755" lon="6.28144">
        <ele>1332.4875375354</ele>
        <time>2013-06-15T08:14:12Z</time>
      </trkpt>
      <trkpt lat="45.7076" lon="6.28127">
        <ele>1332.1884345572</ele>
        <time>2013-06-15T08:14:15Z</time>
      </trkpt>
      <trkpt lat="45.70766" lon="6.28112">
        <ele>1331.8857709751</ele>
        <time>2013-06-15T08:14:18Z</time>
      </trkpt>
      <trkpt lat="45.70773" lon="6.28099">
        <ele>1331.5851699654</ele>
        <time>2013-06-15T08:14:21Z</time>
      </trkpt>
      <trkpt lat="45.70781" lon="6.28086">
        <ele>1331.2845689558</ele>
        <time>2013-06-15T08:14:24Z</time>
      </trkpt>
      <trkpt lat="45.70787" lon="6.28073">
        <ele>1330.96999936</ele>
        <time>2013-06-15T08:14:27Z</time>
      </trkpt>
      <trkpt lat="45.70795" lon="6.28062">
        <ele>1330.67000064</ele>
        <time>2013-06-15T08:14:30Z</time>
      </trkpt>
      <trkpt lat="45.70804" lon="6.28049">
        <ele>1330.27000064</ele>
        <time>2013-06-15T08:14:34Z</time>
      </trkpt>
      <trkpt lat="45.70817" lon="6.28033">
        <ele>1328.61999616</ele>
        <time>2013-06-15T08:14:39Z</time>
      </trkpt>
      <trkpt lat="45.70838" lon="6.28006">
        <ele>1323.61000192</ele>
        <time>2013-06-15T08:14:48Z</time>
      </trkpt>
      <trkpt lat="45.70848" lon="6.27992">
        <ele>1322.10999808</ele>
        <time>2013-06-15T08:14:53Z</time>
      </trkpt>
      <trkpt lat="45.70857" lon="6.27972">
        <ele>1320.74000128</ele>
        <time>2013-06-15T08:14:58Z</time>
      </trkpt>
      <trkpt lat="45.70867" lon="6.27948">
        <ele>1319.54000128</ele>
        <time>2013-06-15T08:15:04Z</time>
      </trkpt>
      <trkpt lat="45.70875" lon="6.27923">
        <ele>1317.70799872</ele>
        <time>2013-06-15T08:15:10Z</time>
      </trkpt>
      <trkpt lat="45.70882" lon="6.27903">
        <ele>1315.70799872</ele>
        <time>2013-06-15T08:15:15Z</time>
      </trkpt>
      <trkpt lat="45.70886" lon="6.27882">
        <ele>1313.38000128</ele>
        <time>2013-06-15T08:15:21Z</time>
      </trkpt>
      <trkpt lat="45.70891" lon="6.27862">
        <ele>1311.38000128</ele>
        <time>2013-06-15T08:15:26Z</time>
      </trkpt>
      <trkpt lat="45.70896" lon="6.27844">
        <ele>1309.3</ele>
        <time>2013-06-15T08:15:30Z</time>
      </trkpt>
      <trkpt lat="45.70902" lon="6.27828">
        <ele>1306.9</ele>
        <time>2013-06-15T08:15:35Z</time>
      </trkpt>
      <trkpt lat="45.70912" lon="6.27809">
        <ele>1304.3983989114</ele>
        <time>2013-06-15T08:15:40Z</time>
      </trkpt>
      <trkpt lat="45.70921" lon="6.27794">
        <ele>1302.3963975507</ele>
        <time>2013-06-15T08:15:44Z</time>
      </trkpt>
      <trkpt lat="45.70929" lon="6.27781">
        <ele>1300.51600128</ele>
        <time>2013-06-15T08:15:48Z</time>
      </trkpt>
      <trkpt lat="45.70939" lon="6.27768">
        <ele>1298.91600128</ele>
        <time>2013-06-15T08:15:52Z</time>
      </trkpt>
      <trkpt lat="45.70947" lon="6.27757">
        <ele>1297.71600128</ele>
        <time>2013-06-15T08:15:55Z</time>
      </trkpt>
      <trkpt lat="45.70956" lon="6.27747">
        <ele>1296.3956058008</ele>
        <time>2013-06-15T08:15:58Z</time>
      </trkpt>
      <trkpt lat="45.70962" lon="6.27735">
        <ele>1294.8471505605</ele>
        <time>2013-06-15T08:16:01Z</time>
      </trkpt>
      <trkpt lat="45.70969" lon="6.27724">
        <ele>1292.8491479238</ele>
        <time>2013-06-15T08:16:05Z</time>
      </trkpt>
      <trkpt lat="45.70982" lon="6.27698">
        <ele>1287.65300224</ele>
        <time>2013-06-15T08:16:13Z</time>
      </trkpt>
      <trkpt lat="45.70988" lon="6.27681">
        <ele>1284.96100096</ele>
        <time>2013-06-15T08:16:17Z</time>
      </trkpt>
      <trkpt lat="45.7099" lon="6.27662">
        <ele>1283.704</ele>
        <time>2013-06-15T08:16:21Z</time>
      </trkpt>
      <trkpt lat="45.70996" lon="6.27646">
        <ele>1282.56100096</ele>
        <time>2013-06-15T08:16:25Z</time>
      </trkpt>
      <trkpt lat="45.71001" lon="6.2763">
        <ele>1280.9</ele>
        <time>2013-06-15T08:16:29Z</time>
      </trkpt>
      <trkpt lat="45.71011" lon="6.27614">
        <ele>1278.4</ele>
        <time>2013-06-15T08:16:34Z</time>
      </trkpt>
      <trkpt lat="45.71027" lon="6.27595">
        <ele>1275.08</ele>
        <time>2013-06-15T08:16:40Z</time>
      </trkpt>
      <trkpt lat="45.71034" lon="6.27579">
        <ele>1272.68</ele>
        <time>2013-06-15T08:16:44Z</time>
      </trkpt>
      <trkpt lat="45.71039" lon="6.27563">
        <ele>1270.52</ele>
        <time>2013-06-15T08:16:48Z</time>
      </trkpt>
      <trkpt lat="45.71045" lon="6.27548">
        <ele>1268.88000256</ele>
        <time>2013-06-15T08:16:52Z</time>
      </trkpt>
      <trkpt lat="45.71055" lon="6.27534">
        <ele>1267.28000256</ele>
        <time>2013-06-15T08:16:56Z</time>
      </trkpt>
      <trkpt lat="45.71062" lon="6.27524">
        <ele>1265.622749779</ele>
        <time>2013-06-15T08:16:59Z</time>
      </trkpt>
      <trkpt lat="45.71069" lon="6.27513">
        <ele>1263.8263491106</ele>
        <time>2013-06-15T08:17:02Z</time>
      </trkpt>
      <trkpt lat="45.71078" lon="6.27506">
        <ele>1262.0299331129</ele>
        <time>2013-06-15T08:17:05Z</time>
      </trkpt>
      <trkpt lat="45.71086" lon="6.27497">
        <ele>1260.5145402468</ele>
        <time>2013-06-15T08:17:08Z</time>
      </trkpt>
      <trkpt lat="45.71093" lon="6.27488">
        <ele>1259.3109305732</ele>
        <time>2013-06-15T08:17:11Z</time>
      </trkpt>
      <trkpt lat="45.71099" lon="6.27478">
        <ele>1258.1073208997</ele>
        <time>2013-06-15T08:17:14Z</time>
      </trkpt>
      <trkpt lat="45.71105" lon="6.27468">
        <ele>1256.88</ele>
        <time>2013-06-15T08:17:17Z</time>
      </trkpt>
      <trkpt lat="45.71116" lon="6.27446">
        <ele>1253.8849984</ele>
        <time>2013-06-15T08:17:23Z</time>
      </trkpt>
      <trkpt lat="45.71125" lon="6.27426">
        <ele>1251.3806191826</ele>
        <time>2013-06-15T08:17:28Z</time>
      </trkpt>
      <trkpt lat="45.71137" lon="6.27411">
        <ele>1248.8831158867</ele>
        <time>2013-06-15T08:17:33Z</time>
      </trkpt>
      <trkpt lat="45.7115" lon="6.27399">
        <ele>1246.4794822088</ele>
        <time>2013-06-15T08:17:38Z</time>
      </trkpt>
      <trkpt lat="45.71164" lon="6.27384">
        <ele>1244.4774757229</ele>
        <time>2013-06-15T08:17:43Z</time>
      </trkpt>
      <trkpt lat="45.71173" lon="6.27371">
        <ele>1242.81399808</ele>
        <time>2013-06-15T08:17:47Z</time>
      </trkpt>
      <trkpt lat="45.71185" lon="6.27359">
        <ele>1240.41399808</ele>
        <time>2013-06-15T08:17:51Z</time>
      </trkpt>
      <trkpt lat="45.71199" lon="6.27348">
        <ele>1237.41400576</ele>
        <time>2013-06-15T08:17:56Z</time>
      </trkpt>
      <trkpt lat="45.71214" lon="6.27335">
        <ele>1236.13799936</ele>
        <time>2013-06-15T08:18:01Z</time>
      </trkpt>
      <trkpt lat="45.71227" lon="6.27321">
        <ele>1235.13800192</ele>
        <time>2013-06-15T08:18:06Z</time>
      </trkpt>
      <trkpt lat="45.71236" lon="6.27302">
        <ele>1232.8471505605</ele>
        <time>2013-06-15T08:18:11Z</time>
      </trkpt>
      <trkpt lat="45.71244" lon="6.27285">
        <ele>1230.3496536582</ele>
        <time>2013-06-15T08:18:16Z</time>
      </trkpt>
      <trkpt lat="45.7125" lon="6.27263">
        <ele>1226.82000384</ele>
        <time>2013-06-15T08:18:22Z</time>
      </trkpt>
      <trkpt lat="45.7125" lon="6.27242">
        <ele>1223.87999744</ele>
        <time>2013-06-15T08:18:27Z</time>
      </trkpt>
      <trkpt lat="45.71245" lon="6.27217">
        <ele>1221.08000256</ele>
        <time>2013-06-15T08:18:34Z</time>
      </trkpt>
      <trkpt lat="45.71239" lon="6.272">
        <ele>1219.7697692029</ele>
        <time>2013-06-15T08:18:39Z</time>
      </trkpt>
      <trkpt lat="45.71228" lon="6.27182">
        <ele>1219.1691687947</ele>
        <time>2013-06-15T08:18:45Z</time>
      </trkpt>
      <trkpt lat="45.71217" lon="6.27163">
        <ele>1216.0489545811</ele>
        <time>2013-06-15T08:18:51Z</time>
      </trkpt>
      <trkpt lat="45.71238" lon="6.27147">
        <ele>1208.8849984</ele>
        <time>2013-06-15T08:19:03Z</time>
      </trkpt>
      <trkpt lat="45.71256" lon="6.27159">
        <ele>1206.38199808</ele>
        <time>2013-06-15T08:19:09Z</time>
      </trkpt>
      <trkpt lat="45.7127" lon="6.27174">
        <ele>1204.58199808</ele>
        <time>2013-06-15T08:19:15Z</time>
      </trkpt>
      <trkpt lat="45.71284" lon="6.27188">
        <ele>1202.76100096</ele>
        <time>2013-06-15T08:19:21Z</time>
      </trkpt>
      <trkpt lat="45.71299" lon="6.27202">
        <ele>1200.88</ele>
        <time>2013-06-15T08:19:28Z</time>
      </trkpt>
      <trkpt lat="45.71311" lon="6.2722">
        <ele>1200.28</ele>
        <time>2013-06-15T08:19:34Z</time>
      </trkpt>
      <trkpt lat="45.71318" lon="6.2724">
        <ele>1198.0180186529</ele>
        <time>2013-06-15T08:19:39Z</time>
      </trkpt>
      <trkpt lat="45.71325" lon="6.27254">
        <ele>1194.2342360811</ele>
        <time>2013-06-15T08:19:43Z</time>
      </trkpt>
      <trkpt lat="45.71336" lon="6.27276">
        <ele>1190.3389833753</ele>
        <time>2013-06-15T08:19:49Z</time>
      </trkpt>
      <trkpt lat="45.71341" lon="6.27299">
        <ele>1188.5443655061</ele>
        <time>2013-06-15T08:19:55Z</time>
      </trkpt>
      <trkpt lat="45.71341" lon="6.27327">
        <ele>1186.7331979299</ele>
        <time>2013-06-15T08:20:01Z</time>
      </trkpt>
      <trkpt lat="45.71343" lon="6.27353">
        <ele>1184.9700331573</ele>
        <time>2013-06-15T08:20:07Z</time>
      </trkpt>
      <trkpt lat="45.71339" lon="6.27377">
        <ele>1181.9730292022</ele>
        <time>2013-06-15T08:20:13Z</time>
      </trkpt>
      <trkpt lat="45.71337" lon="6.274">
        <ele>1179.3213234606</ele>
        <time>2013-06-15T08:20:18Z</time>
      </trkpt>
      <trkpt lat="45.71336" lon="6.27427">
        <ele>1175.7177210113</ele>
        <time>2013-06-15T08:20:24Z</time>
      </trkpt>
      <trkpt lat="45.71336" lon="6.27452">
        <ele>1172.7172835859</ele>
        <time>2013-06-15T08:20:30Z</time>
      </trkpt>
      <trkpt lat="45.71338" lon="6.27478">
        <ele>1170.3196804219</ele>
        <time>2013-06-15T08:20:36Z</time>
      </trkpt>
      <trkpt lat="45.7135" lon="6.27501">
        <ele>1168.76</ele>
        <time>2013-06-15T08:20:43Z</time>
      </trkpt>
      <trkpt lat="45.71353" lon="6.27534">
        <ele>1166.318318857</ele>
        <time>2013-06-15T08:21:40Z</time>
      </trkpt>
      <trkpt lat="45.71353" lon="6.2755">
        <ele>1166.69400064</ele>
        <time>2013-06-15T08:23:40Z</time>
      </trkpt>
      <trkpt lat="45.71358" lon="6.27572">
        <ele>1166.09400064</ele>
        <time>2013-06-15T08:23:46Z</time>
      </trkpt>
      <trkpt lat="45.7136" lon="6.27595">
        <ele>1164.75800064</ele>
        <time>2013-06-15T08:23:53Z</time>
      </trkpt>
      <trkpt lat="45.71358" lon="6.27614">
        <ele>1163.5892863492</ele>
        <time>2013-06-15T08:24:01Z</time>
      </trkpt>
      <trkpt lat="45.71359" lon="6.27635">
        <ele>1164.4374993548</ele>
        <time>2013-06-15T08:24:14Z</time>
      </trkpt>
      <trkpt lat="45.7136" lon="6.27652">
        <ele>1166.22599936</ele>
        <time>2013-06-15T08:24:23Z</time>
      </trkpt>
      <trkpt lat="45.7136" lon="6.27669">
        <ele>1169.0819174687</ele>
        <time>2013-06-15T08:24:32Z</time>
      </trkpt>
      <trkpt lat="45.7136" lon="6.27687">
        <ele>1171.52</ele>
        <time>2013-06-15T08:24:42Z</time>
      </trkpt>
      <trkpt lat="45.71361" lon="6.27705">
        <ele>1171.66700032</ele>
        <time>2013-06-15T08:24:50Z</time>
      </trkpt>
      <trkpt lat="45.71362" lon="6.27722">
        <ele>1171.3233235401</ele>
        <time>2013-06-15T08:25:00Z</time>
      </trkpt>
      <trkpt lat="45.71362" lon="6.27738">
        <ele>1172.44399872</ele>
        <time>2013-06-15T08:25:09Z</time>
      </trkpt>
      <trkpt lat="45.71363" lon="6.27756">
        <ele>1174.22300032</ele>
        <time>2013-06-15T08:25:19Z</time>
      </trkpt>
      <trkpt lat="45.71364" lon="6.27775">
        <ele>1175.4606192245</ele>
        <time>2013-06-15T08:25:29Z</time>
      </trkpt>
      <trkpt lat="45.71365" lon="6.27792">
        <ele>1177.4433314889</ele>
        <time>2013-06-15T08:25:39Z</time>
      </trkpt>
      <trkpt lat="45.71365" lon="6.27805">
        <ele>1178.8475427747</ele>
        <time>2013-06-15T08:25:46Z</time>
      </trkpt>
      <trkpt lat="45.71366" lon="6.27821">
        <ele>1179.93099904</ele>
        <time>2013-06-15T08:25:56Z</time>
      </trkpt>
      <trkpt lat="45.71367" lon="6.27833">
        <ele>1181.25799936</ele>
        <time>2013-06-15T08:26:03Z</time>
      </trkpt>
      <trkpt lat="45.71363" lon="6.27864">
        <ele>1184</ele>
        <time>2013-06-15T08:26:21Z</time>
      </trkpt>
      <trkpt lat="45.71354" lon="6.27868">
        <ele>1184.83100032</ele>
        <time>2013-06-15T08:26:35Z</time>
      </trkpt>
      <trkpt lat="45.71349" lon="6.27861">
        <ele>1185</ele>
        <time>2013-06-15T08:26:40Z</time>
      </trkpt>
      <trkpt lat="45.71343" lon="6.27855">
        <ele>1185</ele>
        <time>2013-06-15T08:26:45Z</time>
      </trkpt>
      <trkpt lat="45.71336" lon="6.27848">
        <ele>1185.43100032</ele>
        <time>2013-06-15T08:26:51Z</time>
      </trkpt>
      <trkpt lat="45.71331" lon="6.2784">
        <ele>1185.93099904</ele>
        <time>2013-06-15T08:26:56Z</time>
      </trkpt>
      <trkpt lat="45.71325" lon="6.27831">
        <ele>1187.89300096</ele>
        <time>2013-06-15T08:27:03Z</time>
      </trkpt>
      <trkpt lat="45.71315" lon="6.2782">
        <ele>1189.53099904</ele>
        <time>2013-06-15T08:27:12Z</time>
      </trkpt>
      <trkpt lat="45.71307" lon="6.2781">
        <ele>1190.64599808</ele>
        <time>2013-06-15T08:27:20Z</time>
      </trkpt>
      <trkpt lat="45.713" lon="6.27803">
        <ele>1192.06200064</ele>
        <time>2013-06-15T08:27:27Z</time>
      </trkpt>
      <trkpt lat="45.71291" lon="6.27794">
        <ele>1194.072</ele>
        <time>2013-06-15T08:27:37Z</time>
      </trkpt>
      <trkpt lat="45.71283" lon="6.27787">
        <ele>1196.172</ele>
        <time>2013-06-15T08:27:44Z</time>
      </trkpt>
      <trkpt lat="45.71275" lon="6.27781">
        <ele>1197.43100032</ele>
        <time>2013-06-15T08:27:51Z</time>
      </trkpt>
      <trkpt lat="45.71268" lon="6.27775">
        <ele>1198.24199936</ele>
        <time>2013-06-15T08:27:58Z</time>
      </trkpt>
      <trkpt lat="45.71263" lon="6.27771">
        <ele>1199.24199936</ele>
        <time>2013-06-15T08:28:03Z</time>
      </trkpt>
      <trkpt lat="45.7126" lon="6.27768">
        <ele>1199.84199936</ele>
        <time>2013-06-15T08:28:06Z</time>
      </trkpt>
      <trkpt lat="45.71252" lon="6.2776">
        <ele>1201.48199936</ele>
        <time>2013-06-15T08:28:14Z</time>
      </trkpt>
      <trkpt lat="45.71243" lon="6.27751">
        <ele>1203.2150641713</ele>
        <time>2013-06-15T08:28:23Z</time>
      </trkpt>
      <trkpt lat="45.71222" lon="6.27751">
        <ele>1206.82799872</ele>
        <time>2013-06-15T08:28:46Z</time>
      </trkpt>
      <trkpt lat="45.71215" lon="6.27758">
        <ele>1208.16</ele>
        <time>2013-06-15T08:28:59Z</time>
      </trkpt>
      <trkpt lat="45.71211" lon="6.2776">
        <ele>1210.1550016</ele>
        <time>2013-06-15T08:29:03Z</time>
      </trkpt>
      <trkpt lat="45.71207" lon="6.27762">
        <ele>1212.13099904</ele>
        <time>2013-06-15T08:29:08Z</time>
      </trkpt>
      <trkpt lat="45.71203" lon="6.27764">
        <ele>1212.63100032</ele>
        <time>2013-06-15T08:29:13Z</time>
      </trkpt>
      <trkpt lat="45.71197" lon="6.27767">
        <ele>1215.1150016</ele>
        <time>2013-06-15T08:29:21Z</time>
      </trkpt>
      <trkpt lat="45.7119" lon="6.27767">
        <ele>1218.972</ele>
        <time>2013-06-15T08:29:30Z</time>
      </trkpt>
      <trkpt lat="45.71184" lon="6.27765">
        <ele>1221</ele>
        <time>2013-06-15T08:29:38Z</time>
      </trkpt>
      <trkpt lat="45.71177" lon="6.27765">
        <ele>1221.02799872</ele>
        <time>2013-06-15T08:29:47Z</time>
      </trkpt>
      <trkpt lat="45.71171" lon="6.27771">
        <ele>1223.09300096</ele>
        <time>2013-06-15T08:29:57Z</time>
      </trkpt>
      <trkpt lat="45.71169" lon="6.27781">
        <ele>1225.49300096</ele>
        <time>2013-06-15T08:30:05Z</time>
      </trkpt>
      <trkpt lat="45.71168" lon="6.27793">
        <ele>1227.26200064</ele>
        <time>2013-06-15T08:30:13Z</time>
      </trkpt>
      <trkpt lat="45.71167" lon="6.27803">
        <ele>1228.32299904</ele>
        <time>2013-06-15T08:30:20Z</time>
      </trkpt>
      <trkpt lat="45.71166" lon="6.27815">
        <ele>1229.248</ele>
        <time>2013-06-15T08:30:28Z</time>
      </trkpt>
      <trkpt lat="45.71167" lon="6.27832">
        <ele>1232.12</ele>
        <time>2013-06-15T08:30:39Z</time>
      </trkpt>
      <trkpt lat="45.71169" lon="6.27848">
        <ele>1236.648</ele>
        <time>2013-06-15T08:30:50Z</time>
      </trkpt>
      <trkpt lat="45.71172" lon="6.27861">
        <ele>1238.212</ele>
        <time>2013-06-15T08:30:59Z</time>
      </trkpt>
      <trkpt lat="45.71174" lon="6.27874">
        <ele>1239.0139575009</ele>
        <time>2013-06-15T08:31:07Z</time>
      </trkpt>
      <trkpt lat="45.71178" lon="6.27894">
        <ele>1240.4212646696</ele>
        <time>2013-06-15T08:31:19Z</time>
      </trkpt>
      <trkpt lat="45.71184" lon="6.27908">
        <ele>1242.11399936</ele>
        <time>2013-06-15T08:31:28Z</time>
      </trkpt>
      <trkpt lat="45.71189" lon="6.27923">
        <ele>1243.024</ele>
        <time>2013-06-15T08:31:37Z</time>
      </trkpt>
      <trkpt lat="45.71193" lon="6.27934">
        <ele>1244.624</ele>
        <time>2013-06-15T08:31:45Z</time>
      </trkpt>
      <trkpt lat="45.71196" lon="6.27945">
        <ele>1246.04199936</ele>
        <time>2013-06-15T08:31:52Z</time>
      </trkpt>
      <trkpt lat="45.71198" lon="6.27958">
        <ele>1248.26299904</ele>
        <time>2013-06-15T08:32:01Z</time>
      </trkpt>
      <trkpt lat="45.712" lon="6.27969">
        <ele>1250.12099968</ele>
        <time>2013-06-15T08:32:08Z</time>
      </trkpt>
      <trkpt lat="45.71202" lon="6.27979">
        <ele>1250.82099968</ele>
        <time>2013-06-15T08:32:15Z</time>
      </trkpt>
      <trkpt lat="45.71204" lon="6.27989">
        <ele>1252.032</ele>
        <time>2013-06-15T08:32:22Z</time>
      </trkpt>
      <trkpt lat="45.71206" lon="6.28">
        <ele>1253.648</ele>
        <time>2013-06-15T08:32:30Z</time>
      </trkpt>
      <trkpt lat="45.71208" lon="6.28012">
        <ele>1255.448</ele>
        <time>2013-06-15T08:32:39Z</time>
      </trkpt>
      <trkpt lat="45.7121" lon="6.28025">
        <ele>1257.46200064</ele>
        <time>2013-06-15T08:32:49Z</time>
      </trkpt>
      <trkpt lat="45.71209" lon="6.28035">
        <ele>1258.86199808</ele>
        <time>2013-06-15T08:32:56Z</time>
      </trkpt>
      <trkpt lat="45.71206" lon="6.28046">
        <ele>1262.6049984</ele>
        <time>2013-06-15T08:33:04Z</time>
      </trkpt>
      <trkpt lat="45.712" lon="6.28053">
        <ele>1265.26299904</ele>
        <time>2013-06-15T08:33:11Z</time>
      </trkpt>
      <trkpt lat="45.71194" lon="6.2806">
        <ele>1267.21399936</ele>
        <time>2013-06-15T08:33:19Z</time>
      </trkpt>
      <trkpt lat="45.71188" lon="6.28069">
        <ele>1268.01299968</ele>
        <time>2013-06-15T08:33:27Z</time>
      </trkpt>
      <trkpt lat="45.71182" lon="6.28081">
        <ele>1268.91299968</ele>
        <time>2013-06-15T08:33:36Z</time>
      </trkpt>
      <trkpt lat="45.71177" lon="6.28102">
        <ele>1271.76299904</ele>
        <time>2013-06-15T08:33:46Z</time>
      </trkpt>
      <trkpt lat="45.71175" lon="6.28114">
        <ele>1271.67900032</ele>
        <time>2013-06-15T08:33:50Z</time>
      </trkpt>
      <trkpt lat="45.71172" lon="6.28124">
        <ele>1271.37900032</ele>
        <time>2013-06-15T08:33:53Z</time>
      </trkpt>
      <trkpt lat="45.71166" lon="6.28132">
        <ele>1271.07900032</ele>
        <time>2013-06-15T08:33:56Z</time>
      </trkpt>
      <trkpt lat="45.7116" lon="6.28141">
        <ele>1270.1195231873</ele>
        <time>2013-06-15T08:33:59Z</time>
      </trkpt>
      <trkpt lat="45.71153" lon="6.28149">
        <ele>1268.9243040638</ele>
        <time>2013-06-15T08:34:02Z</time>
      </trkpt>
      <trkpt lat="45.71145" lon="6.28156">
        <ele>1267.7290849402</ele>
        <time>2013-06-15T08:34:05Z</time>
      </trkpt>
      <trkpt lat="45.71131" lon="6.28167">
        <ele>1265.7148594377</ele>
        <time>2013-06-15T08:34:10Z</time>
      </trkpt>
      <trkpt lat="45.71117" lon="6.28175">
        <ele>1263.7068273092</ele>
        <time>2013-06-15T08:34:15Z</time>
      </trkpt>
      <trkpt lat="45.71103" lon="6.28183">
        <ele>1261.7772249438</ele>
        <time>2013-06-15T08:34:20Z</time>
      </trkpt>
      <trkpt lat="45.7109" lon="6.28196">
        <ele>1259.779222307</ele>
        <time>2013-06-15T08:34:25Z</time>
      </trkpt>
      <trkpt lat="45.71078" lon="6.28211">
        <ele>1258.68</ele>
        <time>2013-06-15T08:34:30Z</time>
      </trkpt>
      <trkpt lat="45.71066" lon="6.28225">
        <ele>1258.18</ele>
        <time>2013-06-15T08:34:35Z</time>
      </trkpt>
      <trkpt lat="45.71051" lon="6.28246">
        <ele>1254.36</ele>
        <time>2013-06-15T08:34:42Z</time>
      </trkpt>
      <trkpt lat="45.71041" lon="6.28267">
        <ele>1249.72</ele>
        <time>2013-06-15T08:34:50Z</time>
      </trkpt>
      <trkpt lat="45.71049" lon="6.28295">
        <ele>1246.4350016</ele>
        <time>2013-06-15T08:34:58Z</time>
      </trkpt>
      <trkpt lat="45.71064" lon="6.28313">
        <ele>1243.4350016</ele>
        <time>2013-06-15T08:35:04Z</time>
      </trkpt>
      <trkpt lat="45.71081" lon="6.2833">
        <ele>1241.12</ele>
        <time>2013-06-15T08:35:09Z</time>
      </trkpt>
      <trkpt lat="45.71102" lon="6.28368">
        <ele>1237</ele>
        <time>2013-06-15T08:35:36Z</time>
      </trkpt>
      <trkpt lat="45.7111" lon="6.2838">
        <ele>1236.47900032</ele>
        <time>2013-06-15T08:35:42Z</time>
      </trkpt>
      <trkpt lat="45.71119" lon="6.28389">
        <ele>1236.07900032</ele>
        <time>2013-06-15T08:35:46Z</time>
      </trkpt>
      <trkpt lat="45.71129" lon="6.28398">
        <ele>1235.3626365195</ele>
        <time>2013-06-15T08:35:50Z</time>
      </trkpt>
      <trkpt lat="45.71139" lon="6.28407">
        <ele>1234.5634354648</ele>
        <time>2013-06-15T08:35:54Z</time>
      </trkpt>
      <trkpt lat="45.71148" lon="6.28412">
        <ele>1233.9</ele>
        <time>2013-06-15T08:35:57Z</time>
      </trkpt>
      <trkpt lat="45.71157" lon="6.2842">
        <ele>1232.4</ele>
        <time>2013-06-15T08:36:00Z</time>
      </trkpt>
      <trkpt lat="45.7117" lon="6.28434">
        <ele>1229.8950016</ele>
        <time>2013-06-15T08:36:05Z</time>
      </trkpt>
      <trkpt lat="45.71176" lon="6.28445">
        <ele>1228.7737744869</ele>
        <time>2013-06-15T08:36:08Z</time>
      </trkpt>
      <trkpt lat="45.71181" lon="6.28456">
        <ele>1228.1731740787</ele>
        <time>2013-06-15T08:36:11Z</time>
      </trkpt>
      <trkpt lat="45.71186" lon="6.28468">
        <ele>1227.5725736705</ele>
        <time>2013-06-15T08:36:14Z</time>
      </trkpt>
      <trkpt lat="45.71193" lon="6.28483">
        <ele>1226.7742263414</ele>
        <time>2013-06-15T08:36:18Z</time>
      </trkpt>
      <trkpt lat="45.712" lon="6.28497">
        <ele>1225.9750252867</ele>
        <time>2013-06-15T08:36:22Z</time>
      </trkpt>
      <trkpt lat="45.71205" lon="6.28509">
        <ele>1225.3756244957</ele>
        <time>2013-06-15T08:36:25Z</time>
      </trkpt>
      <trkpt lat="45.71207" lon="6.28522">
        <ele>1224.52</ele>
        <time>2013-06-15T08:36:28Z</time>
      </trkpt>
      <trkpt lat="45.71207" lon="6.28535">
        <ele>1222.92</ele>
        <time>2013-06-15T08:36:32Z</time>
      </trkpt>
      <trkpt lat="45.71203" lon="6.28543">
        <ele>1221.32</ele>
        <time>2013-06-15T08:36:36Z</time>
      </trkpt>
      <trkpt lat="45.71198" lon="6.28548">
        <ele>1221.32</ele>
        <time>2013-06-15T08:36:40Z</time>
      </trkpt>
      <trkpt lat="45.71182" lon="6.28561">
        <ele>1223.6367275923</ele>
        <time>2013-06-15T08:36:55Z</time>
      </trkpt>
      <trkpt lat="45.71172" lon="6.28571">
        <ele>1224.7131390525</ele>
        <time>2013-06-15T08:37:04Z</time>
      </trkpt>
      <trkpt lat="45.71164" lon="6.28586">
        <ele>1225.4097219048</ele>
        <time>2013-06-15T08:37:11Z</time>
      </trkpt>
      <trkpt lat="45.7116" lon="6.286">
        <ele>1225.8065473016</ele>
        <time>2013-06-15T08:37:15Z</time>
      </trkpt>
      <trkpt lat="45.71157" lon="6.28614">
        <ele>1226.2147174194</ele>
        <time>2013-06-15T08:37:19Z</time>
      </trkpt>
      <trkpt lat="45.71155" lon="6.28631">
        <ele>1226.7187496774</ele>
        <time>2013-06-15T08:37:24Z</time>
      </trkpt>
      <trkpt lat="45.71157" lon="6.2865">
        <ele>1227</ele>
        <time>2013-06-15T08:37:29Z</time>
      </trkpt>
      <trkpt lat="45.71155" lon="6.2867">
        <ele>1227</ele>
        <time>2013-06-15T08:37:34Z</time>
      </trkpt>
      <trkpt lat="45.71145" lon="6.28691">
        <ele>1226.3606391563</ele>
        <time>2013-06-15T08:37:40Z</time>
      </trkpt>
      <trkpt lat="45.71129" lon="6.2871">
        <ele>1224.8798799184</ele>
        <time>2013-06-15T08:37:47Z</time>
      </trkpt>
      <trkpt lat="45.71115" lon="6.28728">
        <ele>1221.2762774691</ele>
        <time>2013-06-15T08:37:53Z</time>
      </trkpt>
      <trkpt lat="45.71103" lon="6.28744">
        <ele>1218.3998031746</ele>
        <time>2013-06-15T08:37:58Z</time>
      </trkpt>
      <trkpt lat="45.7109" lon="6.28766">
        <ele>1215.4236126984</ele>
        <time>2013-06-15T08:38:04Z</time>
      </trkpt>
      <trkpt lat="45.71077" lon="6.28786">
        <ele>1212.7522664257</ele>
        <time>2013-06-15T08:38:11Z</time>
      </trkpt>
      <trkpt lat="45.71069" lon="6.28798">
        <ele>1211.2416919208</ele>
        <time>2013-06-15T08:38:16Z</time>
      </trkpt>
      <trkpt lat="45.71062" lon="6.28811">
        <ele>1209.64</ele>
        <time>2013-06-15T08:38:20Z</time>
      </trkpt>
      <trkpt lat="45.71056" lon="6.28825">
        <ele>1208.12</ele>
        <time>2013-06-15T08:38:24Z</time>
      </trkpt>
      <trkpt lat="45.71047" lon="6.28848">
        <ele>1204.48</ele>
        <time>2013-06-15T08:38:31Z</time>
      </trkpt>
      <trkpt lat="45.71025" lon="6.28897">
        <ele>1198.8378385304</ele>
        <time>2013-06-15T08:38:44Z</time>
      </trkpt>
      <trkpt lat="45.71011" lon="6.28914">
        <ele>1197.6793208965</ele>
        <time>2013-06-15T08:38:50Z</time>
      </trkpt>
      <trkpt lat="45.70994" lon="6.28931">
        <ele>1197.0799201055</ele>
        <time>2013-06-15T08:38:56Z</time>
      </trkpt>
      <trkpt lat="45.70979" lon="6.28947">
        <ele>1196.48199936</ele>
        <time>2013-06-15T08:39:02Z</time>
      </trkpt>
      <trkpt lat="45.70964" lon="6.28965">
        <ele>1196</ele>
        <time>2013-06-15T08:39:10Z</time>
      </trkpt>
      <trkpt lat="45.70949" lon="6.28982">
        <ele>1195.94800128</ele>
        <time>2013-06-15T08:39:17Z</time>
      </trkpt>
      <trkpt lat="45.70936" lon="6.29002">
        <ele>1193.54800128</ele>
        <time>2013-06-15T08:39:23Z</time>
      </trkpt>
      <trkpt lat="45.70921" lon="6.29022">
        <ele>1191.04</ele>
        <time>2013-06-15T08:39:30Z</time>
      </trkpt>
      <trkpt lat="45.7091" lon="6.29044">
        <ele>1188.6856282224</ele>
        <time>2013-06-15T08:39:40Z</time>
      </trkpt>
      <trkpt lat="45.70929" lon="6.29055">
        <ele>1180.0531007275</ele>
        <time>2013-06-15T08:39:54Z</time>
      </trkpt>
      <trkpt lat="45.70945" lon="6.29043">
        <ele>1174.46199808</ele>
        <time>2013-06-15T08:40:01Z</time>
      </trkpt>
      <trkpt lat="45.70961" lon="6.29043">
        <ele>1166.93099904</ele>
        <time>2013-06-15T08:40:17Z</time>
      </trkpt>
      <trkpt lat="45.70977" lon="6.29054">
        <ele>1159.8900032</ele>
        <time>2013-06-15T08:40:35Z</time>
      </trkpt>
      <trkpt lat="45.7099" lon="6.29073">
        <ele>1155.8449984</ele>
        <time>2013-06-15T08:40:43Z</time>
      </trkpt>
      <trkpt lat="45.71004" lon="6.29092">
        <ele>1152.01400576</ele>
        <time>2013-06-15T08:40:50Z</time>
      </trkpt>
      <trkpt lat="45.71001" lon="6.29118">
        <ele>1145.7722238633</ele>
        <time>2013-06-15T08:40:59Z</time>
      </trkpt>
      <trkpt lat="45.70994" lon="6.29144">
        <ele>1137.07999744</ele>
        <time>2013-06-15T08:41:09Z</time>
      </trkpt>
      <trkpt lat="45.71007" lon="6.29162">
        <ele>1130.8868846809</ele>
        <time>2013-06-15T08:41:23Z</time>
      </trkpt>
      <trkpt lat="45.71039" lon="6.2919">
        <ele>1117.5694326695</ele>
        <time>2013-06-15T08:41:46Z</time>
      </trkpt>
      <trkpt lat="45.71055" lon="6.29208">
        <ele>1113.7902129199</ele>
        <time>2013-06-15T08:41:57Z</time>
      </trkpt>
      <trkpt lat="45.71068" lon="6.29225">
        <ele>1103.9479492459</ele>
        <time>2013-06-15T08:42:07Z</time>
      </trkpt>
      <trkpt lat="45.71083" lon="6.29238">
        <ele>1097.4350016</ele>
        <time>2013-06-15T08:42:22Z</time>
      </trkpt>
      <trkpt lat="45.71098" lon="6.29242">
        <ele>1090.5264186893</ele>
        <time>2013-06-15T08:42:33Z</time>
      </trkpt>
      <trkpt lat="45.71115" lon="6.29251">
        <ele>1084.70999808</ele>
        <time>2013-06-15T08:42:49Z</time>
      </trkpt>
      <trkpt lat="45.71133" lon="6.29263">
        <ele>1074.2217840469</ele>
        <time>2013-06-15T08:43:04Z</time>
      </trkpt>
      <trkpt lat="45.71151" lon="6.29266">
        <ele>1069.4774757229</ele>
        <time>2013-06-15T08:43:13Z</time>
      </trkpt>
      <trkpt lat="45.71169" lon="6.29262">
        <ele>1064.3426628868</ele>
        <time>2013-06-15T08:43:22Z</time>
      </trkpt>
      <trkpt lat="45.71187" lon="6.29265">
        <ele>1057.98999552</ele>
        <time>2013-06-15T08:43:31Z</time>
      </trkpt>
      <trkpt lat="45.71205" lon="6.29268">
        <ele>1050.34600448</ele>
        <time>2013-06-15T08:43:42Z</time>
      </trkpt>
      <trkpt lat="45.71223" lon="6.29275">
        <ele>1043.33899776</ele>
        <time>2013-06-15T08:43:52Z</time>
      </trkpt>
      <trkpt lat="45.71244" lon="6.29274">
        <ele>1037.9350016</ele>
        <time>2013-06-15T08:44:01Z</time>
      </trkpt>
      <trkpt lat="45.71262" lon="6.29279">
        <ele>1034.1226323836</ele>
        <time>2013-06-15T08:44:09Z</time>
      </trkpt>
      <trkpt lat="45.71282" lon="6.29278">
        <ele>1030.1785375899</ele>
        <time>2013-06-15T08:44:18Z</time>
      </trkpt>
      <trkpt lat="45.713" lon="6.29276">
        <ele>1023.32200192</ele>
        <time>2013-06-15T08:44:28Z</time>
      </trkpt>
      <trkpt lat="45.71319" lon="6.29278">
        <ele>1016.72200192</ele>
        <time>2013-06-15T08:44:39Z</time>
      </trkpt>
      <trkpt lat="45.71337" lon="6.2928">
        <ele>1010.9729739426</ele>
        <time>2013-06-15T08:44:52Z</time>
      </trkpt>
      <trkpt lat="45.71367" lon="6.29294">
        <ele>1003.0967070916</ele>
        <time>2013-06-15T08:45:21Z</time>
      </trkpt>
      <trkpt lat="45.71378" lon="6.2931">
        <ele>995.42427144704</ele>
        <time>2013-06-15T08:45:34Z</time>
      </trkpt>
      <trkpt lat="45.71383" lon="6.29335">
        <ele>992.45800192</ele>
        <time>2013-06-15T08:45:42Z</time>
      </trkpt>
      <trkpt lat="45.71387" lon="6.29361">
        <ele>987.9350016</ele>
        <time>2013-06-15T08:45:53Z</time>
      </trkpt>
      <trkpt lat="45.71395" lon="6.29385">
        <ele>977.51952223599</ele>
        <time>2013-06-15T08:46:11Z</time>
      </trkpt>
      <trkpt lat="45.71406" lon="6.29406">
        <ele>972.43656453517</ele>
        <time>2013-06-15T08:46:20Z</time>
      </trkpt>
      <trkpt lat="45.71409" lon="6.29434">
        <ele>968.9</ele>
        <time>2013-06-15T08:46:27Z</time>
      </trkpt>
      <trkpt lat="45.71401" lon="6.29459">
        <ele>964.9</ele>
        <time>2013-06-15T08:46:35Z</time>
      </trkpt>
      <trkpt lat="45.7139" lon="6.29482">
        <ele>960.90090189361</ele>
        <time>2013-06-15T08:46:47Z</time>
      </trkpt>
      <trkpt lat="45.71387" lon="6.29507">
        <ele>957.136</ele>
        <time>2013-06-15T08:46:59Z</time>
      </trkpt>
      <trkpt lat="45.71407" lon="6.29518">
        <ele>953.18599936</ele>
        <time>2013-06-15T08:47:31Z</time>
      </trkpt>
      <trkpt lat="45.71421" lon="6.29517">
        <ele>951.80219965705</ele>
        <time>2013-06-15T08:47:37Z</time>
      </trkpt>
      <trkpt lat="45.71438" lon="6.29532">
        <ele>947.72627427813</ele>
        <time>2013-06-15T08:47:44Z</time>
      </trkpt>
      <trkpt lat="45.71457" lon="6.29537">
        <ele>944.74800128</ele>
        <time>2013-06-15T08:47:50Z</time>
      </trkpt>
      <trkpt lat="45.71475" lon="6.29547">
        <ele>942.34800128</ele>
        <time>2013-06-15T08:47:56Z</time>
      </trkpt>
      <trkpt lat="45.71489" lon="6.29565">
        <ele>940.32</ele>
        <time>2013-06-15T08:48:01Z</time>
      </trkpt>
      <trkpt lat="45.715" lon="6.29585">
        <ele>937.93513129589</ele>
        <time>2013-06-15T08:48:07Z</time>
      </trkpt>
      <trkpt lat="45.71508" lon="6.29599">
        <ele>932.93386585403</ele>
        <time>2013-06-15T08:48:17Z</time>
      </trkpt>
      <trkpt lat="45.71528" lon="6.2959">
        <ele>926.06900224</ele>
        <time>2013-06-15T08:48:28Z</time>
      </trkpt>
      <trkpt lat="45.71539" lon="6.2959">
        <ele>922.70900224</ele>
        <time>2013-06-15T08:48:33Z</time>
      </trkpt>
      <trkpt lat="45.7155" lon="6.2959">
        <ele>919.54800128</ele>
        <time>2013-06-15T08:48:38Z</time>
      </trkpt>
      <trkpt lat="45.71562" lon="6.29586">
        <ele>917.54800128</ele>
        <time>2013-06-15T08:48:43Z</time>
      </trkpt>
      <trkpt lat="45.71578" lon="6.29581">
        <ele>913.9350016</ele>
        <time>2013-06-15T08:48:51Z</time>
      </trkpt>
      <trkpt lat="45.71594" lon="6.29576">
        <ele>910.188</ele>
        <time>2013-06-15T08:48:58Z</time>
      </trkpt>
      <trkpt lat="45.71612" lon="6.29575">
        <ele>903.22000384</ele>
        <time>2013-06-15T08:49:08Z</time>
      </trkpt>
      <trkpt lat="45.71628" lon="6.29586">
        <ele>899.01999616</ele>
        <time>2013-06-15T08:49:15Z</time>
      </trkpt>
      <trkpt lat="45.71639" lon="6.29606">
        <ele>893.66765585438</ele>
        <time>2013-06-15T08:49:23Z</time>
      </trkpt>
      <trkpt lat="45.71656" lon="6.29594">
        <ele>886.55755833992</ele>
        <time>2013-06-15T08:49:39Z</time>
      </trkpt>
      <trkpt lat="45.71665" lon="6.2957">
        <ele>887.52099968</ele>
        <time>2013-06-15T08:50:02Z</time>
      </trkpt>
      <trkpt lat="45.71667" lon="6.29544">
        <ele>888</ele>
        <time>2013-06-15T08:50:12Z</time>
      </trkpt>
      <trkpt lat="45.71673" lon="6.29519">
        <ele>888</ele>
        <time>2013-06-15T08:50:21Z</time>
      </trkpt>
      <trkpt lat="45.71686" lon="6.29498">
        <ele>889.44599808</ele>
        <time>2013-06-15T08:50:34Z</time>
      </trkpt>
      <trkpt lat="45.71696" lon="6.29484">
        <ele>890.52299904</ele>
        <time>2013-06-15T08:50:42Z</time>
      </trkpt>
      <trkpt lat="45.71702" lon="6.29471">
        <ele>891.22300032</ele>
        <time>2013-06-15T08:50:49Z</time>
      </trkpt>
      <trkpt lat="45.71713" lon="6.29455">
        <ele>892.32801594705</ele>
        <time>2013-06-15T08:51:00Z</time>
      </trkpt>
      <trkpt lat="45.71722" lon="6.29442">
        <ele>892.92622190346</ele>
        <time>2013-06-15T08:51:06Z</time>
      </trkpt>
      <trkpt lat="45.71734" lon="6.29424">
        <ele>893</ele>
        <time>2013-06-15T08:51:15Z</time>
      </trkpt>
      <trkpt lat="45.71735" lon="6.29412">
        <ele>893.31299968</ele>
        <time>2013-06-15T08:51:20Z</time>
      </trkpt>
      <trkpt lat="45.71737" lon="6.29397">
        <ele>893.71299968</ele>
        <time>2013-06-15T08:51:24Z</time>
      </trkpt>
      <trkpt lat="45.7174" lon="6.29379">
        <ele>893.78700032</ele>
        <time>2013-06-15T08:51:29Z</time>
      </trkpt>
      <trkpt lat="45.71743" lon="6.29363">
        <ele>893.38700032</ele>
        <time>2013-06-15T08:51:33Z</time>
      </trkpt>
      <trkpt lat="45.7175" lon="6.29342">
        <ele>892.576</ele>
        <time>2013-06-15T08:51:39Z</time>
      </trkpt>
      <trkpt lat="45.71762" lon="6.29323">
        <ele>891.176</ele>
        <time>2013-06-15T08:51:46Z</time>
      </trkpt>
      <trkpt lat="45.71778" lon="6.29315">
        <ele>889.95904126563</ele>
        <time>2013-06-15T08:51:52Z</time>
      </trkpt>
      <trkpt lat="45.71793" lon="6.29304">
        <ele>888.51951967343</ele>
        <time>2013-06-15T08:51:58Z</time>
      </trkpt>
      <trkpt lat="45.71811" lon="6.2929">
        <ele>886.51751831271</ele>
        <time>2013-06-15T08:52:03Z</time>
      </trkpt>
      <trkpt lat="45.71825" lon="6.29273">
        <ele>884.77922102832</ele>
        <time>2013-06-15T08:52:09Z</time>
      </trkpt>
      <trkpt lat="45.71829" lon="6.29251">
        <ele>883.98000128</ele>
        <time>2013-06-15T08:52:17Z</time>
      </trkpt>
      <trkpt lat="45.71832" lon="6.2923">
        <ele>882.97999872</ele>
        <time>2013-06-15T08:52:22Z</time>
      </trkpt>
      <trkpt lat="45.71836" lon="6.29208">
        <ele>881.93493655738</ele>
        <time>2013-06-15T08:52:27Z</time>
      </trkpt>
      <trkpt lat="45.7185" lon="6.29192">
        <ele>878.43143417612</ele>
        <time>2013-06-15T08:52:34Z</time>
      </trkpt>
      <trkpt lat="45.71869" lon="6.29192">
        <ele>875.97700096</ele>
        <time>2013-06-15T08:52:40Z</time>
      </trkpt>
      <trkpt lat="45.71884" lon="6.29185">
        <ele>874.83700096</ele>
        <time>2013-06-15T08:52:44Z</time>
      </trkpt>
      <trkpt lat="45.71899" lon="6.29183">
        <ele>873.87912116016</ele>
        <time>2013-06-15T08:52:48Z</time>
      </trkpt>
      <trkpt lat="45.71926" lon="6.29183">
        <ele>872.96400128</ele>
        <time>2013-06-15T08:52:57Z</time>
      </trkpt>
      <trkpt lat="45.71939" lon="6.29192">
        <ele>871.944</ele>
        <time>2013-06-15T08:53:02Z</time>
      </trkpt>
      <trkpt lat="45.71949" lon="6.29209">
        <ele>871.144</ele>
        <time>2013-06-15T08:53:06Z</time>
      </trkpt>
      <trkpt lat="45.71956" lon="6.29221">
        <ele>869.02000384</ele>
        <time>2013-06-15T08:53:10Z</time>
      </trkpt>
      <trkpt lat="45.71967" lon="6.29239">
        <ele>864.96996677639</ele>
        <time>2013-06-15T08:53:17Z</time>
      </trkpt>
      <trkpt lat="45.71974" lon="6.2925">
        <ele>863.46847216225</ele>
        <time>2013-06-15T08:53:20Z</time>
      </trkpt>
      <trkpt lat="45.71983" lon="6.29262">
        <ele>861.46647080153</ele>
        <time>2013-06-15T08:53:24Z</time>
      </trkpt>
      <trkpt lat="45.71994" lon="6.29275">
        <ele>858.67532616993</ele>
        <time>2013-06-15T08:53:29Z</time>
      </trkpt>
      <trkpt lat="45.72002" lon="6.29286">
        <ele>855.55844205665</ele>
        <time>2013-06-15T08:53:34Z</time>
      </trkpt>
      <trkpt lat="45.72016" lon="6.29301">
        <ele>852.35435360021</ele>
        <time>2013-06-15T08:53:41Z</time>
      </trkpt>
      <trkpt lat="45.72031" lon="6.29313">
        <ele>849.94815675995</ele>
        <time>2013-06-15T08:53:47Z</time>
      </trkpt>
      <trkpt lat="45.72046" lon="6.29316">
        <ele>847.55533293432</ele>
        <time>2013-06-15T08:53:53Z</time>
      </trkpt>
      <trkpt lat="45.72063" lon="6.29316">
        <ele>843.42684766214</ele>
        <time>2013-06-15T08:54:00Z</time>
      </trkpt>
      <trkpt lat="45.72078" lon="6.29318">
        <ele>838.61723150799</ele>
        <time>2013-06-15T08:54:06Z</time>
      </trkpt>
      <trkpt lat="45.72096" lon="6.29325">
        <ele>836.70999808</ele>
        <time>2013-06-15T08:54:11Z</time>
      </trkpt>
      <trkpt lat="45.72109" lon="6.29343">
        <ele>834.83899776</ele>
        <time>2013-06-15T08:54:17Z</time>
      </trkpt>
      <trkpt lat="45.72121" lon="6.29363">
        <ele>831.33899776</ele>
        <time>2013-06-15T08:54:22Z</time>
      </trkpt>
      <trkpt lat="45.72129" lon="6.29376">
        <ele>828.53899776</ele>
        <time>2013-06-15T08:54:26Z</time>
      </trkpt>
      <trkpt lat="45.72152" lon="6.29392">
        <ele>825.21000192</ele>
        <time>2013-06-15T08:54:36Z</time>
      </trkpt>
      <trkpt lat="45.72159" lon="6.29407">
        <ele>823.3500032</ele>
        <time>2013-06-15T08:54:40Z</time>
      </trkpt>
      <trkpt lat="45.72166" lon="6.29418">
        <ele>819.97699968</ele>
        <time>2013-06-15T08:54:47Z</time>
      </trkpt>
      <trkpt lat="45.72163" lon="6.29406">
        <ele>819.27699968</ele>
        <time>2013-06-15T08:54:54Z</time>
      </trkpt>
      <trkpt lat="45.72164" lon="6.29393">
        <ele>819.12812808709</ele>
        <time>2013-06-15T08:54:58Z</time>
      </trkpt>
      <trkpt lat="45.72165" lon="6.2938">
        <ele>819.52852835923</ele>
        <time>2013-06-15T08:55:02Z</time>
      </trkpt>
      <trkpt lat="45.72168" lon="6.29366">
        <ele>820.03100032</ele>
        <time>2013-06-15T08:55:07Z</time>
      </trkpt>
      <trkpt lat="45.7217" lon="6.29352">
        <ele>820.53099904</ele>
        <time>2013-06-15T08:55:12Z</time>
      </trkpt>
      <trkpt lat="45.72175" lon="6.29334">
        <ele>821.32299904</ele>
        <time>2013-06-15T08:55:20Z</time>
      </trkpt>
      <trkpt lat="45.72177" lon="6.29314">
        <ele>821.92299904</ele>
        <time>2013-06-15T08:55:26Z</time>
      </trkpt>
      <trkpt lat="45.72175" lon="6.29295">
        <ele>822</ele>
        <time>2013-06-15T08:55:34Z</time>
      </trkpt>
      <trkpt lat="45.72176" lon="6.29277">
        <ele>822.51271600807</ele>
        <time>2013-06-15T08:55:42Z</time>
      </trkpt>
      <trkpt lat="45.72174" lon="6.2926">
        <ele>823</ele>
        <time>2013-06-15T08:55:50Z</time>
      </trkpt>
      <trkpt lat="45.72172" lon="6.29248">
        <ele>823</ele>
        <time>2013-06-15T08:55:55Z</time>
      </trkpt>
      <trkpt lat="45.72172" lon="6.29234">
        <ele>823.61299968</ele>
        <time>2013-06-15T08:56:03Z</time>
      </trkpt>
      <trkpt lat="45.72171" lon="6.29221">
        <ele>824.824</ele>
        <time>2013-06-15T08:56:11Z</time>
      </trkpt>
      <trkpt lat="45.72172" lon="6.29206">
        <ele>826</ele>
        <time>2013-06-15T08:56:20Z</time>
      </trkpt>
      <trkpt lat="45.72169" lon="6.29195">
        <ele>826</ele>
        <time>2013-06-15T08:56:25Z</time>
      </trkpt>
      <trkpt lat="45.7216" lon="6.2917">
        <ele>827.33200398676</ele>
        <time>2013-06-15T08:56:40Z</time>
      </trkpt>
      <trkpt lat="45.7215" lon="6.29162">
        <ele>828</ele>
        <time>2013-06-15T08:56:47Z</time>
      </trkpt>
      <trkpt lat="45.72142" lon="6.29149">
        <ele>828</ele>
        <time>2013-06-15T08:56:56Z</time>
      </trkpt>
      <trkpt lat="45.72141" lon="6.29134">
        <ele>828.63100032</ele>
        <time>2013-06-15T08:57:03Z</time>
      </trkpt>
      <trkpt lat="45.72137" lon="6.29119">
        <ele>829</ele>
        <time>2013-06-15T08:57:11Z</time>
      </trkpt>
      <trkpt lat="45.72135" lon="6.29104">
        <ele>828.97699968</ele>
        <time>2013-06-15T08:57:17Z</time>
      </trkpt>
      <trkpt lat="45.72137" lon="6.29091">
        <ele>828.47700096</ele>
        <time>2013-06-15T08:57:22Z</time>
      </trkpt>
      <trkpt lat="45.72138" lon="6.29083">
        <ele>828.17699968</ele>
        <time>2013-06-15T08:57:25Z</time>
      </trkpt>
      <trkpt lat="45.7214" lon="6.29069">
        <ele>828</ele>
        <time>2013-06-15T08:57:29Z</time>
      </trkpt>
      <trkpt lat="45.7214" lon="6.29057">
        <ele>828</ele>
        <time>2013-06-15T08:57:32Z</time>
      </trkpt>
      <trkpt lat="45.72138" lon="6.29045">
        <ele>828.03096936055</ele>
        <time>2013-06-15T08:57:37Z</time>
      </trkpt>
      <trkpt lat="45.72134" lon="6.29031">
        <ele>828.53046874101</ele>
        <time>2013-06-15T08:57:42Z</time>
      </trkpt>
      <trkpt lat="45.72131" lon="6.29012">
        <ele>829</ele>
        <time>2013-06-15T08:57:49Z</time>
      </trkpt>
      <trkpt lat="45.72142" lon="6.2902">
        <ele>823.88821200829</ele>
        <time>2013-06-15T08:58:01Z</time>
      </trkpt>
      <trkpt lat="45.72154" lon="6.29027">
        <ele>819.05437359255</ele>
        <time>2013-06-15T08:58:05Z</time>
      </trkpt>
      <trkpt lat="45.72164" lon="6.29034">
        <ele>816.51141894374</ele>
        <time>2013-06-15T08:58:08Z</time>
      </trkpt>
      <trkpt lat="45.72178" lon="6.29038">
        <ele>814.12810291858</ele>
        <time>2013-06-15T08:58:14Z</time>
      </trkpt>
      <trkpt lat="45.72188" lon="6.29045">
        <ele>810.397791387</ele>
        <time>2013-06-15T08:58:20Z</time>
      </trkpt>
      <trkpt lat="45.72218" lon="6.29062">
        <ele>801.21999616</ele>
        <time>2013-06-15T08:58:33Z</time>
      </trkpt>
      <trkpt lat="45.72238" lon="6.2906">
        <ele>798.34000128</ele>
        <time>2013-06-15T08:58:40Z</time>
      </trkpt>
      <trkpt lat="45.72256" lon="6.29056">
        <ele>795.776</ele>
        <time>2013-06-15T08:58:49Z</time>
      </trkpt>
      <trkpt lat="45.72244" lon="6.29042">
        <ele>787.416</ele>
        <time>2013-06-15T08:59:02Z</time>
      </trkpt>
      <trkpt lat="45.72227" lon="6.29039">
        <ele>783.35135155913</ele>
        <time>2013-06-15T08:59:09Z</time>
      </trkpt>
      <trkpt lat="45.72222" lon="6.29014">
        <ele>780.8849984</ele>
        <time>2013-06-15T08:59:17Z</time>
      </trkpt>
      <trkpt lat="45.72215" lon="6.2899">
        <ele>776.8500032</ele>
        <time>2013-06-15T08:59:25Z</time>
      </trkpt>
      <trkpt lat="45.7221" lon="6.28965">
        <ele>773.88235474283</ele>
        <time>2013-06-15T08:59:32Z</time>
      </trkpt>
      <trkpt lat="45.72207" lon="6.2894">
        <ele>771.39017109873</ele>
        <time>2013-06-15T08:59:40Z</time>
      </trkpt>
      <trkpt lat="45.72214" lon="6.28916">
        <ele>770.18656142518</ele>
        <time>2013-06-15T08:59:46Z</time>
      </trkpt>
      <trkpt lat="45.72227" lon="6.28905">
        <ele>764.95804258399</ele>
        <time>2013-06-15T08:59:54Z</time>
      </trkpt>
      <trkpt lat="45.72245" lon="6.28898">
        <ele>754.98999063384</ele>
        <time>2013-06-15T09:00:07Z</time>
      </trkpt>
      <trkpt lat="45.72253" lon="6.28888">
        <ele>754.18919008955</ele>
        <time>2013-06-15T09:00:15Z</time>
      </trkpt>
      <trkpt lat="45.72271" lon="6.28888">
        <ele>754.82099968</ele>
        <time>2013-06-15T09:00:35Z</time>
      </trkpt>
      <trkpt lat="45.7229" lon="6.28893">
        <ele>760</ele>
        <time>2013-06-15T09:00:57Z</time>
      </trkpt>
      <trkpt lat="45.72309" lon="6.28891">
        <ele>765.12299904</ele>
        <time>2013-06-15T09:01:18Z</time>
      </trkpt>
      <trkpt lat="45.72327" lon="6.2889">
        <ele>768.21399808</ele>
        <time>2013-06-15T09:01:38Z</time>
      </trkpt>
      <trkpt lat="45.72345" lon="6.28896">
        <ele>772.63899904</ele>
        <time>2013-06-15T09:01:59Z</time>
      </trkpt>
      <trkpt lat="45.72376" lon="6.28924">
        <ele>777</ele>
        <time>2013-06-15T09:02:34Z</time>
      </trkpt>
      <trkpt lat="45.72391" lon="6.28938">
        <ele>779.44600064</ele>
        <time>2013-06-15T09:02:49Z</time>
      </trkpt>
      <trkpt lat="45.72408" lon="6.28949">
        <ele>781.92299904</ele>
        <time>2013-06-15T09:03:06Z</time>
      </trkpt>
      <trkpt lat="45.72418" lon="6.2897">
        <ele>785.46199808</ele>
        <time>2013-06-15T09:03:24Z</time>
      </trkpt>
      <trkpt lat="45.72435" lon="6.2896">
        <ele>794.88799744</ele>
        <time>2013-06-15T09:04:04Z</time>
      </trkpt>
      <trkpt lat="45.72452" lon="6.2895">
        <ele>796.02300032</ele>
        <time>2013-06-15T09:04:17Z</time>
      </trkpt>
      <trkpt lat="45.72466" lon="6.28941">
        <ele>797.24599808</ele>
        <time>2013-06-15T09:04:28Z</time>
      </trkpt>
      <trkpt lat="45.72482" lon="6.2893">
        <ele>799.61399808</ele>
        <time>2013-06-15T09:04:40Z</time>
      </trkpt>
      <trkpt lat="45.72495" lon="6.28915">
        <ele>802.53899904</ele>
        <time>2013-06-15T09:04:52Z</time>
      </trkpt>
      <trkpt lat="45.72512" lon="6.2891">
        <ele>804.31299968</ele>
        <time>2013-06-15T09:05:00Z</time>
      </trkpt>
      <trkpt lat="45.72528" lon="6.28905">
        <ele>805</ele>
        <time>2013-06-15T09:05:07Z</time>
      </trkpt>
      <trkpt lat="45.72542" lon="6.28898">
        <ele>805</ele>
        <time>2013-06-15T09:05:13Z</time>
      </trkpt>
      <trkpt lat="45.72557" lon="6.2889">
        <ele>804.66900669785</ele>
        <time>2013-06-15T09:05:20Z</time>
      </trkpt>
      <trkpt lat="45.72574" lon="6.28889">
        <ele>804</ele>
        <time>2013-06-15T09:05:27Z</time>
      </trkpt>
      <trkpt lat="45.7259" lon="6.28888">
        <ele>804</ele>
        <time>2013-06-15T09:05:33Z</time>
      </trkpt>
      <trkpt lat="45.72604" lon="6.28889">
        <ele>804</ele>
        <time>2013-06-15T09:05:39Z</time>
      </trkpt>
      <trkpt lat="45.7262" lon="6.28889">
        <ele>804</ele>
        <time>2013-06-15T09:05:46Z</time>
      </trkpt>
      <trkpt lat="45.72635" lon="6.28891">
        <ele>804.62062042182</ele>
        <time>2013-06-15T09:05:53Z</time>
      </trkpt>
      <trkpt lat="45.72669" lon="6.28911">
        <ele>804.95995997279</ele>
        <time>2013-06-15T09:06:07Z</time>
      </trkpt>
      <trkpt lat="45.72689" lon="6.28915">
        <ele>803.55855902028</ele>
        <time>2013-06-15T09:06:14Z</time>
      </trkpt>
      <trkpt lat="45.72701" lon="6.28907">
        <ele>802.08600064</ele>
        <time>2013-06-15T09:06:26Z</time>
      </trkpt>
      <trkpt lat="45.72714" lon="6.28889">
        <ele>808.44455398827</ele>
        <time>2013-06-15T09:06:54Z</time>
      </trkpt>
      <trkpt lat="45.72701" lon="6.28872">
        <ele>812.22599936</ele>
        <time>2013-06-15T09:07:18Z</time>
      </trkpt>
      <trkpt lat="45.72687" lon="6.28863">
        <ele>815.22599936</ele>
        <time>2013-06-15T09:07:33Z</time>
      </trkpt>
      <trkpt lat="45.72671" lon="6.28849">
        <ele>819.24600064</ele>
        <time>2013-06-15T09:07:53Z</time>
      </trkpt>
      <trkpt lat="45.72664" lon="6.28836">
        <ele>824.14257784334</ele>
        <time>2013-06-15T09:08:05Z</time>
      </trkpt>
      <trkpt lat="45.72647" lon="6.28827">
        <ele>827.82300032</ele>
        <time>2013-06-15T09:08:25Z</time>
      </trkpt>
      <trkpt lat="45.72633" lon="6.2881">
        <ele>830.24399872</ele>
        <time>2013-06-15T09:08:43Z</time>
      </trkpt>
      <trkpt lat="45.7262" lon="6.28806">
        <ele>834.69199616</ele>
        <time>2013-06-15T09:08:56Z</time>
      </trkpt>
      <trkpt lat="45.72604" lon="6.28793">
        <ele>837.42599936</ele>
        <time>2013-06-15T09:09:19Z</time>
      </trkpt>
      <trkpt lat="45.72589" lon="6.28779">
        <ele>842.02497471328</ele>
        <time>2013-06-15T09:09:42Z</time>
      </trkpt>
      <trkpt lat="45.72571" lon="6.28772">
        <ele>844.82582524098</ele>
        <time>2013-06-15T09:09:56Z</time>
      </trkpt>
      <trkpt lat="45.72554" lon="6.28762">
        <ele>848.6256251049</ele>
        <time>2013-06-15T09:10:15Z</time>
      </trkpt>
      <trkpt lat="45.72539" lon="6.28748">
        <ele>851.42799872</ele>
        <time>2013-06-15T09:10:34Z</time>
      </trkpt>
      <trkpt lat="45.72522" lon="6.28735">
        <ele>855.43768767715</ele>
        <time>2013-06-15T09:10:54Z</time>
      </trkpt>
      <trkpt lat="45.72505" lon="6.28724">
        <ele>858.64599808</ele>
        <time>2013-06-15T09:11:10Z</time>
      </trkpt>
      <trkpt lat="45.72472" lon="6.287">
        <ele>862.62300032</ele>
        <time>2013-06-15T09:11:43Z</time>
      </trkpt>
      <trkpt lat="45.72455" lon="6.28688">
        <ele>865.30599936</ele>
        <time>2013-06-15T09:12:00Z</time>
      </trkpt>
      <trkpt lat="45.72439" lon="6.28678">
        <ele>867.42599936</ele>
        <time>2013-06-15T09:12:14Z</time>
      </trkpt>
      <trkpt lat="45.72422" lon="6.28665">
        <ele>871.26200064</ele>
        <time>2013-06-15T09:12:33Z</time>
      </trkpt>
      <trkpt lat="45.72406" lon="6.28655">
        <ele>873.04600064</ele>
        <time>2013-06-15T09:12:47Z</time>
      </trkpt>
      <trkpt lat="45.72388" lon="6.28647">
        <ele>875.71299968</ele>
        <time>2013-06-15T09:13:04Z</time>
      </trkpt>
      <trkpt lat="45.7237" lon="6.28638">
        <ele>878.96899712</ele>
        <time>2013-06-15T09:13:20Z</time>
      </trkpt>
      <trkpt lat="45.72354" lon="6.28626">
        <ele>881</ele>
        <time>2013-06-15T09:13:34Z</time>
      </trkpt>
      <trkpt lat="45.72336" lon="6.28621">
        <ele>884.04513632565</ele>
        <time>2013-06-15T09:13:52Z</time>
      </trkpt>
      <trkpt lat="45.7232" lon="6.28602">
        <ele>884.15800064</ele>
        <time>2013-06-15T09:14:01Z</time>
      </trkpt>
      <trkpt lat="45.72307" lon="6.28581">
        <ele>882.88600064</ele>
        <time>2013-06-15T09:14:08Z</time>
      </trkpt>
      <trkpt lat="45.72295" lon="6.28559">
        <ele>882.08700032</ele>
        <time>2013-06-15T09:14:16Z</time>
      </trkpt>
      <trkpt lat="45.72288" lon="6.28535">
        <ele>882</ele>
        <time>2013-06-15T09:14:58Z</time>
      </trkpt>
      <trkpt lat="45.72279" lon="6.28512">
        <ele>882.44199936</ele>
        <time>2013-06-15T09:15:09Z</time>
      </trkpt>
      <trkpt lat="45.7227" lon="6.28487">
        <ele>884.22999808</ele>
        <time>2013-06-15T09:15:18Z</time>
      </trkpt>
      <trkpt lat="45.72259" lon="6.28466">
        <ele>885.82999808</ele>
        <time>2013-06-15T09:15:26Z</time>
      </trkpt>
      <trkpt lat="45.7225" lon="6.28443">
        <ele>887.26200064</ele>
        <time>2013-06-15T09:15:33Z</time>
      </trkpt>
      <trkpt lat="45.72241" lon="6.28419">
        <ele>888</ele>
        <time>2013-06-15T09:15:43Z</time>
      </trkpt>
      <trkpt lat="45.72216" lon="6.28378">
        <ele>889.84199936</ele>
        <time>2013-06-15T09:16:01Z</time>
      </trkpt>
      <trkpt lat="45.72204" lon="6.28358">
        <ele>891</ele>
        <time>2013-06-15T09:16:10Z</time>
      </trkpt>
      <trkpt lat="45.72189" lon="6.2834">
        <ele>891</ele>
        <time>2013-06-15T09:16:18Z</time>
      </trkpt>
      <trkpt lat="45.72175" lon="6.28323">
        <ele>891</ele>
        <time>2013-06-15T09:16:26Z</time>
      </trkpt>
      <trkpt lat="45.72159" lon="6.28307">
        <ele>891</ele>
        <time>2013-06-15T09:16:34Z</time>
      </trkpt>
      <trkpt lat="45.72146" lon="6.2829">
        <ele>891</ele>
        <time>2013-06-15T09:16:42Z</time>
      </trkpt>
      <trkpt lat="45.72131" lon="6.28272">
        <ele>891</ele>
        <time>2013-06-15T09:16:50Z</time>
      </trkpt>
      <trkpt lat="45.72117" lon="6.2826">
        <ele>890.87700096</ele>
        <time>2013-06-15T09:16:58Z</time>
      </trkpt>
      <trkpt lat="45.72103" lon="6.28245">
        <ele>890</ele>
        <time>2013-06-15T09:17:56Z</time>
      </trkpt>
      <trkpt lat="45.72094" lon="6.28218">
        <ele>893.32068166096</ele>
        <time>2013-06-15T09:18:05Z</time>
      </trkpt>
      <trkpt lat="45.72086" lon="6.28194">
        <ele>892.55015068913</ele>
        <time>2013-06-15T09:18:14Z</time>
      </trkpt>
      <trkpt lat="45.72075" lon="6.28171">
        <ele>891.47278322581</ele>
        <time>2013-06-15T09:18:22Z</time>
      </trkpt>
      <trkpt lat="45.72077" lon="6.28145">
        <ele>890.86900096</ele>
        <time>2013-06-15T09:18:28Z</time>
      </trkpt>
      <trkpt lat="45.72079" lon="6.28117">
        <ele>890.06900096</ele>
        <time>2013-06-15T09:18:36Z</time>
      </trkpt>
      <trkpt lat="45.72081" lon="6.28091">
        <ele>890</ele>
        <time>2013-06-15T09:18:48Z</time>
      </trkpt>
      <trkpt lat="45.72083" lon="6.28072">
        <ele>890</ele>
        <time>2013-06-15T09:18:59Z</time>
      </trkpt>
      <trkpt lat="45.72076" lon="6.28054">
        <ele>890</ele>
        <time>2013-06-15T09:19:12Z</time>
      </trkpt>
      <trkpt lat="45.72074" lon="6.28033">
        <ele>890</ele>
        <time>2013-06-15T09:19:18Z</time>
      </trkpt>
      <trkpt lat="45.72073" lon="6.2799">
        <ele>890.22066305734</ele>
        <time>2013-06-15T09:19:29Z</time>
      </trkpt>
      <trkpt lat="45.72071" lon="6.27964">
        <ele>890.92276741639</ele>
        <time>2013-06-15T09:19:36Z</time>
      </trkpt>
      <trkpt lat="45.7207" lon="6.27945">
        <ele>891.43100032</ele>
        <time>2013-06-15T09:19:41Z</time>
      </trkpt>
      <trkpt lat="45.72064" lon="6.27924">
        <ele>892.12299904</ele>
        <time>2013-06-15T09:19:48Z</time>
      </trkpt>
      <trkpt lat="45.72054" lon="6.27905">
        <ele>892.92299904</ele>
        <time>2013-06-15T09:19:56Z</time>
      </trkpt>
      <trkpt lat="45.72038" lon="6.27893">
        <ele>893.63100032</ele>
        <time>2013-06-15T09:20:03Z</time>
      </trkpt>
      <trkpt lat="45.72026" lon="6.27879">
        <ele>894</ele>
        <time>2013-06-15T09:20:10Z</time>
      </trkpt>
      <trkpt lat="45.72025" lon="6.27861">
        <ele>894</ele>
        <time>2013-06-15T09:20:15Z</time>
      </trkpt>
      <trkpt lat="45.72023" lon="6.27843">
        <ele>894</ele>
        <time>2013-06-15T09:20:20Z</time>
      </trkpt>
      <trkpt lat="45.72017" lon="6.27819">
        <ele>894.02300032</ele>
        <time>2013-06-15T09:20:27Z</time>
      </trkpt>
      <trkpt lat="45.7201" lon="6.27798">
        <ele>894.724</ele>
        <time>2013-06-15T09:20:34Z</time>
      </trkpt>
      <trkpt lat="45.72012" lon="6.27777">
        <ele>895.81400064</ele>
        <time>2013-06-15T09:20:41Z</time>
      </trkpt>
      <trkpt lat="45.72013" lon="6.27756">
        <ele>897.48199936</ele>
        <time>2013-06-15T09:20:49Z</time>
      </trkpt>
      <trkpt lat="45.72011" lon="6.27738">
        <ele>899.01299968</ele>
        <time>2013-06-15T09:20:57Z</time>
      </trkpt>
      <trkpt lat="45.72004" lon="6.27722">
        <ele>899.71299968</ele>
        <time>2013-06-15T09:21:04Z</time>
      </trkpt>
      <trkpt lat="45.71993" lon="6.27713">
        <ele>900</ele>
        <time>2013-06-15T09:21:10Z</time>
      </trkpt>
      <trkpt lat="45.71983" lon="6.27702">
        <ele>900</ele>
        <time>2013-06-15T09:21:16Z</time>
      </trkpt>
      <trkpt lat="45.71978" lon="6.27682">
        <ele>901.06199808</ele>
        <time>2013-06-15T09:21:22Z</time>
      </trkpt>
      <trkpt lat="45.71974" lon="6.27641">
        <ele>903.66200064</ele>
        <time>2013-06-15T09:21:35Z</time>
      </trkpt>
      <trkpt lat="45.71968" lon="6.2762">
        <ele>904.53099904</ele>
        <time>2013-06-15T09:21:42Z</time>
      </trkpt>
      <trkpt lat="45.71963" lon="6.27593">
        <ele>905.648</ele>
        <time>2013-06-15T09:21:50Z</time>
      </trkpt>
      <trkpt lat="45.71963" lon="6.27564">
        <ele>906.86900096</ele>
        <time>2013-06-15T09:21:58Z</time>
      </trkpt>
      <trkpt lat="45.71967" lon="6.27535">
        <ele>906.06900096</ele>
        <time>2013-06-15T09:22:06Z</time>
      </trkpt>
      <trkpt lat="45.71958" lon="6.27516">
        <ele>906</ele>
        <time>2013-06-15T09:22:12Z</time>
      </trkpt>
      <trkpt lat="45.71947" lon="6.27495">
        <ele>906</ele>
        <time>2013-06-15T09:22:19Z</time>
      </trkpt>
      <trkpt lat="45.71941" lon="6.27469">
        <ele>906</ele>
        <time>2013-06-15T09:22:26Z</time>
      </trkpt>
      <trkpt lat="45.71938" lon="6.2744">
        <ele>905.36899968</ele>
        <time>2013-06-15T09:22:33Z</time>
      </trkpt>
      <trkpt lat="45.71938" lon="6.27416">
        <ele>904.66933152266</ele>
        <time>2013-06-15T09:22:40Z</time>
      </trkpt>
      <trkpt lat="45.71937" lon="6.27389">
        <ele>904.23000064</ele>
        <time>2013-06-15T09:22:49Z</time>
      </trkpt>
      <trkpt lat="45.71926" lon="6.27368">
        <ele>905.24624680801</ele>
        <time>2013-06-15T09:22:58Z</time>
      </trkpt>
      <trkpt lat="45.71919" lon="6.27344">
        <ele>906.84784789658</ele>
        <time>2013-06-15T09:23:06Z</time>
      </trkpt>
      <trkpt lat="45.71921" lon="6.27317">
        <ele>907</ele>
        <time>2013-06-15T09:23:12Z</time>
      </trkpt>
      <trkpt lat="45.71921" lon="6.2729">
        <ele>907</ele>
        <time>2013-06-15T09:23:18Z</time>
      </trkpt>
      <trkpt lat="45.71921" lon="6.27264">
        <ele>907</ele>
        <time>2013-06-15T09:23:25Z</time>
      </trkpt>
      <trkpt lat="45.7192" lon="6.27237">
        <ele>907</ele>
        <time>2013-06-15T09:23:32Z</time>
      </trkpt>
      <trkpt lat="45.71918" lon="6.27212">
        <ele>907</ele>
        <time>2013-06-15T09:23:39Z</time>
      </trkpt>
      <trkpt lat="45.71905" lon="6.27163">
        <ele>907</ele>
        <time>2013-06-15T09:23:55Z</time>
      </trkpt>
      <trkpt lat="45.71894" lon="6.27141">
        <ele>905.53800192</ele>
        <time>2013-06-15T09:24:04Z</time>
      </trkpt>
      <trkpt lat="45.71881" lon="6.27119">
        <ele>905.51024312515</ele>
        <time>2013-06-15T09:24:12Z</time>
      </trkpt>
      <trkpt lat="45.7187" lon="6.27096">
        <ele>906</ele>
        <time>2013-06-15T09:24:20Z</time>
      </trkpt>
      <trkpt lat="45.7186" lon="6.27071">
        <ele>906</ele>
        <time>2013-06-15T09:24:27Z</time>
      </trkpt>
      <trkpt lat="45.71852" lon="6.27044">
        <ele>906</ele>
        <time>2013-06-15T09:24:34Z</time>
      </trkpt>
      <trkpt lat="45.71844" lon="6.27019">
        <ele>905.58</ele>
        <time>2013-06-15T09:24:41Z</time>
      </trkpt>
      <trkpt lat="45.71833" lon="6.26999">
        <ele>904.76399872</ele>
        <time>2013-06-15T09:24:48Z</time>
      </trkpt>
      <trkpt lat="45.71821" lon="6.26977">
        <ele>903.16399872</ele>
        <time>2013-06-15T09:24:56Z</time>
      </trkpt>
      <trkpt lat="45.71816" lon="6.26952">
        <ele>903</ele>
        <time>2013-06-15T09:25:03Z</time>
      </trkpt>
      <trkpt lat="45.7181" lon="6.26926">
        <ele>903</ele>
        <time>2013-06-15T09:25:10Z</time>
      </trkpt>
      <trkpt lat="45.71802" lon="6.26898">
        <ele>902.88700032</ele>
        <time>2013-06-15T09:25:18Z</time>
      </trkpt>
      <trkpt lat="45.71793" lon="6.26872">
        <ele>902.188</ele>
        <time>2013-06-15T09:25:25Z</time>
      </trkpt>
      <trkpt lat="45.71776" lon="6.26856">
        <ele>901.38</ele>
        <time>2013-06-15T09:25:33Z</time>
      </trkpt>
      <trkpt lat="45.71761" lon="6.26838">
        <ele>901</ele>
        <time>2013-06-15T09:25:41Z</time>
      </trkpt>
      <trkpt lat="45.71758" lon="6.26809">
        <ele>901</ele>
        <time>2013-06-15T09:25:47Z</time>
      </trkpt>
      <trkpt lat="45.7175" lon="6.26785">
        <ele>901</ele>
        <time>2013-06-15T09:25:54Z</time>
      </trkpt>
      <trkpt lat="45.71743" lon="6.26761">
        <ele>900.576</ele>
        <time>2013-06-15T09:26:01Z</time>
      </trkpt>
      <trkpt lat="45.71737" lon="6.26714">
        <ele>900</ele>
        <time>2013-06-15T09:26:16Z</time>
      </trkpt>
      <trkpt lat="45.71726" lon="6.267">
        <ele>901</ele>
        <time>2013-06-15T09:26:32Z</time>
      </trkpt>
      <trkpt lat="45.71729" lon="6.26677">
        <ele>901</ele>
        <time>2013-06-15T09:26:40Z</time>
      </trkpt>
      <trkpt lat="45.71726" lon="6.26652">
        <ele>901.72299904</ele>
        <time>2013-06-15T09:26:54Z</time>
      </trkpt>
      <trkpt lat="45.71709" lon="6.26639">
        <ele>903.46200064</ele>
        <time>2013-06-15T09:27:09Z</time>
      </trkpt>
      <trkpt lat="45.71693" lon="6.26633">
        <ele>905.52299904</ele>
        <time>2013-06-15T09:27:22Z</time>
      </trkpt>
      <trkpt lat="45.71679" lon="6.26619">
        <ele>907.12299904</ele>
        <time>2013-06-15T09:27:38Z</time>
      </trkpt>
      <trkpt lat="45.71666" lon="6.26614">
        <ele>908.12263126393</ele>
        <time>2013-06-15T09:27:48Z</time>
      </trkpt>
      <trkpt lat="45.7165" lon="6.26602">
        <ele>910.23169518312</ele>
        <time>2013-06-15T09:28:03Z</time>
      </trkpt>
      <trkpt lat="45.71632" lon="6.26595">
        <ele>911.72299904</ele>
        <time>2013-06-15T09:28:14Z</time>
      </trkpt>
      <trkpt lat="45.71627" lon="6.26569">
        <ele>913.64600064</ele>
        <time>2013-06-15T09:28:25Z</time>
      </trkpt>
      <trkpt lat="45.71626" lon="6.26541">
        <ele>914.73099904</ele>
        <time>2013-06-15T09:28:34Z</time>
      </trkpt>
      <trkpt lat="45.71625" lon="6.26514">
        <ele>914.36899968</ele>
        <time>2013-06-15T09:28:43Z</time>
      </trkpt>
      <trkpt lat="45.71621" lon="6.2649">
        <ele>913.26900096</ele>
        <time>2013-06-15T09:28:54Z</time>
      </trkpt>
      <trkpt lat="45.71618" lon="6.26464">
        <ele>913</ele>
        <time>2013-06-15T09:29:06Z</time>
      </trkpt>
      <trkpt lat="45.71614" lon="6.26438">
        <ele>914</ele>
        <time>2013-06-15T09:29:18Z</time>
      </trkpt>
      <trkpt lat="45.71609" lon="6.26412">
        <ele>914.21435461824</ele>
        <time>2013-06-15T09:29:29Z</time>
      </trkpt>
      <trkpt lat="45.71603" lon="6.26386">
        <ele>915.51599472148</ele>
        <time>2013-06-15T09:29:42Z</time>
      </trkpt>
      <trkpt lat="45.71594" lon="6.26334">
        <ele>916.82300032</ele>
        <time>2013-06-15T09:30:05Z</time>
      </trkpt>
      <trkpt lat="45.71587" lon="6.26308">
        <ele>917.73099904</ele>
        <time>2013-06-15T09:30:14Z</time>
      </trkpt>
      <trkpt lat="45.71579" lon="6.26283">
        <ele>918</ele>
        <time>2013-06-15T09:30:23Z</time>
      </trkpt>
      <trkpt lat="45.71566" lon="6.26261">
        <ele>918.33099904</ele>
        <time>2013-06-15T09:30:30Z</time>
      </trkpt>
      <trkpt lat="45.71558" lon="6.26238">
        <ele>919.24526252787</ele>
        <time>2013-06-15T09:30:38Z</time>
      </trkpt>
      <trkpt lat="45.71554" lon="6.2621">
        <ele>920.84047841162</ele>
        <time>2013-06-15T09:30:46Z</time>
      </trkpt>
      <trkpt lat="45.71546" lon="6.26184">
        <ele>921</ele>
        <time>2013-06-15T09:30:55Z</time>
      </trkpt>
      <trkpt lat="45.71543" lon="6.26158">
        <ele>921.72899968</ele>
        <time>2013-06-15T09:31:04Z</time>
      </trkpt>
      <trkpt lat="45.71532" lon="6.26135">
        <ele>923.02300032</ele>
        <time>2013-06-15T09:31:17Z</time>
      </trkpt>
      <trkpt lat="45.7152" lon="6.26116">
        <ele>924.03800064</ele>
        <time>2013-06-15T09:32:32Z</time>
      </trkpt>
      <trkpt lat="45.71519" lon="6.2609">
        <ele>925</ele>
        <time>2013-06-15T09:32:43Z</time>
      </trkpt>
      <trkpt lat="45.71513" lon="6.26065">
        <ele>925</ele>
        <time>2013-06-15T09:32:56Z</time>
      </trkpt>
      <trkpt lat="45.7151" lon="6.26046">
        <ele>926</ele>
        <time>2013-06-15T09:33:24Z</time>
      </trkpt>
      <trkpt lat="45.715" lon="6.26024">
        <ele>926.02006144508</ele>
        <time>2013-06-15T09:33:37Z</time>
      </trkpt>
      <trkpt lat="45.71495" lon="6.25999">
        <ele>928.31299968</ele>
        <time>2013-06-15T09:33:50Z</time>
      </trkpt>
      <trkpt lat="45.71489" lon="6.25975">
        <ele>929.51299968</ele>
        <time>2013-06-15T09:34:02Z</time>
      </trkpt>
      <trkpt lat="45.71488" lon="6.25949">
        <ele>930</ele>
        <time>2013-06-15T09:34:14Z</time>
      </trkpt>
      <trkpt lat="45.71485" lon="6.25923">
        <ele>931.83399936</ele>
        <time>2013-06-15T09:34:26Z</time>
      </trkpt>
      <trkpt lat="45.71466" lon="6.25878">
        <ele>934</ele>
        <time>2013-06-15T09:34:51Z</time>
      </trkpt>
      <trkpt lat="45.71454" lon="6.25858">
        <ele>934</ele>
        <time>2013-06-15T09:35:02Z</time>
      </trkpt>
      <trkpt lat="45.71443" lon="6.25838">
        <ele>934.72099968</ele>
        <time>2013-06-15T09:35:14Z</time>
      </trkpt>
      <trkpt lat="45.71428" lon="6.25822">
        <ele>936.82599936</ele>
        <time>2013-06-15T09:35:26Z</time>
      </trkpt>
      <trkpt lat="45.71422" lon="6.25796">
        <ele>937.02599936</ele>
        <time>2013-06-15T09:35:37Z</time>
      </trkpt>
      <trkpt lat="45.71413" lon="6.25771">
        <ele>939</ele>
        <time>2013-06-15T09:35:50Z</time>
      </trkpt>
      <trkpt lat="45.71405" lon="6.25746">
        <ele>939.61299968</ele>
        <time>2013-06-15T09:36:03Z</time>
      </trkpt>
      <trkpt lat="45.71401" lon="6.25721">
        <ele>940.82699904</ele>
        <time>2013-06-15T09:36:15Z</time>
      </trkpt>
      <trkpt lat="45.71397" lon="6.25698">
        <ele>943</ele>
        <time>2013-06-15T09:36:28Z</time>
      </trkpt>
      <trkpt lat="45.71388" lon="6.25673">
        <ele>943</ele>
        <time>2013-06-15T09:36:41Z</time>
      </trkpt>
      <trkpt lat="45.71383" lon="6.25648">
        <ele>943</ele>
        <time>2013-06-15T09:36:55Z</time>
      </trkpt>
      <trkpt lat="45.71374" lon="6.25626">
        <ele>945</ele>
        <time>2013-06-15T09:37:08Z</time>
      </trkpt>
      <trkpt lat="45.7136" lon="6.25607">
        <ele>945.63399936</ele>
        <time>2013-06-15T09:37:20Z</time>
      </trkpt>
      <trkpt lat="45.71348" lon="6.25589">
        <ele>947.42300032</ele>
        <time>2013-06-15T09:37:31Z</time>
      </trkpt>
      <trkpt lat="45.7134" lon="6.25569">
        <ele>948</ele>
        <time>2013-06-15T09:37:42Z</time>
      </trkpt>
      <trkpt lat="45.71327" lon="6.25548">
        <ele>948.50599936</ele>
        <time>2013-06-15T09:37:52Z</time>
      </trkpt>
      <trkpt lat="45.71318" lon="6.25525">
        <ele>949.62099968</ele>
        <time>2013-06-15T09:38:03Z</time>
      </trkpt>
      <trkpt lat="45.71307" lon="6.25504">
        <ele>952.24199936</ele>
        <time>2013-06-15T09:38:18Z</time>
      </trkpt>
      <trkpt lat="45.71291" lon="6.25455">
        <ele>955.11900032</ele>
        <time>2013-06-15T09:38:38Z</time>
      </trkpt>
      <trkpt lat="45.71293" lon="6.25427">
        <ele>955.91900032</ele>
        <time>2013-06-15T09:38:46Z</time>
      </trkpt>
      <trkpt lat="45.71289" lon="6.25401">
        <ele>957.86199808</ele>
        <time>2013-06-15T09:38:56Z</time>
      </trkpt>
      <trkpt lat="45.71281" lon="6.25376">
        <ele>959.66200064</ele>
        <time>2013-06-15T09:39:05Z</time>
      </trkpt>
      <trkpt lat="45.71276" lon="6.25366">
        <ele>960.33000932882</ele>
        <time>2013-06-15T09:39:10Z</time>
      </trkpt>
      <trkpt lat="45.71272" lon="6.25359">
        <ele>960.72881329976</ele>
        <time>2013-06-15T09:39:14Z</time>
      </trkpt>
      <trkpt lat="45.71265" lon="6.25354">
        <ele>961.61986090766</ele>
        <time>2013-06-15T09:39:20Z</time>
      </trkpt>
      <trkpt lat="45.71259" lon="6.25352">
        <ele>962.22166574443</ele>
        <time>2013-06-15T09:39:23Z</time>
      </trkpt>
      <trkpt lat="45.71252" lon="6.25351">
        <ele>963</ele>
        <time>2013-06-15T09:39:27Z</time>
      </trkpt>
      <trkpt lat="45.71243" lon="6.25351">
        <ele>963</ele>
        <time>2013-06-15T09:39:33Z</time>
      </trkpt>
      <trkpt lat="45.71229" lon="6.25352">
        <ele>964.432</ele>
        <time>2013-06-15T09:39:44Z</time>
      </trkpt>
      <trkpt lat="45.7121" lon="6.2535">
        <ele>966.13099904</ele>
        <time>2013-06-15T09:39:58Z</time>
      </trkpt>
      <trkpt lat="45.71199" lon="6.25352">
        <ele>967.448</ele>
        <time>2013-06-15T09:40:09Z</time>
      </trkpt>
      <trkpt lat="45.71191" lon="6.25352">
        <ele>969</ele>
        <time>2013-06-15T09:40:18Z</time>
      </trkpt>
      <trkpt lat="45.71173" lon="6.25345">
        <ele>970.44599808</ele>
        <time>2013-06-15T09:40:34Z</time>
      </trkpt>
      <trkpt lat="45.71157" lon="6.25331">
        <ele>973.24599808</ele>
        <time>2013-06-15T09:40:48Z</time>
      </trkpt>
      <trkpt lat="45.71152" lon="6.25325">
        <ele>974.04599808</ele>
        <time>2013-06-15T09:40:52Z</time>
      </trkpt>
      <trkpt lat="45.71144" lon="6.25316">
        <ele>975.23076962422</ele>
        <time>2013-06-15T09:40:59Z</time>
      </trkpt>
      <trkpt lat="45.71126" lon="6.2529">
        <ele>976.83083120534</ele>
        <time>2013-06-15T09:41:15Z</time>
      </trkpt>
      <trkpt lat="45.71123" lon="6.25284">
        <ele>977.22300032</ele>
        <time>2013-06-15T09:41:19Z</time>
      </trkpt>
      <trkpt lat="45.71118" lon="6.25273">
        <ele>977.82300032</ele>
        <time>2013-06-15T09:41:25Z</time>
      </trkpt>
      <trkpt lat="45.71118" lon="6.25256">
        <ele>978</ele>
        <time>2013-06-15T09:41:33Z</time>
      </trkpt>
      <trkpt lat="45.71117" lon="6.25248">
        <ele>978</ele>
        <time>2013-06-15T09:41:37Z</time>
      </trkpt>
      <trkpt lat="45.71116" lon="6.2524">
        <ele>978</ele>
        <time>2013-06-15T09:41:41Z</time>
      </trkpt>
      <trkpt lat="45.71111" lon="6.2522">
        <ele>978</ele>
        <time>2013-06-15T09:41:51Z</time>
      </trkpt>
      <trkpt lat="45.71107" lon="6.252">
        <ele>979.03888370621</ele>
        <time>2013-06-15T09:42:02Z</time>
      </trkpt>
      <trkpt lat="45.71102" lon="6.25176">
        <ele>981.62487434315</ele>
        <time>2013-06-15T09:42:15Z</time>
      </trkpt>
      <trkpt lat="45.71098" lon="6.25154">
        <ele>982</ele>
        <time>2013-06-15T09:42:29Z</time>
      </trkpt>
      <trkpt lat="45.71093" lon="6.25132">
        <ele>982</ele>
        <time>2013-06-15T09:42:41Z</time>
      </trkpt>
      <trkpt lat="45.71089" lon="6.25122">
        <ele>982</ele>
        <time>2013-06-15T09:42:46Z</time>
      </trkpt>
      <trkpt lat="45.71085" lon="6.25111">
        <ele>982.628</ele>
        <time>2013-06-15T09:42:53Z</time>
      </trkpt>
      <trkpt lat="45.71078" lon="6.25098">
        <ele>983.42099968</ele>
        <time>2013-06-15T09:43:01Z</time>
      </trkpt>
      <trkpt lat="45.71066" lon="6.25082">
        <ele>985.02599936</ele>
        <time>2013-06-15T09:43:12Z</time>
      </trkpt>
      <trkpt lat="45.7106" lon="6.2507">
        <ele>986.31299968</ele>
        <time>2013-06-15T09:43:20Z</time>
      </trkpt>
      <trkpt lat="45.71054" lon="6.25061">
        <ele>987.42599936</ele>
        <time>2013-06-15T09:43:29Z</time>
      </trkpt>
      <trkpt lat="45.71046" lon="6.25047">
        <ele>989.42099968</ele>
        <time>2013-06-15T09:43:41Z</time>
      </trkpt>
      <trkpt lat="45.71037" lon="6.25021">
        <ele>993.28399872</ele>
        <time>2013-06-15T09:43:55Z</time>
      </trkpt>
      <trkpt lat="45.71034" lon="6.2501">
        <ele>994</ele>
        <time>2013-06-15T09:44:02Z</time>
      </trkpt>
      <trkpt lat="45.71028" lon="6.24997">
        <ele>994.62599936</ele>
        <time>2013-06-15T09:44:10Z</time>
      </trkpt>
      <trkpt lat="45.71026" lon="6.24984">
        <ele>996</ele>
        <time>2013-06-15T09:44:17Z</time>
      </trkpt>
      <trkpt lat="45.7102" lon="6.24972">
        <ele>996</ele>
        <time>2013-06-15T09:44:26Z</time>
      </trkpt>
      <trkpt lat="45.7101" lon="6.24964">
        <ele>997.64199936</ele>
        <time>2013-06-15T09:44:35Z</time>
      </trkpt>
      <trkpt lat="45.70998" lon="6.24957">
        <ele>998.72099968</ele>
        <time>2013-06-15T09:44:44Z</time>
      </trkpt>
      <trkpt lat="45.70994" lon="6.24939">
        <ele>1000.9067192874</ele>
        <time>2013-06-15T09:45:06Z</time>
      </trkpt>
      <trkpt lat="45.70998" lon="6.24929">
        <ele>1001</ele>
        <time>2013-06-15T09:45:12Z</time>
      </trkpt>
      <trkpt lat="45.70994" lon="6.24919">
        <ele>1001.812</ele>
        <time>2013-06-15T09:45:25Z</time>
      </trkpt>
      <trkpt lat="45.70986" lon="6.24914">
        <ele>1004.22599936</ele>
        <time>2013-06-15T09:45:38Z</time>
      </trkpt>
      <trkpt lat="45.70978" lon="6.24899">
        <ele>1007.02599936</ele>
        <time>2013-06-15T09:45:52Z</time>
      </trkpt>
      <trkpt lat="45.70971" lon="6.24894">
        <ele>1009.66799872</ele>
        <time>2013-06-15T09:46:01Z</time>
      </trkpt>
      <trkpt lat="45.70959" lon="6.24882">
        <ele>1014.66199808</ele>
        <time>2013-06-15T09:46:20Z</time>
      </trkpt>
      <trkpt lat="45.70955" lon="6.24862">
        <ele>1019.6443568094</ele>
        <time>2013-06-15T09:46:45Z</time>
      </trkpt>
      <trkpt lat="45.7094" lon="6.24847">
        <ele>1022.42399744</ele>
        <time>2013-06-15T09:46:58Z</time>
      </trkpt>
      <trkpt lat="45.70935" lon="6.24836">
        <ele>1026.61299968</ele>
        <time>2013-06-15T09:47:13Z</time>
      </trkpt>
      <trkpt lat="45.70928" lon="6.24832">
        <ele>1028.02599936</ele>
        <time>2013-06-15T09:47:22Z</time>
      </trkpt>
      <trkpt lat="45.70913" lon="6.24824">
        <ele>1030.84199936</ele>
        <time>2013-06-15T09:47:36Z</time>
      </trkpt>
      <trkpt lat="45.70902" lon="6.24824">
        <ele>1031.8165501734</ele>
        <time>2013-06-15T09:47:45Z</time>
      </trkpt>
      <trkpt lat="45.70892" lon="6.24809">
        <ele>1035.81199872</ele>
        <time>2013-06-15T09:48:06Z</time>
      </trkpt>
      <trkpt lat="45.70883" lon="6.248">
        <ele>1040.5649984</ele>
        <time>2013-06-15T09:48:22Z</time>
      </trkpt>
      <trkpt lat="45.70873" lon="6.24794">
        <ele>1043</ele>
        <time>2013-06-15T09:48:36Z</time>
      </trkpt>
      <trkpt lat="45.70865" lon="6.2479">
        <ele>1045.45199872</ele>
        <time>2013-06-15T09:48:48Z</time>
      </trkpt>
      <trkpt lat="45.70863" lon="6.24781">
        <ele>1047.85199872</ele>
        <time>2013-06-15T09:48:54Z</time>
      </trkpt>
      <trkpt lat="45.70858" lon="6.24772">
        <ele>1049</ele>
        <time>2013-06-15T09:49:01Z</time>
      </trkpt>
      <trkpt lat="45.70852" lon="6.24759">
        <ele>1051.24199936</ele>
        <time>2013-06-15T09:49:18Z</time>
      </trkpt>
      <trkpt lat="45.70846" lon="6.24754">
        <ele>1053.032</ele>
        <time>2013-06-15T09:49:27Z</time>
      </trkpt>
      <trkpt lat="45.7083" lon="6.24741">
        <ele>1058.62</ele>
        <time>2013-06-15T09:49:50Z</time>
      </trkpt>
      <trkpt lat="45.70814" lon="6.24729">
        <ele>1063.60999936</ele>
        <time>2013-06-15T09:50:10Z</time>
      </trkpt>
      <trkpt lat="45.70801" lon="6.2471">
        <ele>1067.0209368894</ele>
        <time>2013-06-15T09:50:27Z</time>
      </trkpt>
      <trkpt lat="45.70785" lon="6.24704">
        <ele>1069.4242727309</ele>
        <time>2013-06-15T09:50:44Z</time>
      </trkpt>
      <trkpt lat="45.70771" lon="6.24689">
        <ele>1073.45199872</ele>
        <time>2013-06-15T09:51:03Z</time>
      </trkpt>
      <trkpt lat="45.70771" lon="6.24669">
        <ele>1075.22599936</ele>
        <time>2013-06-15T09:51:18Z</time>
      </trkpt>
      <trkpt lat="45.70774" lon="6.24648">
        <ele>1080.264</ele>
        <time>2013-06-15T09:51:35Z</time>
      </trkpt>
      <trkpt lat="45.70786" lon="6.24627">
        <ele>1084.49199616</ele>
        <time>2013-06-15T09:51:58Z</time>
      </trkpt>
      <trkpt lat="45.70801" lon="6.24585">
        <ele>1095</ele>
        <time>2013-06-15T09:52:42Z</time>
      </trkpt>
      <trkpt lat="45.70806" lon="6.2456">
        <ele>1099.090086858</ele>
        <time>2013-06-15T09:53:02Z</time>
      </trkpt>
      <trkpt lat="45.70805" lon="6.24536">
        <ele>1101</ele>
        <time>2013-06-15T09:53:15Z</time>
      </trkpt>
      <trkpt lat="45.70805" lon="6.24513">
        <ele>1102.1103315287</ele>
        <time>2013-06-15T09:53:28Z</time>
      </trkpt>
      <trkpt lat="45.70787" lon="6.24515">
        <ele>1104.6336331104</ele>
        <time>2013-06-15T09:53:55Z</time>
      </trkpt>
      <trkpt lat="45.70776" lon="6.24498">
        <ele>1106.66199808</ele>
        <time>2013-06-15T09:54:10Z</time>
      </trkpt>
      <trkpt lat="45.70773" lon="6.24478">
        <ele>1109.66200064</ele>
        <time>2013-06-15T09:54:25Z</time>
      </trkpt>
      <trkpt lat="45.70785" lon="6.24466">
        <ele>1112.56899712</ele>
        <time>2013-06-15T09:54:42Z</time>
      </trkpt>
      <trkpt lat="45.70781" lon="6.24446">
        <ele>1116.12299904</ele>
        <time>2013-06-15T09:54:58Z</time>
      </trkpt>
      <trkpt lat="45.70778" lon="6.24426">
        <ele>1117.42300032</ele>
        <time>2013-06-15T09:55:11Z</time>
      </trkpt>
      <trkpt lat="45.70767" lon="6.24414">
        <ele>1120.42599936</ele>
        <time>2013-06-15T09:55:29Z</time>
      </trkpt>
      <trkpt lat="45.70758" lon="6.24395">
        <ele>1127.016</ele>
        <time>2013-06-15T09:55:47Z</time>
      </trkpt>
      <trkpt lat="45.70754" lon="6.24373">
        <ele>1128.52299904</ele>
        <time>2013-06-15T09:56:02Z</time>
      </trkpt>
      <trkpt lat="45.70747" lon="6.24353">
        <ele>1132.42599936</ele>
        <time>2013-06-15T09:56:29Z</time>
      </trkpt>
      <trkpt lat="45.70744" lon="6.24334">
        <ele>1134.22599936</ele>
        <time>2013-06-15T09:56:38Z</time>
      </trkpt>
      <trkpt lat="45.70734" lon="6.24322">
        <ele>1136.11699968</ele>
        <time>2013-06-15T09:56:48Z</time>
      </trkpt>
      <trkpt lat="45.70721" lon="6.24313">
        <ele>1142.02300032</ele>
        <time>2013-06-15T09:57:07Z</time>
      </trkpt>
      <trkpt lat="45.70702" lon="6.24306">
        <ele>1143</ele>
        <time>2013-06-15T09:57:20Z</time>
      </trkpt>
      <trkpt lat="45.70673" lon="6.24279">
        <ele>1145</ele>
        <time>2013-06-15T09:57:42Z</time>
      </trkpt>
      <trkpt lat="45.70661" lon="6.24275">
        <ele>1145.85799936</ele>
        <time>2013-06-15T09:57:51Z</time>
      </trkpt>
      <trkpt lat="45.70646" lon="6.2427">
        <ele>1146.47700096</ele>
        <time>2013-06-15T09:58:02Z</time>
      </trkpt>
      <trkpt lat="45.7063" lon="6.24263">
        <ele>1145.57699968</ele>
        <time>2013-06-15T09:58:21Z</time>
      </trkpt>
      <trkpt lat="45.70613" lon="6.24258">
        <ele>1145.60780538</ele>
        <time>2013-06-15T09:58:33Z</time>
      </trkpt>
      <trkpt lat="45.70595" lon="6.24259">
        <ele>1146</ele>
        <time>2013-06-15T09:58:41Z</time>
      </trkpt>
      <trkpt lat="45.70579" lon="6.24248">
        <ele>1146</ele>
        <time>2013-06-15T09:58:50Z</time>
      </trkpt>
      <trkpt lat="45.70561" lon="6.24246">
        <ele>1145.7704582965</ele>
        <time>2013-06-15T09:58:59Z</time>
      </trkpt>
      <trkpt lat="45.70551" lon="6.24234">
        <ele>1145</ele>
        <time>2013-06-15T09:59:12Z</time>
      </trkpt>
      <trkpt lat="45.70546" lon="6.24231">
        <ele>1145.0228177778</ele>
        <time>2013-06-15T09:59:17Z</time>
      </trkpt>
      <trkpt lat="45.70539" lon="6.24216">
        <ele>1146.64599808</ele>
        <time>2013-06-15T09:59:30Z</time>
      </trkpt>
      <trkpt lat="45.70524" lon="6.24212">
        <ele>1149.6592748387</ele>
        <time>2013-06-15T09:59:45Z</time>
      </trkpt>
      <trkpt lat="45.70509" lon="6.24202">
        <ele>1152.66900096</ele>
        <time>2013-06-15T09:59:59Z</time>
      </trkpt>
      <trkpt lat="45.70493" lon="6.24195">
        <ele>1155</ele>
        <time>2013-06-15T10:00:10Z</time>
      </trkpt>
      <trkpt lat="45.70476" lon="6.24184">
        <ele>1154.75400192</ele>
        <time>2013-06-15T10:00:18Z</time>
      </trkpt>
      <trkpt lat="45.70459" lon="6.24179">
        <ele>1152.95600128</ele>
        <time>2013-06-15T10:00:27Z</time>
      </trkpt>
      <trkpt lat="45.70444" lon="6.24184">
        <ele>1151</ele>
        <time>2013-06-15T10:00:40Z</time>
      </trkpt>
      <trkpt lat="45.70427" lon="6.24173">
        <ele>1153.04199936</ele>
        <time>2013-06-15T10:00:57Z</time>
      </trkpt>
      <trkpt lat="45.70398" lon="6.24143">
        <ele>1157</ele>
        <time>2013-06-15T10:01:34Z</time>
      </trkpt>
      <trkpt lat="45.7038" lon="6.24134">
        <ele>1159</ele>
        <time>2013-06-15T10:01:47Z</time>
      </trkpt>
      <trkpt lat="45.70365" lon="6.24127">
        <ele>1159</ele>
        <time>2013-06-15T10:02:01Z</time>
      </trkpt>
      <trkpt lat="45.70346" lon="6.24126">
        <ele>1160.13299968</ele>
        <time>2013-06-15T10:02:18Z</time>
      </trkpt>
      <trkpt lat="45.70332" lon="6.2412">
        <ele>1161.41299968</ele>
        <time>2013-06-15T10:02:31Z</time>
      </trkpt>
      <trkpt lat="45.70326" lon="6.24112">
        <ele>1162.03399936</ele>
        <time>2013-06-15T10:02:37Z</time>
      </trkpt>
      <trkpt lat="45.70336" lon="6.24103">
        <ele>1165</ele>
        <time>2013-06-15T10:03:30Z</time>
      </trkpt>
      <trkpt lat="45.70351" lon="6.24097">
        <ele>1166</ele>
        <time>2013-06-15T10:03:53Z</time>
      </trkpt>
      <trkpt lat="45.70368" lon="6.24085">
        <ele>1166</ele>
        <time>2013-06-15T10:04:08Z</time>
      </trkpt>
      <trkpt lat="45.70387" lon="6.24082">
        <ele>1166.62599936</ele>
        <time>2013-06-15T10:04:20Z</time>
      </trkpt>
      <trkpt lat="45.70407" lon="6.24086">
        <ele>1168.33899904</ele>
        <time>2013-06-15T10:04:28Z</time>
      </trkpt>
      <trkpt lat="45.70426" lon="6.24091">
        <ele>1170.43899904</ele>
        <time>2013-06-15T10:04:35Z</time>
      </trkpt>
      <trkpt lat="45.70444" lon="6.24089">
        <ele>1172.0631898288</ele>
        <time>2013-06-15T10:04:52Z</time>
      </trkpt>
      <trkpt lat="45.70459" lon="6.24091">
        <ele>1174.06199808</ele>
        <time>2013-06-15T10:05:02Z</time>
      </trkpt>
      <trkpt lat="45.70472" lon="6.24096">
        <ele>1176.04599808</ele>
        <time>2013-06-15T10:05:12Z</time>
      </trkpt>
      <trkpt lat="45.70485" lon="6.24085">
        <ele>1179.3306684773</ele>
        <time>2013-06-15T10:05:30Z</time>
      </trkpt>
      <trkpt lat="45.70503" lon="6.24082">
        <ele>1182.04600064</ele>
        <time>2013-06-15T10:05:47Z</time>
      </trkpt>
      <trkpt lat="45.70522" lon="6.24079">
        <ele>1185.06599936</ele>
        <time>2013-06-15T10:06:07Z</time>
      </trkpt>
      <trkpt lat="45.70558" lon="6.24084">
        <ele>1190.42599936</ele>
        <time>2013-06-15T10:06:34Z</time>
      </trkpt>
      <trkpt lat="45.70577" lon="6.24078">
        <ele>1193.91399936</ele>
        <time>2013-06-15T10:06:56Z</time>
      </trkpt>
      <trkpt lat="45.70592" lon="6.24062">
        <ele>1198.83299968</ele>
        <time>2013-06-15T10:07:15Z</time>
      </trkpt>
      <trkpt lat="45.70608" lon="6.24066">
        <ele>1199.63299968</ele>
        <time>2013-06-15T10:07:23Z</time>
      </trkpt>
      <trkpt lat="45.7062" lon="6.24074">
        <ele>1203.6729832962</ele>
        <time>2013-06-15T10:07:36Z</time>
      </trkpt>
      <trkpt lat="45.70635" lon="6.24081">
        <ele>1205.86599936</ele>
        <time>2013-06-15T10:07:51Z</time>
      </trkpt>
      <trkpt lat="45.70651" lon="6.24085">
        <ele>1209.02300032</ele>
        <time>2013-06-15T10:08:07Z</time>
      </trkpt>
      <trkpt lat="45.70669" lon="6.24076">
        <ele>1211.85199872</ele>
        <time>2013-06-15T10:08:31Z</time>
      </trkpt>
      <trkpt lat="45.70683" lon="6.24067">
        <ele>1214.26599936</ele>
        <time>2013-06-15T10:08:43Z</time>
      </trkpt>
      <trkpt lat="45.70701" lon="6.24068">
        <ele>1219.6646644518</ele>
        <time>2013-06-15T10:09:00Z</time>
      </trkpt>
      <trkpt lat="45.70717" lon="6.24071">
        <ele>1221</ele>
        <time>2013-06-15T10:09:11Z</time>
      </trkpt>
      <trkpt lat="45.70728" lon="6.2407">
        <ele>1221.84600064</ele>
        <time>2013-06-15T10:09:21Z</time>
      </trkpt>
      <trkpt lat="45.70741" lon="6.2407">
        <ele>1224.44599808</ele>
        <time>2013-06-15T10:09:34Z</time>
      </trkpt>
      <trkpt lat="45.70753" lon="6.24072">
        <ele>1225.72299904</ele>
        <time>2013-06-15T10:09:44Z</time>
      </trkpt>
      <trkpt lat="45.70765" lon="6.24064">
        <ele>1227.49199616</ele>
        <time>2013-06-15T10:09:58Z</time>
      </trkpt>
      <trkpt lat="45.70777" lon="6.24058">
        <ele>1231</ele>
        <time>2013-06-15T10:10:10Z</time>
      </trkpt>
      <trkpt lat="45.70782" lon="6.2406">
        <ele>1231</ele>
        <time>2013-06-15T10:10:14Z</time>
      </trkpt>
      <trkpt lat="45.70795" lon="6.2406">
        <ele>1232.2422750076</ele>
        <time>2013-06-15T10:10:23Z</time>
      </trkpt>
      <trkpt lat="45.70822" lon="6.24064">
        <ele>1238.33199872</ele>
        <time>2013-06-15T10:10:50Z</time>
      </trkpt>
      <trkpt lat="45.70836" lon="6.24071">
        <ele>1241</ele>
        <time>2013-06-15T10:11:06Z</time>
      </trkpt>
      <trkpt lat="45.70851" lon="6.24074">
        <ele>1243.46599936</ele>
        <time>2013-06-15T10:11:24Z</time>
      </trkpt>
      <trkpt lat="45.70866" lon="6.24072">
        <ele>1245.88199936</ele>
        <time>2013-06-15T10:11:36Z</time>
      </trkpt>
      <trkpt lat="45.70883" lon="6.24072">
        <ele>1248.44199936</ele>
        <time>2013-06-15T10:11:49Z</time>
      </trkpt>
      <trkpt lat="45.70899" lon="6.24071">
        <ele>1252.45199872</ele>
        <time>2013-06-15T10:12:03Z</time>
      </trkpt>
      <trkpt lat="45.70916" lon="6.24075">
        <ele>1256</ele>
        <time>2013-06-15T10:12:18Z</time>
      </trkpt>
      <trkpt lat="45.70931" lon="6.24083">
        <ele>1256.32299904</ele>
        <time>2013-06-15T10:12:30Z</time>
      </trkpt>
      <trkpt lat="45.70945" lon="6.24089">
        <ele>1258.24600064</ele>
        <time>2013-06-15T10:12:43Z</time>
      </trkpt>
      <trkpt lat="45.70957" lon="6.24096">
        <ele>1260.40999936</ele>
        <time>2013-06-15T10:12:54Z</time>
      </trkpt>
      <trkpt lat="45.70963" lon="6.24101">
        <ele>1261.12099968</ele>
        <time>2013-06-15T10:12:58Z</time>
      </trkpt>
      <trkpt lat="45.70969" lon="6.24106">
        <ele>1261.73099904</ele>
        <time>2013-06-15T10:13:04Z</time>
      </trkpt>
      <trkpt lat="45.70975" lon="6.24109">
        <ele>1262.2287133331</ele>
        <time>2013-06-15T10:13:09Z</time>
      </trkpt>
      <trkpt lat="45.70982" lon="6.24109">
        <ele>1263.0464652629</ele>
        <time>2013-06-15T10:13:17Z</time>
      </trkpt>
      <trkpt lat="45.70988" lon="6.24112">
        <ele>1264.05656562</ele>
        <time>2013-06-15T10:13:22Z</time>
      </trkpt>
      <trkpt lat="45.70994" lon="6.24117">
        <ele>1264.8242418914</ele>
        <time>2013-06-15T10:13:26Z</time>
      </trkpt>
      <trkpt lat="45.71001" lon="6.24126">
        <ele>1262.96600576</ele>
        <time>2013-06-15T10:13:30Z</time>
      </trkpt>
      <trkpt lat="45.71007" lon="6.24132">
        <ele>1261.28600576</ele>
        <time>2013-06-15T10:13:33Z</time>
      </trkpt>
      <trkpt lat="45.71028" lon="6.24147">
        <ele>1255.71600128</ele>
        <time>2013-06-15T10:13:45Z</time>
      </trkpt>
      <trkpt lat="45.71033" lon="6.24153">
        <ele>1255.6061498413</ele>
        <time>2013-06-15T10:13:53Z</time>
      </trkpt>
      <trkpt lat="45.71034" lon="6.24163">
        <ele>1255.3689522581</ele>
        <time>2013-06-15T10:14:00Z</time>
      </trkpt>
      <trkpt lat="45.71032" lon="6.24176">
        <ele>1253.98700032</ele>
        <time>2013-06-15T10:14:07Z</time>
      </trkpt>
      <trkpt lat="45.71035" lon="6.24184">
        <ele>1253.46700032</ele>
        <time>2013-06-15T10:14:12Z</time>
      </trkpt>
      <trkpt lat="45.71037" lon="6.24189">
        <ele>1253.316</ele>
        <time>2013-06-15T10:14:20Z</time>
      </trkpt>
      <trkpt lat="45.71039" lon="6.24196">
        <ele>1253.816</ele>
        <time>2013-06-15T10:14:25Z</time>
      </trkpt>
      <trkpt lat="45.71037" lon="6.24203">
        <ele>1254</ele>
        <time>2013-06-15T10:14:28Z</time>
      </trkpt>
      <trkpt lat="45.71038" lon="6.24224">
        <ele>1255.84599808</ele>
        <time>2013-06-15T10:14:46Z</time>
      </trkpt>
      <trkpt lat="45.71045" lon="6.24216">
        <ele>1260.296</ele>
        <time>2013-06-15T10:15:15Z</time>
      </trkpt>
      <trkpt lat="45.71059" lon="6.24215">
        <ele>1264.22999808</ele>
        <time>2013-06-15T10:15:38Z</time>
      </trkpt>
      <trkpt lat="45.7107" lon="6.24217">
        <ele>1268.4446670657</ele>
        <time>2013-06-15T10:15:59Z</time>
      </trkpt>
      <trkpt lat="45.71088" lon="6.24221">
        <ele>1273.66199808</ele>
        <time>2013-06-15T10:16:30Z</time>
      </trkpt>
      <trkpt lat="45.71085" lon="6.24248">
        <ele>1282.8448458555</ele>
        <time>2013-06-15T10:17:31Z</time>
      </trkpt>
      <trkpt lat="45.71092" lon="6.24272">
        <ele>1288.02300032</ele>
        <time>2013-06-15T10:17:57Z</time>
      </trkpt>
      <trkpt lat="45.71098" lon="6.24297">
        <ele>1292.42599936</ele>
        <time>2013-06-15T10:18:24Z</time>
      </trkpt>
      <trkpt lat="45.71099" lon="6.24324">
        <ele>1299.86299904</ele>
        <time>2013-06-15T10:18:43Z</time>
      </trkpt>
      <trkpt lat="45.71107" lon="6.24339">
        <ele>1302.8933208949</ele>
        <time>2013-06-15T10:18:53Z</time>
      </trkpt>
      <trkpt lat="45.71128" lon="6.24357">
        <ele>1312.79899904</ele>
        <time>2013-06-15T10:19:36Z</time>
      </trkpt>
      <trkpt lat="45.71138" lon="6.24346">
        <ele>1316.86599936</ele>
        <time>2013-06-15T10:20:01Z</time>
      </trkpt>
      <trkpt lat="45.7115" lon="6.2435">
        <ele>1319.232</ele>
        <time>2013-06-15T10:20:13Z</time>
      </trkpt>
      <trkpt lat="45.71159" lon="6.24338">
        <ele>1327.832</ele>
        <time>2013-06-15T10:20:41Z</time>
      </trkpt>
      <trkpt lat="45.7117" lon="6.24329">
        <ele>1330.12299904</ele>
        <time>2013-06-15T10:20:58Z</time>
      </trkpt>
      <trkpt lat="45.7118" lon="6.24325">
        <ele>1331.68199936</ele>
        <time>2013-06-15T10:21:10Z</time>
      </trkpt>
      <trkpt lat="45.71195" lon="6.24316">
        <ele>1336.26799872</ele>
        <time>2013-06-15T10:21:30Z</time>
      </trkpt>
      <trkpt lat="45.7121" lon="6.24309">
        <ele>1340.8625882166</ele>
        <time>2013-06-15T10:21:51Z</time>
      </trkpt>
      <trkpt lat="45.7122" lon="6.24292">
        <ele>1347.04599808</ele>
        <time>2013-06-15T10:22:22Z</time>
      </trkpt>
      <trkpt lat="45.71231" lon="6.24276">
        <ele>1353.83900032</ele>
        <time>2013-06-15T10:22:55Z</time>
      </trkpt>
      <trkpt lat="45.71244" lon="6.24267">
        <ele>1358</ele>
        <time>2013-06-15T10:23:16Z</time>
      </trkpt>
      <trkpt lat="45.71259" lon="6.24282">
        <ele>1369.86599936</ele>
        <time>2013-06-15T10:24:16Z</time>
      </trkpt>
      <trkpt lat="45.71262" lon="6.24303">
        <ele>1374.0401228902</ele>
        <time>2013-06-15T10:24:37Z</time>
      </trkpt>
      <trkpt lat="45.71255" lon="6.24326">
        <ele>1378.32299904</ele>
        <time>2013-06-15T10:25:00Z</time>
      </trkpt>
      <trkpt lat="45.71255" lon="6.24343">
        <ele>1380.46199808</ele>
        <time>2013-06-15T10:25:14Z</time>
      </trkpt>
      <trkpt lat="45.71255" lon="6.24355">
        <ele>1382.44600064</ele>
        <time>2013-06-15T10:25:29Z</time>
      </trkpt>
      <trkpt lat="45.71265" lon="6.24354">
        <ele>1386.24599808</ele>
        <time>2013-06-15T10:25:48Z</time>
      </trkpt>
      <trkpt lat="45.71269" lon="6.24367">
        <ele>1390.09199616</ele>
        <time>2013-06-15T10:26:02Z</time>
      </trkpt>
      <trkpt lat="45.71281" lon="6.24386">
        <ele>1392.12299904</ele>
        <time>2013-06-15T10:26:18Z</time>
      </trkpt>
      <trkpt lat="45.71289" lon="6.24393">
        <ele>1392.82300032</ele>
        <time>2013-06-15T10:26:25Z</time>
      </trkpt>
      <trkpt lat="45.71297" lon="6.24402">
        <ele>1394.26200064</ele>
        <time>2013-06-15T10:26:33Z</time>
      </trkpt>
      <trkpt lat="45.71306" lon="6.24411">
        <ele>1395</ele>
        <time>2013-06-15T10:26:41Z</time>
      </trkpt>
      <trkpt lat="45.71315" lon="6.24422">
        <ele>1395</ele>
        <time>2013-06-15T10:26:46Z</time>
      </trkpt>
      <trkpt lat="45.71323" lon="6.24432">
        <ele>1394.13799936</ele>
        <time>2013-06-15T10:26:51Z</time>
      </trkpt>
      <trkpt lat="45.7133" lon="6.24442">
        <ele>1393.13800192</ele>
        <time>2013-06-15T10:26:56Z</time>
      </trkpt>
      <trkpt lat="45.71339" lon="6.24455">
        <ele>1393</ele>
        <time>2013-06-15T10:27:02Z</time>
      </trkpt>
      <trkpt lat="45.71348" lon="6.2447">
        <ele>1393</ele>
        <time>2013-06-15T10:27:10Z</time>
      </trkpt>
      <trkpt lat="45.71358" lon="6.24485">
        <ele>1392.9688438694</ele>
        <time>2013-06-15T10:27:17Z</time>
      </trkpt>
      <trkpt lat="45.7137" lon="6.24499">
        <ele>1392.2653268892</ele>
        <time>2013-06-15T10:27:24Z</time>
      </trkpt>
      <trkpt lat="45.71384" lon="6.24508">
        <ele>1391.5857567078</ele>
        <time>2013-06-15T10:27:31Z</time>
      </trkpt>
      <trkpt lat="45.714" lon="6.24511">
        <ele>1391.23100032</ele>
        <time>2013-06-15T10:27:39Z</time>
      </trkpt>
      <trkpt lat="45.71416" lon="6.24518">
        <ele>1392</ele>
        <time>2013-06-15T10:27:50Z</time>
      </trkpt>
      <trkpt lat="45.71431" lon="6.24508">
        <ele>1391.0436520635</ele>
        <time>2013-06-15T10:27:59Z</time>
      </trkpt>
      <trkpt lat="45.71443" lon="6.24508">
        <ele>1389.1388901587</ele>
        <time>2013-06-15T10:28:04Z</time>
      </trkpt>
      <trkpt lat="45.71455" lon="6.2451">
        <ele>1388</ele>
        <time>2013-06-15T10:28:11Z</time>
      </trkpt>
      <trkpt lat="45.71473" lon="6.2452">
        <ele>1388.9304425806</ele>
        <time>2013-06-15T10:28:26Z</time>
      </trkpt>
      <trkpt lat="45.71512" lon="6.24521">
        <ele>1391.2479819355</ele>
        <time>2013-06-15T10:28:48Z</time>
      </trkpt>
      <trkpt lat="45.71523" lon="6.24525">
        <ele>1393.25400064</ele>
        <time>2013-06-15T10:28:58Z</time>
      </trkpt>
      <trkpt lat="45.71534" lon="6.24534">
        <ele>1395.03299968</ele>
        <time>2013-06-15T10:29:07Z</time>
      </trkpt>
      <trkpt lat="45.71546" lon="6.2455">
        <ele>1396</ele>
        <time>2013-06-15T10:29:22Z</time>
      </trkpt>
      <trkpt lat="45.71561" lon="6.24563">
        <ele>1398.732732498</ele>
        <time>2013-06-15T10:29:44Z</time>
      </trkpt>
      <trkpt lat="45.71577" lon="6.24572">
        <ele>1400.28199936</ele>
        <time>2013-06-15T10:29:58Z</time>
      </trkpt>
      <trkpt lat="45.71595" lon="6.2457">
        <ele>1403.8763720452</ele>
        <time>2013-06-15T10:30:16Z</time>
      </trkpt>
      <trkpt lat="45.71609" lon="6.24574">
        <ele>1405.632</ele>
        <time>2013-06-15T10:30:30Z</time>
      </trkpt>
      <trkpt lat="45.7162" lon="6.24579">
        <ele>1408.04599808</ele>
        <time>2013-06-15T10:30:42Z</time>
      </trkpt>
      <trkpt lat="45.71628" lon="6.24585">
        <ele>1409.66199808</ele>
        <time>2013-06-15T10:30:50Z</time>
      </trkpt>
      <trkpt lat="45.71638" lon="6.24594">
        <ele>1412.24199808</ele>
        <time>2013-06-15T10:31:01Z</time>
      </trkpt>
      <trkpt lat="45.71644" lon="6.24602">
        <ele>1414.23299968</ele>
        <time>2013-06-15T10:31:09Z</time>
      </trkpt>
      <trkpt lat="45.71655" lon="6.24613">
        <ele>1415.23299968</ele>
        <time>2013-06-15T10:31:19Z</time>
      </trkpt>
      <trkpt lat="45.7166" lon="6.24624">
        <ele>1416.132</ele>
        <time>2013-06-15T10:31:28Z</time>
      </trkpt>
      <trkpt lat="45.71668" lon="6.24634">
        <ele>1417.24099968</ele>
        <time>2013-06-15T10:31:39Z</time>
      </trkpt>
      <trkpt lat="45.7168" lon="6.24639">
        <ele>1418.13299968</ele>
        <time>2013-06-15T10:31:48Z</time>
      </trkpt>
      <trkpt lat="45.71689" lon="6.24656">
        <ele>1419.53299968</ele>
        <time>2013-06-15T10:32:02Z</time>
      </trkpt>
      <trkpt lat="45.71698" lon="6.24678">
        <ele>1421.232</ele>
        <time>2013-06-15T10:32:18Z</time>
      </trkpt>
      <trkpt lat="45.7172" lon="6.24707">
        <ele>1424.62300032</ele>
        <time>2013-06-15T10:32:43Z</time>
      </trkpt>
      <trkpt lat="45.71732" lon="6.24725">
        <ele>1427.232302994</ele>
        <time>2013-06-15T10:32:59Z</time>
      </trkpt>
      <trkpt lat="45.71742" lon="6.24739">
        <ele>1428.3309933022</ele>
        <time>2013-06-15T10:33:10Z</time>
      </trkpt>
      <trkpt lat="45.71756" lon="6.24748">
        <ele>1429.63100032</ele>
        <time>2013-06-15T10:33:23Z</time>
      </trkpt>
      <trkpt lat="45.71769" lon="6.24754">
        <ele>1433.73099776</ele>
        <time>2013-06-15T10:33:32Z</time>
      </trkpt>
      <trkpt lat="45.71782" lon="6.2476">
        <ele>1437.13299968</ele>
        <time>2013-06-15T10:33:38Z</time>
      </trkpt>
      <trkpt lat="45.71795" lon="6.24768">
        <ele>1437.73299968</ele>
        <time>2013-06-15T10:33:44Z</time>
      </trkpt>
      <trkpt lat="45.71808" lon="6.24777">
        <ele>1438</ele>
        <time>2013-06-15T10:33:50Z</time>
      </trkpt>
      <trkpt lat="45.71818" lon="6.24786">
        <ele>1438</ele>
        <time>2013-06-15T10:33:55Z</time>
      </trkpt>
      <trkpt lat="45.71832" lon="6.24796">
        <ele>1438</ele>
        <time>2013-06-15T10:34:01Z</time>
      </trkpt>
      <trkpt lat="45.71841" lon="6.24802">
        <ele>1438</ele>
        <time>2013-06-15T10:34:05Z</time>
      </trkpt>
      <trkpt lat="45.7185" lon="6.24806">
        <ele>1438.48199936</ele>
        <time>2013-06-15T10:34:09Z</time>
      </trkpt>
      <trkpt lat="45.71861" lon="6.24812">
        <ele>1439.48199936</ele>
        <time>2013-06-15T10:34:14Z</time>
      </trkpt>
      <trkpt lat="45.71875" lon="6.24818">
        <ele>1440</ele>
        <time>2013-06-15T10:34:19Z</time>
      </trkpt>
      <trkpt lat="45.71887" lon="6.24818">
        <ele>1440</ele>
        <time>2013-06-15T10:34:24Z</time>
      </trkpt>
      <trkpt lat="45.71898" lon="6.24812">
        <ele>1440</ele>
        <time>2013-06-15T10:34:29Z</time>
      </trkpt>
      <trkpt lat="45.71905" lon="6.24806">
        <ele>1440</ele>
        <time>2013-06-15T10:34:34Z</time>
      </trkpt>
      <trkpt lat="45.71905" lon="6.24817">
        <ele>1439.36899968</ele>
        <time>2013-06-15T10:34:43Z</time>
      </trkpt>
      <trkpt lat="45.71897" lon="6.24831">
        <ele>1439.828401844</ele>
        <time>2013-06-15T10:35:45Z</time>
      </trkpt>
      <trkpt lat="45.71897" lon="6.24839">
        <ele>1440</ele>
        <time>2013-06-15T10:36:00Z</time>
      </trkpt>
      <trkpt lat="45.71895" lon="6.24847">
        <ele>1440</ele>
        <time>2013-06-15T10:36:04Z</time>
      </trkpt>
      <trkpt lat="45.71896" lon="6.24857">
        <ele>1440</ele>
        <time>2013-06-15T10:36:07Z</time>
      </trkpt>
      <trkpt lat="45.71898" lon="6.24866">
        <ele>1440</ele>
        <time>2013-06-15T10:36:10Z</time>
      </trkpt>
      <trkpt lat="45.71902" lon="6.24874">
        <ele>1440</ele>
        <time>2013-06-15T10:36:13Z</time>
      </trkpt>
      <trkpt lat="45.71908" lon="6.24881">
        <ele>1440</ele>
        <time>2013-06-15T10:36:16Z</time>
      </trkpt>
      <trkpt lat="45.71918" lon="6.24893">
        <ele>1436.98299776</ele>
        <time>2013-06-15T10:36:21Z</time>
      </trkpt>
      <trkpt lat="45.71927" lon="6.24905">
        <ele>1434.18299776</ele>
        <time>2013-06-15T10:36:25Z</time>
      </trkpt>
      <trkpt lat="45.71935" lon="6.24916">
        <ele>1432.3076911273</ele>
        <time>2013-06-15T10:36:29Z</time>
      </trkpt>
      <trkpt lat="45.71943" lon="6.24927">
        <ele>1431.1088895453</ele>
        <time>2013-06-15T10:36:33Z</time>
      </trkpt>
      <trkpt lat="45.7195" lon="6.24939">
        <ele>1429.96999936</ele>
        <time>2013-06-15T10:36:37Z</time>
      </trkpt>
      <trkpt lat="45.71957" lon="6.24954">
        <ele>1429.47000064</ele>
        <time>2013-06-15T10:36:42Z</time>
      </trkpt>
      <trkpt lat="45.71965" lon="6.24968">
        <ele>1428.9499506066</ele>
        <time>2013-06-15T10:36:47Z</time>
      </trkpt>
      <trkpt lat="45.71971" lon="6.24979">
        <ele>1428.1491500623</ele>
        <time>2013-06-15T10:36:51Z</time>
      </trkpt>
      <trkpt lat="45.71975" lon="6.24988">
        <ele>1427.5485496541</ele>
        <time>2013-06-15T10:36:54Z</time>
      </trkpt>
      <trkpt lat="45.71981" lon="6.24996">
        <ele>1426.8361650625</ele>
        <time>2013-06-15T10:36:57Z</time>
      </trkpt>
      <trkpt lat="45.7199" lon="6.25009">
        <ele>1424.8381624258</ele>
        <time>2013-06-15T10:37:02Z</time>
      </trkpt>
      <trkpt lat="45.72006" lon="6.25028">
        <ele>1423</ele>
        <time>2013-06-15T10:37:17Z</time>
      </trkpt>
      <trkpt lat="45.72014" lon="6.25034">
        <ele>1423</ele>
        <time>2013-06-15T10:37:23Z</time>
      </trkpt>
      <trkpt lat="45.72021" lon="6.25041">
        <ele>1423.24099968</ele>
        <time>2013-06-15T10:37:29Z</time>
      </trkpt>
      <trkpt lat="45.72029" lon="6.25048">
        <ele>1423.84099968</ele>
        <time>2013-06-15T10:37:35Z</time>
      </trkpt>
      <trkpt lat="45.72036" lon="6.25058">
        <ele>1424.64099968</ele>
        <time>2013-06-15T10:37:43Z</time>
      </trkpt>
      <trkpt lat="45.72041" lon="6.25067">
        <ele>1425.6607136508</ele>
        <time>2013-06-15T10:37:50Z</time>
      </trkpt>
      <trkpt lat="45.72047" lon="6.25078">
        <ele>1427.704636129</ele>
        <time>2013-06-15T10:37:59Z</time>
      </trkpt>
      <trkpt lat="45.72051" lon="6.25087">
        <ele>1429.8215716129</ele>
        <time>2013-06-15T10:38:06Z</time>
      </trkpt>
      <trkpt lat="45.72054" lon="6.25097">
        <ele>1431.28199936</ele>
        <time>2013-06-15T10:38:13Z</time>
      </trkpt>
      <trkpt lat="45.72059" lon="6.25106">
        <ele>1432.66599936</ele>
        <time>2013-06-15T10:38:20Z</time>
      </trkpt>
      <trkpt lat="45.72064" lon="6.25114">
        <ele>1434.03900032</ele>
        <time>2013-06-15T10:38:27Z</time>
      </trkpt>
      <trkpt lat="45.7207" lon="6.25125">
        <ele>1434.83900032</ele>
        <time>2013-06-15T10:38:35Z</time>
      </trkpt>
      <trkpt lat="45.72078" lon="6.25135">
        <ele>1437.1415773239</ele>
        <time>2013-06-15T10:38:44Z</time>
      </trkpt>
      <trkpt lat="45.72082" lon="6.25142">
        <ele>1439.2838503185</ele>
        <time>2013-06-15T10:38:50Z</time>
      </trkpt>
      <trkpt lat="45.72088" lon="6.25149">
        <ele>1441.6910696656</ele>
        <time>2013-06-15T10:38:56Z</time>
      </trkpt>
      <trkpt lat="45.72095" lon="6.25159">
        <ele>1443.46199808</ele>
        <time>2013-06-15T10:39:04Z</time>
      </trkpt>
      <trkpt lat="45.72101" lon="6.2517">
        <ele>1444.53099904</ele>
        <time>2013-06-15T10:39:12Z</time>
      </trkpt>
      <trkpt lat="45.72105" lon="6.25178">
        <ele>1445.04600064</ele>
        <time>2013-06-15T10:39:17Z</time>
      </trkpt>
      <trkpt lat="45.72109" lon="6.25202">
        <ele>1447.33099904</ele>
        <time>2013-06-15T10:39:30Z</time>
      </trkpt>
      <trkpt lat="45.7211" lon="6.25215">
        <ele>1448.05199872</ele>
        <time>2013-06-15T10:39:37Z</time>
      </trkpt>
      <trkpt lat="45.7211" lon="6.25227">
        <ele>1449.05199872</ele>
        <time>2013-06-15T10:39:42Z</time>
      </trkpt>
      <trkpt lat="45.7211" lon="6.25241">
        <ele>1449.85199872</ele>
        <time>2013-06-15T10:39:46Z</time>
      </trkpt>
      <trkpt lat="45.72112" lon="6.25258">
        <ele>1449.32200192</ele>
        <time>2013-06-15T10:39:50Z</time>
      </trkpt>
      <trkpt lat="45.72114" lon="6.25272">
        <ele>1448.52200192</ele>
        <time>2013-06-15T10:39:54Z</time>
      </trkpt>
      <trkpt lat="45.72117" lon="6.25282">
        <ele>1447.80200192</ele>
        <time>2013-06-15T10:39:57Z</time>
      </trkpt>
      <trkpt lat="45.72119" lon="6.25298">
        <ele>1445.40200192</ele>
        <time>2013-06-15T10:40:01Z</time>
      </trkpt>
      <trkpt lat="45.72119" lon="6.25311">
        <ele>1443.60200192</ele>
        <time>2013-06-15T10:40:04Z</time>
      </trkpt>
      <trkpt lat="45.72116" lon="6.25325">
        <ele>1441.8789688889</ele>
        <time>2013-06-15T10:40:08Z</time>
      </trkpt>
      <trkpt lat="45.72116" lon="6.25343">
        <ele>1441.364087619</ele>
        <time>2013-06-15T10:40:13Z</time>
      </trkpt>
      <trkpt lat="45.72117" lon="6.25351">
        <ele>1440.15900032</ele>
        <time>2013-06-15T10:40:35Z</time>
      </trkpt>
      <trkpt lat="45.72123" lon="6.25359">
        <ele>1440.43299968</ele>
        <time>2013-06-15T10:40:41Z</time>
      </trkpt>
      <trkpt lat="45.72133" lon="6.25376">
        <ele>1441</ele>
        <time>2013-06-15T10:40:51Z</time>
      </trkpt>
      <trkpt lat="45.72136" lon="6.25394">
        <ele>1442.2351217124</ele>
        <time>2013-06-15T10:41:03Z</time>
      </trkpt>
      <trkpt lat="45.72138" lon="6.25411">
        <ele>1444.4687174667</ele>
        <time>2013-06-15T10:41:14Z</time>
      </trkpt>
      <trkpt lat="45.7214" lon="6.25426">
        <ele>1445</ele>
        <time>2013-06-15T10:41:20Z</time>
      </trkpt>
      <trkpt lat="45.72141" lon="6.25442">
        <ele>1445.0327053424</ele>
        <time>2013-06-15T10:41:27Z</time>
      </trkpt>
      <trkpt lat="45.72137" lon="6.25475">
        <ele>1447.4409669615</ele>
        <time>2013-06-15T10:41:44Z</time>
      </trkpt>
      <trkpt lat="45.72134" lon="6.25489">
        <ele>1448.86200064</ele>
        <time>2013-06-15T10:41:51Z</time>
      </trkpt>
      <trkpt lat="45.72134" lon="6.25503">
        <ele>1450.22300032</ele>
        <time>2013-06-15T10:41:59Z</time>
      </trkpt>
      <trkpt lat="45.72132" lon="6.25517">
        <ele>1450.92299904</ele>
        <time>2013-06-15T10:42:06Z</time>
      </trkpt>
      <trkpt lat="45.72131" lon="6.25529">
        <ele>1451.63100032</ele>
        <time>2013-06-15T10:42:13Z</time>
      </trkpt>
      <trkpt lat="45.72128" lon="6.25557">
        <ele>1452</ele>
        <time>2013-06-15T10:42:22Z</time>
      </trkpt>
      <trkpt lat="45.72124" lon="6.25579">
        <ele>1451.87700096</ele>
        <time>2013-06-15T10:42:28Z</time>
      </trkpt>
      <trkpt lat="45.72122" lon="6.25604">
        <ele>1451.27700096</ele>
        <time>2013-06-15T10:42:34Z</time>
      </trkpt>
      <trkpt lat="45.7212" lon="6.25628">
        <ele>1451.32299904</ele>
        <time>2013-06-15T10:42:40Z</time>
      </trkpt>
      <trkpt lat="45.7212" lon="6.25653">
        <ele>1452</ele>
        <time>2013-06-15T10:42:48Z</time>
      </trkpt>
      <trkpt lat="45.72126" lon="6.25681">
        <ele>1452</ele>
        <time>2013-06-15T10:42:56Z</time>
      </trkpt>
      <trkpt lat="45.72132" lon="6.25704">
        <ele>1452</ele>
        <time>2013-06-15T10:43:03Z</time>
      </trkpt>
      <trkpt lat="45.7214" lon="6.25718">
        <ele>1452.23100032</ele>
        <time>2013-06-15T10:43:09Z</time>
      </trkpt>
      <trkpt lat="45.72157" lon="6.2573">
        <ele>1453</ele>
        <time>2013-06-15T10:43:17Z</time>
      </trkpt>
      <trkpt lat="45.72172" lon="6.25738">
        <ele>1453</ele>
        <time>2013-06-15T10:43:24Z</time>
      </trkpt>
      <trkpt lat="45.72185" lon="6.25747">
        <ele>1453.32299904</ele>
        <time>2013-06-15T10:43:30Z</time>
      </trkpt>
      <trkpt lat="45.72193" lon="6.25755">
        <ele>1454.02300032</ele>
        <time>2013-06-15T10:43:37Z</time>
      </trkpt>
      <trkpt lat="45.72203" lon="6.25764">
        <ele>1455.23100032</ele>
        <time>2013-06-15T10:43:49Z</time>
      </trkpt>
      <trkpt lat="45.72214" lon="6.25799">
        <ele>1461.46199808</ele>
        <time>2013-06-15T10:44:14Z</time>
      </trkpt>
      <trkpt lat="45.72218" lon="6.25809">
        <ele>1462.6211375038</ele>
        <time>2013-06-15T10:44:23Z</time>
      </trkpt>
      <trkpt lat="45.72224" lon="6.25816">
        <ele>1463.246740625</ele>
        <time>2013-06-15T10:44:28Z</time>
      </trkpt>
      <trkpt lat="45.72233" lon="6.25826">
        <ele>1465</ele>
        <time>2013-06-15T10:44:37Z</time>
      </trkpt>
      <trkpt lat="45.7224" lon="6.25832">
        <ele>1465</ele>
        <time>2013-06-15T10:44:42Z</time>
      </trkpt>
      <trkpt lat="45.72249" lon="6.2584">
        <ele>1465.23100032</ele>
        <time>2013-06-15T10:44:49Z</time>
      </trkpt>
      <trkpt lat="45.72258" lon="6.25847">
        <ele>1466.42299904</ele>
        <time>2013-06-15T10:44:58Z</time>
      </trkpt>
      <trkpt lat="45.72264" lon="6.25851">
        <ele>1467.92299904</ele>
        <time>2013-06-15T10:45:03Z</time>
      </trkpt>
      <trkpt lat="45.72273" lon="6.25855">
        <ele>1468.85900032</ele>
        <time>2013-06-15T10:45:08Z</time>
      </trkpt>
      <trkpt lat="45.72281" lon="6.25859">
        <ele>1468.45900032</ele>
        <time>2013-06-15T10:45:12Z</time>
      </trkpt>
      <trkpt lat="45.72291" lon="6.25863">
        <ele>1468.05900032</ele>
        <time>2013-06-15T10:45:16Z</time>
      </trkpt>
      <trkpt lat="45.72307" lon="6.25869">
        <ele>1466.93400064</ele>
        <time>2013-06-15T10:45:22Z</time>
      </trkpt>
      <trkpt lat="45.72321" lon="6.25882">
        <ele>1465.86900096</ele>
        <time>2013-06-15T10:45:28Z</time>
      </trkpt>
      <trkpt lat="45.72332" lon="6.25895">
        <ele>1465.46900096</ele>
        <time>2013-06-15T10:45:32Z</time>
      </trkpt>
      <trkpt lat="45.72342" lon="6.25902">
        <ele>1465.0329667238</ele>
        <time>2013-06-15T10:45:37Z</time>
      </trkpt>
      <trkpt lat="45.72353" lon="6.25909">
        <ele>1466.0400400272</ele>
        <time>2013-06-15T10:45:47Z</time>
      </trkpt>
      <trkpt lat="45.72364" lon="6.2591">
        <ele>1466.6406404354</ele>
        <time>2013-06-15T10:45:53Z</time>
      </trkpt>
      <trkpt lat="45.72376" lon="6.25913">
        <ele>1466.5774234014</ele>
        <time>2013-06-15T10:45:58Z</time>
      </trkpt>
      <trkpt lat="45.72398" lon="6.25925">
        <ele>1464.2097921949</ele>
        <time>2013-06-15T10:46:06Z</time>
      </trkpt>
      <trkpt lat="45.72408" lon="6.25935">
        <ele>1464.3303295839</ele>
        <time>2013-06-15T10:46:10Z</time>
      </trkpt>
      <trkpt lat="45.72415" lon="6.25946">
        <ele>1464.730729856</ele>
        <time>2013-06-15T10:46:14Z</time>
      </trkpt>
      <trkpt lat="45.72424" lon="6.25957">
        <ele>1465</ele>
        <time>2013-06-15T10:46:19Z</time>
      </trkpt>
      <trkpt lat="45.72435" lon="6.25962">
        <ele>1465</ele>
        <time>2013-06-15T10:46:24Z</time>
      </trkpt>
      <trkpt lat="45.72448" lon="6.25967">
        <ele>1465</ele>
        <time>2013-06-15T10:46:29Z</time>
      </trkpt>
      <trkpt lat="45.72457" lon="6.25983">
        <ele>1465</ele>
        <time>2013-06-15T10:46:33Z</time>
      </trkpt>
      <trkpt lat="45.72461" lon="6.25997">
        <ele>1464.9610386289</ele>
        <time>2013-06-15T10:46:37Z</time>
      </trkpt>
      <trkpt lat="45.72464" lon="6.2601">
        <ele>1464.5614381016</ele>
        <time>2013-06-15T10:46:41Z</time>
      </trkpt>
      <trkpt lat="45.7247" lon="6.26026">
        <ele>1464.0619387211</ele>
        <time>2013-06-15T10:46:46Z</time>
      </trkpt>
      <trkpt lat="45.72476" lon="6.2604">
        <ele>1464</ele>
        <time>2013-06-15T10:46:50Z</time>
      </trkpt>
      <trkpt lat="45.72485" lon="6.26052">
        <ele>1464</ele>
        <time>2013-06-15T10:46:55Z</time>
      </trkpt>
      <trkpt lat="45.72496" lon="6.26061">
        <ele>1463.3386630453</ele>
        <time>2013-06-15T10:47:00Z</time>
      </trkpt>
      <trkpt lat="45.72506" lon="6.26068">
        <ele>1462.5394619906</ele>
        <time>2013-06-15T10:47:04Z</time>
      </trkpt>
      <trkpt lat="45.72519" lon="6.26077">
        <ele>1462</ele>
        <time>2013-06-15T10:47:09Z</time>
      </trkpt>
      <trkpt lat="45.72533" lon="6.26088">
        <ele>1462</ele>
        <time>2013-06-15T10:47:15Z</time>
      </trkpt>
      <trkpt lat="45.72543" lon="6.261">
        <ele>1462</ele>
        <time>2013-06-15T10:47:20Z</time>
      </trkpt>
      <trkpt lat="45.72554" lon="6.26112">
        <ele>1462</ele>
        <time>2013-06-15T10:47:25Z</time>
      </trkpt>
      <trkpt lat="45.72575" lon="6.26136">
        <ele>1462</ele>
        <time>2013-06-15T10:47:36Z</time>
      </trkpt>
      <trkpt lat="45.72588" lon="6.26141">
        <ele>1461.564</ele>
        <time>2013-06-15T10:47:41Z</time>
      </trkpt>
      <trkpt lat="45.72599" lon="6.26145">
        <ele>1461.06900096</ele>
        <time>2013-06-15T10:47:46Z</time>
      </trkpt>
      <trkpt lat="45.72609" lon="6.26147">
        <ele>1461</ele>
        <time>2013-06-15T10:47:50Z</time>
      </trkpt>
      <trkpt lat="45.72621" lon="6.26148">
        <ele>1461</ele>
        <time>2013-06-15T10:47:55Z</time>
      </trkpt>
      <trkpt lat="45.72632" lon="6.26148">
        <ele>1461</ele>
        <time>2013-06-15T10:47:59Z</time>
      </trkpt>
      <trkpt lat="45.72644" lon="6.26149">
        <ele>1461</ele>
        <time>2013-06-15T10:48:04Z</time>
      </trkpt>
      <trkpt lat="45.72654" lon="6.26153">
        <ele>1460.7182822676</ele>
        <time>2013-06-15T10:48:08Z</time>
      </trkpt>
      <trkpt lat="45.72667" lon="6.26159">
        <ele>1459.7192809492</ele>
        <time>2013-06-15T10:48:13Z</time>
      </trkpt>
      <trkpt lat="45.72678" lon="6.26163">
        <ele>1458.808</ele>
        <time>2013-06-15T10:48:17Z</time>
      </trkpt>
      <trkpt lat="45.72692" lon="6.26173">
        <ele>1455.808</ele>
        <time>2013-06-15T10:48:22Z</time>
      </trkpt>
      <trkpt lat="45.72701" lon="6.26182">
        <ele>1453.064</ele>
        <time>2013-06-15T10:48:27Z</time>
      </trkpt>
      <trkpt lat="45.72713" lon="6.26187">
        <ele>1454.064</ele>
        <time>2013-06-15T10:48:32Z</time>
      </trkpt>
      <trkpt lat="45.72725" lon="6.26196">
        <ele>1455</ele>
        <time>2013-06-15T10:48:38Z</time>
      </trkpt>
      <trkpt lat="45.72735" lon="6.26203">
        <ele>1455</ele>
        <time>2013-06-15T10:48:42Z</time>
      </trkpt>
      <trkpt lat="45.72744" lon="6.26208">
        <ele>1455</ele>
        <time>2013-06-15T10:48:46Z</time>
      </trkpt>
      <trkpt lat="45.72757" lon="6.26215">
        <ele>1454.1188814766</ele>
        <time>2013-06-15T10:48:51Z</time>
      </trkpt>
      <trkpt lat="45.72766" lon="6.26225">
        <ele>1453.3196804219</ele>
        <time>2013-06-15T10:48:55Z</time>
      </trkpt>
      <trkpt lat="45.72779" lon="6.26252">
        <ele>1446.6</ele>
        <time>2013-06-15T10:49:03Z</time>
      </trkpt>
      <trkpt lat="45.72783" lon="6.26262">
        <ele>1443.6</ele>
        <time>2013-06-15T10:49:06Z</time>
      </trkpt>
      <trkpt lat="45.72791" lon="6.26275">
        <ele>1441.24</ele>
        <time>2013-06-15T10:49:11Z</time>
      </trkpt>
      <trkpt lat="45.72803" lon="6.26285">
        <ele>1439.23600128</ele>
        <time>2013-06-15T10:49:16Z</time>
      </trkpt>
      <trkpt lat="45.72815" lon="6.26288">
        <ele>1438.12</ele>
        <time>2013-06-15T10:49:21Z</time>
      </trkpt>
      <trkpt lat="45.72825" lon="6.26287">
        <ele>1437.33999872</ele>
        <time>2013-06-15T10:49:25Z</time>
      </trkpt>
      <trkpt lat="45.72838" lon="6.26286">
        <ele>1436.34000128</ele>
        <time>2013-06-15T10:49:30Z</time>
      </trkpt>
      <trkpt lat="45.72851" lon="6.26285">
        <ele>1435.33999872</ele>
        <time>2013-06-15T10:49:35Z</time>
      </trkpt>
      <trkpt lat="45.72863" lon="6.26289">
        <ele>1434.76999936</ele>
        <time>2013-06-15T10:49:39Z</time>
      </trkpt>
      <trkpt lat="45.72877" lon="6.26293">
        <ele>1434.27000064</ele>
        <time>2013-06-15T10:49:44Z</time>
      </trkpt>
      <trkpt lat="45.7289" lon="6.26297">
        <ele>1433.07999744</ele>
        <time>2013-06-15T10:49:49Z</time>
      </trkpt>
      <trkpt lat="45.72902" lon="6.26307">
        <ele>1431.04</ele>
        <time>2013-06-15T10:49:54Z</time>
      </trkpt>
      <trkpt lat="45.72915" lon="6.26316">
        <ele>1428.9820352779</ele>
        <time>2013-06-15T10:50:00Z</time>
      </trkpt>
      <trkpt lat="45.72925" lon="6.26325">
        <ele>1427.4850283338</ele>
        <time>2013-06-15T10:50:05Z</time>
      </trkpt>
      <trkpt lat="45.7294" lon="6.26333">
        <ele>1425.2748235669</ele>
        <time>2013-06-15T10:50:11Z</time>
      </trkpt>
      <trkpt lat="45.72953" lon="6.26347">
        <ele>1422.8051931445</ele>
        <time>2013-06-15T10:50:17Z</time>
      </trkpt>
      <trkpt lat="45.72964" lon="6.26357">
        <ele>1420.3076962422</ele>
        <time>2013-06-15T10:50:22Z</time>
      </trkpt>
      <trkpt lat="45.72975" lon="6.26361">
        <ele>1417.076</ele>
        <time>2013-06-15T10:50:28Z</time>
      </trkpt>
      <trkpt lat="45.73004" lon="6.26361">
        <ele>1407.16</ele>
        <time>2013-06-15T10:50:43Z</time>
      </trkpt>
      <trkpt lat="45.73011" lon="6.2638">
        <ele>1404.76</ele>
        <time>2013-06-15T10:50:47Z</time>
      </trkpt>
      <trkpt lat="45.73017" lon="6.26397">
        <ele>1402.36</ele>
        <time>2013-06-15T10:50:51Z</time>
      </trkpt>
      <trkpt lat="45.73021" lon="6.26413">
        <ele>1399.96</ele>
        <time>2013-06-15T10:50:55Z</time>
      </trkpt>
      <trkpt lat="45.73023" lon="6.26428">
        <ele>1396.28</ele>
        <time>2013-06-15T10:51:00Z</time>
      </trkpt>
      <trkpt lat="45.73037" lon="6.26435">
        <ele>1390.872</ele>
        <time>2013-06-15T10:51:07Z</time>
      </trkpt>
      <trkpt lat="45.73049" lon="6.26437">
        <ele>1388.472</ele>
        <time>2013-06-15T10:51:13Z</time>
      </trkpt>
      <trkpt lat="45.7306" lon="6.26432">
        <ele>1385.49499776</ele>
        <time>2013-06-15T10:51:19Z</time>
      </trkpt>
      <trkpt lat="45.73071" lon="6.26439">
        <ele>1381.99499776</ele>
        <time>2013-06-15T10:51:24Z</time>
      </trkpt>
      <trkpt lat="45.73073" lon="6.26463">
        <ele>1378.3500032</ele>
        <time>2013-06-15T10:51:30Z</time>
      </trkpt>
      <trkpt lat="45.73064" lon="6.26472">
        <ele>1376.3500032</ele>
        <time>2013-06-15T10:51:34Z</time>
      </trkpt>
      <trkpt lat="45.73054" lon="6.26482">
        <ele>1374.61000192</ele>
        <time>2013-06-15T10:51:38Z</time>
      </trkpt>
      <trkpt lat="45.73047" lon="6.26487">
        <ele>1373.70999808</ele>
        <time>2013-06-15T10:51:41Z</time>
      </trkpt>
      <trkpt lat="45.7304" lon="6.26493">
        <ele>1372.81000192</ele>
        <time>2013-06-15T10:51:44Z</time>
      </trkpt>
      <trkpt lat="45.73034" lon="6.26498">
        <ele>1372.21000192</ele>
        <time>2013-06-15T10:51:46Z</time>
      </trkpt>
      <trkpt lat="45.73026" lon="6.26502">
        <ele>1371.11199744</ele>
        <time>2013-06-15T10:51:49Z</time>
      </trkpt>
      <trkpt lat="45.73017" lon="6.26513">
        <ele>1368.71199744</ele>
        <time>2013-06-15T10:51:55Z</time>
      </trkpt>
      <trkpt lat="45.73031" lon="6.26522">
        <ele>1366.73399808</ele>
        <time>2013-06-15T10:52:01Z</time>
      </trkpt>
      <trkpt lat="45.73045" lon="6.26537">
        <ele>1363.73999872</ele>
        <time>2013-06-15T10:52:13Z</time>
      </trkpt>
      <trkpt lat="45.73035" lon="6.26542">
        <ele>1363.14000128</ele>
        <time>2013-06-15T10:52:16Z</time>
      </trkpt>
      <trkpt lat="45.73025" lon="6.26546">
        <ele>1361.8499968</ele>
        <time>2013-06-15T10:52:19Z</time>
      </trkpt>
      <trkpt lat="45.73017" lon="6.26549">
        <ele>1360.3500032</ele>
        <time>2013-06-15T10:52:22Z</time>
      </trkpt>
      <trkpt lat="45.73009" lon="6.26552">
        <ele>1358.8499968</ele>
        <time>2013-06-15T10:52:25Z</time>
      </trkpt>
      <trkpt lat="45.73001" lon="6.26556">
        <ele>1357.488</ele>
        <time>2013-06-15T10:52:28Z</time>
      </trkpt>
      <trkpt lat="45.72994" lon="6.2656">
        <ele>1356.288</ele>
        <time>2013-06-15T10:52:31Z</time>
      </trkpt>
      <trkpt lat="45.72986" lon="6.26566">
        <ele>1355.088</ele>
        <time>2013-06-15T10:52:34Z</time>
      </trkpt>
      <trkpt lat="45.7298" lon="6.26572">
        <ele>1353.8499968</ele>
        <time>2013-06-15T10:52:37Z</time>
      </trkpt>
      <trkpt lat="45.72973" lon="6.26578">
        <ele>1352.3500032</ele>
        <time>2013-06-15T10:52:40Z</time>
      </trkpt>
      <trkpt lat="45.72966" lon="6.26583">
        <ele>1350.8499968</ele>
        <time>2013-06-15T10:52:43Z</time>
      </trkpt>
      <trkpt lat="45.7296" lon="6.26588">
        <ele>1349.3500032</ele>
        <time>2013-06-15T10:52:46Z</time>
      </trkpt>
      <trkpt lat="45.72952" lon="6.26592">
        <ele>1348.081833186</ele>
        <time>2013-06-15T10:52:49Z</time>
      </trkpt>
      <trkpt lat="45.72945" lon="6.26596">
        <ele>1346.8842327404</ele>
        <time>2013-06-15T10:52:52Z</time>
      </trkpt>
      <trkpt lat="45.72938" lon="6.266">
        <ele>1345.6866220753</ele>
        <time>2013-06-15T10:52:55Z</time>
      </trkpt>
      <trkpt lat="45.72931" lon="6.26605">
        <ele>1344.3987979807</ele>
        <time>2013-06-15T10:52:58Z</time>
      </trkpt>
      <trkpt lat="45.72925" lon="6.2661">
        <ele>1342.8957865197</ele>
        <time>2013-06-15T10:53:01Z</time>
      </trkpt>
      <trkpt lat="45.72918" lon="6.26614">
        <ele>1341.3927878844</ele>
        <time>2013-06-15T10:53:04Z</time>
      </trkpt>
      <trkpt lat="45.72905" lon="6.26624">
        <ele>1338.71200256</ele>
        <time>2013-06-15T10:53:10Z</time>
      </trkpt>
      <trkpt lat="45.72899" lon="6.2663">
        <ele>1337.51199744</ele>
        <time>2013-06-15T10:53:13Z</time>
      </trkpt>
      <trkpt lat="45.72891" lon="6.26638">
        <ele>1335.90000128</ele>
        <time>2013-06-15T10:53:17Z</time>
      </trkpt>
      <trkpt lat="45.72882" lon="6.26646">
        <ele>1334.30000128</ele>
        <time>2013-06-15T10:53:21Z</time>
      </trkpt>
      <trkpt lat="45.72875" lon="6.26654">
        <ele>1332.70000128</ele>
        <time>2013-06-15T10:53:25Z</time>
      </trkpt>
      <trkpt lat="45.72867" lon="6.26662">
        <ele>1330.32</ele>
        <time>2013-06-15T10:53:29Z</time>
      </trkpt>
      <trkpt lat="45.72858" lon="6.2667">
        <ele>1327.52</ele>
        <time>2013-06-15T10:53:33Z</time>
      </trkpt>
      <trkpt lat="45.72852" lon="6.26677">
        <ele>1325.42</ele>
        <time>2013-06-15T10:53:36Z</time>
      </trkpt>
      <trkpt lat="45.72844" lon="6.26686">
        <ele>1324.5195196734</ele>
        <time>2013-06-15T10:53:39Z</time>
      </trkpt>
      <trkpt lat="45.72837" lon="6.26694">
        <ele>1323.9189192652</ele>
        <time>2013-06-15T10:53:42Z</time>
      </trkpt>
      <trkpt lat="45.7283" lon="6.26702">
        <ele>1323.318318857</ele>
        <time>2013-06-15T10:53:45Z</time>
      </trkpt>
      <trkpt lat="45.72824" lon="6.2671">
        <ele>1322.8591411338</ele>
        <time>2013-06-15T10:53:48Z</time>
      </trkpt>
      <trkpt lat="45.72817" lon="6.2672">
        <ele>1322.4595406064</ele>
        <time>2013-06-15T10:53:52Z</time>
      </trkpt>
      <trkpt lat="45.72809" lon="6.2673">
        <ele>1322.0599400791</ele>
        <time>2013-06-15T10:53:56Z</time>
      </trkpt>
      <trkpt lat="45.72798" lon="6.26741">
        <ele>1318.04</ele>
        <time>2013-06-15T10:54:01Z</time>
      </trkpt>
      <trkpt lat="45.72792" lon="6.26747">
        <ele>1315.34</ele>
        <time>2013-06-15T10:54:04Z</time>
      </trkpt>
      <trkpt lat="45.72786" lon="6.26754">
        <ele>1312.8398398911</ele>
        <time>2013-06-15T10:54:07Z</time>
      </trkpt>
      <trkpt lat="45.72779" lon="6.26761">
        <ele>1311.6386390747</ele>
        <time>2013-06-15T10:54:10Z</time>
      </trkpt>
      <trkpt lat="45.72764" lon="6.26777">
        <ele>1308.936</ele>
        <time>2013-06-15T10:54:17Z</time>
      </trkpt>
      <trkpt lat="45.72756" lon="6.26784">
        <ele>1307.336</ele>
        <time>2013-06-15T10:54:21Z</time>
      </trkpt>
      <trkpt lat="45.72748" lon="6.26791">
        <ele>1305.736</ele>
        <time>2013-06-15T10:54:25Z</time>
      </trkpt>
      <trkpt lat="45.72742" lon="6.26802">
        <ele>1303.8511516807</ele>
        <time>2013-06-15T10:54:29Z</time>
      </trkpt>
      <trkpt lat="45.72746" lon="6.26815">
        <ele>1300.8591411338</ele>
        <time>2013-06-15T10:54:35Z</time>
      </trkpt>
      <trkpt lat="45.72751" lon="6.26827">
        <ele>1299.5395384057</ele>
        <time>2013-06-15T10:54:39Z</time>
      </trkpt>
      <trkpt lat="45.72759" lon="6.26835">
        <ele>1298.7387378615</ele>
        <time>2013-06-15T10:54:43Z</time>
      </trkpt>
      <trkpt lat="45.72767" lon="6.26841">
        <ele>1297.8441596305</ele>
        <time>2013-06-15T10:54:47Z</time>
      </trkpt>
      <trkpt lat="45.72775" lon="6.26851">
        <ele>1295.4465564664</ele>
        <time>2013-06-15T10:54:51Z</time>
      </trkpt>
      <trkpt lat="45.72783" lon="6.2686">
        <ele>1293.0489533024</ele>
        <time>2013-06-15T10:54:55Z</time>
      </trkpt>
      <trkpt lat="45.72791" lon="6.26865">
        <ele>1290.812</ele>
        <time>2013-06-15T10:54:58Z</time>
      </trkpt>
      <trkpt lat="45.728" lon="6.2687">
        <ele>1286.312</ele>
        <time>2013-06-15T10:55:03Z</time>
      </trkpt>
      <trkpt lat="45.72809" lon="6.26875">
        <ele>1281.95199744</ele>
        <time>2013-06-15T10:55:08Z</time>
      </trkpt>
      <trkpt lat="45.72818" lon="6.26878">
        <ele>1278.75199744</ele>
        <time>2013-06-15T10:55:12Z</time>
      </trkpt>
      <trkpt lat="45.72828" lon="6.26882">
        <ele>1276.35199744</ele>
        <time>2013-06-15T10:55:15Z</time>
      </trkpt>
      <trkpt lat="45.72837" lon="6.26886">
        <ele>1274.304</ele>
        <time>2013-06-15T10:55:19Z</time>
      </trkpt>
      <trkpt lat="45.72848" lon="6.26883">
        <ele>1272.804</ele>
        <time>2013-06-15T10:55:24Z</time>
      </trkpt>
      <trkpt lat="45.72858" lon="6.26881">
        <ele>1272</ele>
        <time>2013-06-15T10:55:28Z</time>
      </trkpt>
      <trkpt lat="45.72878" lon="6.26882">
        <ele>1272</ele>
        <time>2013-06-15T10:55:36Z</time>
      </trkpt>
      <trkpt lat="45.72889" lon="6.26884">
        <ele>1269.3776026569</ele>
        <time>2013-06-15T10:55:41Z</time>
      </trkpt>
      <trkpt lat="45.72902" lon="6.26886">
        <ele>1265.9576593548</ele>
        <time>2013-06-15T10:55:47Z</time>
      </trkpt>
      <trkpt lat="45.72917" lon="6.26884">
        <ele>1264.1431432258</ele>
        <time>2013-06-15T10:55:53Z</time>
      </trkpt>
      <trkpt lat="45.72929" lon="6.26886">
        <ele>1263.2358890323</ele>
        <time>2013-06-15T10:55:56Z</time>
      </trkpt>
      <trkpt lat="45.72944" lon="6.26887">
        <ele>1261.70999808</ele>
        <time>2013-06-15T10:56:01Z</time>
      </trkpt>
      <trkpt lat="45.72955" lon="6.26892">
        <ele>1260.50999808</ele>
        <time>2013-06-15T10:56:05Z</time>
      </trkpt>
      <trkpt lat="45.72965" lon="6.26894">
        <ele>1259.07999744</ele>
        <time>2013-06-15T10:56:09Z</time>
      </trkpt>
      <trkpt lat="45.72976" lon="6.26898">
        <ele>1257.47999744</ele>
        <time>2013-06-15T10:56:13Z</time>
      </trkpt>
      <trkpt lat="45.72987" lon="6.26899">
        <ele>1255.9779773444</ele>
        <time>2013-06-15T10:56:17Z</time>
      </trkpt>
      <trkpt lat="45.72997" lon="6.26901">
        <ele>1255.5775770723</ele>
        <time>2013-06-15T10:56:21Z</time>
      </trkpt>
      <trkpt lat="45.73008" lon="6.26902">
        <ele>1255.1771768001</ele>
        <time>2013-06-15T10:56:25Z</time>
      </trkpt>
      <trkpt lat="45.73019" lon="6.26902">
        <ele>1254.7692303758</ele>
        <time>2013-06-15T10:56:29Z</time>
      </trkpt>
      <trkpt lat="45.73032" lon="6.269">
        <ele>1254.2697309953</ele>
        <time>2013-06-15T10:56:34Z</time>
      </trkpt>
      <trkpt lat="45.73045" lon="6.26893">
        <ele>1252.68000256</ele>
        <time>2013-06-15T10:56:40Z</time>
      </trkpt>
      <trkpt lat="45.73059" lon="6.26896">
        <ele>1250.67999744</ele>
        <time>2013-06-15T10:56:45Z</time>
      </trkpt>
      <trkpt lat="45.73069" lon="6.26902">
        <ele>1249.07999744</ele>
        <time>2013-06-15T10:56:49Z</time>
      </trkpt>
      <trkpt lat="45.7308" lon="6.26916">
        <ele>1247.08000256</ele>
        <time>2013-06-15T10:56:54Z</time>
      </trkpt>
      <trkpt lat="45.73098" lon="6.26937">
        <ele>1241.3900032</ele>
        <time>2013-06-15T10:57:06Z</time>
      </trkpt>
      <trkpt lat="45.73108" lon="6.26945">
        <ele>1240.13999872</ele>
        <time>2013-06-15T10:57:11Z</time>
      </trkpt>
      <trkpt lat="45.73118" lon="6.2695">
        <ele>1239.14000128</ele>
        <time>2013-06-15T10:57:16Z</time>
      </trkpt>
      <trkpt lat="45.73127" lon="6.26956">
        <ele>1236.3449984</ele>
        <time>2013-06-15T10:57:22Z</time>
      </trkpt>
      <trkpt lat="45.73138" lon="6.26955">
        <ele>1234</ele>
        <time>2013-06-15T10:57:27Z</time>
      </trkpt>
      <trkpt lat="45.73149" lon="6.26953">
        <ele>1234</ele>
        <time>2013-06-15T10:57:31Z</time>
      </trkpt>
      <trkpt lat="45.73159" lon="6.26951">
        <ele>1234</ele>
        <time>2013-06-15T10:57:35Z</time>
      </trkpt>
      <trkpt lat="45.73171" lon="6.26949">
        <ele>1233.66900096</ele>
        <time>2013-06-15T10:57:40Z</time>
      </trkpt>
      <trkpt lat="45.73182" lon="6.26947">
        <ele>1233.16899968</ele>
        <time>2013-06-15T10:57:45Z</time>
      </trkpt>
      <trkpt lat="45.73197" lon="6.26946">
        <ele>1231.056</ele>
        <time>2013-06-15T10:57:50Z</time>
      </trkpt>
      <trkpt lat="45.73211" lon="6.26945">
        <ele>1228.06199808</ele>
        <time>2013-06-15T10:57:55Z</time>
      </trkpt>
      <trkpt lat="45.73224" lon="6.26943">
        <ele>1226.6693315227</ele>
        <time>2013-06-15T10:58:00Z</time>
      </trkpt>
      <trkpt lat="45.73239" lon="6.26946">
        <ele>1225.96999936</ele>
        <time>2013-06-15T10:58:07Z</time>
      </trkpt>
      <trkpt lat="45.73253" lon="6.26953">
        <ele>1225.07000064</ele>
        <time>2013-06-15T10:58:16Z</time>
      </trkpt>
      <trkpt lat="45.73269" lon="6.26951">
        <ele>1223.9389405601</ele>
        <time>2013-06-15T10:58:22Z</time>
      </trkpt>
      <trkpt lat="45.73283" lon="6.2695">
        <ele>1222.9690923732</ele>
        <time>2013-06-15T10:58:27Z</time>
      </trkpt>
      <trkpt lat="45.73298" lon="6.26946">
        <ele>1222.4705886857</ele>
        <time>2013-06-15T10:58:32Z</time>
      </trkpt>
      <trkpt lat="45.73312" lon="6.26942">
        <ele>1221.9769304936</ele>
        <time>2013-06-15T10:58:37Z</time>
      </trkpt>
      <trkpt lat="45.73344" lon="6.26944">
        <ele>1221</ele>
        <time>2013-06-15T10:58:48Z</time>
      </trkpt>
      <trkpt lat="45.73356" lon="6.2696">
        <ele>1221</ele>
        <time>2013-06-15T10:58:52Z</time>
      </trkpt>
      <trkpt lat="45.73363" lon="6.26981">
        <ele>1220.868</ele>
        <time>2013-06-15T10:58:58Z</time>
      </trkpt>
      <trkpt lat="45.73363" lon="6.27005">
        <ele>1220.168</ele>
        <time>2013-06-15T10:59:05Z</time>
      </trkpt>
      <trkpt lat="45.73363" lon="6.27026">
        <ele>1220</ele>
        <time>2013-06-15T10:59:13Z</time>
      </trkpt>
      <trkpt lat="45.73365" lon="6.27043">
        <ele>1220</ele>
        <time>2013-06-15T10:59:28Z</time>
      </trkpt>
      <trkpt lat="45.7338" lon="6.27044">
        <ele>1219.5684314305</ele>
        <time>2013-06-15T10:59:39Z</time>
      </trkpt>
      <trkpt lat="45.73395" lon="6.27051">
        <ele>1217.93999872</ele>
        <time>2013-06-15T10:59:47Z</time>
      </trkpt>
      <trkpt lat="45.7341" lon="6.27063">
        <ele>1216.54000128</ele>
        <time>2013-06-15T10:59:54Z</time>
      </trkpt>
      <trkpt lat="45.73422" lon="6.27081">
        <ele>1215.00699904</ele>
        <time>2013-06-15T11:00:00Z</time>
      </trkpt>
      <trkpt lat="45.7343" lon="6.27102">
        <ele>1213.21000192</ele>
        <time>2013-06-15T11:00:06Z</time>
      </trkpt>
      <trkpt lat="45.73436" lon="6.27126">
        <ele>1213.72999936</ele>
        <time>2013-06-15T11:00:14Z</time>
      </trkpt>
      <trkpt lat="45.73439" lon="6.27144">
        <ele>1214.22200064</ele>
        <time>2013-06-15T11:00:19Z</time>
      </trkpt>
      <trkpt lat="45.73444" lon="6.27159">
        <ele>1215.0600613221</ele>
        <time>2013-06-15T11:00:27Z</time>
      </trkpt>
      <trkpt lat="45.73448" lon="6.27179">
        <ele>1217.0228177778</ele>
        <time>2013-06-15T11:00:37Z</time>
      </trkpt>
      <trkpt lat="45.73449" lon="6.27198">
        <ele>1218.1239909677</ele>
        <time>2013-06-15T11:00:48Z</time>
      </trkpt>
      <trkpt lat="45.73441" lon="6.27214">
        <ele>1221.16899712</ele>
        <time>2013-06-15T11:01:04Z</time>
      </trkpt>
      <trkpt lat="45.73441" lon="6.27233">
        <ele>1224.838454815</ele>
        <time>2013-06-15T11:01:21Z</time>
      </trkpt>
      <trkpt lat="45.73459" lon="6.27255">
        <ele>1232</ele>
        <time>2013-06-15T11:01:48Z</time>
      </trkpt>
      <trkpt lat="45.73468" lon="6.2727">
        <ele>1234.96399872</ele>
        <time>2013-06-15T11:02:04Z</time>
      </trkpt>
      <trkpt lat="45.73473" lon="6.27283">
        <ele>1237.48199936</ele>
        <time>2013-06-15T11:02:14Z</time>
      </trkpt>
      <trkpt lat="45.73478" lon="6.27296">
        <ele>1238</ele>
        <time>2013-06-15T11:02:23Z</time>
      </trkpt>
      <trkpt lat="45.73487" lon="6.27307">
        <ele>1241.33199872</ele>
        <time>2013-06-15T11:02:35Z</time>
      </trkpt>
      <trkpt lat="45.73491" lon="6.27321">
        <ele>1242.94099968</ele>
        <time>2013-06-15T11:02:46Z</time>
      </trkpt>
      <trkpt lat="45.73494" lon="6.27333">
        <ele>1244.67800064</ele>
        <time>2013-06-15T11:02:55Z</time>
      </trkpt>
      <trkpt lat="45.73498" lon="6.27347">
        <ele>1250</ele>
        <time>2013-06-15T11:03:08Z</time>
      </trkpt>
      <trkpt lat="45.73504" lon="6.27358">
        <ele>1250.04600064</ele>
        <time>2013-06-15T11:03:17Z</time>
      </trkpt>
      <trkpt lat="45.73511" lon="6.27373">
        <ele>1252.84600064</ele>
        <time>2013-06-15T11:03:31Z</time>
      </trkpt>
      <trkpt lat="45.7352" lon="6.27382">
        <ele>1254.32299904</ele>
        <time>2013-06-15T11:03:40Z</time>
      </trkpt>
      <trkpt lat="45.73529" lon="6.27399">
        <ele>1255</ele>
        <time>2013-06-15T11:03:48Z</time>
      </trkpt>
      <trkpt lat="45.73542" lon="6.27408">
        <ele>1254.8595724522</ele>
        <time>2013-06-15T11:03:57Z</time>
      </trkpt>
      <trkpt lat="45.73553" lon="6.27415">
        <ele>1250.847540207</ele>
        <time>2013-06-15T11:04:05Z</time>
      </trkpt>
      <trkpt lat="45.73561" lon="6.27428">
        <ele>1250</ele>
        <time>2013-06-15T11:04:15Z</time>
      </trkpt>
      <trkpt lat="45.7356" lon="6.27446">
        <ele>1249.0697683448</ele>
        <time>2013-06-15T11:04:26Z</time>
      </trkpt>
      <trkpt lat="45.73558" lon="6.2746">
        <ele>1248.36899968</ele>
        <time>2013-06-15T11:04:33Z</time>
      </trkpt>
      <trkpt lat="45.73552" lon="6.2748">
        <ele>1243.01399808</ele>
        <time>2013-06-15T11:04:45Z</time>
      </trkpt>
      <trkpt lat="45.73536" lon="6.27496">
        <ele>1240.84099968</ele>
        <time>2013-06-15T11:05:05Z</time>
      </trkpt>
      <trkpt lat="45.73526" lon="6.27501">
        <ele>1245.0301185542</ele>
        <time>2013-06-15T11:05:20Z</time>
      </trkpt>
      <trkpt lat="45.73519" lon="6.27492">
        <ele>1249</ele>
        <time>2013-06-15T11:05:34Z</time>
      </trkpt>
      <trkpt lat="45.73512" lon="6.27486">
        <ele>1250.4814810069</ele>
        <time>2013-06-15T11:05:44Z</time>
      </trkpt>
      <trkpt lat="45.73508" lon="6.27475">
        <ele>1251.94099968</ele>
        <time>2013-06-15T11:05:56Z</time>
      </trkpt>
      <trkpt lat="45.73501" lon="6.27466">
        <ele>1253.88199936</ele>
        <time>2013-06-15T11:06:06Z</time>
      </trkpt>
      <trkpt lat="45.73493" lon="6.27457">
        <ele>1256.26599936</ele>
        <time>2013-06-15T11:06:18Z</time>
      </trkpt>
      <trkpt lat="45.73486" lon="6.27446">
        <ele>1258.0329667238</ele>
        <time>2013-06-15T11:06:27Z</time>
      </trkpt>
      <trkpt lat="45.73486" lon="6.27434">
        <ele>1259.0880906224</ele>
        <time>2013-06-15T11:06:37Z</time>
      </trkpt>
      <trkpt lat="45.73477" lon="6.27424">
        <ele>1262.65900032</ele>
        <time>2013-06-15T11:06:50Z</time>
      </trkpt>
      <trkpt lat="45.73465" lon="6.27415">
        <ele>1261.6779667506</ele>
        <time>2013-06-15T11:07:00Z</time>
      </trkpt>
      <trkpt lat="45.73453" lon="6.27416">
        <ele>1261.2587780056</ele>
        <time>2013-06-15T11:07:08Z</time>
      </trkpt>
      <trkpt lat="45.73442" lon="6.27421">
        <ele>1262.8635909037</ele>
        <time>2013-06-15T11:07:16Z</time>
      </trkpt>
      <trkpt lat="45.73434" lon="6.27432">
        <ele>1263</ele>
        <time>2013-06-15T11:07:24Z</time>
      </trkpt>
      <trkpt lat="45.73423" lon="6.27444">
        <ele>1263</ele>
        <time>2013-06-15T11:07:34Z</time>
      </trkpt>
      <trkpt lat="45.73411" lon="6.27449">
        <ele>1263.34099968</ele>
        <time>2013-06-15T11:07:40Z</time>
      </trkpt>
      <trkpt lat="45.734" lon="6.27456">
        <ele>1263.94099968</ele>
        <time>2013-06-15T11:07:46Z</time>
      </trkpt>
      <trkpt lat="45.73388" lon="6.27464">
        <ele>1264</ele>
        <time>2013-06-15T11:07:51Z</time>
      </trkpt>
      <trkpt lat="45.73363" lon="6.27475">
        <ele>1263.56899968</ele>
        <time>2013-06-15T11:08:01Z</time>
      </trkpt>
      <trkpt lat="45.73349" lon="6.27477">
        <ele>1262.86900096</ele>
        <time>2013-06-15T11:08:08Z</time>
      </trkpt>
      <trkpt lat="45.73334" lon="6.27475">
        <ele>1262.16899968</ele>
        <time>2013-06-15T11:08:15Z</time>
      </trkpt>
      <trkpt lat="45.73318" lon="6.27477">
        <ele>1258.8988114286</ele>
        <time>2013-06-15T11:08:22Z</time>
      </trkpt>
      <trkpt lat="45.73303" lon="6.27486">
        <ele>1255.1017104054</ele>
        <time>2013-06-15T11:08:29Z</time>
      </trkpt>
      <trkpt lat="45.73291" lon="6.27498">
        <ele>1252.2819764856</ele>
        <time>2013-06-15T11:08:36Z</time>
      </trkpt>
      <trkpt lat="45.7328" lon="6.27511">
        <ele>1249.81000192</ele>
        <time>2013-06-15T11:08:44Z</time>
      </trkpt>
      <trkpt lat="45.73269" lon="6.27528">
        <ele>1247.538540288</ele>
        <time>2013-06-15T11:08:54Z</time>
      </trkpt>
      <trkpt lat="45.73259" lon="6.27543">
        <ele>1245.40700288</ele>
        <time>2013-06-15T11:09:02Z</time>
      </trkpt>
      <trkpt lat="45.73248" lon="6.2756">
        <ele>1242.7092941328</ele>
        <time>2013-06-15T11:09:10Z</time>
      </trkpt>
      <trkpt lat="45.73232" lon="6.27573">
        <ele>1239.95599872</ele>
        <time>2013-06-15T11:09:17Z</time>
      </trkpt>
      <trkpt lat="45.73219" lon="6.27574">
        <ele>1238.75599872</ele>
        <time>2013-06-15T11:09:23Z</time>
      </trkpt>
      <trkpt lat="45.73201" lon="6.27576">
        <ele>1237.57799936</ele>
        <time>2013-06-15T11:09:31Z</time>
      </trkpt>
      <trkpt lat="45.73183" lon="6.27578">
        <ele>1236.74000128</ele>
        <time>2013-06-15T11:09:38Z</time>
      </trkpt>
      <trkpt lat="45.73167" lon="6.27582">
        <ele>1234.9563479365</ele>
        <time>2013-06-15T11:09:47Z</time>
      </trkpt>
      <trkpt lat="45.73151" lon="6.27581">
        <ele>1232.9516129032</ele>
        <time>2013-06-15T11:09:57Z</time>
      </trkpt>
      <trkpt lat="45.73133" lon="6.27588">
        <ele>1231.1370967742</ele>
        <time>2013-06-15T11:10:06Z</time>
      </trkpt>
      <trkpt lat="45.73115" lon="6.27594">
        <ele>1229.72</ele>
        <time>2013-06-15T11:10:13Z</time>
      </trkpt>
      <trkpt lat="45.73086" lon="6.27608">
        <ele>1225.7367365008</ele>
        <time>2013-06-15T11:10:25Z</time>
      </trkpt>
      <trkpt lat="45.73069" lon="6.27616">
        <ele>1221</ele>
        <time>2013-06-15T11:10:37Z</time>
      </trkpt>
      <trkpt lat="45.73054" lon="6.27631">
        <ele>1220.7382635727</ele>
        <time>2013-06-15T11:10:48Z</time>
      </trkpt>
      <trkpt lat="45.7304" lon="6.27644">
        <ele>1219.5394619906</ele>
        <time>2013-06-15T11:10:54Z</time>
      </trkpt>
      <trkpt lat="45.73028" lon="6.27664">
        <ele>1216.3500032</ele>
        <time>2013-06-15T11:11:02Z</time>
      </trkpt>
      <trkpt lat="45.7301" lon="6.27675">
        <ele>1211.83400192</ele>
        <time>2013-06-15T11:11:14Z</time>
      </trkpt>
      <trkpt lat="45.72996" lon="6.27682">
        <ele>1211</ele>
        <time>2013-06-15T11:11:22Z</time>
      </trkpt>
      <trkpt lat="45.72984" lon="6.27695">
        <ele>1210.3386630453</ele>
        <time>2013-06-15T11:11:30Z</time>
      </trkpt>
      <trkpt lat="45.72971" lon="6.27704">
        <ele>1208.84</ele>
        <time>2013-06-15T11:11:37Z</time>
      </trkpt>
      <trkpt lat="45.72957" lon="6.2771">
        <ele>1206.04</ele>
        <time>2013-06-15T11:11:44Z</time>
      </trkpt>
      <trkpt lat="45.7294" lon="6.2771">
        <ele>1204.56999936</ele>
        <time>2013-06-15T11:11:51Z</time>
      </trkpt>
      <trkpt lat="45.72928" lon="6.27715">
        <ele>1200.7087072004</ele>
        <time>2013-06-15T11:12:05Z</time>
      </trkpt>
      <trkpt lat="45.72914" lon="6.27715">
        <ele>1200</ele>
        <time>2013-06-15T11:12:15Z</time>
      </trkpt>
      <trkpt lat="45.72899" lon="6.27724">
        <ele>1200</ele>
        <time>2013-06-15T11:12:25Z</time>
      </trkpt>
      <trkpt lat="45.72883" lon="6.27727">
        <ele>1198.7392596969</ele>
        <time>2013-06-15T11:12:33Z</time>
      </trkpt>
      <trkpt lat="45.72869" lon="6.27733">
        <ele>1197.341318222</ele>
        <time>2013-06-15T11:12:40Z</time>
      </trkpt>
      <trkpt lat="45.72854" lon="6.27744">
        <ele>1193.8335025876</ele>
        <time>2013-06-15T11:12:54Z</time>
      </trkpt>
      <trkpt lat="45.72839" lon="6.27748">
        <ele>1193</ele>
        <time>2013-06-15T11:13:00Z</time>
      </trkpt>
      <trkpt lat="45.72809" lon="6.27763">
        <ele>1192.49600256</ele>
        <time>2013-06-15T11:13:18Z</time>
      </trkpt>
      <trkpt lat="45.72794" lon="6.27772">
        <ele>1189.08199936</ele>
        <time>2013-06-15T11:13:27Z</time>
      </trkpt>
      <trkpt lat="45.72781" lon="6.27778">
        <ele>1190.88199936</ele>
        <time>2013-06-15T11:13:36Z</time>
      </trkpt>
      <trkpt lat="45.72766" lon="6.27784">
        <ele>1192.68199936</ele>
        <time>2013-06-15T11:13:45Z</time>
      </trkpt>
      <trkpt lat="45.72752" lon="6.27787">
        <ele>1193.53099904</ele>
        <time>2013-06-15T11:13:52Z</time>
      </trkpt>
      <trkpt lat="45.72737" lon="6.27792">
        <ele>1194.4424609524</ele>
        <time>2013-06-15T11:13:59Z</time>
      </trkpt>
      <trkpt lat="45.72721" lon="6.27799">
        <ele>1197.2560490323</ele>
        <time>2013-06-15T11:14:13Z</time>
      </trkpt>
      <trkpt lat="45.72705" lon="6.27807">
        <ele>1199.04599808</ele>
        <time>2013-06-15T11:14:22Z</time>
      </trkpt>
      <trkpt lat="45.72695" lon="6.2782">
        <ele>1199.66900096</ele>
        <time>2013-06-15T11:14:40Z</time>
      </trkpt>
      <trkpt lat="45.72682" lon="6.27827">
        <ele>1198.76700032</ele>
        <time>2013-06-15T11:14:49Z</time>
      </trkpt>
      <trkpt lat="45.72667" lon="6.2784">
        <ele>1197.8711243411</ele>
        <time>2013-06-15T11:14:58Z</time>
      </trkpt>
      <trkpt lat="45.72654" lon="6.27852">
        <ele>1197</ele>
        <time>2013-06-15T11:15:07Z</time>
      </trkpt>
      <trkpt lat="45.72638" lon="6.27866">
        <ele>1197</ele>
        <time>2013-06-15T11:15:15Z</time>
      </trkpt>
      <trkpt lat="45.72623" lon="6.27876">
        <ele>1195.7352649703</ele>
        <time>2013-06-15T11:15:23Z</time>
      </trkpt>
      <trkpt lat="45.72608" lon="6.27891">
        <ele>1193.9221550002</ele>
        <time>2013-06-15T11:15:32Z</time>
      </trkpt>
      <trkpt lat="45.72591" lon="6.27905">
        <ele>1191.7174356922</ele>
        <time>2013-06-15T11:15:40Z</time>
      </trkpt>
      <trkpt lat="45.72573" lon="6.27905">
        <ele>1189.3126276151</ele>
        <time>2013-06-15T11:15:46Z</time>
      </trkpt>
      <trkpt lat="45.72556" lon="6.27914">
        <ele>1188.9119093776</ele>
        <time>2013-06-15T11:15:57Z</time>
      </trkpt>
      <trkpt lat="45.72522" lon="6.27933">
        <ele>1185</ele>
        <time>2013-06-15T11:16:22Z</time>
      </trkpt>
      <trkpt lat="45.72506" lon="6.27941">
        <ele>1185</ele>
        <time>2013-06-15T11:16:30Z</time>
      </trkpt>
      <trkpt lat="45.725" lon="6.2795">
        <ele>1185</ele>
        <time>2013-06-15T11:16:36Z</time>
      </trkpt>
      <trkpt lat="45.72492" lon="6.27965">
        <ele>1182.878125036</ele>
        <time>2013-06-15T11:16:42Z</time>
      </trkpt>
      <trkpt lat="45.72481" lon="6.27976">
        <ele>1180.9751741092</ele>
        <time>2013-06-15T11:16:47Z</time>
      </trkpt>
      <trkpt lat="45.72469" lon="6.27986">
        <ele>1180.3793451029</ele>
        <time>2013-06-15T11:16:53Z</time>
      </trkpt>
      <trkpt lat="45.7246" lon="6.28004">
        <ele>1178.3232639108</ele>
        <time>2013-06-15T11:17:00Z</time>
      </trkpt>
      <trkpt lat="45.72453" lon="6.28019">
        <ele>1175.302114901</ele>
        <time>2013-06-15T11:17:06Z</time>
      </trkpt>
      <trkpt lat="45.72442" lon="6.28031">
        <ele>1175</ele>
        <time>2013-06-15T11:17:12Z</time>
      </trkpt>
      <trkpt lat="45.72428" lon="6.28033">
        <ele>1174.34</ele>
        <time>2013-06-15T11:17:18Z</time>
      </trkpt>
      <trkpt lat="45.72417" lon="6.28032">
        <ele>1172.34</ele>
        <time>2013-06-15T11:17:22Z</time>
      </trkpt>
      <trkpt lat="45.72407" lon="6.28027">
        <ele>1169.88</ele>
        <time>2013-06-15T11:17:27Z</time>
      </trkpt>
      <trkpt lat="45.724" lon="6.2802">
        <ele>1168.68</ele>
        <time>2013-06-15T11:17:31Z</time>
      </trkpt>
      <trkpt lat="45.72393" lon="6.28013">
        <ele>1167.48</ele>
        <time>2013-06-15T11:17:35Z</time>
      </trkpt>
      <trkpt lat="45.72382" lon="6.28">
        <ele>1164.84</ele>
        <time>2013-06-15T11:17:42Z</time>
      </trkpt>
      <trkpt lat="45.72374" lon="6.27987">
        <ele>1162.9679679782</ele>
        <time>2013-06-15T11:17:47Z</time>
      </trkpt>
      <trkpt lat="45.72371" lon="6.28012">
        <ele>1154.75399936</ele>
        <time>2013-06-15T11:18:13Z</time>
      </trkpt>
      <trkpt lat="45.72376" lon="6.28035">
        <ele>1153.3399813424</ele>
        <time>2013-06-15T11:18:20Z</time>
      </trkpt>
      <trkpt lat="45.72394" lon="6.28074">
        <ele>1149.3947912498</ele>
        <time>2013-06-15T11:18:32Z</time>
      </trkpt>
      <trkpt lat="45.72405" lon="6.28082">
        <ele>1146.3900032</ele>
        <time>2013-06-15T11:18:38Z</time>
      </trkpt>
      <trkpt lat="45.72417" lon="6.28087">
        <ele>1143.3900032</ele>
        <time>2013-06-15T11:18:44Z</time>
      </trkpt>
      <trkpt lat="45.72429" lon="6.28098">
        <ele>1140.13099904</ele>
        <time>2013-06-15T11:18:53Z</time>
      </trkpt>
      <trkpt lat="45.72447" lon="6.28102">
        <ele>1139</ele>
        <time>2013-06-15T11:19:01Z</time>
      </trkpt>
      <trkpt lat="45.72462" lon="6.28104">
        <ele>1138.75000064</ele>
        <time>2013-06-15T11:19:08Z</time>
      </trkpt>
      <trkpt lat="45.72481" lon="6.28104">
        <ele>1136.968</ele>
        <time>2013-06-15T11:19:17Z</time>
      </trkpt>
      <trkpt lat="45.72498" lon="6.28107">
        <ele>1136.168</ele>
        <time>2013-06-15T11:19:25Z</time>
      </trkpt>
      <trkpt lat="45.72514" lon="6.28109">
        <ele>1135.36</ele>
        <time>2013-06-15T11:19:33Z</time>
      </trkpt>
      <trkpt lat="45.72532" lon="6.28104">
        <ele>1133.9249984</ele>
        <time>2013-06-15T11:19:39Z</time>
      </trkpt>
      <trkpt lat="45.72547" lon="6.28103">
        <ele>1130.9249984</ele>
        <time>2013-06-15T11:19:45Z</time>
      </trkpt>
      <trkpt lat="45.72561" lon="6.28101">
        <ele>1129.35600128</ele>
        <time>2013-06-15T11:19:50Z</time>
      </trkpt>
      <trkpt lat="45.72576" lon="6.28102">
        <ele>1127.95599872</ele>
        <time>2013-06-15T11:19:57Z</time>
      </trkpt>
      <trkpt lat="45.7259" lon="6.28099">
        <ele>1126.55600128</ele>
        <time>2013-06-15T11:20:04Z</time>
      </trkpt>
      <trkpt lat="45.726" lon="6.28083">
        <ele>1124.47700096</ele>
        <time>2013-06-15T11:20:22Z</time>
      </trkpt>
      <trkpt lat="45.72612" lon="6.28066">
        <ele>1124</ele>
        <time>2013-06-15T11:20:30Z</time>
      </trkpt>
      <trkpt lat="45.72628" lon="6.28058">
        <ele>1123.3486524192</ele>
        <time>2013-06-15T11:20:40Z</time>
      </trkpt>
      <trkpt lat="45.72646" lon="6.28052">
        <ele>1120.8388392108</ele>
        <time>2013-06-15T11:20:49Z</time>
      </trkpt>
      <trkpt lat="45.72683" lon="6.28043">
        <ele>1115.13400064</ele>
        <time>2013-06-15T11:21:06Z</time>
      </trkpt>
      <trkpt lat="45.72702" lon="6.28046">
        <ele>1114.2612159629</ele>
        <time>2013-06-15T11:21:14Z</time>
      </trkpt>
      <trkpt lat="45.72718" lon="6.28041">
        <ele>1112.9368101712</ele>
        <time>2013-06-15T11:21:22Z</time>
      </trkpt>
      <trkpt lat="45.72732" lon="6.28039">
        <ele>1111.71800064</ele>
        <time>2013-06-15T11:21:28Z</time>
      </trkpt>
      <trkpt lat="45.72747" lon="6.28034">
        <ele>1110.51800064</ele>
        <time>2013-06-15T11:21:34Z</time>
      </trkpt>
      <trkpt lat="45.72763" lon="6.2803">
        <ele>1108.939062518</ele>
        <time>2013-06-15T11:21:42Z</time>
      </trkpt>
      <trkpt lat="45.72778" lon="6.28028">
        <ele>1107.668</ele>
        <time>2013-06-15T11:21:50Z</time>
      </trkpt>
      <trkpt lat="45.72793" lon="6.28022">
        <ele>1107.068</ele>
        <time>2013-06-15T11:21:56Z</time>
      </trkpt>
      <trkpt lat="45.72813" lon="6.28013">
        <ele>1103.3</ele>
        <time>2013-06-15T11:22:04Z</time>
      </trkpt>
      <trkpt lat="45.72828" lon="6.28003">
        <ele>1101.66</ele>
        <time>2013-06-15T11:22:10Z</time>
      </trkpt>
      <trkpt lat="45.72842" lon="6.27984">
        <ele>1100.7677678422</ele>
        <time>2013-06-15T11:22:19Z</time>
      </trkpt>
      <trkpt lat="45.72857" lon="6.27972">
        <ele>1100.0670673659</ele>
        <time>2013-06-15T11:22:26Z</time>
      </trkpt>
      <trkpt lat="45.72875" lon="6.27962">
        <ele>1098.96999936</ele>
        <time>2013-06-15T11:22:37Z</time>
      </trkpt>
      <trkpt lat="45.72893" lon="6.27955">
        <ele>1097.16999936</ele>
        <time>2013-06-15T11:22:46Z</time>
      </trkpt>
      <trkpt lat="45.72911" lon="6.27947">
        <ele>1095.33999872</ele>
        <time>2013-06-15T11:22:55Z</time>
      </trkpt>
      <trkpt lat="45.72927" lon="6.27945">
        <ele>1092.507506384</ele>
        <time>2013-06-15T11:23:05Z</time>
      </trkpt>
      <trkpt lat="45.72943" lon="6.27936">
        <ele>1092</ele>
        <time>2013-06-15T11:23:13Z</time>
      </trkpt>
      <trkpt lat="45.72962" lon="6.27931">
        <ele>1090.75599872</ele>
        <time>2013-06-15T11:23:23Z</time>
      </trkpt>
      <trkpt lat="45.72997" lon="6.27913">
        <ele>1086.9550465391</ele>
        <time>2013-06-15T11:23:42Z</time>
      </trkpt>
      <trkpt lat="45.73011" lon="6.27905">
        <ele>1085.63400192</ele>
        <time>2013-06-15T11:23:48Z</time>
      </trkpt>
      <trkpt lat="45.73022" lon="6.27894">
        <ele>1083.53399808</ele>
        <time>2013-06-15T11:23:55Z</time>
      </trkpt>
      <trkpt lat="45.73031" lon="6.27887">
        <ele>1083</ele>
        <time>2013-06-15T11:24:03Z</time>
      </trkpt>
      <trkpt lat="45.73047" lon="6.27881">
        <ele>1083</ele>
        <time>2013-06-15T11:24:12Z</time>
      </trkpt>
      <trkpt lat="45.73067" lon="6.27887">
        <ele>1081.66799616</ele>
        <time>2013-06-15T11:24:19Z</time>
      </trkpt>
      <trkpt lat="45.73085" lon="6.27889">
        <ele>1078.06799616</ele>
        <time>2013-06-15T11:24:25Z</time>
      </trkpt>
      <trkpt lat="45.73103" lon="6.27888">
        <ele>1074.91200256</ele>
        <time>2013-06-15T11:24:32Z</time>
      </trkpt>
      <trkpt lat="45.73121" lon="6.27888">
        <ele>1072.2672713458</ele>
        <time>2013-06-15T11:24:38Z</time>
      </trkpt>
      <trkpt lat="45.73139" lon="6.2789">
        <ele>1068.6636688965</ele>
        <time>2013-06-15T11:24:44Z</time>
      </trkpt>
      <trkpt lat="45.73156" lon="6.2789">
        <ele>1065.2777204484</ele>
        <time>2013-06-15T11:24:51Z</time>
      </trkpt>
      <trkpt lat="45.73169" lon="6.27901">
        <ele>1063.2797229266</ele>
        <time>2013-06-15T11:24:56Z</time>
      </trkpt>
      <trkpt lat="45.73174" lon="6.27919">
        <ele>1061.68000256</ele>
        <time>2013-06-15T11:25:00Z</time>
      </trkpt>
      <trkpt lat="45.73172" lon="6.2794">
        <ele>1059.67999744</ele>
        <time>2013-06-15T11:25:05Z</time>
      </trkpt>
      <trkpt lat="45.73166" lon="6.27955">
        <ele>1057.61999616</ele>
        <time>2013-06-15T11:25:09Z</time>
      </trkpt>
      <trkpt lat="45.73157" lon="6.2797">
        <ele>1054.62000384</ele>
        <time>2013-06-15T11:25:14Z</time>
      </trkpt>
      <trkpt lat="45.73147" lon="6.27982">
        <ele>1051.44599552</ele>
        <time>2013-06-15T11:25:19Z</time>
      </trkpt>
      <trkpt lat="45.73134" lon="6.27993">
        <ele>1048.64599552</ele>
        <time>2013-06-15T11:25:23Z</time>
      </trkpt>
      <trkpt lat="45.73108" lon="6.28013">
        <ele>1044.55600128</ele>
        <time>2013-06-15T11:25:34Z</time>
      </trkpt>
      <trkpt lat="45.73095" lon="6.28021">
        <ele>1042.8499968</ele>
        <time>2013-06-15T11:25:39Z</time>
      </trkpt>
      <trkpt lat="45.73081" lon="6.28029">
        <ele>1039.8499968</ele>
        <time>2013-06-15T11:25:45Z</time>
      </trkpt>
      <trkpt lat="45.7307" lon="6.28043">
        <ele>1034.76000512</ele>
        <time>2013-06-15T11:25:52Z</time>
      </trkpt>
      <trkpt lat="45.73059" lon="6.28057">
        <ele>1029.3500032</ele>
        <time>2013-06-15T11:26:00Z</time>
      </trkpt>
      <trkpt lat="45.73049" lon="6.28065">
        <ele>1025.333331625</ele>
        <time>2013-06-15T11:26:09Z</time>
      </trkpt>
      <trkpt lat="45.73043" lon="6.28083">
        <ele>1020.8849984</ele>
        <time>2013-06-15T11:26:21Z</time>
      </trkpt>
      <trkpt lat="45.73039" lon="6.281">
        <ele>1017.10799872</ele>
        <time>2013-06-15T11:26:29Z</time>
      </trkpt>
      <trkpt lat="45.73031" lon="6.2812">
        <ele>1014.30800384</ele>
        <time>2013-06-15T11:26:36Z</time>
      </trkpt>
      <trkpt lat="45.7302" lon="6.2814">
        <ele>1008.8881169672</ele>
        <time>2013-06-15T11:26:44Z</time>
      </trkpt>
      <trkpt lat="45.7301" lon="6.28162">
        <ele>1001.9700515577</ele>
        <time>2013-06-15T11:26:53Z</time>
      </trkpt>
      <trkpt lat="45.72997" lon="6.28183">
        <ele>996.39479124983</ele>
        <time>2013-06-15T11:27:02Z</time>
      </trkpt>
      <trkpt lat="45.72983" lon="6.28201">
        <ele>993.01000192</ele>
        <time>2013-06-15T11:27:10Z</time>
      </trkpt>
      <trkpt lat="45.72974" lon="6.28215">
        <ele>991.50999808</ele>
        <time>2013-06-15T11:27:15Z</time>
      </trkpt>
      <trkpt lat="45.72963" lon="6.28228">
        <ele>989.3900032</ele>
        <time>2013-06-15T11:27:20Z</time>
      </trkpt>
      <trkpt lat="45.72949" lon="6.28245">
        <ele>984.44599552</ele>
        <time>2013-06-15T11:27:29Z</time>
      </trkpt>
      <trkpt lat="45.72936" lon="6.28265">
        <ele>978.90999808</ele>
        <time>2013-06-15T11:27:37Z</time>
      </trkpt>
      <trkpt lat="45.7292" lon="6.28283">
        <ele>976.50999808</ele>
        <time>2013-06-15T11:27:45Z</time>
      </trkpt>
      <trkpt lat="45.72889" lon="6.28313">
        <ele>968.04</ele>
        <time>2013-06-15T11:27:59Z</time>
      </trkpt>
      <trkpt lat="45.72877" lon="6.28325">
        <ele>964.94399744</ele>
        <time>2013-06-15T11:28:07Z</time>
      </trkpt>
      <trkpt lat="45.72868" lon="6.2835">
        <ele>960.93393203317</ele>
        <time>2013-06-15T11:28:17Z</time>
      </trkpt>
      <trkpt lat="45.72857" lon="6.28367">
        <ele>959.13213080853</ele>
        <time>2013-06-15T11:28:23Z</time>
      </trkpt>
      <trkpt lat="45.72847" lon="6.28385">
        <ele>956.04400384</ele>
        <time>2013-06-15T11:28:30Z</time>
      </trkpt>
      <trkpt lat="45.72834" lon="6.28404">
        <ele>951.3350016</ele>
        <time>2013-06-15T11:28:38Z</time>
      </trkpt>
      <trkpt lat="45.72821" lon="6.2842">
        <ele>948.8350016</ele>
        <time>2013-06-15T11:28:43Z</time>
      </trkpt>
      <trkpt lat="45.72807" lon="6.28437">
        <ele>944.29770303223</ele>
        <time>2013-06-15T11:28:52Z</time>
      </trkpt>
      <trkpt lat="45.72799" lon="6.28463">
        <ele>941.0540533961</ele>
        <time>2013-06-15T11:29:00Z</time>
      </trkpt>
      <trkpt lat="45.72791" lon="6.28486">
        <ele>938.84515319725</ele>
        <time>2013-06-15T11:29:07Z</time>
      </trkpt>
      <trkpt lat="45.72787" lon="6.28513">
        <ele>934.34965365823</ele>
        <time>2013-06-15T11:29:16Z</time>
      </trkpt>
      <trkpt lat="45.72787" lon="6.28537">
        <ele>929.01999616</ele>
        <time>2013-06-15T11:29:25Z</time>
      </trkpt>
      <trkpt lat="45.72792" lon="6.28558">
        <ele>925.08000256</ele>
        <time>2013-06-15T11:29:34Z</time>
      </trkpt>
      <trkpt lat="45.72804" lon="6.28545">
        <ele>921.1624815286</ele>
        <time>2013-06-15T11:29:49Z</time>
      </trkpt>
      <trkpt lat="45.72819" lon="6.28552">
        <ele>911.98601078474</ele>
        <time>2013-06-15T11:30:01Z</time>
      </trkpt>
      <trkpt lat="45.7282" lon="6.28579">
        <ele>907.00300332236</ele>
        <time>2013-06-15T11:30:10Z</time>
      </trkpt>
      <trkpt lat="45.72821" lon="6.28601">
        <ele>905.20120209771</ele>
        <time>2013-06-15T11:30:16Z</time>
      </trkpt>
      <trkpt lat="45.72835" lon="6.28602">
        <ele>902.03600128</ele>
        <time>2013-06-15T11:30:24Z</time>
      </trkpt>
      <trkpt lat="45.7284" lon="6.28655">
        <ele>896.20379626895</ele>
        <time>2013-06-15T11:30:46Z</time>
      </trkpt>
      <trkpt lat="45.72837" lon="6.28681">
        <ele>892.29129408087</ele>
        <time>2013-06-15T11:30:54Z</time>
      </trkpt>
      <trkpt lat="45.72833" lon="6.28706">
        <ele>889.33366707969</ele>
        <time>2013-06-15T11:31:01Z</time>
      </trkpt>
      <trkpt lat="45.7283" lon="6.28733">
        <ele>885.288</ele>
        <time>2013-06-15T11:31:11Z</time>
      </trkpt>
      <trkpt lat="45.72831" lon="6.28758">
        <ele>881.38839210782</ele>
        <time>2013-06-15T11:31:20Z</time>
      </trkpt>
      <trkpt lat="45.72832" lon="6.2878">
        <ele>878.38539006674</ele>
        <time>2013-06-15T11:31:26Z</time>
      </trkpt>
      <trkpt lat="45.72836" lon="6.28804">
        <ele>874.84814924217</ele>
        <time>2013-06-15T11:31:33Z</time>
      </trkpt>
      <trkpt lat="45.72842" lon="6.28827">
        <ele>869.21999616</ele>
        <time>2013-06-15T11:31:43Z</time>
      </trkpt>
      <trkpt lat="45.72848" lon="6.28846">
        <ele>865.68000256</ele>
        <time>2013-06-15T11:31:50Z</time>
      </trkpt>
      <trkpt lat="45.72856" lon="6.28865">
        <ele>862.07907681151</ele>
        <time>2013-06-15T11:31:59Z</time>
      </trkpt>
      <trkpt lat="45.72864" lon="6.28886">
        <ele>858.55399936</ele>
        <time>2013-06-15T11:32:09Z</time>
      </trkpt>
      <trkpt lat="45.72873" lon="6.28903">
        <ele>856.37699968</ele>
        <time>2013-06-15T11:32:23Z</time>
      </trkpt>
      <trkpt lat="45.72873" lon="6.28925">
        <ele>853.68993469824</ele>
        <time>2013-06-15T11:32:30Z</time>
      </trkpt>
      <trkpt lat="45.72879" lon="6.28943">
        <ele>848.75927806529</ele>
        <time>2013-06-15T11:32:38Z</time>
      </trkpt>
      <trkpt lat="45.7289" lon="6.28958">
        <ele>846.87712379688</ele>
        <time>2013-06-15T11:32:48Z</time>
      </trkpt>
      <trkpt lat="45.72897" lon="6.28974">
        <ele>846.26773235332</ele>
        <time>2013-06-15T11:32:54Z</time>
      </trkpt>
      <trkpt lat="45.72907" lon="6.2899">
        <ele>844.23823880257</ele>
        <time>2013-06-15T11:33:01Z</time>
      </trkpt>
      <trkpt lat="45.72922" lon="6.28992">
        <ele>841.45900032</ele>
        <time>2013-06-15T11:33:12Z</time>
      </trkpt>
      <trkpt lat="45.72954" lon="6.29012">
        <ele>828.88111724471</ele>
        <time>2013-06-15T11:33:34Z</time>
      </trkpt>
      <trkpt lat="45.72969" lon="6.29013">
        <ele>827</ele>
        <time>2013-06-15T11:33:41Z</time>
      </trkpt>
      <trkpt lat="45.72986" lon="6.29006">
        <ele>826.36736757001</ele>
        <time>2013-06-15T11:33:53Z</time>
      </trkpt>
      <trkpt lat="45.73002" lon="6.28994">
        <ele>827.26599936</ele>
        <time>2013-06-15T11:34:03Z</time>
      </trkpt>
      <trkpt lat="45.73021" lon="6.28984">
        <ele>827.56700032</ele>
        <time>2013-06-15T11:34:11Z</time>
      </trkpt>
      <trkpt lat="45.73037" lon="6.28972">
        <ele>826.66733288067</ele>
        <time>2013-06-15T11:34:20Z</time>
      </trkpt>
      <trkpt lat="45.73052" lon="6.28957">
        <ele>825.65965976868</ele>
        <time>2013-06-15T11:34:30Z</time>
      </trkpt>
      <trkpt lat="45.73068" lon="6.28942">
        <ele>825</ele>
        <time>2013-06-15T11:34:38Z</time>
      </trkpt>
      <trkpt lat="45.73084" lon="6.28925">
        <ele>825</ele>
        <time>2013-06-15T11:34:43Z</time>
      </trkpt>
      <trkpt lat="45.73097" lon="6.28908">
        <ele>825</ele>
        <time>2013-06-15T11:34:52Z</time>
      </trkpt>
      <trkpt lat="45.73106" lon="6.28891">
        <ele>826.26526485997</ele>
        <time>2013-06-15T11:35:03Z</time>
      </trkpt>
      <trkpt lat="45.73117" lon="6.28869">
        <ele>829.43724753004</ele>
        <time>2013-06-15T11:35:19Z</time>
      </trkpt>
      <trkpt lat="45.73129" lon="6.28855">
        <ele>831</ele>
        <time>2013-06-15T11:35:37Z</time>
      </trkpt>
      <trkpt lat="45.73141" lon="6.28837">
        <ele>831</ele>
        <time>2013-06-15T11:35:43Z</time>
      </trkpt>
      <trkpt lat="45.73152" lon="6.28819">
        <ele>831.22300032</ele>
        <time>2013-06-15T11:35:49Z</time>
      </trkpt>
      <trkpt lat="45.73158" lon="6.288">
        <ele>831.92299904</ele>
        <time>2013-06-15T11:35:56Z</time>
      </trkpt>
      <trkpt lat="45.7316" lon="6.28784">
        <ele>830.53800192</ele>
        <time>2013-06-15T11:36:04Z</time>
      </trkpt>
      <trkpt lat="45.73163" lon="6.28767">
        <ele>830</ele>
        <time>2013-06-15T11:36:12Z</time>
      </trkpt>
      <trkpt lat="45.73195" lon="6.28777">
        <ele>825.55955970064</ele>
        <time>2013-06-15T11:36:31Z</time>
      </trkpt>
      <trkpt lat="45.7321" lon="6.28787">
        <ele>824.20279886603</ele>
        <time>2013-06-15T11:36:38Z</time>
      </trkpt>
      <trkpt lat="45.73224" lon="6.28794">
        <ele>821.26573115388</ele>
        <time>2013-06-15T11:36:43Z</time>
      </trkpt>
      <trkpt lat="45.73233" lon="6.2881">
        <ele>818.30999808</ele>
        <time>2013-06-15T11:36:49Z</time>
      </trkpt>
      <trkpt lat="45.73243" lon="6.28821">
        <ele>816.21000192</ele>
        <time>2013-06-15T11:36:56Z</time>
      </trkpt>
      <trkpt lat="45.73258" lon="6.28816">
        <ele>812.8499968</ele>
        <time>2013-06-15T11:37:03Z</time>
      </trkpt>
      <trkpt lat="45.73273" lon="6.28814">
        <ele>808.3500032</ele>
        <time>2013-06-15T11:37:12Z</time>
      </trkpt>
      <trkpt lat="45.73285" lon="6.2883">
        <ele>805.93393203317</ele>
        <time>2013-06-15T11:37:17Z</time>
      </trkpt>
      <trkpt lat="45.73297" lon="6.28844">
        <ele>802.93099904</ele>
        <time>2013-06-15T11:37:27Z</time>
      </trkpt>
      <trkpt lat="45.73305" lon="6.2886">
        <ele>801.43100288</ele>
        <time>2013-06-15T11:37:32Z</time>
      </trkpt>
      <trkpt lat="45.73313" lon="6.28878">
        <ele>799.87712379688</ele>
        <time>2013-06-15T11:37:38Z</time>
      </trkpt>
      <trkpt lat="45.73318" lon="6.28896">
        <ele>799.37762185898</ele>
        <time>2013-06-15T11:37:43Z</time>
      </trkpt>
      <trkpt lat="45.73321" lon="6.28919">
        <ele>798.87800064</ele>
        <time>2013-06-15T11:37:48Z</time>
      </trkpt>
      <trkpt lat="45.73322" lon="6.28937">
        <ele>798.47800064</ele>
        <time>2013-06-15T11:37:52Z</time>
      </trkpt>
      <trkpt lat="45.73316" lon="6.28956">
        <ele>797.93399808</ele>
        <time>2013-06-15T11:37:57Z</time>
      </trkpt>
      <trkpt lat="45.73301" lon="6.28969">
        <ele>795.804</ele>
        <time>2013-06-15T11:38:04Z</time>
      </trkpt>
      <trkpt lat="45.73284" lon="6.28972">
        <ele>794.66267507396</ele>
        <time>2013-06-15T11:38:10Z</time>
      </trkpt>
      <trkpt lat="45.73271" lon="6.28979">
        <ele>794.16367148179</ele>
        <time>2013-06-15T11:38:15Z</time>
      </trkpt>
      <trkpt lat="45.73247" lon="6.28991">
        <ele>792.73747447697</ele>
        <time>2013-06-15T11:38:23Z</time>
      </trkpt>
      <trkpt lat="45.73236" lon="6.28998">
        <ele>791.8</ele>
        <time>2013-06-15T11:38:27Z</time>
      </trkpt>
      <trkpt lat="45.73226" lon="6.29006">
        <ele>789.8</ele>
        <time>2013-06-15T11:38:31Z</time>
      </trkpt>
      <trkpt lat="45.73211" lon="6.29023">
        <ele>786.51951967343</ele>
        <time>2013-06-15T11:38:39Z</time>
      </trkpt>
      <trkpt lat="45.73197" lon="6.29042">
        <ele>785.11811872092</ele>
        <time>2013-06-15T11:38:46Z</time>
      </trkpt>
      <trkpt lat="45.73182" lon="6.29057">
        <ele>785</ele>
        <time>2013-06-15T11:38:53Z</time>
      </trkpt>
      <trkpt lat="45.73166" lon="6.29069">
        <ele>784.33400064</ele>
        <time>2013-06-15T11:39:00Z</time>
      </trkpt>
      <trkpt lat="45.73154" lon="6.29079">
        <ele>783.33400064</ele>
        <time>2013-06-15T11:39:05Z</time>
      </trkpt>
      <trkpt lat="45.73141" lon="6.29085">
        <ele>783</ele>
        <time>2013-06-15T11:39:09Z</time>
      </trkpt>
      <trkpt lat="45.73128" lon="6.29093">
        <ele>783</ele>
        <time>2013-06-15T11:39:14Z</time>
      </trkpt>
      <trkpt lat="45.73117" lon="6.29105">
        <ele>783</ele>
        <time>2013-06-15T11:39:19Z</time>
      </trkpt>
      <trkpt lat="45.73106" lon="6.29118">
        <ele>783</ele>
        <time>2013-06-15T11:39:25Z</time>
      </trkpt>
      <trkpt lat="45.73121" lon="6.29122">
        <ele>780.76776784216</ele>
        <time>2013-06-15T11:39:39Z</time>
      </trkpt>
      <trkpt lat="45.73134" lon="6.29117">
        <ele>780.36736757001</ele>
        <time>2013-06-15T11:39:43Z</time>
      </trkpt>
      <trkpt lat="45.73147" lon="6.2911">
        <ele>780</ele>
        <time>2013-06-15T11:39:47Z</time>
      </trkpt>
      <trkpt lat="45.73159" lon="6.29101">
        <ele>780</ele>
        <time>2013-06-15T11:39:51Z</time>
      </trkpt>
      <trkpt lat="45.73172" lon="6.29092">
        <ele>780</ele>
        <time>2013-06-15T11:39:56Z</time>
      </trkpt>
      <trkpt lat="45.73184" lon="6.29086">
        <ele>779.56</ele>
        <time>2013-06-15T11:40:01Z</time>
      </trkpt>
      <trkpt lat="45.73211" lon="6.29079">
        <ele>778.56999936</ele>
        <time>2013-06-15T11:40:11Z</time>
      </trkpt>
      <trkpt lat="45.73223" lon="6.29079">
        <ele>778.16999936</ele>
        <time>2013-06-15T11:40:15Z</time>
      </trkpt>
      <trkpt lat="45.73234" lon="6.29091">
        <ele>777.32</ele>
        <time>2013-06-15T11:40:20Z</time>
      </trkpt>
      <trkpt lat="45.73249" lon="6.29102">
        <ele>775.16</ele>
        <time>2013-06-15T11:40:28Z</time>
      </trkpt>
      <trkpt lat="45.73265" lon="6.29109">
        <ele>769.4249984</ele>
        <time>2013-06-15T11:40:38Z</time>
      </trkpt>
      <trkpt lat="45.73281" lon="6.29118">
        <ele>764.93393203317</ele>
        <time>2013-06-15T11:40:47Z</time>
      </trkpt>
      <trkpt lat="45.73298" lon="6.29128">
        <ele>760.88833233579</ele>
        <time>2013-06-15T11:40:59Z</time>
      </trkpt>
      <trkpt lat="45.73314" lon="6.29128">
        <ele>757.39880397094</ele>
        <time>2013-06-15T11:41:06Z</time>
      </trkpt>
      <trkpt lat="45.73332" lon="6.29125">
        <ele>754.51502652343</ele>
        <time>2013-06-15T11:41:13Z</time>
      </trkpt>
      <trkpt lat="45.73348" lon="6.29117">
        <ele>752.03400192</ele>
        <time>2013-06-15T11:41:20Z</time>
      </trkpt>
      <trkpt lat="45.73365" lon="6.29118">
        <ele>749.3900032</ele>
        <time>2013-06-15T11:41:28Z</time>
      </trkpt>
      <trkpt lat="45.73384" lon="6.29122">
        <ele>744.84599552</ele>
        <time>2013-06-15T11:41:37Z</time>
      </trkpt>
      <trkpt lat="45.73399" lon="6.29121">
        <ele>739.94600448</ele>
        <time>2013-06-15T11:41:44Z</time>
      </trkpt>
      <trkpt lat="45.73416" lon="6.29128">
        <ele>734.82000384</ele>
        <time>2013-06-15T11:41:52Z</time>
      </trkpt>
      <trkpt lat="45.73436" lon="6.29141">
        <ele>731.03400192</ele>
        <time>2013-06-15T11:42:00Z</time>
      </trkpt>
      <trkpt lat="45.73447" lon="6.29163">
        <ele>728.89600256</ele>
        <time>2013-06-15T11:42:07Z</time>
      </trkpt>
      <trkpt lat="45.73465" lon="6.29175">
        <ele>724.808</ele>
        <time>2013-06-15T11:42:17Z</time>
      </trkpt>
      <trkpt lat="45.73483" lon="6.29169">
        <ele>719.408</ele>
        <time>2013-06-15T11:42:26Z</time>
      </trkpt>
      <trkpt lat="45.73519" lon="6.29183">
        <ele>706.60360373058</ele>
        <time>2013-06-15T11:42:48Z</time>
      </trkpt>
      <trkpt lat="45.73538" lon="6.29173">
        <ele>703.8350016</ele>
        <time>2013-06-15T11:42:57Z</time>
      </trkpt>
      <trkpt lat="45.73557" lon="6.29172">
        <ele>698.46700032</ele>
        <time>2013-06-15T11:43:12Z</time>
      </trkpt>
      <trkpt lat="45.73573" lon="6.29169">
        <ele>696.93506523399</ele>
        <time>2013-06-15T11:43:22Z</time>
      </trkpt>
      <trkpt lat="45.73588" lon="6.2917">
        <ele>694.3743748951</ele>
        <time>2013-06-15T11:43:29Z</time>
      </trkpt>
      <trkpt lat="45.73606" lon="6.29161">
        <ele>688.86800128</ele>
        <time>2013-06-15T11:43:37Z</time>
      </trkpt>
      <trkpt lat="45.73622" lon="6.29147">
        <ele>685.26800128</ele>
        <time>2013-06-15T11:43:46Z</time>
      </trkpt>
      <trkpt lat="45.73637" lon="6.2914">
        <ele>681.81094585025</ele>
        <time>2013-06-15T11:43:53Z</time>
      </trkpt>
      <trkpt lat="45.73654" lon="6.29135">
        <ele>679.04217060241</ele>
        <time>2013-06-15T11:44:00Z</time>
      </trkpt>
      <trkpt lat="45.73667" lon="6.29129">
        <ele>678.13855228916</ele>
        <time>2013-06-15T11:44:03Z</time>
      </trkpt>
      <trkpt lat="45.73678" lon="6.29124">
        <ele>677.23494168675</ele>
        <time>2013-06-15T11:44:06Z</time>
      </trkpt>
      <trkpt lat="45.73688" lon="6.29118">
        <ele>676.30999808</ele>
        <time>2013-06-15T11:44:09Z</time>
      </trkpt>
      <trkpt lat="45.73703" lon="6.29114">
        <ele>674.81000192</ele>
        <time>2013-06-15T11:44:14Z</time>
      </trkpt>
      <trkpt lat="45.73721" lon="6.29113">
        <ele>672.13399808</ele>
        <time>2013-06-15T11:44:23Z</time>
      </trkpt>
      <trkpt lat="45.73736" lon="6.29096">
        <ele>671</ele>
        <time>2013-06-15T11:44:34Z</time>
      </trkpt>
      <trkpt lat="45.73746" lon="6.2908">
        <ele>670.67732353321</ele>
        <time>2013-06-15T11:44:40Z</time>
      </trkpt>
      <trkpt lat="45.73761" lon="6.29064">
        <ele>669.97799936</ele>
        <time>2013-06-15T11:44:47Z</time>
      </trkpt>
      <trkpt lat="45.73771" lon="6.29052">
        <ele>669.47800064</ele>
        <time>2013-06-15T11:44:52Z</time>
      </trkpt>
      <trkpt lat="45.73789" lon="6.29017">
        <ele>665.82000384</ele>
        <time>2013-06-15T11:45:02Z</time>
      </trkpt>
      <trkpt lat="45.73795" lon="6.29001">
        <ele>662.87800064</ele>
        <time>2013-06-15T11:45:08Z</time>
      </trkpt>
      <trkpt lat="45.738" lon="6.28983">
        <ele>662.27800064</ele>
        <time>2013-06-15T11:45:14Z</time>
      </trkpt>
      <trkpt lat="45.73806" lon="6.28964">
        <ele>659.48</ele>
        <time>2013-06-15T11:45:21Z</time>
      </trkpt>
      <trkpt lat="45.73812" lon="6.2895">
        <ele>657.08</ele>
        <time>2013-06-15T11:45:25Z</time>
      </trkpt>
      <trkpt lat="45.73822" lon="6.28937">
        <ele>653.91791858485</ele>
        <time>2013-06-15T11:45:32Z</time>
      </trkpt>
      <trkpt lat="45.73838" lon="6.28917">
        <ele>650.2177790906</ele>
        <time>2013-06-15T11:45:39Z</time>
      </trkpt>
      <trkpt lat="45.7385" lon="6.28906">
        <ele>646.22178404692</ele>
        <time>2013-06-15T11:45:44Z</time>
      </trkpt>
      <trkpt lat="45.73865" lon="6.2889">
        <ele>643.53999872</ele>
        <time>2013-06-15T11:45:49Z</time>
      </trkpt>
      <trkpt lat="45.73883" lon="6.28876">
        <ele>642.14000128</ele>
        <time>2013-06-15T11:45:56Z</time>
      </trkpt>
      <trkpt lat="45.73899" lon="6.28863">
        <ele>637.58999552</ele>
        <time>2013-06-15T11:46:03Z</time>
      </trkpt>
      <trkpt lat="45.73911" lon="6.28847">
        <ele>634.13999872</ele>
        <time>2013-06-15T11:46:11Z</time>
      </trkpt>
      <trkpt lat="45.73925" lon="6.28837">
        <ele>632.77777720832</ele>
        <time>2013-06-15T11:46:19Z</time>
      </trkpt>
      <trkpt lat="45.73937" lon="6.28843">
        <ele>632.27727814942</ele>
        <time>2013-06-15T11:46:24Z</time>
      </trkpt>
      <trkpt lat="45.73948" lon="6.28849">
        <ele>631.38561898441</ele>
        <time>2013-06-15T11:46:28Z</time>
      </trkpt>
      <trkpt lat="45.7396" lon="6.28852">
        <ele>628.38861502933</ele>
        <time>2013-06-15T11:46:34Z</time>
      </trkpt>
      <trkpt lat="45.7397" lon="6.28853">
        <ele>626.33532700061</ele>
        <time>2013-06-15T11:46:39Z</time>
      </trkpt>
      <trkpt lat="45.73979" lon="6.28848">
        <ele>624.83832388875</ele>
        <time>2013-06-15T11:46:44Z</time>
      </trkpt>
      <trkpt lat="45.73996" lon="6.28836">
        <ele>621.07924052551</ele>
        <time>2013-06-15T11:46:54Z</time>
      </trkpt>
      <trkpt lat="45.74001" lon="6.28825">
        <ele>619.43600128</ele>
        <time>2013-06-15T11:46:58Z</time>
      </trkpt>
      <trkpt lat="45.74013" lon="6.28816">
        <ele>615.8681331047</ele>
        <time>2013-06-15T11:47:07Z</time>
      </trkpt>
      <trkpt lat="45.74026" lon="6.28806">
        <ele>613.87013046797</ele>
        <time>2013-06-15T11:47:12Z</time>
      </trkpt>
      <trkpt lat="45.74037" lon="6.28794">
        <ele>611.90390393468</ele>
        <time>2013-06-15T11:47:17Z</time>
      </trkpt>
      <trkpt lat="45.74047" lon="6.28787">
        <ele>610.70270311825</ele>
        <time>2013-06-15T11:47:21Z</time>
      </trkpt>
      <trkpt lat="45.74057" lon="6.28777">
        <ele>609.50150230182</ele>
        <time>2013-06-15T11:47:25Z</time>
      </trkpt>
      <trkpt lat="45.74067" lon="6.28765">
        <ele>608.46153924844</ele>
        <time>2013-06-15T11:47:32Z</time>
      </trkpt>
      <trkpt lat="45.74074" lon="6.28749">
        <ele>607.208</ele>
        <time>2013-06-15T11:47:38Z</time>
      </trkpt>
      <trkpt lat="45.74082" lon="6.28735">
        <ele>603.608</ele>
        <time>2013-06-15T11:47:44Z</time>
      </trkpt>
      <trkpt lat="45.74089" lon="6.2872">
        <ele>600.37700096</ele>
        <time>2013-06-15T11:47:52Z</time>
      </trkpt>
      <trkpt lat="45.74096" lon="6.28703">
        <ele>598.0540533961</ele>
        <time>2013-06-15T11:48:00Z</time>
      </trkpt>
      <trkpt lat="45.74107" lon="6.28697">
        <ele>596.25225217145</ele>
        <time>2013-06-15T11:48:06Z</time>
      </trkpt>
      <trkpt lat="45.74118" lon="6.28685">
        <ele>593.80700288</ele>
        <time>2013-06-15T11:48:14Z</time>
      </trkpt>
      <trkpt lat="45.74135" lon="6.28669">
        <ele>592.37162849043</ele>
        <time>2013-06-15T11:48:23Z</time>
      </trkpt>
      <trkpt lat="45.74152" lon="6.2866">
        <ele>591.28499968</ele>
        <time>2013-06-15T11:48:34Z</time>
      </trkpt>
      <trkpt lat="45.74171" lon="6.28652">
        <ele>588.34735140025</ele>
        <time>2013-06-15T11:48:42Z</time>
      </trkpt>
      <trkpt lat="45.74189" lon="6.28638">
        <ele>586</ele>
        <time>2013-06-15T11:48:49Z</time>
      </trkpt>
      <trkpt lat="45.74225" lon="6.28619">
        <ele>583.87812503596</ele>
        <time>2013-06-15T11:49:02Z</time>
      </trkpt>
      <trkpt lat="45.74243" lon="6.2861">
        <ele>581.37737693618</ele>
        <time>2013-06-15T11:49:13Z</time>
      </trkpt>
      <trkpt lat="45.74261" lon="6.286">
        <ele>578.11089202346</ele>
        <time>2013-06-15T11:49:24Z</time>
      </trkpt>
      <trkpt lat="45.74281" lon="6.28594">
        <ele>576.37924048175</ele>
        <time>2013-06-15T11:49:33Z</time>
      </trkpt>
      <trkpt lat="45.74299" lon="6.28586">
        <ele>573.89367665203</ele>
        <time>2013-06-15T11:49:41Z</time>
      </trkpt>
      <trkpt lat="45.74318" lon="6.28582">
        <ele>569.72927032304</ele>
        <time>2013-06-15T11:49:51Z</time>
      </trkpt>
      <trkpt lat="45.74336" lon="6.28592">
        <ele>567.02500096</ele>
        <time>2013-06-15T11:50:00Z</time>
      </trkpt>
      <trkpt lat="45.74355" lon="6.28584">
        <ele>564.56087796304</ele>
        <time>2013-06-15T11:50:11Z</time>
      </trkpt>
      <trkpt lat="45.74372" lon="6.28573">
        <ele>563.92377010349</ele>
        <time>2013-06-15T11:50:17Z</time>
      </trkpt>
      <trkpt lat="45.74392" lon="6.28565">
        <ele>562.51955881768</ele>
        <time>2013-06-15T11:50:24Z</time>
      </trkpt>
      <trkpt lat="45.74407" lon="6.28555">
        <ele>560.55544601173</ele>
        <time>2013-06-15T11:50:29Z</time>
      </trkpt>
      <trkpt lat="45.74419" lon="6.28546">
        <ele>558.15784284766</ele>
        <time>2013-06-15T11:50:33Z</time>
      </trkpt>
      <trkpt lat="45.7443" lon="6.28552">
        <ele>556.35964047461</ele>
        <time>2013-06-15T11:50:36Z</time>
      </trkpt>
      <trkpt lat="45.74437" lon="6.28569">
        <ele>555.32</ele>
        <time>2013-06-15T11:50:40Z</time>
      </trkpt>
      <trkpt lat="45.7445" lon="6.28578">
        <ele>554</ele>
        <time>2013-06-15T11:50:47Z</time>
      </trkpt>
      <trkpt lat="45.74461" lon="6.28563">
        <ele>554</ele>
        <time>2013-06-15T11:50:51Z</time>
      </trkpt>
      <trkpt lat="45.74469" lon="6.28552">
        <ele>554</ele>
        <time>2013-06-15T11:50:54Z</time>
      </trkpt>
      <trkpt lat="45.74478" lon="6.28539">
        <ele>554</ele>
        <time>2013-06-15T11:50:59Z</time>
      </trkpt>
      <trkpt lat="45.74492" lon="6.28515">
        <ele>554</ele>
        <time>2013-06-15T11:51:05Z</time>
      </trkpt>
      <trkpt lat="45.74499" lon="6.28503">
        <ele>554</ele>
        <time>2013-06-15T11:51:09Z</time>
      </trkpt>
      <trkpt lat="45.74501" lon="6.28493">
        <ele>554</ele>
        <time>2013-06-15T11:51:17Z</time>
      </trkpt>
      <trkpt lat="45.74507" lon="6.28483">
        <ele>554</ele>
        <time>2013-06-15T11:51:21Z</time>
      </trkpt>
      <trkpt lat="45.74516" lon="6.28473">
        <ele>554</ele>
        <time>2013-06-15T11:51:25Z</time>
      </trkpt>
      <trkpt lat="45.74525" lon="6.28461">
        <ele>554</ele>
        <time>2013-06-15T11:51:29Z</time>
      </trkpt>
      <trkpt lat="45.74532" lon="6.28456">
        <ele>554</ele>
        <time>2013-06-15T11:51:32Z</time>
      </trkpt>
      <trkpt lat="45.74541" lon="6.28454">
        <ele>554</ele>
        <time>2013-06-15T11:51:35Z</time>
      </trkpt>
      <trkpt lat="45.7455" lon="6.28452">
        <ele>554</ele>
        <time>2013-06-15T11:51:38Z</time>
      </trkpt>
      <trkpt lat="45.74561" lon="6.28457">
        <ele>554</ele>
        <time>2013-06-15T11:51:42Z</time>
      </trkpt>
      <trkpt lat="45.74571" lon="6.28464">
        <ele>554</ele>
        <time>2013-06-15T11:51:46Z</time>
      </trkpt>
      <trkpt lat="45.7458" lon="6.28475">
        <ele>554</ele>
        <time>2013-06-15T11:51:50Z</time>
      </trkpt>
      <trkpt lat="45.74587" lon="6.28485">
        <ele>554</ele>
        <time>2013-06-15T11:51:54Z</time>
      </trkpt>
      <trkpt lat="45.74594" lon="6.28496">
        <ele>553.85900032</ele>
        <time>2013-06-15T11:51:58Z</time>
      </trkpt>
      <trkpt lat="45.74601" lon="6.28503">
        <ele>553.55900032</ele>
        <time>2013-06-15T11:52:01Z</time>
      </trkpt>
      <trkpt lat="45.74612" lon="6.28513">
        <ele>553.15900032</ele>
        <time>2013-06-15T11:52:05Z</time>
      </trkpt>
      <trkpt lat="45.74618" lon="6.28522">
        <ele>553</ele>
        <time>2013-06-15T11:52:08Z</time>
      </trkpt>
      <trkpt lat="45.74623" lon="6.2853">
        <ele>553</ele>
        <time>2013-06-15T11:52:11Z</time>
      </trkpt>
      <trkpt lat="45.74636" lon="6.2855">
        <ele>553</ele>
        <time>2013-06-15T11:52:18Z</time>
      </trkpt>
      <trkpt lat="45.74646" lon="6.28556">
        <ele>553</ele>
        <time>2013-06-15T11:52:21Z</time>
      </trkpt>
      <trkpt lat="45.74654" lon="6.28565">
        <ele>553</ele>
        <time>2013-06-15T11:52:24Z</time>
      </trkpt>
      <trkpt lat="45.74657" lon="6.28581">
        <ele>553</ele>
        <time>2013-06-15T11:52:28Z</time>
      </trkpt>
      <trkpt lat="45.7466" lon="6.28596">
        <ele>553</ele>
        <time>2013-06-15T11:52:32Z</time>
      </trkpt>
      <trkpt lat="45.74664" lon="6.2861">
        <ele>553</ele>
        <time>2013-06-15T11:52:36Z</time>
      </trkpt>
      <trkpt lat="45.74666" lon="6.28626">
        <ele>553</ele>
        <time>2013-06-15T11:52:40Z</time>
      </trkpt>
      <trkpt lat="45.74671" lon="6.28642">
        <ele>553</ele>
        <time>2013-06-15T11:52:45Z</time>
      </trkpt>
      <trkpt lat="45.74674" lon="6.28656">
        <ele>553</ele>
        <time>2013-06-15T11:52:49Z</time>
      </trkpt>
      <trkpt lat="45.74677" lon="6.2867">
        <ele>553</ele>
        <time>2013-06-15T11:52:53Z</time>
      </trkpt>
      <trkpt lat="45.74679" lon="6.28681">
        <ele>553</ele>
        <time>2013-06-15T11:52:56Z</time>
      </trkpt>
      <trkpt lat="45.74682" lon="6.28694">
        <ele>552.76899968</ele>
        <time>2013-06-15T11:52:59Z</time>
      </trkpt>
      <trkpt lat="45.74688" lon="6.28708">
        <ele>552.36899968</ele>
        <time>2013-06-15T11:53:03Z</time>
      </trkpt>
      <trkpt lat="45.74692" lon="6.28719">
        <ele>552.06900096</ele>
        <time>2013-06-15T11:53:06Z</time>
      </trkpt>
      <trkpt lat="45.74695" lon="6.28734">
        <ele>552</ele>
        <time>2013-06-15T11:53:10Z</time>
      </trkpt>
      <trkpt lat="45.74699" lon="6.2875">
        <ele>552</ele>
        <time>2013-06-15T11:53:14Z</time>
      </trkpt>
      <trkpt lat="45.74703" lon="6.28764">
        <ele>552</ele>
        <time>2013-06-15T11:53:18Z</time>
      </trkpt>
      <trkpt lat="45.74706" lon="6.28775">
        <ele>552</ele>
        <time>2013-06-15T11:53:21Z</time>
      </trkpt>
      <trkpt lat="45.74716" lon="6.28804">
        <ele>551.76999936</ele>
        <time>2013-06-15T11:53:29Z</time>
      </trkpt>
      <trkpt lat="45.7472" lon="6.28816">
        <ele>551.47000064</ele>
        <time>2013-06-15T11:53:32Z</time>
      </trkpt>
      <trkpt lat="45.74724" lon="6.28828">
        <ele>551.16999936</ele>
        <time>2013-06-15T11:53:35Z</time>
      </trkpt>
      <trkpt lat="45.74727" lon="6.28839">
        <ele>550.87000064</ele>
        <time>2013-06-15T11:53:38Z</time>
      </trkpt>
      <trkpt lat="45.74731" lon="6.2885">
        <ele>550.56999936</ele>
        <time>2013-06-15T11:53:41Z</time>
      </trkpt>
      <trkpt lat="45.74734" lon="6.28862">
        <ele>550.27000064</ele>
        <time>2013-06-15T11:53:44Z</time>
      </trkpt>
      <trkpt lat="45.74738" lon="6.28876">
        <ele>549.87000064</ele>
        <time>2013-06-15T11:53:48Z</time>
      </trkpt>
      <trkpt lat="45.74742" lon="6.2889">
        <ele>549.47000064</ele>
        <time>2013-06-15T11:53:52Z</time>
      </trkpt>
      <trkpt lat="45.74747" lon="6.28904">
        <ele>549.07000064</ele>
        <time>2013-06-15T11:53:56Z</time>
      </trkpt>
      <trkpt lat="45.74754" lon="6.28921">
        <ele>548.13999872</ele>
        <time>2013-06-15T11:54:01Z</time>
      </trkpt>
      <trkpt lat="45.74758" lon="6.28931">
        <ele>547.54000128</ele>
        <time>2013-06-15T11:54:04Z</time>
      </trkpt>
      <trkpt lat="45.74763" lon="6.28944">
        <ele>546.87787855764</ele>
        <time>2013-06-15T11:54:08Z</time>
      </trkpt>
      <trkpt lat="45.74767" lon="6.28958">
        <ele>546.47747828549</ele>
        <time>2013-06-15T11:54:12Z</time>
      </trkpt>
      <trkpt lat="45.7477" lon="6.28969">
        <ele>546.1771768001</ele>
        <time>2013-06-15T11:54:15Z</time>
      </trkpt>
      <trkpt lat="45.74774" lon="6.28983">
        <ele>545.54845268282</ele>
        <time>2013-06-15T11:54:19Z</time>
      </trkpt>
      <trkpt lat="45.74778" lon="6.28998">
        <ele>544.74925162813</ele>
        <time>2013-06-15T11:54:23Z</time>
      </trkpt>
      <trkpt lat="45.74783" lon="6.2901">
        <ele>543.96696729787</ele>
        <time>2013-06-15T11:54:27Z</time>
      </trkpt>
      <trkpt lat="45.74787" lon="6.2902">
        <ele>543.66766777412</ele>
        <time>2013-06-15T11:54:30Z</time>
      </trkpt>
      <trkpt lat="45.74796" lon="6.29049">
        <ele>542.85900032</ele>
        <time>2013-06-15T11:54:38Z</time>
      </trkpt>
      <trkpt lat="45.74803" lon="6.29062">
        <ele>542.45900032</ele>
        <time>2013-06-15T11:54:42Z</time>
      </trkpt>
      <trkpt lat="45.74813" lon="6.29067">
        <ele>542.05900032</ele>
        <time>2013-06-15T11:54:46Z</time>
      </trkpt>
      <trkpt lat="45.74825" lon="6.29066">
        <ele>541.65900032</ele>
        <time>2013-06-15T11:54:50Z</time>
      </trkpt>
      <trkpt lat="45.74836" lon="6.29061">
        <ele>541.25900032</ele>
        <time>2013-06-15T11:54:54Z</time>
      </trkpt>
      <trkpt lat="45.74847" lon="6.29056">
        <ele>540.73426628868</ele>
        <time>2013-06-15T11:54:58Z</time>
      </trkpt>
      <trkpt lat="45.74861" lon="6.29048">
        <ele>539.73526497031</ele>
        <time>2013-06-15T11:55:03Z</time>
      </trkpt>
      <trkpt lat="45.74873" lon="6.2904">
        <ele>539</ele>
        <time>2013-06-15T11:55:08Z</time>
      </trkpt>
      <trkpt lat="45.74885" lon="6.29033">
        <ele>539</ele>
        <time>2013-06-15T11:55:13Z</time>
      </trkpt>
      <trkpt lat="45.74895" lon="6.29055">
        <ele>538.58282758282</ele>
        <time>2013-06-15T11:55:21Z</time>
      </trkpt>
      <trkpt lat="45.74891" lon="6.29076">
        <ele>538.07777869719</ele>
        <time>2013-06-15T11:55:26Z</time>
      </trkpt>
      <trkpt lat="45.74887" lon="6.29096">
        <ele>538</ele>
        <time>2013-06-15T11:55:31Z</time>
      </trkpt>
      <trkpt lat="45.74885" lon="6.29115">
        <ele>538</ele>
        <time>2013-06-15T11:55:36Z</time>
      </trkpt>
      <trkpt lat="45.74883" lon="6.2913">
        <ele>537.67000064</ele>
        <time>2013-06-15T11:55:40Z</time>
      </trkpt>
      <trkpt lat="45.74881" lon="6.29145">
        <ele>537.27000064</ele>
        <time>2013-06-15T11:55:44Z</time>
      </trkpt>
      <trkpt lat="45.74879" lon="6.29164">
        <ele>536.76999936</ele>
        <time>2013-06-15T11:55:49Z</time>
      </trkpt>
      <trkpt lat="45.74878" lon="6.29183">
        <ele>536.27000064</ele>
        <time>2013-06-15T11:55:54Z</time>
      </trkpt>
      <trkpt lat="45.74876" lon="6.29199">
        <ele>536</ele>
        <time>2013-06-15T11:55:58Z</time>
      </trkpt>
      <trkpt lat="45.74872" lon="6.29232">
        <ele>536</ele>
        <time>2013-06-15T11:56:06Z</time>
      </trkpt>
      <trkpt lat="45.74871" lon="6.29249">
        <ele>536.43100032</ele>
        <time>2013-06-15T11:56:11Z</time>
      </trkpt>
      <trkpt lat="45.74869" lon="6.29265">
        <ele>536.83100032</ele>
        <time>2013-06-15T11:56:15Z</time>
      </trkpt>
      <trkpt lat="45.74866" lon="6.29283">
        <ele>537</ele>
        <time>2013-06-15T11:56:20Z</time>
      </trkpt>
      <trkpt lat="45.74863" lon="6.29302">
        <ele>537</ele>
        <time>2013-06-15T11:56:25Z</time>
      </trkpt>
      <trkpt lat="45.7486" lon="6.29322">
        <ele>536.57284394778</ele>
        <time>2013-06-15T11:56:31Z</time>
      </trkpt>
      <trkpt lat="45.74858" lon="6.29341">
        <ele>536</ele>
        <time>2013-06-15T11:56:37Z</time>
      </trkpt>
      <trkpt lat="45.74855" lon="6.29363">
        <ele>536</ele>
        <time>2013-06-15T11:56:44Z</time>
      </trkpt>
      <trkpt lat="45.74846" lon="6.29381">
        <ele>536</ele>
        <time>2013-06-15T11:56:50Z</time>
      </trkpt>
      <trkpt lat="45.74833" lon="6.29395">
        <ele>536</ele>
        <time>2013-06-15T11:56:58Z</time>
      </trkpt>
      <trkpt lat="45.74821" lon="6.29403">
        <ele>536</ele>
        <time>2013-06-15T11:57:02Z</time>
      </trkpt>
      <trkpt lat="45.74808" lon="6.29412">
        <ele>536.04004002721</ele>
        <time>2013-06-15T11:57:07Z</time>
      </trkpt>
      <trkpt lat="45.74793" lon="6.2942">
        <ele>536.54054036739</ele>
        <time>2013-06-15T11:57:12Z</time>
      </trkpt>
      <trkpt lat="45.74781" lon="6.29426">
        <ele>536.96700032</ele>
        <time>2013-06-15T11:57:17Z</time>
      </trkpt>
      <trkpt lat="45.74767" lon="6.29428">
        <ele>536.56700032</ele>
        <time>2013-06-15T11:57:21Z</time>
      </trkpt>
      <trkpt lat="45.74753" lon="6.29429">
        <ele>536.26700032</ele>
        <time>2013-06-15T11:57:24Z</time>
      </trkpt>
      <trkpt lat="45.7474" lon="6.29424">
        <ele>536.05317734248</ele>
        <time>2013-06-15T11:57:27Z</time>
      </trkpt>
      <trkpt lat="45.74727" lon="6.29417">
        <ele>536.44228288533</ele>
        <time>2013-06-15T11:57:30Z</time>
      </trkpt>
      <trkpt lat="45.74715" lon="6.29405">
        <ele>537</ele>
        <time>2013-06-15T11:57:35Z</time>
      </trkpt>
    </trkseg>
  </trk>
</gpx>